ECMWFFLT1_925_thetae_000.txt.gz
Theta_e
353 355 356 355 355 356 358 361 360 359 359 355 352 350 349 348 345 343 341 341 341 341 340 340 339 338 336 337 338 338 338 339 339 337 335 336 336 336 336 336 337 337 337 337 336 336 336 336 335 334 334 335 334 335 334 334 335 334 334 335 335 336 337
353 355 355 354 354 355 358 361 359 357 358 355 351 350 349 348 345 343 342 342 341 341 341 340 340 340 339 338 339 339 339 338 337 337 335 335 335 335 336 336 337 337 336 336 336 335 335 334 334 333 333 334 333 334 334 334 334 334 333 333 334 335 337
355 355 355 353 355 356 358 360 358 357 355 352 350 348 348 349 346 343 343 343 342 341 342 342 342 341 341 340 339 339 339 337 336 335 335 334 333 333 335 336 336 335 335 335 334 334 334 333 333 333 333 333 333 333 333 333 333 333 333 333 334 334 335
358 357 354 354 355 357 358 359 357 354 351 349 348 347 349 349 346 343 344 342 342 342 343 342 342 341 341 341 339 338 338 337 335 335 334 333 332 333 335 336 335 335 334 334 334 334 334 334 333 333 333 334 333 333 333 332 333 333 334 334 333 333 334
360 358 355 354 353 355 356 356 354 350 347 347 347 348 350 349 346 344 343 342 341 342 342 342 342 341 341 341 338 337 337 335 335 335 334 333 332 333 335 335 335 335 334 334 334 334 334 333 333 333 333 334 333 332 332 333 333 334 334 335 335 335 335
360 360 357 353 352 354 355 353 349 346 345 345 346 349 349 346 343 341 342 343 342 341 342 342 342 341 341 340 338 337 337 335 335 335 334 333 332 332 334 334 334 334 334 334 333 333 333 333 333 333 333 334 334 333 333 333 333 333 334 336 337 336 334
359 360 357 352 352 353 352 350 346 343 345 345 346 349 346 343 341 338 340 343 342 341 342 341 340 340 340 339 337 338 336 336 335 335 334 332 332 332 333 334 334 333 333 334 334 333 333 333 334 335 335 336 336 336 336 334 334 335 335 336 337 336 334
358 360 356 352 350 349 349 349 346 344 344 345 347 348 342 340 340 337 338 340 339 339 338 338 338 339 339 338 337 337 336 335 335 334 333 332 332 333 332 332 333 333 333 333 333 333 333 333 334 334 335 336 336 338 338 337 335 334 335 336 336 335 335
358 360 356 352 349 348 350 349 346 345 347 347 348 346 341 340 339 338 339 338 338 338 336 334 336 338 340 338 337 337 337 335 335 334 332 332 332 331 331 330 330 331 332 333 332 332 333 333 334 334 336 336 337 339 340 339 336 334 334 335 336 336 335
360 361 358 353 350 351 351 350 349 350 351 352 350 346 343 343 340 340 340 338 338 338 336 336 336 337 338 339 337 337 337 336 335 333 331 331 331 330 329 329 329 329 331 332 332 333 333 334 335 336 337 338 338 339 339 338 337 335 334 335 335 335 334
360 361 361 357 355 353 353 353 354 354 354 354 352 349 347 347 346 344 342 340 337 336 337 337 337 337 337 337 337 337 337 336 335 333 332 331 331 330 329 329 329 329 330 331 332 333 333 333 334 336 338 338 338 338 338 337 337 336 336 335 334 334 333
361 364 363 360 357 355 355 357 358 357 356 354 353 351 351 350 349 346 345 342 337 335 337 338 338 338 336 335 335 336 336 335 334 333 331 331 331 330 330 330 330 329 329 329 329 329 330 330 331 334 337 339 338 337 337 337 337 337 336 335 334 333 332
361 364 363 361 359 356 358 360 359 359 357 354 352 351 352 352 349 346 346 345 340 338 338 339 339 339 337 335 335 336 335 335 333 332 331 330 331 330 331 330 329 329 329 328 327 327 327 328 329 331 334 336 337 336 337 338 337 337 337 335 333 332 332
360 361 362 361 359 357 359 359 358 359 357 353 353 351 350 350 347 347 348 345 340 339 338 338 339 340 338 336 336 337 335 334 332 332 331 331 330 330 331 331 330 330 329 328 327 327 327 328 328 329 330 332 334 336 337 337 336 336 336 335 332 332 331
358 359 359 360 359 358 358 358 358 359 357 354 353 352 350 348 347 349 347 343 341 339 339 339 340 340 338 337 338 337 335 334 333 331 331 330 330 331 331 331 331 330 328 327 326 326 327 328 329 330 330 330 332 335 337 336 335 336 334 331 330 330 330
355 356 357 358 358 358 357 358 358 359 358 355 353 351 350 348 349 348 344 340 341 339 338 339 341 341 338 337 338 337 335 334 333 331 331 331 331 332 332 331 330 329 328 327 326 326 328 329 330 330 330 330 330 333 336 336 336 336 332 328 327 328 330
353 354 354 355 356 357 357 357 357 359 358 356 353 351 349 348 347 344 340 336 338 338 338 340 341 341 339 338 338 336 334 333 333 332 332 331 332 332 332 331 330 328 327 327 327 327 329 330 330 330 329 330 331 333 335 335 336 335 331 328 327 328 328
352 352 353 354 355 356 356 356 357 357 357 355 352 348 346 345 344 341 338 336 336 337 337 341 341 339 338 338 338 336 334 333 332 332 331 331 332 332 332 331 330 328 327 327 327 327 327 328 329 329 330 331 332 332 333 334 335 335 332 329 329 328 327
350 351 353 353 354 354 355 355 356 355 354 353 348 344 342 341 340 340 337 336 336 337 337 340 339 337 337 338 336 335 334 332 332 331 331 332 331 332 332 330 329 328 327 326 326 326 327 328 328 328 329 330 331 330 331 333 333 334 332 329 330 329 325
347 351 352 351 352 353 353 354 355 354 353 351 344 339 337 336 338 339 337 335 336 338 340 340 337 335 336 336 335 335 333 332 332 332 331 332 332 333 332 330 328 328 326 325 325 326 327 327 327 327 327 328 328 328 330 331 331 332 330 330 330 327 321
347 349 349 351 351 351 352 355 355 353 352 345 338 336 336 337 339 338 336 334 336 338 340 338 335 335 336 334 333 333 333 332 332 332 333 333 333 334 333 329 327 327 326 326 325 325 327 327 328 328 328 327 327 326 327 328 328 329 329 330 329 324 320
345 346 348 350 350 351 354 355 354 353 351 344 338 337 336 337 337 336 334 335 336 337 337 336 334 335 335 333 332 332 332 332 332 333 334 334 333 334 332 327 326 326 325 326 326 326 327 327 328 329 329 328 327 326 327 328 327 328 329 329 328 324 322
343 344 347 348 349 353 354 353 353 353 349 344 341 338 337 338 337 335 333 334 335 335 334 333 334 334 333 332 331 331 332 333 332 332 332 332 333 333 330 327 325 325 326 327 327 325 325 324 324 326 328 327 326 326 327 327 327 327 326 327 328 325 324
342 344 347 347 349 353 353 352 352 348 342 341 340 339 339 338 336 335 335 335 334 333 332 333 334 333 332 331 331 331 332 333 332 331 331 332 332 331 328 326 325 325 327 327 325 325 326 325 324 325 325 325 324 324 325 325 325 326 326 327 326 325 325
343 345 348 347 350 353 352 352 350 342 338 342 342 340 342 340 337 336 337 336 333 332 331 331 332 331 330 330 331 331 332 332 331 331 331 331 331 329 328 328 326 326 328 327 325 326 327 325 325 325 325 325 325 324 324 325 326 326 326 325 324 325 327
344 346 348 348 350 352 350 351 351 344 341 344 344 343 345 344 338 337 337 336 334 331 330 332 332 331 329 329 330 332 333 332 330 331 331 329 330 331 329 328 327 326 328 327 324 325 327 327 327 327 326 326 326 326 325 325 326 326 326 324 323 324 327
346 347 348 347 348 349 349 349 350 346 344 344 343 344 347 346 342 340 338 337 335 332 331 332 331 329 329 332 333 333 332 331 330 330 329 328 330 333 331 328 327 327 328 328 327 327 328 328 328 327 326 325 325 326 326 325 324 325 325 324 323 323 326
346 346 346 345 346 348 349 349 348 344 342 341 340 343 349 349 347 344 343 341 338 334 331 331 331 332 334 336 335 333 331 330 330 329 330 330 331 332 331 329 328 327 327 329 330 329 329 328 328 327 327 327 326 326 326 324 324 326 326 324 323 322 323
346 345 345 346 346 347 347 348 348 344 338 335 339 345 349 348 347 347 345 344 342 335 332 335 338 340 338 335 333 331 331 330 330 330 332 333 332 331 329 330 329 327 328 330 330 330 329 329 328 328 327 327 327 327 326 324 325 327 328 326 323 321 320
346 345 345 343 343 345 345 346 349 346 340 338 343 347 346 345 346 347 345 345 344 340 340 344 343 339 334 331 330 330 329 329 331 332 333 333 332 330 329 329 328 328 329 329 329 329 329 329 328 328 327 327 328 327 325 324 324 324 324 326 326 322 320
346 345 345 342 341 343 344 344 346 347 346 346 345 345 344 343 344 346 344 344 344 344 345 343 338 332 330 330 330 330 329 330 331 332 332 331 330 329 328 327 327 328 328 328 327 327 328 329 328 326 326 326 328 327 324 324 326 325 324 325 326 324 323
346 345 343 343 344 344 343 343 345 346 347 347 345 343 343 342 342 343 343 343 345 344 341 338 334 331 330 329 328 330 331 331 330 330 331 330 328 328 327 327 327 326 327 327 326 326 328 329 328 327 326 327 327 326 324 323 326 328 327 325 324 324 324
347 345 345 345 344 343 341 342 342 342 343 344 343 343 341 341 341 341 342 343 343 339 336 335 333 331 330 329 329 331 331 328 326 326 328 329 327 327 326 326 326 326 325 325 324 326 327 328 327 327 328 327 327 325 325 325 326 327 325 322 321 322 323
346 345 345 344 342 341 341 341 340 340 341 342 344 343 339 338 339 339 341 341 337 335 334 333 332 331 330 330 330 330 330 328 326 325 326 327 327 325 325 326 326 325 325 325 325 326 327 327 327 327 326 326 326 325 326 326 326 324 321 320 321 321 321
345 344 344 344 343 343 345 346 344 343 343 343 342 341 339 339 338 337 338 338 335 334 335 333 332 330 330 329 329 328 327 327 327 326 326 326 325 325 325 326 325 323 324 326 326 325 324 324 325 326 324 324 325 325 324 324 322 320 320 321 320 320 321
345 344 344 345 345 345 345 345 343 343 342 342 339 338 338 338 337 335 334 334 335 336 335 333 331 329 328 328 328 327 327 327 326 326 326 325 324 324 325 325 323 321 322 325 324 322 320 321 321 322 322 323 324 322 320 319 318 318 319 320 320 319 319
343 342 342 342 343 343 342 341 340 339 340 339 337 336 336 336 335 334 333 332 333 333 333 332 330 327 327 327 327 326 326 325 325 326 326 326 325 324 325 326 323 320 320 321 321 319 319 319 320 319 319 320 321 319 318 317 317 318 318 319 319 319 318
342 341 339 337 339 340 338 337 337 337 337 336 335 335 334 333 332 333 332 332 332 332 332 331 330 328 327 327 327 327 326 324 324 325 324 325 326 325 325 325 323 319 318 318 318 318 318 318 318 318 317 317 318 317 317 316 316 317 318 319 319 319 318

ECMWFFLT1_925_thetae_003.txt.gz
Theta_e
346 344 346 349 349 349 352 351 354 356 354 357 358 353 350 350 348 348 346 345 346 346 344 341 339 337 335 336 338 338 338 339 339 338 337 338 337 337 336 336 335 336 337 337 337 337 337 338 338 337 337 337 336 336 336 336 336 335 335 336 335 335 335
348 346 347 349 347 347 348 349 355 356 353 355 356 350 348 349 348 347 345 344 344 344 342 340 339 338 336 336 338 339 339 338 338 338 338 338 337 336 335 335 336 337 337 337 337 337 337 337 337 337 337 336 336 335 335 335 335 335 335 335 335 335 334
352 348 349 351 351 349 348 351 354 354 352 352 350 348 348 349 349 347 345 344 343 342 342 341 340 339 339 338 338 339 340 338 337 337 337 337 336 335 334 335 336 336 337 337 337 336 336 336 336 336 336 336 336 335 335 334 334 334 334 334 334 334 333
354 351 349 351 354 350 346 349 353 353 352 350 347 345 346 350 350 347 344 344 343 342 343 342 341 341 340 340 339 339 339 338 337 336 336 336 335 334 334 335 335 335 336 336 336 336 336 335 336 336 335 335 335 335 334 334 334 333 333 334 335 334 334
352 352 348 349 354 352 346 348 354 354 351 349 346 342 344 349 349 345 344 344 343 343 343 343 343 342 340 339 339 338 338 336 336 337 336 336 335 334 334 335 335 335 335 335 335 335 335 335 335 335 334 334 334 333 333 333 333 333 333 333 335 335 335
351 351 350 349 350 352 350 350 354 353 348 346 342 340 345 348 345 343 344 343 343 343 343 343 342 341 339 339 339 339 338 337 337 337 337 336 334 334 334 334 334 334 334 334 334 334 334 334 335 334 334 334 333 333 333 333 333 333 333 334 336 336 336
351 353 354 353 350 350 351 352 352 351 349 345 341 343 345 345 342 341 343 343 342 342 342 342 342 341 340 338 339 339 338 338 338 337 337 336 335 334 334 333 333 333 334 334 334 334 334 334 334 334 334 334 333 334 334 335 335 334 334 335 336 336 336
351 355 355 355 354 352 353 352 349 349 348 345 343 346 345 343 343 341 343 344 341 341 341 341 342 341 341 339 337 338 338 337 337 337 337 336 335 334 332 331 332 332 332 333 334 334 334 334 333 334 334 334 334 334 335 336 336 335 335 334 334 336 336
350 355 355 355 352 350 351 351 348 347 346 344 346 348 345 344 344 341 342 344 341 340 340 339 340 341 341 340 338 337 337 337 337 337 336 335 334 333 331 330 330 330 330 332 332 333 333 333 334 334 334 335 335 335 336 337 336 336 336 334 335 337 337
351 356 359 357 352 351 350 349 349 348 346 346 348 349 347 345 344 342 342 342 341 339 338 337 336 337 340 341 339 338 337 338 337 336 336 334 333 332 330 329 329 329 330 330 330 331 332 332 333 334 334 334 335 336 337 337 336 336 335 334 335 337 337
354 359 360 358 354 352 348 349 352 351 349 349 350 350 348 345 344 342 341 340 339 338 339 338 335 335 338 339 339 338 338 338 337 337 336 334 333 332 331 329 330 330 330 331 330 330 330 330 331 331 332 332 333 336 337 335 333 334 334 334 335 336 336
354 360 362 360 356 352 351 352 355 353 351 351 350 351 349 346 344 343 341 340 338 337 338 338 337 337 337 337 337 337 338 338 337 336 335 334 333 333 332 331 330 330 330 331 330 329 329 329 329 329 330 330 331 333 334 333 333 333 334 334 335 337 336
353 360 363 362 358 354 355 357 356 354 352 350 351 351 348 346 343 342 342 340 337 337 337 337 337 338 338 336 335 334 336 337 336 336 334 333 332 332 332 331 330 331 331 331 330 330 329 329 328 328 329 329 330 330 332 333 334 333 332 333 334 336 336
351 354 360 365 360 356 359 358 355 355 353 352 353 350 348 347 344 342 342 340 337 337 337 337 338 339 340 338 335 334 335 335 335 335 334 333 333 332 332 332 331 332 333 332 331 330 329 328 328 328 328 329 329 329 329 333 334 332 330 331 333 334 335
350 349 355 364 363 359 360 358 357 357 357 357 354 350 350 349 345 344 343 340 338 337 337 338 340 341 341 339 337 336 335 335 335 335 333 333 332 332 333 333 332 333 332 332 331 330 329 329 328 329 329 329 329 329 330 333 335 332 330 332 334 334 333
349 349 352 359 363 362 360 360 360 361 361 358 353 351 352 349 346 345 344 340 339 338 338 339 341 342 341 339 337 337 336 336 336 335 334 333 333 333 333 333 333 334 333 331 330 330 329 329 329 329 329 328 329 330 331 334 335 333 333 334 335 333 332
343 348 349 354 361 363 362 363 363 363 362 357 351 352 351 348 346 345 341 339 338 338 339 339 341 343 342 339 338 337 336 335 335 336 335 334 334 334 333 334 334 334 333 332 330 330 329 329 329 329 328 329 330 331 332 334 333 333 333 335 335 333 332
342 346 348 352 359 363 364 364 364 364 361 354 352 352 349 348 347 343 339 338 337 338 339 340 340 341 341 341 339 337 336 334 334 335 335 335 335 334 334 335 334 334 333 332 330 329 328 328 328 328 329 329 330 331 332 332 332 332 332 332 332 331 331
343 342 344 350 356 361 363 363 364 364 360 355 352 351 348 347 345 340 338 336 336 338 339 340 339 339 341 342 339 336 335 334 334 334 333 334 334 334 334 334 334 334 333 331 329 328 327 328 327 328 329 328 329 329 329 329 331 331 330 328 327 328 329
343 342 343 347 352 357 360 362 364 363 360 355 352 351 348 345 342 338 337 336 337 338 338 337 338 339 340 341 339 335 334 333 333 333 333 333 334 334 335 335 335 335 332 329 328 327 327 328 327 328 330 328 327 327 328 327 328 329 328 327 325 326 328
344 346 347 349 354 356 360 362 363 361 360 356 352 349 347 342 339 338 337 337 337 339 338 337 337 338 339 339 337 334 333 333 333 333 333 333 334 336 336 336 337 335 331 328 327 327 328 328 327 328 330 329 328 329 329 328 327 326 326 327 327 327 327
343 345 347 351 354 357 360 362 360 358 357 355 350 347 344 340 338 338 338 337 337 338 338 338 338 338 338 337 336 334 332 332 332 333 333 334 335 336 335 336 337 334 330 328 327 328 328 328 327 326 328 329 329 328 328 328 327 326 325 326 327 328 328
341 344 348 352 353 356 358 358 357 357 354 352 348 344 341 339 337 337 338 337 336 337 338 338 338 338 337 338 336 333 332 332 331 332 333 333 333 333 334 335 335 332 329 328 328 328 327 327 328 328 327 329 329 327 327 327 327 327 326 325 327 329 330
341 344 349 351 353 355 356 356 357 356 353 349 345 341 339 338 337 337 337 336 336 336 337 337 336 336 336 337 336 333 331 331 331 332 333 333 332 332 333 334 333 331 329 328 328 328 328 328 328 328 328 329 329 328 328 327 327 327 326 325 325 327 330
342 345 350 351 352 354 355 356 357 355 351 346 342 340 338 337 337 336 336 336 335 335 335 336 335 334 335 337 335 333 332 331 331 333 333 332 331 331 332 332 331 331 330 329 328 327 327 328 328 328 328 328 328 327 327 327 328 328 326 324 324 325 327
345 347 350 351 353 355 356 357 355 352 347 343 340 339 338 337 336 335 335 336 335 334 334 334 333 334 335 335 334 332 331 331 332 334 333 332 330 331 331 331 331 331 331 329 327 326 326 326 327 328 329 328 328 327 326 326 328 328 327 325 323 325 327
348 349 349 349 353 356 357 356 355 350 344 342 341 339 336 335 335 335 335 337 336 336 335 334 332 333 334 334 333 332 330 331 333 333 332 330 330 331 332 331 332 332 330 328 327 327 328 330 329 329 329 328 328 328 328 328 328 327 326 325 324 326 328
347 346 346 351 356 357 356 356 353 347 342 341 341 339 336 334 336 336 337 338 338 338 337 334 332 331 332 334 333 331 332 333 333 332 330 328 330 332 333 332 331 330 329 328 328 329 332 333 332 330 329 328 328 328 327 328 328 325 323 324 325 326 328
348 346 348 353 356 355 354 352 347 343 341 340 339 337 335 334 336 337 338 339 338 338 338 336 333 332 333 333 332 332 334 334 333 331 330 330 331 334 334 333 330 330 329 329 329 331 333 333 332 332 330 328 328 327 325 326 329 327 323 323 325 326 328
347 346 348 350 349 348 347 346 345 341 338 337 335 335 335 336 338 340 342 342 339 339 341 339 334 332 332 333 334 336 335 333 331 330 331 332 332 333 334 333 331 330 329 330 331 332 331 331 331 331 331 329 328 328 326 326 329 327 324 325 326 326 325
346 345 344 342 342 344 343 343 343 338 335 338 341 342 341 341 344 348 348 346 343 342 343 341 338 337 337 338 338 337 333 330 330 330 332 333 331 331 331 331 330 329 329 330 332 331 330 330 330 330 330 329 328 329 327 327 328 327 326 327 327 326 325
345 343 339 338 341 344 340 340 340 338 341 346 348 347 344 343 346 348 346 346 346 344 343 344 344 343 341 338 335 333 332 332 331 331 333 332 330 330 329 329 329 329 328 329 329 329 330 329 328 327 326 325 325 327 328 328 328 328 328 326 325 324 324
344 342 342 344 346 345 342 340 339 339 343 346 346 345 343 341 343 344 343 343 344 343 344 345 344 341 338 334 332 332 334 333 330 329 329 328 328 328 329 328 327 327 327 328 328 329 330 329 327 325 324 323 323 325 327 328 328 327 325 323 322 322 322
349 349 347 346 345 344 342 340 339 339 342 343 344 344 342 338 337 338 339 339 339 340 343 344 340 337 335 333 332 334 334 331 328 328 327 327 327 328 329 328 326 325 326 329 329 329 330 329 328 327 325 325 324 324 325 327 327 324 320 319 319 320 320
349 347 344 344 344 345 344 343 341 341 344 345 343 342 341 339 336 333 332 335 336 337 339 339 336 335 334 332 332 333 332 330 328 329 329 329 328 328 329 327 325 325 326 327 326 326 326 325 325 325 324 325 325 325 324 324 323 320 317 316 317 317 317
344 341 341 344 344 344 344 344 342 343 345 343 341 340 338 338 337 332 327 331 335 336 337 337 334 333 331 330 330 331 330 329 328 328 329 328 327 328 328 327 324 324 325 324 323 322 321 322 321 321 321 323 324 322 321 319 318 316 316 316 316 315 315
340 340 341 341 342 342 342 341 341 343 343 340 339 338 336 335 335 333 330 332 335 336 337 337 334 331 329 328 328 329 329 329 329 328 327 326 326 327 328 327 325 323 322 321 320 320 319 320 319 319 320 321 320 319 317 316 316 315 315 316 316 315 315
338 339 336 336 340 342 340 339 340 341 339 337 336 336 333 331 332 332 331 332 334 335 336 336 333 331 329 329 329 330 329 328 328 326 325 325 326 327 328 329 327 324 321 319 319 319 319 318 319 318 318 319 318 317 315 315 314 314 313 314 315 315 315

ECMWFFLT1_925_thetae_006.txt.gz
Theta_e
346 345 348 352 350 351 356 355 351 352 356 356 357 357 357 357 356 354 351 350 348 346 347 346 343 341 339 338 339 339 338 339 340 339 337 338 339 338 337 338 337 337 338 338 338 339 339 338 338 338 338 338 338 338 337 337 337 337 336 336 336 336 336
346 345 348 350 349 352 357 355 352 353 356 356 356 357 357 356 355 353 351 349 348 347 347 345 342 340 337 337 339 339 339 339 340 339 338 338 338 338 337 337 336 336 337 338 338 338 338 338 338 338 338 338 338 338 337 337 336 336 335 335 335 335 335
350 349 351 350 349 354 358 356 353 355 357 356 356 356 356 355 353 352 350 349 348 348 347 343 341 339 338 337 338 339 340 340 339 338 339 339 338 337 336 335 336 336 336 337 337 337 337 337 337 337 337 337 337 337 337 336 336 335 335 335 334 335 335
360 360 358 356 357 356 357 358 356 356 357 356 356 356 355 354 353 351 349 348 349 348 345 342 341 340 339 339 338 339 341 340 338 337 337 337 337 336 335 335 335 336 335 335 336 336 336 336 336 336 336 336 336 336 335 335 335 334 334 334 334 334 335
364 364 359 362 363 358 355 358 357 356 356 355 355 355 355 354 352 350 348 347 348 347 344 342 342 341 341 341 340 340 341 340 339 337 336 336 336 336 335 334 335 335 335 335 335 335 335 335 336 336 336 335 335 335 334 334 334 334 333 334 334 335 336
358 360 355 357 359 358 355 353 353 354 355 356 356 355 354 353 352 350 348 346 346 345 344 343 343 342 342 341 340 339 339 338 337 337 337 337 336 336 335 335 335 334 334 334 334 334 335 335 335 335 335 335 335 335 335 334 334 335 335 335 335 335 336
354 360 356 356 359 357 352 349 352 354 354 356 357 354 352 351 352 350 348 346 345 344 344 345 344 343 343 341 340 339 339 338 337 337 337 338 337 336 335 335 334 333 333 334 334 335 335 335 335 335 335 335 335 335 335 335 335 335 335 335 335 335 336
352 361 357 355 356 352 349 351 356 356 354 353 354 352 350 350 351 350 347 345 345 345 345 345 345 344 342 340 340 340 340 339 339 339 338 338 337 337 335 335 334 333 333 333 333 334 334 334 334 334 334 334 335 335 335 335 335 335 335 335 334 335 335
350 364 360 352 352 350 350 354 356 356 355 354 352 351 348 348 350 350 345 343 344 345 345 344 344 344 342 340 339 339 339 338 339 339 338 338 337 336 335 334 333 332 331 332 332 332 332 332 333 333 333 334 334 335 335 335 335 336 336 334 333 333 334
354 368 366 356 353 354 352 353 356 357 357 355 354 352 348 347 350 348 343 341 342 344 344 343 344 343 342 341 340 338 338 338 338 338 338 337 336 336 335 332 331 330 330 331 330 330 331 331 332 332 332 332 333 333 333 334 335 337 336 334 332 332 332
355 369 369 362 362 362 357 356 359 360 357 355 353 351 347 347 349 348 343 342 342 343 343 342 343 344 343 342 341 339 338 338 339 338 338 337 336 335 334 332 332 329 328 329 330 331 332 331 330 330 330 331 331 331 331 331 333 336 335 332 331 332 332
358 373 374 367 368 368 365 363 362 361 358 355 353 351 349 348 348 346 343 343 343 343 342 340 340 342 343 343 342 340 339 339 339 339 338 337 336 335 333 333 332 330 330 331 332 332 331 330 330 330 330 330 329 330 330 330 331 334 334 332 331 332 331
357 369 372 371 371 368 368 368 365 362 359 357 355 352 351 350 348 347 345 344 344 342 341 338 336 337 339 340 340 340 340 340 339 339 338 337 336 335 334 333 332 332 332 333 333 333 332 331 330 330 330 329 330 330 330 330 330 332 333 333 333 331 330
352 354 365 374 373 367 367 368 365 362 358 356 354 351 352 351 348 347 346 344 343 342 341 339 336 337 338 337 338 338 338 338 339 339 337 337 336 334 334 333 333 333 333 333 334 333 333 332 331 330 330 330 330 330 330 330 330 331 335 337 336 333 330
349 346 356 370 373 371 370 368 366 362 357 354 352 351 352 352 349 348 346 343 341 339 339 338 338 338 338 338 337 336 335 336 337 337 337 336 336 334 334 334 334 334 334 334 334 334 333 332 331 331 331 330 330 330 329 330 330 332 336 338 337 335 333
345 344 351 362 368 371 372 367 365 364 360 355 353 353 353 352 350 347 344 341 338 336 336 336 338 339 339 340 339 337 336 335 335 336 336 336 335 334 334 334 334 335 334 335 335 335 333 332 331 331 330 329 329 329 329 331 332 332 334 334 334 334 334
341 344 347 356 363 366 366 363 363 365 364 358 354 355 354 352 350 346 342 337 334 333 335 337 340 341 341 342 341 339 337 336 336 337 337 336 336 335 335 334 334 335 335 335 336 335 333 332 330 330 329 329 329 329 330 331 331 331 331 331 332 332 332
346 347 350 356 362 365 365 363 364 366 363 357 355 356 354 352 349 343 339 335 333 334 336 339 342 342 342 343 341 339 338 338 338 337 337 337 336 336 336 335 335 335 335 336 336 335 333 331 330 329 329 329 329 329 330 330 329 328 328 329 330 330 329
346 347 351 355 360 365 367 363 364 365 361 357 356 356 354 351 345 340 337 334 336 337 338 340 343 343 343 344 342 340 339 338 338 337 336 336 336 336 336 336 335 336 336 336 336 334 332 330 329 328 328 329 329 329 329 329 328 328 327 327 328 329 328
346 345 346 349 351 358 365 365 363 363 360 356 354 352 351 348 341 337 336 336 337 338 338 339 341 342 344 344 343 341 339 338 337 336 336 335 335 335 336 335 336 336 336 336 335 333 331 329 329 328 328 330 330 329 329 329 329 330 328 327 326 326 327
347 345 345 348 349 355 367 370 367 362 357 354 352 350 347 343 339 336 336 337 338 337 337 339 340 342 344 344 343 343 340 339 337 336 335 335 334 334 335 335 336 336 336 337 336 333 330 329 329 329 329 331 331 330 330 330 329 329 328 327 326 326 326
340 340 342 350 354 361 370 371 367 361 355 353 354 353 348 343 339 338 336 337 337 336 338 341 343 343 343 343 344 344 341 338 336 334 334 334 334 335 335 336 337 336 336 336 336 333 330 329 329 329 328 329 330 329 330 330 328 328 328 327 327 327 326
336 337 343 350 351 355 362 365 365 361 356 355 356 354 349 343 339 336 335 336 336 336 339 343 344 343 342 342 343 343 340 337 335 334 334 334 334 334 335 336 336 335 335 335 335 333 330 329 329 328 328 328 328 328 329 330 329 328 327 327 327 327 325
335 335 341 346 347 352 357 361 364 362 358 358 357 353 348 342 337 334 333 333 335 338 341 342 341 341 341 341 341 341 339 336 334 334 334 333 334 335 334 334 334 333 333 334 334 332 330 329 329 328 329 329 328 328 329 329 328 327 327 328 327 327 326
338 337 342 346 348 353 357 360 364 363 359 357 355 349 342 336 334 335 336 337 338 340 342 342 342 341 341 340 340 339 338 335 333 333 333 333 334 334 334 333 333 332 331 331 331 331 331 330 328 328 329 328 328 328 328 328 328 327 328 328 327 326 326
340 341 344 345 348 353 357 360 363 362 358 355 351 343 336 333 332 334 338 340 340 340 341 341 341 341 341 340 339 339 338 335 333 332 332 333 334 335 334 333 332 331 330 329 331 331 330 329 329 328 328 327 327 327 328 329 328 328 328 328 326 324 324
340 341 338 338 345 353 357 360 362 360 355 351 344 337 333 332 332 333 338 341 340 339 340 340 340 340 338 338 337 337 337 335 333 332 332 333 334 334 332 331 330 330 329 329 331 331 329 329 330 330 329 329 328 327 327 329 329 328 328 327 324 323 324
339 338 336 341 350 356 358 359 358 356 350 342 336 335 334 333 334 337 341 342 340 338 337 336 337 337 336 335 335 335 337 335 333 332 333 334 334 332 330 330 331 332 331 331 331 331 330 330 331 331 331 328 327 327 326 326 327 328 328 326 324 324 325
347 344 344 351 357 356 355 351 348 348 345 338 334 335 335 335 339 342 341 342 344 342 340 340 338 336 335 334 334 335 335 334 333 334 334 334 332 330 330 332 333 332 332 332 332 332 331 332 332 332 331 328 327 326 324 323 325 327 328 327 326 326 326
353 350 349 354 354 351 348 344 343 343 341 338 335 334 335 338 341 341 342 346 346 344 343 343 340 337 337 337 336 336 334 334 335 335 335 334 331 331 332 333 332 331 331 332 332 333 333 332 331 332 330 327 325 324 323 323 325 326 327 327 327 327 325
351 349 348 349 350 348 347 345 343 341 343 344 341 341 343 342 340 342 347 347 344 342 342 339 336 336 337 337 337 336 336 337 336 335 334 333 332 331 331 331 332 332 331 331 331 331 333 332 331 331 330 328 326 325 323 323 324 325 326 326 326 325 323
351 348 345 344 345 345 344 343 343 344 348 347 345 346 347 344 343 346 347 344 342 342 341 338 335 335 334 335 338 339 337 334 333 333 333 331 331 331 329 329 330 330 330 330 329 330 331 331 331 331 330 329 329 327 323 323 325 325 325 325 324 322 321
349 347 345 342 341 341 340 342 344 345 347 347 343 342 341 339 339 338 337 339 340 341 341 341 339 336 336 336 336 336 335 332 332 334 333 331 330 330 328 329 330 329 329 330 329 330 331 330 330 330 329 329 329 327 325 325 325 323 322 322 321 321 320
349 348 346 343 341 341 342 344 345 344 346 347 342 337 336 337 336 331 331 335 337 337 340 344 341 338 338 337 335 333 334 333 332 331 330 330 331 330 329 330 330 329 330 328 327 328 329 328 328 328 326 327 328 327 327 326 322 320 319 318 319 319 318
344 343 345 345 344 342 341 342 344 346 347 346 342 339 337 338 336 331 331 334 335 336 340 343 341 339 338 337 336 335 335 333 330 329 329 331 332 331 328 327 327 327 327 325 324 324 324 324 324 324 323 325 325 324 325 322 319 318 317 316 318 318 315
344 343 345 346 346 345 344 344 345 346 345 344 341 339 338 338 335 331 331 335 336 337 339 340 339 337 335 334 334 334 334 332 331 330 330 331 331 330 327 325 324 324 324 323 322 322 321 321 321 320 321 322 321 319 320 318 316 316 316 316 317 317 315
345 344 344 345 345 344 343 344 345 343 341 340 339 337 335 335 334 332 332 335 335 336 338 338 337 336 334 332 331 332 332 331 330 330 330 329 329 329 328 325 324 323 322 321 321 320 320 320 319 319 320 320 318 316 316 315 315 315 315 316 318 318 316
341 340 339 341 344 342 341 343 344 341 338 338 337 333 331 332 332 332 333 333 334 335 337 337 337 336 334 332 332 333 332 330 330 330 329 328 327 327 329 328 325 321 319 320 320 319 319 319 318 318 318 318 317 316 315 314 314 314 314 315 317 317 316

ECMWFFLT1_925_thetae_009.txt.gz
Theta_e
348 350 349 348 349 352 351 351 351 353 352 353 357 359 360 361 359 358 355 352 349 347 344 343 345 345 343 342 341 339 338 337 337 337 337 336 337 338 338 337 337 336 336 336 336 338 338 337 337 337 338 337 337 337 337 337 336 336 335 335 334 334 334
348 349 348 347 349 353 352 350 349 352 351 353 357 358 360 361 359 357 355 351 348 346 345 344 344 344 342 340 340 341 339 337 338 338 338 337 337 337 335 335 337 336 335 336 336 337 337 337 337 337 336 336 336 336 336 336 336 335 335 335 334 334 334
348 349 349 347 350 353 354 351 348 351 351 353 357 357 359 360 359 358 354 350 349 347 346 344 343 343 342 340 340 341 339 337 339 340 338 336 336 337 337 337 336 334 334 336 336 337 336 336 336 335 335 335 335 335 335 335 335 334 335 334 334 334 333
348 350 349 348 350 353 354 351 347 351 351 352 355 356 358 360 358 357 353 351 349 346 345 345 344 342 340 339 339 338 339 338 339 340 338 337 337 338 338 336 334 334 335 336 336 334 334 334 335 334 335 335 335 335 335 335 335 335 334 334 334 334 333
348 352 352 349 351 354 355 351 348 351 352 352 355 355 357 358 357 356 353 351 348 346 345 344 344 342 338 337 338 339 339 339 339 339 337 337 338 337 336 335 334 334 336 336 334 333 333 335 334 333 333 334 334 334 334 335 335 335 334 334 334 334 334
350 353 356 350 350 355 355 351 348 351 353 353 355 355 357 357 357 355 352 350 349 346 346 345 343 340 337 337 338 339 339 340 339 338 337 336 336 336 336 334 333 334 335 334 333 333 333 333 333 332 333 333 333 333 333 334 334 334 334 335 335 335 335
352 355 355 352 351 354 354 351 348 351 353 353 354 355 356 356 355 354 352 350 349 347 346 345 343 339 338 338 338 338 340 340 340 339 337 336 336 336 335 334 334 334 334 333 333 333 333 332 333 333 333 333 333 333 332 333 334 334 334 335 335 335 335
356 360 357 354 352 353 354 353 350 351 353 353 354 356 356 356 355 352 351 350 349 348 347 344 343 340 339 339 339 339 340 340 339 338 337 336 336 336 336 334 334 333 333 333 332 333 333 333 333 333 333 333 333 332 332 332 332 333 334 334 334 335 334
357 360 357 353 351 351 355 353 351 352 353 354 354 355 355 355 354 351 350 349 349 349 346 344 343 340 341 341 340 339 340 338 338 337 336 336 336 336 336 335 334 333 333 333 332 333 333 333 334 333 333 333 332 332 332 331 332 333 334 334 334 334 334
357 360 357 354 350 350 351 352 353 353 353 354 354 355 355 354 352 351 349 348 348 348 346 344 343 342 342 341 340 339 339 338 338 337 337 337 337 337 337 336 335 335 334 333 333 332 332 332 333 332 332 332 331 331 331 331 332 332 334 334 333 333 332
360 360 359 355 353 354 351 354 357 354 352 355 355 354 355 353 352 351 349 348 346 346 346 345 344 344 342 341 340 340 340 339 338 338 338 338 338 338 337 336 335 334 332 332 333 332 332 332 331 331 330 330 331 331 332 333 331 331 332 334 333 332 331
365 363 362 359 357 356 354 356 360 356 352 354 356 355 354 352 351 351 349 347 345 345 345 345 345 344 342 340 340 339 339 339 338 338 338 338 338 337 337 336 335 333 331 331 332 332 332 331 331 330 330 330 330 332 331 331 330 329 330 331 332 331 331
370 365 361 360 358 357 356 358 362 359 354 353 355 355 354 352 352 351 349 347 345 345 345 344 345 344 342 340 339 339 338 338 337 337 337 337 337 337 336 336 335 333 332 332 333 332 331 332 332 331 331 331 331 330 330 329 329 329 329 330 331 331 333
378 373 367 364 366 365 358 357 361 361 355 353 353 353 352 351 350 351 348 345 344 345 344 345 345 344 342 341 340 338 338 337 337 337 337 337 338 337 337 336 334 333 332 333 332 331 332 333 333 332 332 331 330 329 330 329 329 330 330 331 332 333 335
373 374 372 370 372 372 363 358 361 362 356 354 354 353 351 350 349 350 348 344 342 343 344 344 344 344 342 342 341 340 339 338 337 337 338 338 338 337 337 335 334 333 332 332 332 332 333 333 333 333 332 330 330 330 330 329 329 330 330 331 331 333 334
364 367 371 375 375 372 366 362 360 360 358 355 354 353 352 350 349 349 347 344 342 342 343 344 344 343 343 342 341 341 340 339 338 338 338 338 337 337 336 335 334 333 333 333 333 333 334 334 334 333 331 331 330 330 329 328 329 330 330 330 331 331 332
359 360 367 376 377 371 367 365 361 361 360 356 354 354 352 350 350 349 347 344 342 342 342 343 344 343 343 341 338 339 341 340 340 339 339 339 337 336 336 335 334 334 333 334 334 334 334 335 335 333 332 331 330 329 328 328 329 329 330 330 329 329 330
361 360 363 373 379 373 367 366 365 363 359 356 354 354 352 352 350 346 343 342 342 342 340 340 341 340 338 335 334 337 339 339 338 339 339 338 337 336 335 334 334 334 334 334 334 334 335 335 335 334 333 331 329 329 328 329 329 329 329 329 328 328 328
356 359 357 365 377 378 370 366 364 361 359 355 354 354 353 351 347 342 341 341 341 341 340 339 340 338 337 335 335 338 338 336 336 335 336 336 336 336 335 334 334 334 334 334 334 335 335 335 335 334 332 329 328 328 328 328 328 328 328 328 328 328 327
358 360 359 361 369 374 371 366 360 356 356 357 355 353 352 349 345 342 341 340 340 340 340 340 339 339 338 337 336 338 338 336 336 335 335 336 336 335 336 335 335 336 335 335 335 335 335 336 335 333 332 330 329 328 328 328 328 329 329 329 330 329 327
365 365 365 361 358 363 373 373 360 354 357 358 353 350 348 346 343 341 340 339 340 340 339 338 338 339 341 340 338 340 341 339 337 336 336 336 336 337 336 336 335 335 335 335 335 336 336 336 335 333 331 329 329 329 329 329 329 329 329 329 329 328 327
359 359 358 359 356 356 363 366 362 358 356 352 346 345 344 342 340 339 339 338 338 338 338 338 337 338 339 341 342 343 342 339 338 338 338 337 337 336 336 335 335 334 335 335 335 336 337 336 335 334 331 329 329 329 329 328 330 330 329 329 329 327 327
347 350 353 357 354 350 352 357 360 356 350 345 344 343 340 338 338 338 338 337 337 337 337 337 337 337 338 341 344 344 342 340 339 338 338 338 336 335 335 335 334 334 334 336 336 337 336 334 334 333 331 330 329 329 329 328 329 328 328 328 328 327 327
342 345 349 351 350 352 355 357 354 348 343 342 341 339 338 337 337 337 337 337 337 336 336 337 336 337 337 339 344 345 343 341 340 338 338 337 336 335 334 334 334 335 336 335 335 335 332 332 332 333 331 330 330 330 329 328 328 327 326 326 327 327 327
354 352 346 347 352 352 349 348 346 345 343 339 336 335 336 336 337 338 337 337 336 336 336 336 337 337 337 338 342 345 343 342 341 340 339 338 336 335 334 334 334 334 334 334 333 331 331 332 332 331 330 329 329 329 328 328 328 327 326 326 327 327 326
364 355 347 349 350 348 347 347 346 344 341 338 335 335 335 336 336 337 336 335 335 336 337 337 337 337 337 339 343 344 343 342 342 342 339 337 336 334 334 334 334 334 334 333 331 330 330 331 331 331 330 330 330 330 329 329 328 326 327 328 328 328 325
351 343 345 349 345 345 345 344 344 343 341 338 335 333 333 335 335 335 335 334 335 336 337 337 338 337 339 342 344 343 342 342 343 341 339 336 335 334 334 335 334 334 332 330 330 331 331 331 331 331 331 331 331 331 330 328 326 324 327 329 328 327 326
355 349 349 346 344 343 341 340 341 341 339 337 335 333 334 336 336 335 335 334 334 336 336 337 338 339 341 342 341 340 341 341 341 340 338 336 335 335 335 334 332 331 331 330 331 331 331 332 332 332 332 332 330 329 328 327 324 323 326 328 328 327 326
365 355 347 344 343 342 340 340 339 338 338 337 336 336 335 335 336 335 336 337 338 338 338 339 339 341 341 341 340 340 341 340 340 338 336 336 336 335 334 332 331 331 331 330 327 327 331 333 333 332 332 331 329 327 325 324 324 324 325 327 327 327 326
360 353 347 344 343 342 340 338 338 337 337 337 336 336 335 335 336 337 339 342 342 342 342 342 341 343 343 342 342 342 342 341 339 337 336 335 334 334 332 332 331 331 329 326 326 328 331 333 332 332 331 330 327 325 323 322 324 325 325 325 326 326 325
352 350 350 346 343 342 340 339 338 337 336 336 335 334 333 334 339 343 344 344 341 340 341 339 337 338 338 338 340 340 340 340 337 336 335 333 332 332 331 330 329 328 326 326 328 330 331 331 331 332 331 329 328 326 324 324 325 325 324 325 325 325 323
347 345 347 347 345 344 342 340 340 339 337 336 336 337 338 339 343 344 342 340 339 338 337 336 334 333 334 335 336 337 338 338 336 334 333 331 331 330 329 328 327 326 327 329 331 331 331 332 333 332 330 329 329 327 326 326 325 324 324 324 323 322 321
353 346 343 342 345 346 345 344 344 343 342 340 339 339 338 338 338 336 335 336 336 336 336 335 333 332 332 334 335 336 336 335 333 332 331 330 329 328 327 326 326 326 329 332 332 331 330 330 331 330 329 328 328 327 327 328 326 323 322 322 321 320 320
352 347 343 341 343 345 346 346 346 344 342 340 338 335 334 334 332 331 334 337 336 335 337 336 335 335 335 335 335 336 334 333 333 333 331 328 327 327 327 328 328 329 331 331 330 328 326 326 327 326 325 326 327 326 327 326 323 321 321 321 319 319 319
346 345 343 342 342 344 344 345 345 343 341 339 337 336 335 334 332 332 335 338 336 335 338 339 339 339 336 335 335 334 333 333 334 332 328 327 328 329 329 328 329 330 329 327 325 324 323 324 324 323 322 324 325 324 325 323 321 319 319 318 317 318 319
344 343 343 341 341 343 342 342 343 344 342 340 339 337 335 334 334 335 336 336 334 337 340 340 340 338 337 337 336 334 333 332 332 330 328 328 330 329 326 326 326 326 325 324 323 323 322 322 322 321 321 322 322 321 321 320 318 317 317 317 318 318 318
344 345 342 340 340 341 341 342 342 342 340 338 336 334 332 330 330 333 335 335 335 338 340 340 339 338 337 337 337 335 333 331 330 329 330 331 330 327 325 324 323 322 322 322 321 321 321 321 320 320 320 320 320 319 318 317 316 316 316 317 318 318 316
345 345 343 341 340 341 343 344 342 340 338 336 334 333 331 327 327 330 334 336 337 338 338 338 339 337 334 334 334 335 333 332 330 330 331 331 330 327 325 323 321 319 319 319 319 319 319 319 319 318 318 318 318 317 315 315 314 314 315 316 317 316 315

ECMWFFLT1_925_thetae_012.txt.gz
Theta_e
352 354 355 354 356 355 354 353 353 354 354 354 355 357 357 358 358 359 358 359 358 357 357 356 354 348 341 339 338 337 338 338 337 337 335 334 333 335 336 337 337 337 336 336 335 335 336 336 336 335 336 337 336 337 336 336 336 335 335 334 334 334 333
352 354 354 353 354 355 354 352 352 354 353 353 355 356 357 357 358 358 357 358 357 356 357 355 349 343 340 340 338 338 340 338 336 336 335 334 334 334 336 337 337 336 335 335 335 335 336 336 336 336 337 337 335 335 335 335 335 335 335 334 334 334 333
350 352 354 351 352 353 353 352 351 352 352 352 354 355 356 357 357 358 358 357 356 354 354 351 346 342 342 342 339 338 340 338 336 336 334 334 334 335 336 336 336 335 335 334 335 336 336 336 336 335 335 334 334 334 335 335 335 334 335 335 335 334 333
349 353 352 351 352 350 351 351 349 352 352 351 354 355 356 357 357 357 357 356 355 352 351 348 346 344 343 342 340 338 338 337 337 336 335 335 334 335 337 335 334 335 334 333 335 336 336 335 334 333 333 332 333 333 333 333 334 334 334 335 334 334 334
349 351 351 350 351 350 351 350 349 351 352 351 353 355 356 357 357 357 356 356 354 352 351 349 346 344 342 342 341 340 339 338 337 337 336 336 335 335 336 335 334 335 333 333 335 335 334 334 333 332 332 331 331 330 331 331 331 332 334 334 334 335 334
348 350 351 350 349 349 351 349 349 351 351 351 353 354 356 356 357 357 356 354 353 352 351 349 345 343 343 343 342 341 339 339 338 337 337 338 336 336 337 336 336 334 332 333 335 335 334 333 332 332 332 331 331 331 331 331 330 331 333 333 334 334 334
348 349 350 348 348 349 349 347 348 350 351 351 352 354 356 356 357 357 355 353 352 350 349 347 345 343 343 343 341 339 339 339 338 337 338 338 337 337 337 337 335 332 331 333 335 335 334 333 332 332 332 332 332 332 332 331 331 331 331 332 333 332 333
347 349 348 348 346 346 349 348 347 349 351 350 351 354 355 356 357 356 355 353 351 350 348 347 345 343 343 343 341 340 339 339 338 338 339 338 337 337 337 335 334 331 330 332 333 334 333 332 332 332 332 333 333 332 332 331 331 331 331 331 332 333 333
347 349 348 346 345 345 349 348 347 347 349 349 351 353 354 356 357 356 355 353 350 349 348 346 345 343 342 342 341 340 339 338 338 338 339 337 336 336 336 335 333 329 329 331 331 332 332 332 332 332 333 333 333 333 332 332 332 331 332 332 332 333 333
348 349 349 347 345 346 348 347 348 347 348 349 350 352 353 355 356 355 354 353 351 349 348 346 344 342 341 342 340 338 338 338 339 339 338 338 336 336 335 334 330 328 329 330 331 332 332 332 332 332 332 332 332 333 332 332 331 332 333 332 332 333 333
351 351 352 351 348 349 350 351 352 348 346 349 349 351 353 354 355 355 354 353 351 349 348 345 344 342 341 340 338 337 338 338 339 339 339 338 336 336 335 333 329 329 331 332 333 334 333 333 333 331 332 332 331 331 331 331 331 332 332 331 331 331 332
353 355 355 353 351 351 353 354 354 349 346 349 350 350 352 353 354 355 353 352 351 349 348 345 344 342 340 339 338 338 338 338 339 340 339 337 336 336 335 333 331 332 333 334 334 333 333 333 333 332 331 330 330 330 331 331 330 330 330 329 329 329 330
356 356 355 354 353 352 354 356 356 352 348 348 350 350 352 353 353 353 352 352 351 350 348 345 343 342 340 338 337 338 339 339 339 339 338 337 336 335 335 335 334 334 336 335 333 331 331 332 332 332 331 331 331 331 330 330 329 329 329 329 329 329 330
358 356 355 355 353 352 355 355 356 355 349 348 350 350 352 352 353 352 352 351 351 349 348 345 343 342 340 339 338 339 339 339 338 338 337 337 336 335 336 336 335 336 336 334 331 331 331 332 331 331 331 331 331 332 331 330 329 329 329 329 329 329 330
359 358 356 357 355 354 354 352 355 356 351 349 350 351 351 352 352 352 351 351 349 349 347 345 344 342 340 339 339 340 339 338 339 338 337 336 336 337 336 336 336 337 335 333 332 332 332 331 331 330 331 331 331 331 331 329 330 330 329 328 328 329 329
362 359 358 358 356 355 354 352 352 354 353 350 349 351 351 351 352 351 350 349 348 347 346 345 344 342 340 339 339 339 339 339 338 338 337 337 336 336 335 335 337 337 335 333 333 333 332 331 332 333 333 332 331 330 330 329 330 330 328 328 328 329 330
365 363 361 361 360 357 357 356 353 353 354 350 349 351 351 351 351 350 349 348 347 346 345 344 343 341 340 339 339 340 339 340 339 337 335 336 336 335 335 336 337 337 336 335 333 332 333 332 333 333 333 334 333 332 331 330 329 329 328 327 328 329 330
363 365 364 365 367 367 367 367 364 360 354 348 349 351 351 351 350 348 348 347 345 344 343 342 341 341 340 339 339 340 339 339 337 334 334 336 336 337 337 337 337 337 336 335 333 333 333 333 333 333 333 335 334 333 332 330 329 328 327 328 328 329 329
362 365 368 373 379 381 382 381 371 360 351 347 350 351 350 350 349 347 347 345 343 342 341 341 341 341 340 339 339 339 338 336 332 331 334 338 337 337 338 338 337 336 335 334 334 333 333 333 333 334 334 335 334 334 333 331 329 328 327 328 328 328 328
363 363 364 371 384 394 399 390 367 354 351 350 350 351 350 349 348 346 344 341 339 340 340 341 341 341 340 339 338 338 336 335 332 332 336 339 337 337 338 338 337 336 335 335 334 333 333 333 333 334 334 335 335 334 333 331 330 329 328 328 329 328 329
366 366 362 368 377 385 393 382 359 350 353 353 350 351 349 346 344 343 340 339 338 339 340 339 338 338 338 337 336 336 336 336 335 336 339 339 338 339 338 338 337 336 334 334 334 333 334 334 334 335 335 336 335 333 332 330 329 329 329 330 330 330 329
368 369 369 370 367 363 365 362 354 350 352 351 350 350 346 343 342 341 338 339 338 338 339 338 337 336 336 336 336 337 338 337 336 337 339 339 339 339 338 337 337 335 335 335 334 334 334 334 334 335 335 336 335 333 332 331 330 330 330 330 329 329 328
360 365 369 364 357 352 351 351 351 350 349 348 347 346 343 342 341 339 338 338 338 339 338 337 336 336 336 337 337 337 338 337 335 336 337 337 338 338 336 336 335 335 336 335 335 335 334 334 335 335 336 335 335 334 332 331 330 330 329 328 327 327 326
357 363 362 354 348 347 347 346 347 347 346 345 343 342 342 341 340 339 338 338 338 338 337 337 337 337 337 338 337 335 336 336 336 337 337 337 337 335 335 335 335 335 336 335 336 335 334 335 336 335 335 333 332 332 331 330 330 329 328 327 326 326 326
358 356 350 347 348 347 343 343 344 343 344 342 340 340 341 340 339 338 337 338 337 336 336 336 337 336 336 336 334 334 335 337 337 339 339 338 337 336 336 336 335 336 336 335 335 334 333 335 335 333 333 332 331 330 330 329 329 328 327 326 326 327 327
360 357 350 347 347 345 342 342 341 340 340 339 338 339 340 339 339 338 337 338 338 336 336 336 336 336 336 335 334 334 336 338 340 342 341 340 339 337 337 337 336 337 337 335 334 334 334 334 332 331 331 331 330 330 329 329 328 326 326 326 326 327 328
349 350 348 345 345 344 341 340 340 339 339 338 338 338 338 338 337 336 337 337 337 337 336 336 336 336 335 335 335 335 337 340 342 344 342 340 340 339 337 337 337 336 336 335 335 334 332 332 331 331 331 331 331 330 329 328 327 325 325 325 326 327 327
350 349 346 345 345 344 341 339 339 338 337 337 337 337 336 336 336 336 335 335 336 337 336 335 335 335 335 335 336 336 337 339 342 344 343 341 339 338 337 337 337 336 336 335 334 331 330 330 329 330 332 332 331 330 328 326 325 324 324 325 326 327 327
357 352 345 343 344 343 342 340 338 337 337 336 336 337 336 335 336 335 334 334 335 335 335 335 335 335 335 335 335 336 337 339 341 343 343 341 339 337 337 336 336 335 334 332 330 328 328 327 327 330 333 332 330 328 326 325 323 323 323 324 325 326 326
353 348 343 342 342 343 342 340 337 336 336 335 335 336 336 336 336 335 335 335 334 334 334 334 334 335 335 335 336 338 339 340 341 342 341 340 337 335 334 333 333 332 331 329 327 327 327 326 327 331 333 332 329 326 324 323 323 323 323 324 324 325 325
349 345 343 342 341 342 341 339 338 337 335 335 336 336 336 336 336 335 335 335 334 334 334 334 334 335 336 337 338 339 339 340 340 340 341 340 338 335 333 332 330 330 329 328 328 328 327 326 329 333 333 330 329 327 325 324 324 324 323 324 324 324 324
348 343 342 341 340 341 339 338 337 336 336 336 335 335 336 336 335 336 336 337 337 336 335 335 337 337 337 338 339 339 339 339 339 339 339 338 336 335 333 331 329 328 328 328 327 327 327 328 330 332 332 330 329 328 327 326 325 325 324 324 323 322 321
350 344 341 341 341 339 338 337 336 336 336 335 335 335 336 335 336 338 339 339 337 334 333 333 333 334 336 337 337 336 336 337 337 337 336 335 334 332 331 329 328 327 327 327 328 330 330 330 332 333 331 330 329 328 327 327 326 325 324 323 322 321 320
348 343 342 342 341 339 337 336 336 336 335 335 335 335 335 337 340 342 341 338 333 331 331 330 330 331 333 333 332 332 333 335 334 334 332 331 330 329 328 327 326 326 326 327 330 332 332 330 330 330 329 327 327 327 327 327 327 325 323 322 321 320 318
342 340 342 343 341 339 338 337 337 337 337 337 337 336 336 339 342 341 337 334 332 331 331 330 330 331 332 331 331 332 334 334 333 331 330 329 328 327 327 327 327 327 328 329 330 330 328 326 326 326 324 324 325 326 326 326 325 323 321 320 319 318 317
340 339 342 343 342 342 340 339 338 338 337 337 336 336 336 337 339 337 335 334 334 332 331 332 333 333 332 332 331 332 334 333 331 330 329 328 327 327 327 328 328 328 328 327 325 325 324 324 324 323 322 322 322 323 323 322 321 320 318 318 318 317 316
340 339 341 342 343 343 341 340 340 338 335 334 334 334 333 333 335 335 333 333 332 331 332 335 336 336 335 334 333 333 333 332 331 330 329 328 327 327 327 326 324 324 323 323 323 323 324 323 323 322 321 320 320 320 320 319 318 317 316 317 317 316 315
341 339 340 341 342 342 341 341 340 336 332 330 329 330 329 329 330 331 331 330 328 329 333 337 338 337 336 335 334 333 333 333 332 331 328 327 327 326 325 324 322 321 321 322 322 323 323 322 321 321 320 320 320 319 318 316 316 315 315 316 316 315 314

ECMWFFLT1_925_thetae_015.txt.gz
Theta_e
349 353 355 356 357 357 357 356 355 355 355 355 356 356 357 357 357 357 357 356 356 355 355 355 355 355 354 354 355 353 350 349 345 339 338 337 336 337 335 334 335 336 337 337 336 335 334 336 338 337 336 335 334 334 335 336 335 334 334 334 333 333 332
350 352 355 356 356 357 356 355 354 355 355 355 356 356 357 357 357 357 357 357 356 356 356 355 355 355 354 355 354 352 351 348 342 338 337 337 337 337 335 334 335 336 337 337 336 335 334 336 336 335 335 333 333 335 335 334 333 333 334 334 334 333 333
350 353 355 355 356 356 356 355 354 355 355 354 355 356 357 356 356 357 357 357 356 356 356 356 356 355 355 355 354 352 351 346 340 337 336 336 338 336 333 334 336 336 337 337 335 335 334 334 335 334 333 333 335 335 333 333 334 334 334 334 335 334 334
350 353 353 355 356 355 356 354 353 355 355 354 355 355 356 356 356 357 357 357 356 355 356 355 355 355 354 354 354 352 349 343 338 336 335 336 336 334 333 334 335 336 336 335 334 333 334 335 335 334 334 334 335 333 332 332 333 334 334 334 334 334 334
349 352 354 355 355 355 355 354 352 354 355 354 355 355 356 356 356 357 356 356 355 355 356 355 354 354 353 353 352 349 345 340 337 335 335 336 335 333 332 333 334 336 335 333 332 333 335 335 335 334 334 333 332 331 330 330 331 331 332 333 333 333 333
348 351 354 354 354 354 354 352 351 353 354 355 354 354 355 356 356 356 356 356 356 355 355 355 354 353 352 350 348 345 341 338 337 336 336 336 334 333 332 333 335 335 332 331 332 334 335 335 335 334 333 332 331 330 330 330 330 330 331 332 332 332 332
348 351 351 352 353 353 352 351 350 352 353 353 354 353 354 355 355 356 356 356 356 355 355 354 354 352 351 348 344 342 340 338 337 337 337 335 334 333 332 334 335 334 331 331 332 334 334 335 334 333 332 331 331 331 331 331 331 331 331 331 332 331 331
347 350 349 350 351 350 351 350 349 350 351 352 352 353 353 354 355 355 356 356 355 355 354 354 353 351 350 345 342 341 340 338 337 337 336 335 335 335 334 334 335 334 332 332 332 333 334 335 334 333 332 332 332 332 332 332 332 332 332 332 332 331 331
347 348 348 348 348 348 350 348 347 349 350 350 351 351 352 353 354 355 355 356 355 355 354 353 352 350 348 344 341 341 340 339 338 337 336 336 336 336 335 334 335 335 334 333 332 332 333 335 334 333 332 332 332 332 332 332 333 332 332 332 332 332 332
347 347 348 348 347 349 348 346 346 348 348 350 350 350 351 352 353 355 355 355 355 354 354 353 351 348 346 344 343 342 340 339 337 337 336 336 337 337 336 335 336 336 335 334 332 331 332 333 332 332 332 332 332 332 332 332 332 332 332 332 333 332 332
347 346 349 348 348 351 351 350 351 348 347 349 349 350 351 351 353 354 354 355 355 354 354 352 350 348 346 344 342 341 339 338 339 338 337 337 337 337 337 336 335 335 334 334 332 330 330 332 331 331 332 332 332 332 332 332 331 331 331 331 331 331 330
347 348 348 348 349 351 351 352 352 349 347 347 349 350 349 351 353 353 354 355 354 354 353 352 350 347 345 343 341 339 338 339 339 338 337 338 337 337 337 336 335 335 333 332 331 330 330 331 332 332 333 333 333 332 331 331 330 330 330 329 329 329 329
347 347 346 348 349 349 350 351 351 351 347 345 348 349 349 350 352 353 354 354 354 355 352 351 350 346 343 341 339 339 340 339 338 340 339 337 337 338 338 336 335 334 331 330 330 330 331 332 332 333 333 332 332 332 331 330 330 330 330 329 329 328 329
348 347 346 349 348 348 350 350 351 352 347 345 347 347 348 350 350 352 354 353 354 354 352 351 348 343 341 339 338 340 339 336 338 340 339 338 338 338 338 337 335 331 329 330 331 332 333 333 331 331 331 331 331 331 331 330 331 330 330 329 329 329 328
349 348 347 348 349 350 350 348 350 352 347 345 345 346 347 348 350 352 353 354 354 353 352 350 345 341 340 338 339 339 334 332 336 335 334 338 339 338 338 337 333 328 328 331 333 333 335 334 331 330 330 331 331 330 331 331 331 331 330 329 329 329 328
350 348 347 349 349 350 351 349 349 350 349 345 343 345 347 347 349 351 351 353 354 352 352 348 343 341 339 338 340 338 332 334 337 333 333 338 339 338 338 336 332 329 331 334 334 334 336 334 332 331 331 331 331 331 331 331 330 329 329 329 329 329 328
350 349 349 350 353 352 351 349 347 350 353 348 344 345 346 347 349 349 350 352 352 352 350 346 343 341 338 338 339 335 332 335 335 331 333 338 337 337 336 332 328 329 333 336 335 335 337 335 332 331 331 331 332 332 333 332 331 330 329 329 329 329 328
352 353 355 356 357 355 353 353 354 357 355 347 344 346 346 347 349 349 350 351 350 350 348 345 343 340 338 339 337 332 333 334 330 328 333 337 337 337 336 330 326 328 334 337 336 336 336 334 332 332 332 332 332 332 333 333 333 332 331 331 329 329 328
356 359 362 364 364 365 365 367 364 357 348 343 345 348 347 348 349 349 350 350 349 348 347 344 342 339 338 339 336 333 333 330 329 331 336 338 337 337 335 331 328 331 336 337 336 336 336 333 332 332 332 332 332 332 333 334 334 334 333 332 331 330 329
362 365 369 372 374 373 373 371 361 350 346 345 345 346 348 349 350 349 349 349 348 347 346 343 340 339 339 339 336 334 332 329 330 335 338 338 338 337 335 331 330 333 337 337 336 336 335 333 333 332 332 332 332 333 333 334 334 334 333 332 330 330 329
367 371 373 378 382 383 382 377 363 349 348 350 346 346 348 349 349 347 347 348 347 345 344 342 340 339 339 339 336 334 331 329 331 335 337 338 337 335 334 332 331 333 336 336 336 336 336 334 333 333 333 332 332 333 334 334 335 335 334 332 330 330 330
365 366 367 373 382 388 385 375 361 351 349 350 349 348 348 348 347 346 345 345 345 344 343 341 339 338 338 338 337 334 332 332 333 335 337 337 335 334 333 333 333 334 336 336 336 336 336 335 333 333 333 333 333 334 334 334 335 335 334 333 331 330 330
352 357 361 360 355 353 352 349 350 351 350 351 350 348 348 346 345 344 342 343 342 342 341 340 339 338 338 338 337 335 334 334 335 336 336 336 335 334 334 333 334 335 336 336 336 336 336 334 334 333 333 333 334 334 334 335 335 334 333 332 330 329 328
357 367 364 351 341 340 341 345 350 351 350 351 349 347 347 345 343 342 340 340 340 340 340 340 339 338 338 338 336 336 336 336 336 336 336 335 335 335 335 334 335 336 337 337 336 336 336 335 334 333 334 334 334 335 335 335 334 332 331 330 329 328 328
369 365 353 345 344 345 346 347 349 348 348 348 345 345 345 343 342 341 339 339 340 340 339 339 339 339 339 338 337 337 338 337 336 336 336 335 336 336 336 336 336 337 337 337 337 336 336 335 334 334 335 335 335 334 333 332 331 329 329 329 328 328 327
367 362 352 346 346 346 345 346 346 344 344 345 344 344 343 342 341 340 338 339 339 339 339 338 338 339 338 337 337 338 338 337 336 337 336 336 336 336 336 337 336 337 337 336 336 336 335 335 335 335 335 335 334 332 330 330 330 329 329 328 327 326 325
350 351 349 345 344 344 343 343 343 343 342 343 343 342 341 341 341 339 339 339 338 338 339 338 338 338 337 337 337 337 337 336 336 336 336 335 336 337 337 337 336 336 335 335 335 335 335 335 334 334 334 333 332 331 329 330 330 329 328 327 326 325 324
350 350 348 344 343 343 341 340 341 341 340 341 341 341 341 341 340 339 338 338 337 338 338 337 337 337 336 337 337 337 337 336 335 336 336 337 338 339 338 338 337 336 336 336 336 336 334 333 331 332 331 331 330 330 330 330 329 328 327 326 324 324 324
356 354 349 344 342 341 340 340 339 338 338 339 339 340 340 339 338 338 338 337 337 337 337 337 336 336 337 337 337 336 336 335 335 336 337 339 341 340 340 339 337 337 337 337 336 335 332 330 329 330 331 329 328 329 330 330 328 327 325 324 323 323 324
352 347 344 343 343 342 340 338 338 338 338 338 337 337 338 337 338 338 337 336 337 337 336 336 336 336 336 336 335 336 335 335 335 336 337 338 339 339 340 340 338 337 337 336 335 333 330 328 328 329 329 328 327 329 329 328 327 325 324 323 323 323 324
348 343 343 342 342 343 341 338 338 337 335 335 336 336 336 336 337 336 335 335 335 336 336 336 335 335 335 335 335 335 335 335 336 335 336 336 336 337 339 339 339 337 335 334 333 331 328 327 326 326 327 326 327 329 329 327 326 325 324 324 323 323 323
349 342 341 341 341 342 341 339 337 336 335 335 335 335 335 335 336 336 335 334 334 334 335 334 334 335 334 335 335 335 335 336 336 334 335 336 337 339 339 339 338 336 333 333 331 328 326 326 326 326 326 326 329 330 328 326 326 325 325 324 323 323 322
361 344 339 340 341 341 340 339 337 336 335 334 334 335 335 335 336 336 336 336 335 334 334 334 334 335 335 335 335 335 336 337 336 335 336 336 337 337 337 337 337 335 333 331 329 326 326 327 327 326 326 328 331 330 328 326 326 326 324 323 323 323 322
360 345 341 340 340 340 339 337 336 336 335 334 335 335 335 336 337 337 337 337 337 335 335 335 335 335 335 336 335 335 335 336 335 336 336 336 336 335 335 334 334 333 331 330 328 327 327 326 326 326 328 330 331 329 327 327 326 325 324 324 324 323 321
346 340 341 341 340 339 338 336 336 336 335 334 334 335 337 338 337 335 334 334 334 334 333 333 333 334 335 334 331 329 330 333 334 335 335 334 334 332 331 330 329 328 328 328 327 327 327 327 328 329 330 331 330 328 327 326 325 325 325 324 323 321 318
337 337 341 341 339 338 337 336 336 335 334 334 335 337 339 338 334 332 331 332 331 330 328 329 331 331 330 329 325 323 327 331 333 333 332 332 330 329 327 326 325 325 326 326 327 328 328 328 329 329 328 328 326 326 325 324 324 324 323 321 320 318 316
337 338 340 340 339 338 336 336 336 336 335 335 336 338 339 336 333 332 332 331 329 328 328 328 328 326 325 326 327 327 329 331 331 331 331 330 329 328 326 325 325 325 326 326 327 328 327 327 326 325 325 324 323 323 322 321 321 320 318 317 317 316 315
338 339 340 340 339 338 337 336 336 335 335 335 337 338 336 334 333 332 331 329 328 328 329 328 327 325 325 328 331 331 331 331 331 331 329 328 327 326 326 325 325 324 323 324 324 324 324 324 323 323 322 322 321 321 320 319 317 316 315 315 315 315 314

ECMWFFLT1_925_thetae_021.txt.gz
Theta_e
346 347 349 350 350 350 350 352 353 354 354 354 354 354 354 355 355 354 353 352 352 352 352 352 351 351 351 351 351 351 352 352 351 352 353 353 351 349 350 348 342 340 338 336 336 336 336 336 336 334 334 334 335 336 337 338 336 336 336 335 336 336 336
346 346 348 349 350 350 351 353 354 354 354 354 354 354 355 356 355 355 354 352 352 352 352 352 352 351 352 351 351 351 352 352 352 353 354 353 351 350 351 347 341 338 337 336 336 336 336 336 336 335 335 335 335 336 337 337 336 335 336 336 336 336 336
346 346 347 349 350 351 352 353 354 355 354 354 354 354 355 356 354 353 354 353 353 353 353 353 352 352 352 351 352 352 352 353 353 353 354 353 351 351 350 347 341 337 337 336 336 336 336 336 336 335 335 334 334 336 337 337 336 335 335 336 336 336 336
347 346 347 349 351 353 352 352 354 355 354 353 354 354 355 356 354 354 354 354 354 354 354 353 352 352 352 352 352 352 353 353 353 354 354 353 351 352 350 346 340 337 337 336 336 336 336 336 335 335 334 334 335 337 337 336 335 334 335 335 335 335 335
349 347 348 349 350 351 352 352 354 355 354 354 354 355 356 356 355 356 356 355 355 354 353 353 353 353 352 352 352 353 353 353 353 353 353 352 352 351 350 345 340 337 337 336 336 335 335 335 335 335 334 334 336 337 336 335 334 334 334 335 334 334 335
348 348 349 348 348 350 350 350 353 355 354 354 355 355 356 356 356 357 356 356 356 355 355 354 353 353 352 352 353 353 353 353 353 353 352 352 351 351 350 345 340 338 336 335 335 335 335 335 336 335 335 335 336 336 335 333 334 334 334 334 333 334 335
348 349 349 349 349 349 349 350 352 354 354 355 355 356 355 355 356 356 356 357 357 357 357 355 354 353 352 352 353 354 354 353 353 352 352 351 351 351 350 346 342 338 336 335 335 334 335 336 336 335 335 335 335 334 333 333 333 333 333 332 332 332 332
348 350 349 349 349 347 348 350 352 354 355 355 356 356 355 355 356 356 357 357 357 357 357 357 355 354 353 354 354 354 354 353 352 351 351 351 351 351 350 347 342 337 336 335 334 334 336 335 334 333 334 334 334 333 333 333 332 332 331 331 331 331 330
346 350 349 348 347 347 349 351 353 355 356 357 357 357 356 356 357 357 357 357 357 358 358 357 357 355 355 355 355 355 354 353 352 350 350 351 351 351 350 347 342 337 336 335 333 336 336 330 327 331 332 332 333 333 333 333 332 331 331 331 331 331 331
347 350 350 348 347 349 351 352 355 357 358 359 358 358 358 357 358 358 357 358 358 358 358 358 358 357 357 356 355 354 354 352 351 350 349 350 350 351 349 344 340 336 334 334 334 335 332 327 326 330 332 332 332 333 333 333 332 332 332 331 332 332 332
349 351 351 350 350 352 351 353 357 358 359 360 359 359 359 358 359 358 358 359 358 358 359 358 359 358 358 357 356 354 353 352 350 349 349 349 350 350 348 343 339 335 333 334 332 329 328 328 327 328 330 331 330 330 333 333 332 332 332 331 332 332 332
350 352 352 352 353 353 354 355 357 358 359 360 358 359 359 359 359 358 358 359 358 358 359 358 359 358 358 357 355 353 353 351 349 349 348 349 349 348 347 342 337 334 333 330 325 325 329 329 324 326 330 330 328 330 332 333 332 332 331 331 332 331 331
349 351 351 352 353 354 356 357 357 358 359 359 358 358 359 359 358 358 359 359 358 358 358 359 359 358 357 357 355 353 352 351 350 348 347 347 346 346 346 341 336 334 332 326 322 326 331 330 325 326 328 328 327 329 331 331 332 332 331 331 331 331 332
347 348 349 352 353 354 356 357 357 357 358 358 358 358 358 358 358 359 358 358 358 358 358 359 359 358 357 355 354 353 352 351 349 348 346 344 345 346 344 339 336 335 330 326 325 325 325 325 326 326 326 327 328 328 329 330 332 331 331 331 331 332 332
346 346 347 350 352 354 356 356 357 357 357 358 358 357 358 357 358 358 358 358 358 357 358 358 358 358 357 355 354 353 352 350 348 347 344 342 344 344 340 337 336 334 332 331 329 323 319 321 324 325 326 327 327 327 329 330 330 330 331 331 332 332 332
346 345 346 349 351 353 354 355 356 356 356 357 357 357 357 357 357 357 356 357 357 357 357 358 357 357 356 354 354 353 351 350 348 346 342 340 342 341 337 335 335 335 335 332 325 321 320 321 323 327 329 328 327 328 329 329 330 331 331 332 331 331 331
345 346 347 348 350 351 352 353 355 355 355 356 357 357 356 357 357 356 356 356 356 356 357 357 356 355 355 354 353 352 351 349 347 345 342 339 339 338 336 335 335 335 334 328 324 327 329 327 326 327 330 332 332 331 331 329 329 332 333 331 331 330 330
347 348 348 348 350 351 350 352 353 353 354 354 356 356 355 356 356 355 355 355 355 355 356 355 355 355 354 354 352 351 350 349 347 345 342 340 338 336 336 335 336 336 333 327 327 332 335 333 327 324 328 333 334 333 331 328 329 333 334 331 330 330 330
348 347 347 348 350 351 349 348 349 351 353 353 354 354 353 354 354 353 353 353 353 354 354 354 354 354 354 353 352 351 349 348 347 345 343 341 339 337 336 335 335 335 333 329 327 329 331 328 323 325 331 335 334 332 330 327 329 334 334 331 330 331 331
348 346 345 347 347 348 349 349 349 351 352 353 352 350 349 349 349 350 350 350 351 352 352 352 353 353 353 352 351 350 349 348 347 345 343 341 339 338 337 336 335 334 333 330 326 325 326 325 325 330 334 333 332 330 328 327 329 333 334 332 331 331 332
346 345 345 347 347 348 350 349 349 350 352 350 348 347 347 347 348 349 349 349 350 350 351 351 352 353 352 351 350 349 348 347 346 344 342 340 339 338 337 336 334 332 330 329 327 326 327 331 333 334 334 333 331 329 329 329 329 332 335 333 331 331 332
343 343 345 347 347 350 352 350 349 350 349 347 346 347 348 347 348 350 348 348 350 350 350 351 352 352 352 350 349 347 346 346 346 344 341 339 338 337 336 335 332 331 329 329 331 331 332 335 336 335 334 333 330 329 331 331 330 333 336 334 331 332 332
342 342 345 346 348 352 353 351 350 349 346 346 347 348 348 347 347 348 348 349 350 350 350 351 352 352 350 349 348 347 346 345 344 343 341 338 336 335 334 332 330 330 330 331 332 333 334 336 336 336 335 333 331 330 331 331 332 334 336 334 332 331 332
340 342 345 346 348 352 352 352 352 349 348 349 349 348 347 345 345 347 349 351 351 351 351 352 352 351 349 348 347 345 345 343 343 342 340 338 336 334 332 331 330 332 333 333 333 334 335 336 336 337 336 334 334 334 333 334 335 335 335 334 332 331 333
341 343 346 348 351 352 353 353 352 350 351 351 349 346 344 344 346 349 351 352 351 351 352 351 351 349 348 347 346 344 344 342 341 340 339 338 336 333 331 331 332 334 335 334 334 335 336 336 337 337 337 336 336 335 334 336 337 335 335 335 332 332 333
345 345 348 350 351 351 352 352 351 351 351 349 346 345 344 345 348 350 351 351 350 351 351 350 349 347 346 346 344 343 342 341 340 339 338 337 335 332 331 332 333 334 335 335 335 336 337 337 337 338 338 337 337 336 336 336 336 335 334 334 333 333 331
348 348 348 349 349 349 349 348 348 349 347 345 344 345 344 346 347 348 348 348 349 350 349 348 347 345 345 345 343 342 341 340 339 338 337 336 333 331 331 333 335 335 335 335 336 336 337 338 338 338 338 337 337 337 337 336 335 335 334 333 333 331 329
347 347 347 347 347 347 347 347 347 346 344 343 343 343 343 345 346 346 346 347 349 348 346 345 345 344 344 344 342 341 340 339 339 338 336 334 332 331 332 334 336 336 336 336 337 337 338 337 336 337 337 337 337 336 336 335 334 334 333 332 331 330 328
348 347 347 347 346 346 347 347 346 344 343 342 342 343 344 345 346 346 347 348 347 344 343 343 343 343 343 343 342 341 340 339 338 337 335 333 332 331 333 335 336 336 337 337 337 337 337 337 336 337 337 338 337 334 333 333 332 332 331 329 329 329 327
349 348 347 347 345 345 345 346 344 342 341 341 341 342 343 345 346 346 347 347 343 341 341 342 342 343 343 342 342 341 340 339 338 337 335 333 332 332 334 336 336 336 337 337 337 338 339 338 338 338 338 338 336 331 329 329 329 329 329 329 329 328 326
347 348 347 346 345 344 344 345 344 342 341 341 341 341 342 344 346 347 347 344 341 340 341 341 341 342 342 342 342 341 340 339 338 337 336 334 333 333 335 337 337 337 336 336 337 339 340 339 339 338 338 338 336 330 327 327 327 327 328 328 327 326 325
347 348 349 348 346 344 343 344 344 343 342 342 341 341 342 343 346 348 346 342 340 340 340 340 341 342 341 341 341 340 340 339 338 338 337 336 335 336 337 337 337 337 337 337 338 339 339 339 338 337 336 336 334 330 328 328 328 327 327 327 326 325 325
348 349 350 349 347 345 344 345 345 344 344 343 341 341 342 342 344 345 342 340 340 340 339 340 341 341 341 341 340 340 339 339 339 338 338 338 337 338 338 337 337 336 337 337 338 338 338 338 336 335 334 334 334 332 330 329 328 327 327 326 325 325 324
347 348 348 347 347 347 347 347 346 345 345 344 341 341 341 342 342 342 340 340 339 339 339 340 340 340 341 340 340 339 339 339 339 339 339 338 338 338 338 338 337 337 337 337 336 336 336 336 335 335 334 334 335 334 332 329 327 326 326 325 325 324 324
346 347 347 346 346 346 346 347 346 345 345 343 340 340 341 341 340 339 339 338 338 338 339 339 339 340 340 339 339 339 339 339 339 339 339 338 337 336 336 336 336 336 336 335 334 334 335 335 335 335 335 334 334 334 333 331 329 327 326 326 325 325 324
344 345 345 344 344 344 345 345 345 344 343 342 340 340 340 340 339 338 338 337 337 337 338 339 339 340 340 339 339 339 339 339 339 338 337 335 334 333 332 332 333 333 333 333 334 334 334 334 334 334 333 333 333 332 331 331 329 328 327 327 327 326 325
343 344 343 343 343 344 344 344 343 343 343 341 340 340 341 340 339 338 337 336 336 336 338 338 339 339 339 339 338 338 338 338 338 336 335 333 332 332 331 330 329 330 331 332 333 333 333 333 332 332 331 330 330 329 327 327 328 328 327 326 326 325 324
340 341 342 342 343 344 343 343 343 343 342 340 340 340 341 340 338 337 337 336 335 336 338 339 338 339 339 338 338 338 338 337 337 335 333 332 331 331 330 329 326 325 326 327 329 329 330 330 330 329 328 328 327 327 327 327 327 326 324 323 322 322 321

ECMWFFLT1_925_thetae_024.txt.gz
Theta_e
354 354 354 354 356 356 356 357 358 359 359 360 361 361 360 360 359 359 361 363 363 364 364 364 364 364 364 364 363 363 363 363 363 363 362 361 359 358 358 357 357 355 354 353 352 351 350 348 346 344 343 342 342 341 341 342 342 341 340 341 340 340 340
353 353 353 354 355 356 357 358 359 360 359 360 361 361 360 360 360 360 361 363 364 364 364 364 364 364 364 364 364 363 363 363 363 363 362 361 360 360 359 357 357 355 355 353 351 350 350 347 345 343 342 342 341 341 341 342 342 340 339 340 340 340 339
351 353 353 354 356 357 357 358 359 359 359 360 361 360 360 361 361 361 361 363 364 363 364 365 365 364 364 364 364 364 364 364 364 363 362 361 361 360 359 358 356 355 355 353 350 349 348 346 345 343 342 342 341 341 342 342 342 340 339 340 340 340 339
352 352 353 354 356 358 357 358 359 360 358 359 359 360 360 361 361 362 361 363 364 364 364 365 365 364 364 365 364 364 365 364 364 364 363 361 361 360 358 357 356 354 354 352 349 347 346 345 344 343 342 342 342 341 341 341 341 341 340 341 340 340 340
352 352 352 354 355 357 359 357 358 360 359 358 359 360 360 361 361 362 362 362 363 363 363 364 365 365 364 365 365 365 366 365 365 364 363 362 361 359 358 357 355 354 353 351 348 347 346 345 343 343 343 342 341 341 341 341 341 341 341 341 341 341 340
352 352 353 353 353 356 358 356 358 360 358 358 359 360 360 360 360 361 361 362 363 363 363 364 365 365 365 365 364 365 366 366 365 364 363 362 360 359 357 356 355 353 352 350 348 347 346 344 343 342 342 341 340 341 341 341 341 340 341 341 341 341 339
352 354 354 353 353 355 355 356 358 359 358 358 358 359 359 359 360 360 360 362 362 362 363 364 364 365 365 365 364 365 366 366 365 363 362 361 359 358 357 356 354 352 351 350 347 346 345 343 342 341 342 341 338 337 340 341 339 338 339 340 341 340 339
352 355 354 353 353 352 353 355 357 358 358 358 358 359 359 358 360 360 360 361 362 361 362 362 363 365 365 365 365 365 365 365 365 363 362 361 359 358 357 355 353 351 351 349 347 345 344 343 342 342 341 339 336 336 338 340 338 335 337 339 340 339 338
352 356 355 352 351 350 352 354 356 358 358 359 358 359 359 359 359 360 360 360 360 361 361 360 362 364 365 366 365 365 366 365 364 363 361 360 358 356 356 355 353 351 350 349 347 343 340 340 341 340 338 337 338 338 335 335 334 332 335 339 339 339 337
352 356 356 353 350 351 351 353 357 359 359 361 360 359 361 360 359 360 360 360 360 361 361 360 361 363 366 367 365 366 366 365 364 362 361 359 357 355 355 354 353 351 349 349 346 340 336 338 339 337 335 336 339 337 332 332 331 329 333 339 339 338 338
353 356 358 355 353 352 353 355 359 361 362 364 362 361 362 360 360 360 360 360 360 360 361 361 361 362 365 366 366 366 366 365 364 362 360 359 356 354 354 354 353 351 349 348 345 340 338 337 337 336 333 332 333 332 331 333 329 326 333 339 339 337 337
356 358 359 356 355 355 356 359 361 362 364 365 363 363 363 362 361 361 361 361 360 359 361 361 361 362 363 366 366 365 366 365 363 361 360 359 356 354 354 353 352 351 349 347 344 340 338 335 335 334 330 326 329 331 333 332 327 326 331 338 339 336 334
357 359 359 358 357 357 360 363 364 365 366 367 365 364 364 363 362 361 362 362 361 360 361 362 362 362 363 365 366 366 366 365 363 361 360 359 357 354 353 352 351 350 348 347 344 340 338 335 334 332 327 324 327 330 332 330 327 327 330 335 338 335 334
356 356 358 358 359 361 363 365 366 366 367 367 365 365 365 364 363 363 364 363 363 361 361 362 364 364 364 365 365 366 367 366 364 362 360 359 356 354 353 352 350 348 347 346 342 338 337 333 330 327 326 326 327 329 332 330 326 326 328 331 335 337 338
355 354 357 358 360 362 364 365 367 367 366 367 366 365 366 365 365 365 365 365 364 363 362 363 364 365 365 366 366 367 367 366 364 361 359 358 355 353 353 351 348 347 347 346 342 337 335 330 324 323 326 329 329 329 332 331 325 323 327 331 336 339 338
355 352 355 358 360 361 362 364 366 366 366 367 366 366 365 365 365 365 365 365 365 364 364 364 365 366 366 366 367 367 366 365 363 360 359 357 355 353 352 349 347 346 347 347 341 335 334 328 322 324 330 333 332 331 332 331 326 322 326 332 336 338 337
352 351 353 356 359 360 361 363 365 365 366 365 366 366 366 366 366 366 364 366 365 365 364 364 366 367 367 367 367 366 365 364 362 360 358 356 355 353 351 348 346 346 346 345 340 335 332 326 324 331 335 334 333 332 331 330 326 324 326 329 330 332 335
352 353 354 356 359 360 360 361 364 365 364 364 366 368 367 367 367 366 365 365 365 365 364 364 365 367 367 367 367 366 365 362 361 360 357 356 355 354 352 348 345 346 347 344 339 335 331 327 330 336 335 332 333 334 332 330 326 324 324 325 326 328 332
352 353 354 357 360 360 359 361 362 363 364 364 367 367 366 367 367 366 366 365 365 365 364 364 365 366 367 368 367 367 364 361 360 359 357 356 354 353 351 347 345 345 345 343 340 334 330 330 333 334 331 331 335 336 335 333 329 325 325 326 327 328 330
351 353 355 356 358 359 360 360 361 363 365 365 364 365 365 365 365 366 365 365 365 365 364 365 365 366 367 367 366 366 365 362 360 358 357 355 352 351 349 347 345 343 342 342 341 336 333 334 333 330 329 331 334 334 334 335 333 331 331 329 327 327 331
352 354 355 357 358 358 359 360 360 363 364 363 363 364 365 365 364 364 364 365 366 365 365 365 366 366 366 366 366 365 364 362 359 357 357 353 351 350 349 347 345 342 340 341 340 338 336 335 334 332 332 333 333 332 333 334 334 334 334 331 327 328 330
350 351 353 356 356 358 359 359 359 362 363 363 362 363 364 362 361 362 364 365 365 365 365 365 366 366 365 365 365 364 363 361 358 356 356 353 350 349 348 346 344 341 340 340 338 337 336 335 334 334 334 334 333 333 333 333 334 335 335 332 330 328 329
345 348 351 352 353 357 360 358 359 362 363 361 360 359 360 358 358 362 364 364 364 365 365 365 364 364 364 364 364 362 361 359 357 356 355 352 350 348 347 345 343 341 340 338 336 334 333 332 332 332 333 334 334 335 335 335 335 335 334 332 329 327 330
343 345 347 350 353 358 359 357 358 359 359 358 358 358 359 358 360 363 364 363 364 364 364 363 363 364 364 363 362 360 359 356 354 355 354 352 350 348 346 345 342 340 339 337 335 334 333 332 332 332 334 336 336 336 336 335 335 336 335 333 328 327 332
345 346 349 352 354 356 357 357 358 358 359 361 362 362 361 361 361 362 363 363 364 363 363 362 362 363 362 361 360 358 356 353 352 353 353 352 349 347 346 345 342 340 337 335 335 335 334 334 334 334 336 336 336 336 335 335 335 336 336 336 333 331 333
348 348 350 352 354 357 360 360 360 360 362 363 363 363 362 361 361 362 363 363 362 361 361 361 361 361 360 359 358 356 353 351 350 351 352 351 349 347 345 344 342 339 337 335 335 335 335 336 336 336 337 337 337 336 336 336 337 337 337 338 336 334 335
353 353 353 355 358 360 360 360 361 363 363 362 362 361 360 360 362 363 363 362 361 361 361 360 360 359 357 357 355 353 352 350 350 350 350 350 349 346 343 342 340 339 337 337 337 337 337 337 337 337 338 338 338 338 338 338 339 339 339 338 337 335 334
353 355 356 358 359 359 359 361 363 363 362 361 360 360 360 362 363 363 362 361 361 361 360 358 357 356 355 354 352 351 350 349 349 349 348 348 347 345 342 340 339 339 339 339 339 338 338 338 339 339 339 340 340 341 341 341 340 339 339 339 337 334 333
354 355 355 357 358 358 360 362 361 359 358 357 358 359 360 361 361 361 361 361 360 357 356 356 355 354 353 352 350 349 349 348 347 347 346 346 345 344 341 340 340 340 340 340 339 339 339 339 339 340 341 342 343 343 341 341 340 339 338 337 335 332 331
354 353 353 355 356 357 358 358 357 356 355 355 357 358 359 360 361 361 360 359 356 354 355 354 353 352 352 350 349 348 347 347 346 346 345 344 342 342 341 340 340 341 340 340 339 339 339 339 340 341 342 342 343 341 340 339 338 336 335 333 332 330 329
352 352 353 353 355 355 355 355 356 355 355 355 356 357 358 359 361 361 358 355 353 353 354 353 352 351 350 349 348 347 346 346 345 344 344 342 341 342 342 340 341 341 340 340 339 339 339 341 341 342 342 342 342 340 339 338 336 333 331 330 329 329 328
354 354 355 355 355 355 354 355 356 356 356 356 355 356 358 359 360 359 355 353 353 353 352 352 351 351 349 348 347 346 345 345 344 343 343 341 341 342 341 341 341 340 340 340 340 339 340 343 342 342 342 342 342 340 337 336 335 332 330 328 328 328 327
355 355 357 357 357 356 355 356 357 357 357 356 354 354 356 357 357 355 352 352 352 352 351 351 350 349 348 347 347 345 345 344 344 343 342 342 342 341 341 340 341 340 340 340 339 338 340 342 342 342 341 342 341 339 336 335 334 334 332 330 328 327 327
354 355 356 357 358 358 357 357 357 357 356 355 354 353 354 354 353 352 351 351 350 350 351 350 349 348 347 346 346 345 344 344 343 343 342 342 341 341 341 340 340 340 340 339 338 339 340 341 342 342 340 340 340 338 336 334 334 333 333 333 331 329 327
353 354 355 356 357 357 357 358 357 356 355 354 353 353 352 352 350 349 349 349 349 350 350 349 347 347 346 345 345 344 343 343 343 342 342 342 339 338 339 339 339 339 339 338 338 338 338 339 340 340 339 339 338 337 336 335 334 333 332 332 331 330 329
351 352 354 353 354 355 356 356 356 356 354 353 352 352 351 350 349 348 347 347 348 349 349 348 347 346 344 344 344 343 343 343 343 342 343 341 337 335 336 336 337 338 338 337 337 337 336 336 337 337 337 337 337 336 335 334 334 333 332 331 330 329 329
348 350 351 351 351 353 353 353 353 354 353 352 351 350 350 349 348 347 346 346 347 348 349 348 347 346 344 342 342 342 342 342 342 342 342 340 337 336 335 333 334 335 335 335 335 335 334 334 334 335 336 336 335 334 333 332 332 331 330 328 328 327 327
346 347 348 349 351 352 351 351 352 351 350 350 350 350 349 349 348 347 347 346 346 347 348 347 346 345 344 343 342 341 341 341 342 341 341 339 338 337 336 334 332 331 330 331 332 333 333 333 333 334 335 334 333 331 331 330 329 328 328 327 326 326 326

ECMWFFLT1_925_thetae_027.txt.gz
Theta_e
351 347 348 353 358 358 358 359 360 359 359 359 359 359 356 355 357 360 362 364 367 368 369 368 367 366 366 366 365 364 364 363 361 360 360 360 359 357 356 356 356 354 354 353 353 352 349 348 347 345 344 344 343 343 342 343 343 342 342 342 341 341 340
351 348 346 351 356 359 358 359 361 361 360 360 361 360 357 355 357 360 362 364 367 369 370 369 369 367 367 367 366 365 365 364 363 361 360 360 360 359 357 356 356 356 355 353 352 352 350 348 347 345 345 344 343 344 343 342 343 342 342 342 341 341 340
347 350 350 352 358 361 359 359 361 361 360 361 361 360 359 358 359 360 361 364 367 368 369 370 370 369 368 368 367 367 367 365 364 362 361 360 360 360 358 357 357 357 356 354 353 352 351 350 348 346 345 345 343 343 343 343 344 343 341 341 341 341 340
346 351 353 356 359 361 360 360 361 362 361 360 362 362 362 360 361 361 361 364 368 368 368 369 369 369 368 368 368 368 368 366 365 363 362 361 360 360 359 358 359 357 355 355 354 352 352 350 348 347 346 345 343 343 343 343 344 343 341 341 341 340 340
348 351 354 357 359 360 361 360 361 363 361 360 362 363 364 363 363 362 362 365 367 368 368 368 368 369 368 369 368 368 369 367 366 365 363 362 361 361 361 360 359 357 355 355 354 352 352 350 348 347 346 344 343 342 342 343 344 343 342 342 342 341 340
345 348 353 357 358 359 361 360 361 363 361 360 362 364 365 364 364 363 363 365 366 367 368 367 367 369 369 369 368 368 369 369 368 366 364 364 362 362 363 361 361 359 355 355 355 353 351 349 347 347 345 343 343 343 343 343 343 343 343 343 343 342 341
341 346 352 357 358 358 359 359 361 363 362 360 361 364 365 364 364 362 362 364 365 366 367 367 367 367 369 369 368 368 369 369 369 368 366 365 364 364 365 363 362 359 357 357 356 354 351 349 347 346 345 343 342 343 343 342 342 343 344 343 343 343 341
340 347 353 357 357 356 358 360 360 362 362 359 360 364 364 363 363 360 361 363 363 364 365 365 365 367 369 369 369 369 369 369 369 368 367 366 365 365 365 364 363 361 358 358 356 353 351 349 347 346 345 343 342 343 344 343 342 343 344 343 343 343 341
342 351 356 356 352 353 358 359 361 363 363 360 361 364 363 361 361 359 359 361 362 363 363 362 363 366 369 370 370 370 369 368 369 369 367 367 366 366 365 364 363 361 359 358 356 353 352 350 347 346 345 343 343 344 343 343 343 343 343 343 343 342 341
342 350 358 358 353 354 356 358 362 365 366 365 364 364 364 362 360 359 358 359 360 361 361 361 361 364 369 371 369 369 369 369 369 369 368 366 366 366 364 363 363 362 359 358 356 354 352 350 347 346 344 342 343 345 342 341 342 343 343 343 342 341 340
343 351 360 361 357 356 356 359 367 370 371 371 367 365 365 362 361 361 359 359 359 360 360 360 359 363 369 371 369 369 370 369 369 370 368 367 365 365 363 362 362 361 359 358 357 355 353 350 347 347 344 342 345 346 342 340 343 343 342 341 340 338 338
349 359 367 363 358 359 360 366 370 371 373 372 366 365 366 364 362 361 361 361 359 358 360 361 360 361 366 370 369 370 371 370 369 369 368 367 366 364 363 361 360 361 360 358 357 355 352 350 348 347 343 343 346 345 341 342 344 344 342 340 338 338 337
359 363 367 364 359 361 365 369 370 370 371 370 366 365 366 365 364 363 364 363 359 358 361 362 361 361 365 369 369 370 371 371 370 369 368 368 366 364 363 360 357 359 360 358 356 355 353 350 349 347 345 345 345 343 343 345 345 344 342 340 339 339 336
366 364 365 363 361 363 365 367 369 369 370 370 368 366 367 366 364 364 365 364 362 360 361 363 363 362 364 368 370 371 372 372 371 370 368 368 367 365 364 360 358 359 360 358 356 355 353 351 349 347 346 346 344 342 345 346 344 343 342 339 339 339 337
363 364 364 364 362 364 366 367 370 371 370 370 369 368 368 368 366 366 366 366 364 361 361 364 365 365 365 368 370 372 373 372 371 369 368 367 366 365 364 361 359 359 360 358 356 354 353 350 348 347 346 345 343 342 344 345 342 341 340 338 339 340 339
351 354 359 364 365 365 366 368 371 372 371 371 370 370 370 369 368 368 367 367 366 363 362 365 367 367 367 368 370 372 373 372 369 368 367 365 364 364 362 361 359 359 359 358 356 355 353 350 348 348 346 345 344 344 344 342 340 338 337 338 340 341 339
339 339 344 355 364 366 368 370 373 373 373 372 371 371 371 370 370 369 368 368 367 365 364 366 368 369 368 369 371 372 373 371 368 367 366 364 363 363 361 360 359 359 358 357 356 355 353 351 349 346 344 345 345 344 342 340 339 338 336 336 336 337 338
337 337 337 346 360 368 370 370 373 374 372 371 371 372 372 372 372 370 369 370 369 366 365 368 370 371 371 371 372 372 373 371 367 367 366 365 363 363 362 360 359 359 359 357 356 355 353 349 347 346 345 345 343 341 339 339 339 338 336 333 330 330 336
336 336 338 348 359 366 369 368 370 372 373 372 371 372 372 372 372 371 370 371 371 368 367 369 372 372 373 373 373 373 372 369 366 366 366 365 364 363 361 360 360 360 358 357 356 355 352 349 348 347 345 343 341 338 336 337 338 337 336 332 326 324 329
337 335 336 345 350 356 366 369 369 371 374 374 371 371 372 371 372 372 371 371 372 370 369 371 373 374 374 374 374 374 371 367 365 365 365 364 363 363 361 359 359 358 355 355 356 355 353 351 349 346 343 341 339 336 335 337 338 337 335 331 325 323 325
340 337 336 342 347 353 365 371 368 370 374 372 370 370 372 372 372 371 372 373 373 371 371 372 373 375 375 374 374 373 370 366 364 364 364 363 362 362 360 359 359 357 354 354 355 354 353 350 347 344 342 340 337 334 335 338 338 336 333 329 325 325 325
337 337 335 342 351 360 370 369 367 370 372 370 369 370 371 372 372 372 372 374 373 372 373 373 373 375 375 374 374 372 368 365 362 362 362 362 361 360 359 358 358 356 355 354 353 353 350 346 343 341 339 338 336 334 336 338 337 335 333 329 327 326 326
334 334 336 343 351 363 370 368 367 371 371 369 368 369 371 371 371 372 373 374 373 373 374 373 374 375 374 374 374 371 367 366 363 361 360 360 360 358 357 356 355 355 355 353 351 351 347 343 339 337 336 336 334 334 334 335 335 335 333 330 327 327 328
334 333 336 344 354 363 369 368 368 370 370 368 368 370 371 370 371 373 374 374 373 373 373 373 373 373 373 372 373 370 368 366 364 361 359 360 359 357 355 354 354 353 352 350 349 348 346 342 339 336 335 333 332 332 333 332 333 333 332 331 329 329 331
338 335 338 349 357 364 368 367 367 369 368 368 370 372 370 369 371 373 373 374 374 371 371 371 371 371 371 371 371 369 367 365 363 360 359 358 357 355 354 353 352 350 349 348 347 346 344 342 340 337 335 334 333 333 332 331 332 333 333 333 333 333 334
339 337 341 351 357 362 365 366 368 370 369 369 371 370 368 367 370 372 372 372 371 368 368 369 369 370 369 369 368 367 364 362 360 359 357 357 356 354 353 352 350 348 346 345 345 344 343 341 338 337 335 335 335 335 334 333 333 333 333 334 335 335 334
344 343 345 351 358 363 366 367 369 369 367 368 369 367 366 369 371 370 370 368 366 366 366 368 369 369 368 367 365 363 361 360 358 357 356 355 355 353 352 351 349 346 344 343 343 342 341 339 338 337 337 337 337 337 337 336 336 335 334 334 335 336 335
348 350 352 358 362 364 365 365 366 367 367 368 367 366 367 370 370 368 367 366 366 367 368 368 368 367 365 364 362 359 358 358 357 356 354 354 354 353 351 349 348 346 343 342 341 341 340 339 339 339 338 338 338 339 339 339 338 338 337 335 336 337 336
355 357 360 362 363 363 365 367 368 368 369 367 366 367 368 368 368 367 367 368 368 367 367 366 365 364 362 361 360 358 357 356 355 354 353 353 353 352 350 348 346 344 342 341 341 341 340 340 340 339 340 340 341 341 340 339 340 340 339 338 338 338 338
362 362 362 361 362 364 366 368 366 365 364 364 365 366 367 368 369 369 368 368 366 364 364 364 362 360 359 358 358 357 355 354 352 352 352 352 352 350 347 346 345 344 342 341 342 341 341 341 341 341 341 342 343 341 338 338 341 341 341 340 339 339 338
361 361 360 360 362 364 363 363 363 363 364 365 366 366 367 368 368 368 366 365 362 362 362 361 359 358 356 356 356 355 353 351 351 350 350 350 350 348 346 344 344 344 342 342 343 342 342 342 342 342 342 342 342 339 337 338 340 340 338 338 337 337 336
359 359 359 360 361 361 361 362 363 364 366 366 365 365 366 365 364 364 363 361 360 360 359 358 357 356 354 354 353 351 350 350 349 349 349 347 347 347 346 344 344 344 344 343 343 343 342 342 342 342 341 341 340 338 338 340 340 337 335 334 334 334 333
359 357 358 358 358 359 360 360 360 361 364 364 363 361 361 360 360 360 359 359 359 358 357 356 354 353 352 352 351 350 349 349 348 348 347 346 346 347 346 344 344 344 344 343 343 343 342 342 341 341 341 340 339 338 340 341 339 337 334 331 330 331 331
360 360 359 359 359 359 361 361 360 360 362 362 360 358 357 357 357 357 357 357 357 357 356 354 352 352 351 350 349 349 349 348 347 347 346 345 345 346 345 345 343 343 343 343 343 343 342 341 342 340 340 340 338 338 340 340 338 338 335 331 329 329 329
358 360 362 362 361 360 361 362 361 360 360 359 357 357 356 355 355 355 356 356 356 356 355 353 352 351 350 349 348 348 348 347 346 346 346 345 343 342 343 344 344 344 343 342 342 342 342 342 340 339 338 338 337 337 339 339 338 337 336 333 331 329 329
353 354 357 360 360 360 361 361 360 360 359 357 357 356 354 354 354 354 354 355 356 355 354 353 352 350 349 348 347 346 347 346 345 346 346 344 341 339 339 340 341 342 342 340 339 339 340 340 338 336 337 338 337 337 339 339 337 336 335 334 333 331 330
351 351 353 356 358 359 360 359 360 359 358 357 356 355 354 354 353 353 354 355 355 354 353 353 351 349 348 347 345 344 345 345 345 346 345 343 341 339 338 338 338 338 338 339 338 337 337 337 337 336 336 336 336 338 339 338 336 335 334 333 332 331 331
349 349 351 354 356 358 358 358 359 359 358 357 356 354 354 354 353 354 354 353 353 353 352 352 349 347 347 345 344 343 343 344 345 345 344 343 342 340 339 338 337 335 334 335 336 336 335 335 335 334 334 335 335 335 335 335 334 333 332 332 331 330 330

ECMWFFLT1_925_thetae_033.txt.gz
Theta_e
348 348 350 352 354 356 356 357 356 353 352 354 355 354 356 357 358 360 363 364 364 363 363 362 362 362 362 360 359 359 360 361 361 361 360 359 359 359 357 356 356 354 353 354 354 353 353 353 352 351 349 347 348 347 343 341 339 339 341 339 339 340 341
348 349 351 353 355 357 358 357 355 353 353 354 355 355 356 356 357 360 362 364 365 364 364 363 363 362 362 362 361 360 361 361 361 361 360 360 359 358 357 355 355 354 353 353 354 354 353 353 352 351 349 348 348 346 342 342 338 337 341 339 339 342 340
350 351 352 353 357 358 358 358 355 354 353 354 355 355 356 357 357 359 362 364 365 365 364 364 363 363 363 363 362 362 362 361 361 362 361 360 359 358 357 355 354 355 354 354 353 354 354 353 352 352 349 347 347 343 342 342 338 336 340 340 340 342 340
351 353 352 352 356 358 357 358 356 354 354 354 356 356 356 357 357 359 360 363 364 365 365 365 364 364 363 363 364 362 362 362 361 361 361 360 360 359 357 357 356 356 356 355 354 353 353 353 353 352 350 347 346 343 342 343 340 336 338 340 341 341 340
354 353 353 352 353 355 356 357 356 354 353 354 356 356 356 356 357 358 360 363 364 364 366 365 365 364 363 363 364 363 363 362 361 361 360 360 361 360 359 358 357 357 356 356 355 354 353 353 353 352 350 348 346 344 343 343 341 337 337 340 340 341 340
353 353 353 352 351 353 354 354 355 354 353 354 356 356 357 357 357 358 359 362 364 365 365 366 365 365 364 363 363 364 363 363 362 361 360 360 360 361 360 359 359 358 357 356 355 355 353 352 352 351 350 349 347 346 343 343 342 338 338 341 341 340 340
351 352 352 351 349 351 353 354 354 353 353 355 357 357 357 357 357 358 359 361 363 365 365 366 366 365 364 364 364 364 364 363 362 361 360 360 360 360 360 360 359 358 357 357 356 355 355 353 351 350 350 349 348 345 344 343 342 339 340 342 342 342 341
350 351 351 350 349 349 351 356 356 354 355 356 357 359 357 357 358 357 359 360 362 365 366 366 367 366 365 365 364 364 363 363 362 361 360 360 360 360 360 360 360 358 358 357 356 356 355 353 352 350 349 349 347 345 344 343 342 340 340 342 343 342 341
350 351 350 349 348 349 352 356 356 355 356 356 357 358 358 357 358 357 359 360 361 364 366 366 367 366 365 364 364 364 363 363 363 362 361 361 360 360 359 359 360 359 358 357 356 356 354 353 352 350 349 348 346 345 344 343 343 341 340 342 342 343 342
351 352 353 352 350 352 355 356 357 359 360 359 357 358 359 358 358 358 358 359 361 362 365 366 367 367 366 365 364 364 363 363 363 362 362 362 361 360 360 359 359 359 359 358 357 356 355 354 352 350 349 348 346 345 345 344 343 342 341 341 342 343 342
353 353 355 354 352 353 356 357 358 361 363 361 357 358 359 358 358 358 357 358 359 361 363 365 366 367 367 366 364 364 363 363 364 363 363 362 361 361 360 360 360 359 359 358 358 357 356 354 353 351 350 348 347 346 345 344 344 342 342 342 342 343 343
354 356 357 355 355 355 357 361 361 363 366 362 359 360 359 359 359 358 358 358 358 359 362 364 365 367 367 367 365 364 364 364 364 364 363 363 362 361 361 360 360 360 359 358 358 358 357 355 354 353 351 349 348 347 346 345 344 343 342 343 343 343 343
355 358 358 353 355 357 360 365 365 366 368 363 360 361 360 360 360 359 358 357 357 358 361 363 365 367 368 368 366 365 364 364 364 364 363 363 363 361 361 361 360 360 360 359 359 358 357 356 355 353 352 350 349 347 346 345 344 343 343 343 343 344 343
355 357 356 353 355 359 363 366 367 366 366 362 360 361 363 361 360 360 358 357 357 358 361 363 365 367 368 368 367 366 365 364 364 364 363 363 363 362 361 360 360 360 360 360 360 359 358 357 356 354 353 351 350 348 347 346 345 344 343 343 344 344 343
357 354 353 354 357 363 365 365 366 366 364 363 360 360 363 363 361 361 359 358 358 358 360 363 365 367 368 368 367 366 365 364 364 364 364 363 363 362 361 360 359 360 360 361 360 360 359 358 356 355 353 352 351 349 348 346 345 344 343 343 344 343 343
359 356 355 356 358 362 365 363 364 366 366 367 364 361 362 364 363 362 360 359 359 359 360 362 364 366 367 367 367 365 365 364 364 364 365 364 364 363 362 361 360 360 361 362 361 360 359 358 357 356 354 353 351 350 348 346 345 345 343 342 342 342 342
362 363 365 366 364 363 365 365 366 369 371 372 368 363 362 364 364 363 362 362 360 359 360 362 364 365 366 367 367 365 365 365 364 364 365 365 365 364 363 362 362 361 361 362 363 362 361 360 359 357 356 354 352 350 349 347 346 345 344 342 342 341 340
370 371 372 373 368 367 370 374 374 374 375 374 368 363 363 365 365 364 363 363 361 360 361 361 363 364 365 366 366 366 365 365 364 365 365 365 365 365 364 363 362 362 362 362 363 363 362 360 359 358 357 355 353 351 350 348 346 345 344 343 343 341 340
364 366 371 373 369 367 371 376 378 377 375 372 367 365 365 365 366 365 364 363 362 361 360 362 363 363 364 366 367 367 367 366 366 366 365 365 365 365 365 364 363 363 363 363 364 363 362 361 360 359 357 356 354 352 350 349 347 345 344 343 343 343 340
360 357 362 367 368 368 370 375 379 376 372 370 367 365 365 366 366 365 365 364 363 361 360 361 362 362 363 365 367 368 368 367 368 367 366 366 365 366 366 365 364 365 365 364 364 363 362 361 360 359 358 356 355 353 351 349 347 346 345 344 343 342 340
368 364 360 363 366 366 367 372 378 378 372 368 368 366 365 366 366 366 365 364 363 361 359 360 362 362 363 365 367 369 369 369 368 368 367 367 366 367 367 366 366 366 366 365 365 364 363 362 361 360 358 355 354 352 350 349 348 347 346 345 343 342 340
360 361 359 363 367 368 368 367 368 373 372 368 367 368 366 365 367 366 366 366 364 362 360 360 362 362 362 365 368 369 370 370 369 369 369 368 368 369 368 368 368 367 367 365 364 363 363 362 361 360 358 355 353 351 350 349 348 348 347 346 345 343 340
345 345 350 362 367 365 363 362 362 364 367 368 368 368 367 367 367 367 366 367 366 363 362 363 364 363 363 365 368 369 371 371 371 371 370 369 369 369 369 369 368 367 366 364 363 362 362 361 361 359 357 355 352 351 350 349 348 348 347 346 345 343 341
333 331 337 354 367 368 361 361 364 364 365 368 368 368 369 367 368 368 367 367 367 366 365 366 367 365 364 366 369 370 372 372 371 372 371 370 370 369 369 368 367 366 365 363 362 361 360 360 359 357 355 353 351 350 349 348 347 347 346 346 345 344 341
336 334 332 336 349 362 364 361 361 363 366 369 368 368 369 368 368 369 368 368 369 367 366 368 369 367 366 368 370 372 372 373 372 372 371 370 369 368 367 367 366 365 363 362 361 360 359 358 357 355 353 351 350 349 348 347 346 345 344 344 343 342 341
345 347 352 345 337 341 353 360 365 366 367 368 369 369 369 368 369 369 368 369 369 367 367 369 370 369 368 369 372 374 373 373 372 371 370 369 368 367 366 365 364 363 362 360 359 357 356 356 355 353 351 349 348 347 346 346 346 344 343 341 340 340 339
359 362 367 365 354 342 341 348 360 369 368 369 370 369 369 369 369 368 368 369 369 368 368 369 370 370 370 371 374 374 373 373 371 370 369 368 367 366 365 364 363 361 360 358 356 354 353 352 352 350 348 347 347 346 345 344 343 342 341 339 338 338 338
374 377 376 376 371 361 352 351 358 365 369 371 370 369 370 370 369 368 369 369 369 369 368 370 372 372 372 374 374 372 372 371 370 369 367 366 366 364 362 361 361 359 358 355 354 353 351 349 348 347 345 344 344 344 343 341 340 340 339 338 338 338 338
357 364 373 380 374 366 368 374 373 369 370 372 371 370 370 370 369 369 370 370 370 370 370 372 373 373 373 373 373 371 370 369 367 366 365 363 363 361 358 358 357 356 355 353 351 350 347 346 345 344 342 341 341 341 340 338 337 338 338 338 338 337 336
349 348 355 364 362 357 361 369 369 367 370 373 373 372 372 371 371 371 370 371 371 371 373 375 374 373 373 372 371 369 367 366 365 364 362 361 359 358 356 355 354 353 351 350 349 346 345 344 343 342 341 340 339 339 338 337 336 336 336 336 336 334 333
347 346 348 352 352 350 350 353 354 354 361 370 373 374 373 372 371 371 372 372 373 374 375 375 373 372 371 369 368 366 364 363 363 361 360 358 357 355 353 352 350 349 348 347 346 345 344 343 342 341 341 340 339 339 339 338 338 337 336 335 334 334 332
344 344 345 347 349 349 348 351 353 350 353 365 373 375 376 375 373 372 373 374 374 375 374 372 370 369 367 366 365 363 361 361 360 358 357 355 354 353 351 349 348 346 345 345 345 344 344 343 342 341 340 340 340 341 341 340 339 339 338 336 334 334 333
342 343 345 345 346 346 347 356 366 358 349 353 362 367 369 368 368 370 372 373 373 372 370 368 366 364 363 362 361 359 359 358 357 356 354 352 351 350 349 348 347 345 344 344 344 344 344 342 341 341 341 342 343 342 341 341 340 340 339 337 336 336 335
341 343 343 343 344 344 345 352 361 356 346 345 349 353 355 355 355 359 364 367 369 367 365 363 362 360 359 358 357 356 356 356 354 353 351 350 349 349 347 347 346 344 344 343 343 343 344 343 342 341 342 344 344 342 341 341 340 340 340 338 338 338 337
341 341 342 343 343 344 344 345 346 346 345 345 346 348 351 351 350 351 354 358 361 361 360 358 357 356 355 354 353 353 353 352 350 349 348 347 347 346 346 346 345 344 343 343 343 344 344 343 343 342 343 344 343 342 342 341 341 340 340 339 339 338 337
340 339 340 341 341 341 344 344 343 343 344 345 345 347 349 349 348 347 348 351 354 354 353 353 353 353 352 352 351 351 350 348 346 345 346 345 344 343 342 343 344 343 343 343 344 344 344 344 344 344 343 343 343 342 342 341 341 340 340 340 339 338 337
343 340 340 340 340 341 342 344 345 344 344 344 345 348 349 349 348 347 346 348 349 349 349 350 350 350 350 350 349 349 348 345 343 342 342 342 341 341 338 338 338 340 342 343 343 344 344 344 344 343 343 343 343 343 342 341 340 340 339 339 338 337 337
342 342 341 341 342 342 343 344 344 343 342 343 345 347 348 347 347 347 347 347 347 348 349 349 349 349 349 349 347 347 347 344 342 341 340 339 339 339 337 335 333 334 337 340 342 342 343 343 343 342 342 342 342 342 341 341 340 339 339 338 336 334 334

ECMWFFLT1_925_thetae_036.txt.gz
Theta_e
346 346 345 345 346 346 349 350 349 347 347 349 349 348 350 352 354 356 357 357 357 357 358 357 357 357 358 358 357 357 357 356 355 355 357 357 355 354 353 354 355 355 355 356 356 357 355 354 354 353 352 349 348 348 347 346 344 338 335 337 340 339 337
347 348 347 347 347 347 348 349 348 347 347 348 349 349 350 351 353 355 356 357 357 357 358 358 357 357 357 358 357 358 357 356 356 355 356 357 356 355 354 354 355 354 355 354 354 355 354 354 353 353 352 350 347 347 347 346 342 337 337 338 340 339 336
346 348 348 348 349 348 348 349 348 348 347 348 350 349 351 351 352 354 356 357 357 357 357 358 358 358 357 357 357 357 358 357 357 356 356 357 356 356 355 354 355 355 355 354 354 355 353 354 354 352 352 350 348 347 346 346 342 338 337 338 339 339 337
347 347 348 349 350 349 348 349 349 348 347 348 350 350 351 351 352 353 355 357 358 357 358 358 359 359 358 357 357 357 358 357 357 357 357 357 357 357 357 356 355 355 355 355 354 354 353 353 353 352 352 350 349 347 345 346 344 340 338 339 339 339 337
347 346 348 348 350 350 350 350 349 348 348 349 350 351 351 352 352 354 355 357 358 358 358 358 359 359 359 358 358 357 357 357 357 358 358 358 358 358 357 357 356 356 356 355 354 353 353 353 353 352 352 350 350 348 345 346 346 342 339 339 339 339 338
346 346 348 348 348 350 350 350 349 348 348 349 350 351 351 352 352 354 356 357 359 359 359 359 359 360 360 359 359 358 357 357 358 358 359 359 359 358 358 358 357 357 356 355 354 353 352 352 352 352 352 351 350 349 346 346 347 343 340 339 338 338 338
345 346 346 347 348 349 349 350 349 349 349 349 350 351 352 352 353 354 356 358 359 360 360 360 360 360 360 360 360 359 358 358 358 358 359 359 359 359 358 358 357 357 356 355 354 353 352 352 352 352 351 351 350 349 347 347 347 343 340 338 337 338 338
345 347 346 347 348 348 349 351 351 350 350 350 351 352 352 352 354 354 356 358 359 361 361 361 361 361 360 361 360 360 360 359 359 359 359 359 359 359 358 358 358 357 356 355 354 353 353 353 353 352 352 351 351 350 348 348 346 343 340 338 337 338 339
346 347 346 346 346 347 349 350 352 350 350 351 351 352 353 353 354 354 356 358 359 361 362 361 362 361 361 361 360 361 360 360 360 359 359 360 359 359 359 358 358 357 356 355 354 354 353 353 353 353 352 351 351 350 348 346 344 342 341 339 338 338 339
348 347 348 348 346 348 349 350 353 354 353 353 351 352 354 353 354 354 355 357 359 361 361 362 362 362 362 362 361 361 361 361 361 360 360 360 359 359 360 358 358 357 357 356 355 354 354 353 353 353 353 352 351 350 347 345 344 342 342 342 340 338 338
348 348 349 349 347 349 350 351 356 357 356 354 352 353 354 353 354 355 355 357 358 360 362 362 363 362 362 362 361 362 361 361 361 361 360 360 359 359 359 359 359 358 357 357 356 355 355 354 354 353 353 352 351 349 348 345 344 343 342 343 342 339 337
349 351 350 350 350 350 352 355 356 358 357 354 352 353 354 354 355 354 355 356 357 360 362 362 363 363 363 363 362 362 362 361 361 361 361 360 360 359 359 359 359 358 358 357 356 356 355 355 354 353 352 352 351 350 348 346 345 344 344 343 342 340 338
348 350 350 351 351 351 354 356 357 357 357 354 352 353 354 354 355 355 355 356 357 359 361 361 363 363 363 363 363 362 362 362 361 361 361 361 360 359 359 358 358 358 358 358 357 357 356 355 355 354 353 352 351 350 348 347 346 345 344 343 342 341 340
350 350 350 351 351 353 357 357 358 357 357 356 352 353 355 355 354 355 355 356 356 358 360 362 363 364 364 363 363 362 362 361 362 361 361 361 360 359 359 358 358 358 358 358 358 357 356 356 355 354 353 352 351 350 348 347 346 345 344 343 342 342 341
350 348 350 352 352 353 355 355 357 357 357 358 354 353 355 355 355 355 355 356 356 357 359 361 363 363 364 364 363 363 362 362 362 362 361 361 361 360 359 358 358 358 357 358 358 357 357 356 355 354 353 352 351 349 348 347 346 345 344 343 343 342 341
350 348 349 351 352 352 353 354 356 357 358 360 358 355 355 355 355 355 355 355 356 357 359 360 362 363 364 364 364 363 362 362 362 361 361 361 360 360 360 359 358 358 358 358 358 357 357 356 356 355 354 353 351 350 348 347 346 345 345 344 344 343 342
351 350 349 350 350 351 352 353 356 358 360 362 360 356 355 356 357 356 356 356 356 356 357 359 361 363 363 364 364 363 363 362 362 362 361 361 361 361 360 359 359 358 358 358 358 358 357 357 356 356 355 354 353 351 350 348 347 346 345 345 345 344 343
356 354 352 352 352 353 354 355 358 360 360 360 358 356 356 357 357 356 357 357 355 356 357 358 360 362 362 364 364 364 364 363 362 362 362 362 361 361 360 360 359 359 358 358 358 358 358 357 357 356 355 354 354 353 351 350 348 347 346 346 346 345 344
359 356 354 354 354 356 356 356 358 359 359 357 355 355 357 358 358 358 357 357 356 356 356 357 359 360 362 363 364 364 364 363 363 362 362 362 361 361 361 360 360 359 359 358 359 358 358 358 357 357 356 355 354 353 352 351 350 348 347 348 348 346 344
361 358 357 356 355 356 356 356 356 356 355 354 353 355 357 358 359 359 358 357 357 356 356 357 359 360 361 362 363 364 364 363 363 362 362 362 361 361 361 361 360 360 359 359 359 359 359 359 358 358 357 356 355 354 353 352 350 349 349 349 349 347 345
361 359 357 356 355 354 354 356 356 355 353 352 352 355 356 358 360 360 359 358 358 357 357 357 358 360 361 362 363 364 364 364 364 363 363 362 362 362 362 361 361 360 359 359 358 359 359 359 359 358 357 357 356 355 353 352 351 350 350 350 350 348 346
357 357 355 357 358 357 356 354 353 353 352 352 353 355 355 358 360 360 360 360 358 357 357 357 358 360 360 362 363 363 364 364 364 363 363 362 362 362 362 362 361 360 360 359 359 359 360 360 359 359 358 357 356 355 354 353 351 351 351 351 350 348 346
344 348 351 358 363 361 355 351 350 351 351 352 354 356 356 357 359 360 361 360 359 359 358 357 358 359 360 361 362 363 363 364 363 363 363 362 362 362 362 362 362 361 361 360 360 360 360 360 360 360 359 358 357 355 354 353 352 352 352 352 351 348 345
343 343 345 351 359 361 355 351 353 354 355 356 356 356 357 358 358 360 361 361 361 360 358 358 358 359 360 361 361 362 364 364 363 363 363 362 362 362 362 362 362 362 362 361 361 361 361 361 360 360 360 359 358 357 355 354 353 353 353 352 351 348 345
354 353 352 352 355 356 353 353 354 354 356 360 360 360 361 360 359 361 361 361 361 361 359 359 358 358 359 360 361 362 363 364 364 363 363 363 362 362 362 363 363 363 362 362 362 362 362 361 360 360 360 359 358 357 356 355 354 353 352 351 350 348 345
354 355 358 357 354 351 347 349 356 358 356 358 361 363 362 362 361 362 362 362 362 361 361 360 359 359 359 359 360 362 363 364 365 364 364 363 363 363 363 363 363 363 363 363 363 363 362 361 361 360 359 358 358 357 355 354 353 352 351 350 350 348 345
348 349 353 354 353 354 351 348 352 356 355 356 360 362 364 364 363 362 362 363 362 362 362 360 360 360 359 360 360 361 363 364 365 365 365 364 364 364 363 364 364 364 363 363 362 362 361 360 360 359 358 357 356 355 353 352 352 351 350 350 349 348 345
346 347 348 350 351 353 353 353 354 354 355 356 357 358 362 364 363 362 363 363 362 363 363 362 361 360 359 360 360 361 364 365 365 366 366 365 365 365 364 365 364 363 363 362 360 360 359 358 357 355 353 351 351 351 351 350 350 350 349 348 348 347 345
346 346 346 347 349 349 351 356 356 353 355 359 359 358 361 363 363 364 362 362 363 364 363 363 362 361 360 360 361 362 364 366 366 367 367 366 366 365 364 365 363 362 361 359 358 357 355 353 352 350 348 346 346 347 348 348 347 347 346 346 346 345 345
344 344 344 344 346 347 349 353 354 353 356 361 362 362 363 363 365 364 363 363 364 363 364 364 363 362 362 362 362 364 366 367 367 367 367 366 365 364 363 362 361 359 358 357 356 353 350 349 349 347 345 344 344 344 344 344 344 343 342 343 342 342 343
342 343 343 343 343 345 347 351 352 351 354 358 360 362 364 364 366 365 364 365 364 364 365 365 364 365 365 364 365 366 367 368 368 367 367 365 364 363 361 359 357 354 353 353 352 350 347 346 346 345 344 343 343 342 341 341 341 340 339 339 339 340 339
341 341 343 343 343 343 344 347 348 348 348 349 352 355 359 363 364 364 364 367 367 366 366 367 367 367 366 367 368 368 367 367 366 365 364 363 362 361 359 357 355 352 350 350 349 347 345 344 343 344 344 343 341 340 338 338 338 337 337 338 338 338 338
339 341 342 342 343 342 342 343 346 346 346 346 347 349 352 356 359 360 362 364 365 365 365 364 365 367 368 368 368 367 367 365 363 361 360 359 358 357 355 354 353 350 349 348 346 345 344 343 343 343 342 340 339 338 337 337 336 336 336 336 337 337 337
338 339 340 340 342 343 343 343 344 346 346 346 347 348 349 350 352 354 358 360 359 360 360 356 355 359 364 367 366 365 364 362 359 357 356 354 353 352 351 351 352 350 349 349 348 346 344 342 342 342 340 339 339 339 339 338 337 337 336 335 336 336 335
340 340 339 340 341 343 343 343 344 344 344 344 346 347 346 346 347 349 352 355 356 358 356 351 348 350 353 358 359 359 358 357 355 352 350 348 348 347 347 348 350 350 349 349 350 350 347 344 343 341 340 340 340 339 339 338 338 338 337 337 337 336 335
340 341 341 341 341 342 343 343 343 342 341 342 345 346 345 345 346 347 348 349 351 352 349 346 345 345 345 347 348 347 347 347 346 344 343 342 342 341 341 343 346 348 348 347 347 348 347 345 343 342 341 340 339 339 339 339 339 339 338 339 339 338 337
337 339 341 342 343 343 342 342 342 342 340 340 342 344 344 344 345 346 346 346 347 347 346 345 345 344 343 343 343 342 342 341 340 340 339 338 338 339 338 338 340 343 345 345 344 344 344 344 343 342 341 340 340 340 339 340 340 340 340 340 339 338 338
334 336 337 339 342 343 343 342 343 343 341 340 340 342 343 343 344 344 344 344 344 344 344 343 343 342 341 340 339 339 340 339 338 338 337 336 337 338 338 337 335 335 338 341 343 343 343 342 342 341 340 340 340 341 341 341 341 341 340 340 339 338 337

ECMWFFLT1_925_thetae_039.txt.gz
Theta_e
339 340 341 342 344 345 346 346 345 344 344 345 346 346 348 349 350 351 351 352 352 352 354 354 355 356 356 356 355 355 355 355 355 354 354 354 353 353 353 353 354 355 356 356 356 356 354 353 353 355 358 357 356 354 350 346 345 346 345 342 341 340 337
340 340 340 341 344 345 346 346 344 344 344 345 346 346 347 348 350 351 351 351 352 352 353 354 355 355 356 356 355 355 355 355 355 355 354 354 354 353 353 354 355 355 355 355 355 355 354 353 353 355 357 357 356 354 350 346 346 347 346 343 342 341 336
341 341 340 341 343 345 346 346 345 344 344 345 346 347 347 348 349 351 351 352 352 352 353 354 355 355 356 356 356 356 355 355 355 355 355 354 354 353 353 354 354 355 355 355 354 354 353 353 354 355 357 356 355 354 351 347 347 348 347 345 344 341 336
342 342 341 341 343 344 344 346 345 345 344 345 346 347 347 348 349 351 352 352 352 352 353 353 354 356 356 356 356 356 356 356 355 355 355 354 354 354 353 353 354 354 354 354 353 353 353 354 354 355 356 356 355 353 351 348 347 348 347 346 345 341 334
345 343 343 341 342 343 344 345 345 344 345 344 345 346 347 348 349 350 352 353 353 353 353 354 354 355 356 356 356 356 356 356 356 355 355 354 354 354 354 353 353 353 353 353 353 353 354 354 355 355 355 355 354 353 351 349 347 348 347 346 345 340 335
344 344 345 343 342 342 343 344 344 344 345 345 345 346 347 348 348 350 352 353 353 353 353 354 354 354 355 356 356 356 356 356 356 355 355 355 354 354 354 354 354 353 353 353 353 353 354 355 355 355 355 354 353 352 351 350 348 348 347 347 345 341 336
343 344 345 344 343 343 343 343 342 343 344 345 345 346 347 347 348 350 351 353 354 354 354 354 355 355 355 355 356 356 356 356 356 356 355 355 355 354 354 354 354 354 354 353 353 354 354 354 354 354 354 353 353 352 351 351 349 348 347 347 346 342 338
343 345 344 345 345 343 343 344 343 343 343 345 345 346 347 347 348 349 350 353 354 354 354 354 355 355 355 355 355 356 356 356 356 356 356 355 355 355 354 354 354 354 354 354 353 354 354 354 354 354 354 353 352 352 351 351 350 348 347 347 346 342 338
342 344 344 345 344 344 345 344 343 343 342 344 345 346 347 347 348 349 350 351 353 354 355 354 355 355 356 356 355 355 356 355 356 356 356 356 355 356 355 355 355 354 354 354 354 353 354 354 354 353 353 353 352 352 351 351 350 349 348 346 345 343 339
343 344 344 345 343 344 346 345 346 347 346 346 345 345 347 347 348 349 349 351 352 354 354 355 355 355 356 356 356 356 355 355 355 356 356 356 356 356 355 355 355 355 355 355 354 354 354 353 354 353 353 352 352 351 351 350 350 349 348 347 345 343 341
345 346 345 345 345 345 346 346 348 349 349 348 344 346 347 347 349 349 349 351 351 353 355 355 355 356 356 357 357 356 356 356 356 355 356 356 356 356 356 356 356 355 355 355 355 355 354 354 354 353 353 352 351 351 351 350 350 349 348 347 345 344 343
346 349 348 346 346 346 347 349 350 351 352 349 345 346 348 347 349 349 349 351 352 353 355 355 356 356 356 357 357 357 357 357 356 356 356 356 356 356 356 356 356 356 355 356 355 355 354 354 354 353 353 352 351 351 351 350 350 349 349 348 345 344 343
346 349 348 347 346 346 348 350 351 351 352 349 346 347 348 348 349 349 350 351 352 353 355 355 356 356 356 357 357 357 358 358 357 357 356 357 356 357 357 356 357 357 356 356 356 355 355 354 354 353 353 352 351 351 351 350 350 350 349 348 346 344 343
348 348 347 347 346 346 348 350 351 353 352 350 347 347 348 349 349 350 351 351 352 353 355 356 357 357 358 358 357 358 358 358 358 358 357 357 357 357 357 357 357 357 356 357 356 355 355 355 354 353 353 352 352 351 351 350 350 350 349 348 346 344 343
346 345 344 347 347 348 349 348 351 353 353 351 349 348 349 349 350 350 350 351 352 354 355 357 358 358 358 358 358 358 358 358 358 359 358 358 358 357 357 357 357 357 357 357 356 356 355 355 354 354 353 352 352 352 351 351 350 350 349 347 345 344 343
343 343 345 346 348 350 349 348 350 352 353 354 352 349 349 350 350 351 351 352 352 354 356 357 358 359 359 359 359 359 359 359 359 359 359 359 358 358 358 357 357 357 357 357 357 356 356 355 355 354 353 353 352 351 351 351 350 350 349 348 347 345 344
343 342 345 346 347 349 348 348 350 351 353 355 352 350 349 350 351 351 351 352 352 353 355 357 358 359 359 360 360 360 360 360 359 359 360 359 359 359 358 358 358 357 357 357 357 357 356 356 355 355 354 354 353 352 351 351 351 350 349 348 347 347 345
348 344 344 347 350 352 351 351 351 353 354 352 350 349 349 351 352 351 352 352 352 353 355 357 358 359 359 360 360 360 360 360 360 360 360 359 359 359 359 359 358 357 357 357 357 357 356 356 355 355 355 354 353 352 352 351 350 350 349 349 348 348 346
348 343 344 349 353 352 351 349 350 352 353 350 348 348 350 351 351 352 353 352 353 354 354 357 358 358 359 360 360 360 361 360 360 360 360 360 359 359 359 359 358 358 357 356 357 356 356 356 356 355 355 354 354 353 352 352 351 350 349 349 349 349 348
353 349 345 347 351 351 348 349 350 350 348 347 348 349 350 351 352 352 353 353 353 353 354 356 357 358 359 360 360 361 361 360 360 360 360 360 360 359 359 359 359 358 357 356 356 356 356 356 356 356 355 355 354 354 353 352 351 350 350 350 350 350 349
362 358 353 350 350 349 351 353 356 355 349 345 347 349 350 351 352 352 353 353 353 353 354 355 356 358 359 359 360 361 361 361 361 360 360 360 360 360 359 359 359 358 357 357 356 356 356 356 356 356 355 355 355 354 353 353 352 351 350 350 351 351 349
358 355 355 357 355 355 355 352 351 352 349 346 348 350 351 351 352 352 353 353 353 353 354 355 355 356 358 358 360 360 361 361 361 360 360 360 360 360 359 359 359 358 358 357 356 356 356 356 356 356 355 356 355 354 354 353 353 352 351 352 352 352 350
354 353 358 363 359 353 348 345 345 346 345 347 349 349 351 352 352 353 354 354 354 354 354 354 355 356 357 357 359 360 361 361 361 361 361 360 360 360 359 359 359 358 358 358 357 357 356 356 356 356 356 356 355 355 355 354 353 353 352 352 353 352 348
351 353 357 363 366 359 348 343 345 346 345 348 349 348 350 352 352 354 354 354 354 354 354 354 354 355 356 356 358 359 360 361 361 361 361 360 360 360 359 360 359 359 359 358 357 357 357 356 356 356 357 356 356 356 355 354 354 354 353 353 354 352 346
350 351 352 353 360 361 351 343 344 348 347 347 348 349 350 351 353 355 355 355 355 355 354 355 354 355 355 356 357 358 359 361 361 361 361 361 360 360 360 360 359 359 359 358 358 357 357 357 356 356 357 357 356 357 356 355 355 354 354 354 354 352 346
350 351 352 350 349 352 350 347 349 352 351 349 350 351 351 351 353 355 356 356 356 355 355 355 355 355 355 355 356 357 359 360 361 361 361 361 361 360 360 360 359 359 359 359 358 358 357 357 357 357 357 357 357 357 356 356 355 354 355 355 354 352 347
346 346 348 348 347 348 349 349 351 353 352 352 352 353 354 353 353 354 355 357 357 357 357 356 355 356 355 355 356 357 358 360 361 361 361 361 361 361 360 360 360 359 359 359 359 358 357 357 357 357 357 357 357 357 356 356 356 355 355 355 354 353 349
345 345 345 345 345 346 347 348 349 349 352 355 355 356 357 357 355 354 355 356 356 358 358 358 357 357 356 356 356 356 358 359 360 361 362 361 361 361 360 360 360 360 360 359 359 359 358 358 357 357 357 357 357 357 356 356 356 356 356 355 354 353 350
344 345 345 344 345 345 346 349 348 347 349 353 355 358 360 359 359 357 356 356 357 357 358 358 359 358 357 357 356 356 358 359 360 361 361 361 361 361 360 360 360 360 360 360 359 359 358 358 357 356 355 355 355 355 355 356 355 356 356 355 354 353 351
343 342 343 343 343 343 344 347 347 346 348 351 355 358 359 359 360 359 358 359 358 357 358 359 359 359 359 358 357 357 357 358 360 360 361 362 361 361 361 361 360 360 360 360 359 359 357 356 355 354 352 350 351 351 352 354 355 355 355 355 353 352 351
341 341 342 342 342 342 343 345 345 344 346 349 352 354 356 358 358 358 358 360 360 360 360 359 359 359 359 358 358 357 357 358 359 360 361 362 361 361 361 361 360 360 360 359 359 358 355 353 352 350 349 347 347 348 350 351 352 353 353 352 351 351 349
339 340 341 342 342 342 342 344 345 345 345 347 348 350 352 354 355 355 356 359 361 362 361 360 361 360 359 359 358 358 357 358 359 360 361 361 362 362 361 361 360 359 358 358 357 355 352 350 349 348 346 344 344 345 346 347 349 350 349 348 347 348 347
340 341 341 342 342 342 343 344 346 346 346 346 346 347 350 352 352 353 354 357 361 363 363 362 361 360 360 360 359 358 358 358 359 361 361 362 363 362 361 361 360 358 357 356 355 353 350 349 347 346 344 343 342 342 343 344 345 345 345 344 344 344 345
341 342 342 342 342 342 342 343 342 343 344 345 345 346 347 349 350 351 353 356 358 360 363 363 362 362 361 361 360 359 359 359 360 362 362 363 363 362 361 360 358 356 356 355 354 353 350 348 347 346 345 343 340 338 338 339 341 341 341 342 342 342 342
340 341 342 343 342 341 341 341 340 341 341 343 344 345 345 346 348 349 351 354 357 359 358 358 359 361 361 362 362 361 360 361 362 362 363 363 362 361 360 359 358 356 355 354 354 354 352 350 348 347 347 346 343 340 337 336 337 339 341 341 341 341 340
337 338 340 341 342 342 342 342 342 341 340 341 342 343 343 344 346 347 348 350 354 356 353 351 353 355 356 359 361 361 361 362 361 363 363 359 356 354 353 352 354 355 353 350 350 351 352 352 351 350 349 347 345 345 345 342 340 340 339 339 339 338 338
335 337 337 338 340 342 343 343 343 343 341 340 341 342 343 343 344 345 346 347 348 350 348 346 346 346 347 350 353 356 358 357 355 357 356 352 350 348 343 339 340 344 347 347 347 348 349 349 349 352 353 351 347 345 346 346 343 340 338 337 336 336 336
333 335 335 337 339 341 342 343 344 343 342 342 342 343 343 343 343 343 344 345 345 346 345 344 342 340 340 341 343 347 349 349 348 348 346 344 345 345 340 335 333 334 338 343 346 346 346 346 348 350 352 352 349 345 343 342 340 338 336 336 336 336 336

ECMWFFLT1_925_thetae_042.txt.gz
Theta_e
343 345 345 345 346 347 348 348 345 344 344 345 345 345 346 347 349 350 350 351 351 351 352 352 353 353 354 354 354 354 354 353 354 353 353 353 352 352 353 352 353 353 353 353 353 354 353 353 353 353 353 353 353 353 353 356 356 355 355 352 345 342 343
341 343 343 344 345 345 347 347 344 344 343 344 345 345 346 346 348 350 350 351 352 352 352 352 353 353 354 354 354 354 354 354 354 353 353 353 353 352 352 352 352 352 352 353 352 353 353 352 351 351 353 354 354 354 353 354 356 355 355 352 346 342 343
340 341 342 343 344 344 346 346 344 343 343 343 344 344 345 346 347 349 349 350 351 351 352 352 352 353 353 354 354 354 354 354 354 354 354 353 353 353 352 352 352 352 352 352 352 352 352 351 350 351 354 355 354 354 353 354 355 356 355 352 347 343 344
339 339 340 341 343 343 344 345 344 343 343 342 343 344 344 345 346 348 349 350 351 351 352 352 352 353 353 354 354 354 354 354 354 354 354 353 353 353 353 352 352 352 352 352 351 352 351 350 351 353 354 355 355 353 353 354 355 355 355 353 348 344 345
340 340 339 340 341 342 343 344 343 343 342 342 343 343 344 345 345 347 348 349 350 350 351 352 352 352 353 353 354 354 354 354 354 354 353 353 353 353 353 352 353 352 352 352 351 351 351 351 352 354 354 354 355 353 353 354 355 355 355 353 349 345 345
341 341 340 339 339 340 341 342 342 342 342 342 342 343 344 344 345 346 347 348 349 350 350 351 352 352 353 354 354 354 354 354 354 354 354 353 353 353 353 353 352 352 352 352 352 351 351 352 353 354 354 354 354 353 353 354 355 355 355 353 350 347 345
342 342 341 339 338 339 339 340 341 341 342 343 342 342 343 344 344 345 347 348 349 349 350 350 351 352 353 353 354 354 354 354 354 354 354 354 353 353 353 353 353 352 352 352 351 351 351 352 353 354 354 353 353 353 353 354 355 354 354 353 351 348 346
341 343 342 341 339 338 338 339 340 340 341 342 342 342 343 343 345 345 346 348 348 349 350 350 351 351 352 353 354 354 354 354 354 354 354 354 353 354 353 353 353 352 352 352 351 352 351 352 353 353 354 353 352 353 353 354 354 354 353 352 350 349 347
341 343 342 342 339 338 339 339 339 340 341 342 342 342 343 343 345 345 346 347 348 349 349 350 351 351 352 353 353 354 354 354 354 354 354 354 353 354 353 353 353 353 352 352 351 352 351 352 352 353 353 353 353 353 353 354 354 353 353 351 350 349 347
341 342 342 344 343 342 341 339 341 342 342 343 342 343 343 343 345 345 346 347 348 349 349 350 351 350 352 353 353 354 354 354 355 354 354 354 354 354 353 353 354 353 353 352 352 352 351 351 352 352 353 353 353 353 353 353 354 353 353 351 350 349 348
343 344 346 346 346 346 344 342 344 346 345 343 341 343 343 343 344 345 346 347 347 349 350 350 351 351 351 352 352 353 354 354 354 354 354 354 354 354 354 354 354 353 353 353 352 352 352 352 352 352 352 353 352 353 353 353 353 352 352 351 350 349 348
345 348 350 349 348 347 346 346 347 347 347 343 340 343 343 343 345 345 345 347 347 348 350 350 351 351 352 352 353 353 354 354 354 354 354 354 354 354 354 354 354 354 353 353 353 353 352 352 352 352 352 353 352 352 352 353 353 352 352 351 350 350 349
345 347 348 347 347 346 347 349 350 348 348 343 340 341 343 343 344 344 345 346 347 348 350 350 351 352 352 353 353 353 353 354 354 354 355 355 354 354 354 354 354 354 354 353 353 353 353 352 352 352 352 352 352 352 352 352 352 352 351 351 350 349 348
345 345 344 346 347 348 350 350 350 350 348 344 341 340 343 343 344 345 345 346 347 348 349 351 351 352 352 353 353 354 353 353 354 354 354 354 354 355 354 355 354 354 354 354 353 353 353 352 352 352 352 352 352 352 352 352 351 351 351 351 350 349 348
346 345 343 346 349 349 350 349 349 350 349 346 343 341 342 343 343 345 346 346 347 347 349 350 352 352 352 353 353 354 354 354 354 354 354 354 355 355 355 355 355 354 354 354 354 354 353 353 353 352 352 352 352 352 352 352 351 351 351 351 350 349 348
346 347 345 346 348 348 348 348 348 350 350 349 347 344 342 343 344 345 345 346 347 347 348 350 351 352 353 353 354 354 354 355 354 354 354 354 354 355 355 355 355 355 355 355 354 354 354 353 353 353 352 352 352 352 352 351 351 351 352 351 350 349 348
345 349 347 343 344 345 346 347 348 349 351 351 349 344 342 343 344 345 345 346 347 348 348 349 351 353 353 353 354 354 354 355 355 355 355 354 354 354 354 355 355 355 355 355 355 354 354 354 353 353 353 353 352 352 352 352 351 352 352 351 350 349 348
354 353 349 343 343 346 346 346 347 348 349 349 346 343 343 344 345 345 346 347 347 348 349 350 351 352 353 353 354 354 354 355 355 355 355 355 355 355 354 355 355 355 355 355 355 355 355 355 354 354 353 353 353 352 352 352 352 352 352 351 350 350 349
358 355 349 344 345 348 347 344 345 346 347 347 344 343 344 345 345 346 346 347 347 348 349 350 352 352 353 354 354 354 355 355 355 355 356 356 356 355 355 355 355 355 355 355 355 355 355 355 355 354 354 353 353 352 352 352 352 352 351 351 351 350 350
357 355 350 346 347 348 347 345 346 345 343 343 343 344 345 345 346 346 347 347 348 349 349 351 352 352 354 354 354 355 355 355 356 356 356 356 356 356 356 356 356 356 355 355 355 355 355 355 355 355 354 354 353 353 352 352 352 352 351 351 351 350 350
361 360 358 353 351 350 350 350 350 349 343 340 342 344 344 345 347 347 347 348 349 349 350 351 352 353 354 354 355 355 355 356 356 356 356 356 356 357 357 356 357 356 356 356 356 355 356 355 355 355 354 354 354 353 353 352 352 352 351 351 351 350 350
358 357 360 357 355 357 355 350 347 346 343 340 342 344 345 346 347 347 349 349 349 350 350 351 352 353 354 355 355 356 356 357 357 357 357 357 357 357 357 357 357 357 356 356 356 356 356 355 355 355 354 355 354 353 353 353 352 352 352 351 351 350 350
350 351 354 352 352 355 351 344 339 340 341 340 342 344 345 347 347 348 350 350 350 350 350 351 353 353 354 355 356 356 357 357 357 357 357 357 358 358 357 357 358 357 357 357 356 356 356 355 356 355 355 355 354 354 353 353 352 352 352 352 351 350 350
346 348 350 348 350 352 347 343 340 340 342 343 344 345 345 347 348 349 350 350 350 351 351 351 352 352 354 355 355 356 357 357 358 358 358 358 358 358 358 358 358 358 357 357 357 356 356 356 355 355 355 355 354 354 354 353 353 353 352 352 351 351 351
345 346 346 346 348 350 348 347 344 342 343 343 344 345 347 348 348 349 350 350 351 351 351 351 352 352 353 355 355 356 357 358 358 358 358 358 358 358 358 358 358 358 358 357 357 357 356 356 355 355 355 355 354 354 354 353 353 353 353 352 351 351 351
345 345 345 345 346 347 348 349 349 349 349 348 347 346 347 348 350 350 350 350 351 351 351 352 352 352 353 354 355 356 357 358 359 359 359 359 358 359 358 358 358 358 358 358 357 357 357 356 356 355 355 354 354 354 354 354 353 353 353 352 352 352 352
343 343 343 343 344 346 347 347 348 349 349 349 352 350 347 348 350 350 351 351 351 352 352 351 352 352 353 353 354 355 356 357 358 359 359 359 359 359 358 358 359 358 358 358 357 357 357 357 356 356 355 354 355 354 354 354 353 353 353 353 352 353 352
342 342 343 342 343 345 345 345 346 347 347 349 352 353 351 350 349 350 352 352 352 352 352 352 352 352 352 353 353 354 356 357 357 358 359 359 359 359 359 359 359 358 358 358 357 357 357 357 356 356 355 355 355 354 355 354 354 353 353 353 353 353 353
342 342 343 343 343 343 344 344 343 343 345 347 349 353 355 353 351 351 351 352 353 353 353 353 353 353 352 353 353 353 355 356 357 358 358 359 359 359 359 359 359 359 359 358 358 357 357 357 356 356 355 356 355 355 355 355 354 354 354 354 354 354 353
342 343 342 343 343 343 343 344 344 344 345 345 347 351 354 355 355 354 353 353 354 354 355 355 354 354 354 353 353 353 354 355 356 357 358 359 359 359 359 359 359 359 359 358 358 358 357 357 356 356 356 355 355 355 355 355 354 354 354 354 354 354 354
342 342 343 342 342 342 343 344 344 344 345 344 345 346 348 351 352 351 351 354 356 357 359 358 356 355 355 354 353 353 354 355 355 356 357 358 359 359 360 360 359 359 359 358 358 357 357 357 356 356 356 355 354 354 354 354 354 354 354 355 355 355 354
343 343 343 342 342 342 342 342 342 343 344 344 343 343 344 346 347 347 348 351 355 357 359 360 359 357 356 355 355 354 354 354 355 356 357 358 359 359 359 359 360 359 358 359 358 358 358 357 356 356 355 355 354 352 351 351 353 353 354 355 354 354 353
344 343 342 342 342 342 341 341 341 342 343 343 342 342 342 343 344 345 346 348 351 354 357 360 360 358 357 356 356 355 355 354 354 355 356 357 357 358 359 359 359 359 359 358 358 358 358 357 357 356 355 354 353 350 348 348 350 352 353 353 352 352 350
343 343 343 342 342 342 342 341 340 341 342 342 342 342 342 342 343 344 345 346 347 350 353 357 358 358 357 357 357 357 356 355 354 355 355 356 357 358 359 359 359 359 359 359 359 359 358 358 357 355 354 354 352 348 344 343 345 349 352 352 351 351 347
340 341 342 342 342 343 343 342 341 341 340 340 341 342 342 342 342 343 344 345 346 347 349 352 354 356 356 356 356 357 357 357 356 355 355 355 357 357 358 359 359 359 359 359 359 359 358 358 357 356 355 354 350 346 342 341 343 348 352 354 354 352 347
338 340 341 342 343 343 344 343 342 341 340 340 341 342 342 342 341 342 343 343 344 346 347 348 349 350 352 352 352 352 353 354 355 355 356 357 356 357 358 358 359 359 359 359 359 359 359 358 357 356 355 353 349 347 346 346 347 350 352 353 353 352 350
338 340 341 342 343 344 344 343 342 342 341 341 341 341 342 342 341 341 342 342 343 345 346 346 346 345 344 345 345 345 346 346 346 347 348 351 353 357 358 358 357 357 358 359 358 358 358 359 358 356 355 352 349 347 347 348 350 351 351 350 350 349 348
336 337 339 340 342 343 343 343 343 342 342 342 342 342 342 343 342 342 341 340 341 342 343 344 343 341 340 340 341 341 341 340 340 339 339 340 342 347 352 354 354 352 353 356 358 358 358 357 356 355 353 351 349 347 345 345 347 349 349 348 347 346 345

ECMWFFLT1_925_thetae_045.txt.gz
Theta_e
350 350 350 350 351 351 352 352 353 354 353 353 354 353 352 353 354 355 356 356 356 357 357 356 356 356 356 356 355 354 354 354 353 352 352 353 352 353 352 351 352 353 353 353 352 351 350 349 350 351 353 353 353 355 357 357 356 354 353 355 356 355 355
349 349 349 350 350 351 351 352 354 354 353 353 353 352 352 352 353 354 355 355 355 356 357 356 355 356 356 356 355 355 354 354 354 353 353 353 351 351 351 351 351 352 351 352 351 350 350 349 349 350 352 353 353 355 357 357 356 354 352 354 355 356 356
347 348 349 349 350 351 351 352 353 353 352 352 352 352 352 352 352 353 354 355 355 356 357 356 355 356 356 356 356 355 354 355 355 354 354 354 352 352 352 352 351 351 351 351 351 351 351 351 351 350 351 352 352 355 356 356 356 354 353 353 355 356 356
345 346 348 349 350 351 351 351 351 352 352 351 351 351 352 351 351 351 353 354 355 355 356 356 355 356 356 356 356 356 355 355 355 355 355 355 354 352 353 353 352 352 352 351 351 351 351 351 352 351 352 352 352 354 354 355 355 354 353 353 355 355 356
345 345 346 348 349 350 350 349 351 352 351 350 350 351 351 351 351 351 352 353 354 355 355 355 355 356 356 356 356 356 356 355 355 356 356 356 355 354 354 354 353 353 352 351 351 352 351 352 352 352 352 352 352 353 353 354 355 355 353 353 354 355 355
342 344 345 346 346 348 349 347 349 351 350 350 349 350 351 350 350 351 351 353 354 354 355 355 356 356 356 356 356 357 356 356 356 356 356 356 356 355 354 354 353 353 353 352 352 352 351 351 352 352 352 352 353 353 352 353 356 355 353 353 354 355 355
343 344 344 345 344 345 346 346 348 349 349 350 349 349 349 349 350 350 350 352 353 354 355 355 355 356 356 356 356 357 357 356 356 356 356 356 356 356 355 354 354 353 353 352 352 352 352 352 352 351 352 352 353 353 351 351 354 354 353 353 353 354 355
344 346 343 343 343 343 344 345 346 348 349 349 349 348 348 348 349 349 349 351 352 353 354 354 355 355 355 355 356 357 356 356 357 356 356 357 356 356 356 355 354 353 353 353 352 352 352 352 352 351 352 353 352 352 349 348 351 352 353 353 353 354 354
341 346 344 342 340 339 342 344 346 347 349 350 349 348 348 347 347 349 349 350 351 352 353 353 355 356 355 355 356 356 357 357 357 357 357 357 357 357 357 356 355 353 353 353 353 353 352 352 352 352 351 352 352 352 350 348 350 352 353 353 352 353 354
342 347 347 344 341 341 341 342 346 348 350 351 350 348 349 348 348 348 348 349 350 351 352 352 354 355 355 355 355 356 357 357 358 357 357 357 357 357 356 356 356 355 353 353 354 354 353 352 352 352 352 352 352 353 351 350 351 352 353 352 352 353 353
345 349 349 347 345 346 343 342 347 351 351 351 350 350 349 348 348 347 348 349 349 350 352 352 353 355 355 355 356 356 357 357 357 357 357 357 357 357 357 356 357 356 354 354 354 354 353 353 353 353 353 352 352 353 352 351 351 352 353 352 352 352 353
347 350 350 349 349 349 348 348 349 351 352 351 349 349 349 348 348 348 348 348 348 349 351 352 353 354 354 355 355 357 358 358 357 357 357 357 357 357 357 357 356 356 356 355 355 355 354 354 353 353 353 352 352 352 352 351 352 352 352 352 352 352 352
343 345 346 347 349 351 354 356 353 351 351 350 348 348 349 349 348 348 349 348 348 349 351 352 353 354 354 355 355 357 358 358 357 357 357 357 357 357 357 357 356 357 357 355 355 355 355 355 354 353 352 352 352 352 352 352 352 352 352 352 352 352 352
341 341 343 345 347 351 356 357 356 354 352 350 348 348 348 348 349 348 348 349 349 349 351 353 353 354 354 354 355 357 357 357 357 358 358 358 358 357 357 357 357 357 357 356 356 356 356 355 355 354 353 352 352 352 353 352 352 353 352 352 352 352 352
344 338 340 345 349 351 354 355 357 357 354 350 349 349 348 348 348 348 348 350 350 349 350 352 353 353 354 355 356 356 356 356 357 358 358 359 358 358 358 357 357 357 357 356 356 356 356 356 355 355 354 353 353 353 353 353 353 353 352 352 352 352 352
343 338 340 348 352 350 349 352 354 355 356 354 351 350 349 348 348 348 349 349 350 350 350 352 351 351 354 356 355 354 354 355 357 358 358 358 358 357 358 358 358 357 357 357 356 356 356 356 356 356 355 354 354 354 354 353 353 352 352 352 352 352 351
345 346 346 346 347 345 345 349 351 353 356 356 354 351 348 348 348 348 349 349 349 350 350 351 350 351 353 355 353 353 354 355 356 357 358 358 358 358 358 358 358 358 358 357 357 357 356 356 356 356 356 356 355 355 355 354 353 352 352 351 351 351 351
355 356 350 344 343 343 344 345 347 351 352 351 352 351 348 347 348 348 349 349 349 350 350 352 352 352 353 354 354 354 355 355 356 357 357 358 358 358 358 358 358 359 358 358 358 358 357 357 357 356 356 356 356 356 356 355 353 352 352 351 351 351 351
351 352 345 342 343 342 342 341 343 347 349 349 351 351 348 347 348 349 348 348 349 349 350 351 352 352 353 355 355 354 355 356 357 357 358 358 358 358 358 358 358 359 359 358 358 358 358 358 357 357 357 357 357 357 356 355 354 352 352 351 351 351 351
350 348 344 345 345 344 343 342 342 345 349 350 349 348 348 346 346 347 347 347 348 349 349 351 351 352 354 355 355 355 356 357 358 358 358 358 358 359 359 359 359 359 359 359 359 358 359 358 358 358 358 357 357 356 356 356 355 353 352 351 351 351 351
355 353 352 354 354 352 351 348 345 345 347 347 346 347 349 348 346 347 347 347 348 348 349 351 351 352 355 356 356 357 357 358 358 359 360 359 359 359 359 359 359 359 359 359 359 358 359 358 358 358 357 357 357 357 357 356 355 354 352 351 351 351 351
354 354 355 355 355 355 355 353 350 346 345 345 345 346 348 348 348 349 349 348 348 349 350 351 352 354 355 356 357 358 358 359 359 360 360 360 359 359 359 359 359 359 359 359 358 358 359 358 358 358 358 358 357 357 357 357 355 354 353 352 352 351 351
351 351 352 352 353 354 356 356 355 350 346 346 345 346 348 349 349 350 352 352 351 351 352 354 355 356 356 356 358 358 358 358 359 360 360 360 360 360 359 360 360 360 359 359 359 359 359 359 358 358 358 358 357 357 357 356 356 355 353 353 352 351 351
348 349 350 350 351 353 355 357 354 349 347 347 347 348 348 349 350 352 354 355 354 353 354 355 356 356 356 358 358 357 357 356 357 358 359 360 360 360 360 360 360 360 360 359 359 359 358 358 358 358 358 358 358 358 357 357 357 355 354 353 352 351 351
348 348 349 350 351 352 355 357 355 351 350 353 353 351 348 348 350 353 355 356 355 355 355 355 356 357 357 358 357 355 355 356 357 358 359 360 361 360 360 361 361 361 360 359 359 359 359 359 359 359 359 358 358 358 357 357 357 355 354 354 353 352 351
347 346 348 351 351 352 354 357 357 356 356 357 355 352 351 351 352 354 357 358 356 355 356 357 357 357 356 356 356 355 356 358 358 359 359 360 360 360 361 361 361 360 360 359 359 359 359 359 359 359 359 359 359 358 357 357 357 356 355 354 353 353 351
345 345 347 348 349 351 353 354 354 354 354 355 354 353 353 354 356 356 358 358 357 356 357 356 355 354 353 355 356 357 358 359 359 359 359 360 361 361 361 360 360 360 360 360 360 360 359 359 359 359 359 359 359 359 358 357 357 356 356 354 354 353 352
344 345 346 347 348 349 351 352 353 352 352 353 354 355 354 355 357 358 358 358 359 358 358 356 355 354 354 354 356 357 358 359 359 360 360 361 361 362 361 361 361 361 361 360 360 360 360 360 360 359 359 359 359 359 358 357 357 356 355 355 354 353 352
343 344 345 346 346 348 350 351 350 350 350 351 353 355 356 357 359 359 359 360 359 357 356 356 355 354 355 355 356 357 359 359 360 360 360 362 362 362 362 362 362 362 362 361 361 361 361 360 360 359 359 359 359 359 359 358 357 356 355 355 354 354 353
343 343 344 345 346 347 349 349 348 348 348 349 350 352 356 359 360 360 359 358 356 355 357 359 357 355 355 356 356 357 358 360 360 360 361 362 363 362 362 363 363 362 362 362 361 361 361 360 360 360 360 360 359 359 359 358 357 356 355 354 354 353 353
344 344 345 345 345 346 346 347 347 346 346 347 348 348 351 354 357 356 355 354 354 356 359 360 360 359 358 357 357 357 358 359 359 361 362 362 362 363 363 364 364 363 363 362 362 361 361 361 361 361 360 360 360 360 360 359 357 356 355 354 353 353 353
343 344 345 345 345 345 345 346 346 345 345 345 345 346 347 348 350 350 350 351 353 355 358 360 362 362 360 360 359 358 358 358 359 360 361 361 362 362 363 363 363 363 363 362 361 361 361 361 361 361 360 360 360 360 360 358 357 356 354 353 352 352 353
343 344 345 345 345 345 345 346 346 345 345 345 345 345 345 345 346 346 347 349 350 352 355 359 361 362 362 361 361 360 359 359 358 359 360 361 361 362 362 363 363 362 363 362 361 362 362 361 361 361 360 360 360 360 360 359 358 356 354 352 352 352 352
343 344 345 345 345 345 345 345 345 345 345 345 344 344 344 344 345 345 345 347 348 349 352 354 356 358 360 360 360 360 360 360 359 359 358 359 359 360 360 361 362 362 362 362 362 361 361 361 361 361 360 360 360 361 361 359 357 356 354 351 351 351 351
343 344 344 344 344 344 344 344 344 344 344 344 344 344 344 344 344 343 344 345 346 347 348 349 351 353 354 355 355 355 355 356 357 357 357 358 358 359 359 360 361 361 361 362 362 362 362 362 362 361 361 361 360 361 361 359 357 356 354 352 351 351 350
343 343 344 344 343 343 344 344 343 343 343 343 343 343 344 343 343 343 343 343 344 345 346 347 348 348 348 349 350 349 349 349 349 350 351 353 353 354 354 356 357 358 359 359 360 360 360 361 361 361 361 361 361 361 360 358 357 356 354 351 351 352 352
342 343 343 344 343 344 344 344 343 344 343 343 343 343 343 343 343 343 343 342 342 343 343 344 344 344 343 344 344 343 345 346 344 344 344 344 344 344 345 347 349 351 353 354 356 356 357 357 357 358 358 359 360 360 360 359 357 355 353 351 351 352 353
340 341 342 343 343 344 344 344 344 344 344 344 344 343 344 344 343 344 344 343 342 342 342 343 342 342 341 341 340 340 342 343 343 342 342 341 340 340 341 342 344 344 343 343 345 348 349 350 351 352 354 355 356 358 359 358 356 354 351 350 351 351 351

ECMWFFLT1_925_thetae_048.txt.gz
Theta_e
349 351 353 354 356 356 357 359 359 361 362 362 363 363 363 362 362 363 364 365 366 366 366 364 362 361 360 361 361 361 361 362 363 363 362 361 360 360 361 361 361 360 360 361 361 361 361 361 361 362 364 364 363 363 362 360 358 357 358 358 358 357 357
348 349 352 353 355 356 357 359 361 362 361 362 363 362 362 362 362 363 364 364 365 366 366 364 363 361 361 361 361 361 362 362 363 363 362 362 361 360 360 361 362 361 361 361 361 362 362 363 362 363 365 365 363 363 363 361 359 358 357 358 358 358 357
348 348 350 353 355 357 357 358 360 362 361 361 361 362 362 362 363 363 363 364 365 365 366 365 364 362 361 361 362 362 362 362 362 362 362 362 361 360 361 362 362 361 361 361 361 362 363 363 364 363 364 364 364 364 363 362 360 359 357 358 358 358 358
349 349 350 353 355 357 357 357 359 361 361 360 361 361 361 362 363 363 363 363 365 365 366 365 364 363 361 362 362 363 363 363 362 362 363 362 361 361 361 361 362 361 361 361 361 362 362 363 364 364 364 364 364 364 363 362 361 359 358 358 358 358 358
347 348 349 352 354 356 357 357 358 361 361 359 360 361 362 362 362 362 362 362 364 365 365 365 364 364 362 362 363 363 363 363 363 363 363 362 362 362 361 361 362 361 361 361 361 362 362 363 363 364 364 363 363 363 364 363 361 360 359 358 358 359 358
344 347 349 351 353 355 356 355 357 360 360 359 360 360 361 361 360 360 361 361 363 364 364 365 364 364 364 363 363 364 363 364 364 364 364 363 362 362 362 361 362 362 361 361 361 362 362 362 362 363 364 363 362 362 363 363 361 361 360 358 358 359 358
341 347 350 351 352 353 354 355 355 358 359 358 358 359 359 360 359 359 360 361 362 363 363 363 364 364 364 364 364 364 364 365 365 364 363 363 362 362 362 362 361 361 361 361 362 362 362 363 362 362 362 363 363 362 363 363 362 362 360 359 358 359 359
342 348 350 351 351 352 353 354 354 356 358 357 357 358 358 358 358 358 359 360 360 361 362 362 363 364 364 364 363 364 364 364 364 364 363 363 363 363 362 362 362 362 362 362 362 362 362 363 363 362 362 363 363 363 363 363 363 362 361 359 359 360 360
343 350 352 350 348 349 351 353 354 356 357 358 357 357 357 357 357 358 358 358 358 359 359 360 361 363 364 364 363 364 364 364 364 364 364 363 363 363 362 363 363 362 362 362 362 362 362 362 363 363 363 363 364 364 364 363 364 363 362 361 360 360 361
346 351 352 350 347 347 348 349 353 355 356 359 358 357 357 356 356 357 357 357 357 358 358 359 360 362 363 364 364 364 364 364 364 364 364 363 363 363 362 363 363 363 363 362 362 362 363 363 362 363 364 364 364 365 364 364 364 363 362 362 361 361 362
350 352 353 351 347 348 347 348 354 358 359 360 359 357 357 357 356 356 356 356 356 356 357 358 359 360 363 363 363 363 364 364 364 363 364 363 362 362 362 362 362 363 363 363 362 362 363 363 363 363 364 365 365 365 365 364 364 363 362 362 362 362 361
347 353 356 354 351 351 349 351 355 358 360 361 359 357 357 357 356 356 355 355 355 356 357 358 358 359 361 363 363 363 364 364 363 363 363 363 362 362 362 361 361 362 363 363 363 362 362 363 363 363 364 365 365 365 365 365 364 363 362 362 363 362 361
348 353 357 355 354 354 354 354 356 359 361 360 357 357 357 357 356 355 355 355 355 355 356 357 358 359 360 362 362 362 364 364 363 362 362 363 362 361 361 361 361 361 362 363 363 362 362 362 363 363 363 365 365 365 366 365 364 364 363 362 363 362 361
347 349 353 355 355 357 358 359 358 359 360 359 357 356 356 355 355 354 355 356 354 354 355 357 358 359 359 361 362 362 364 364 364 363 362 362 362 362 361 361 361 361 361 363 363 363 362 361 363 363 364 364 365 365 366 365 365 364 364 363 363 362 361
338 338 347 354 357 359 360 361 363 362 360 357 356 355 355 354 355 355 355 356 355 354 354 356 358 359 359 362 363 364 364 365 365 364 363 363 363 363 362 362 362 362 362 362 363 362 362 361 361 363 364 364 365 365 365 365 365 365 364 364 364 363 361
334 331 335 347 355 359 359 359 361 363 362 360 357 355 355 354 355 355 355 356 355 354 354 355 357 359 360 362 364 364 364 365 365 365 364 364 364 364 363 362 363 363 363 363 363 363 363 362 362 363 363 364 365 365 365 365 365 363 361 361 363 363 361
332 331 330 336 348 357 359 357 358 361 362 361 359 358 355 355 355 354 354 355 355 355 354 354 358 360 361 362 364 364 365 366 366 365 365 364 364 365 365 363 363 363 364 363 364 364 363 363 362 362 362 363 364 364 365 364 363 361 359 359 360 361 362
330 333 332 331 341 356 360 358 358 360 359 358 359 359 356 355 356 355 354 355 355 355 354 353 357 362 363 363 364 365 366 367 366 366 365 365 365 365 365 365 364 364 365 364 364 364 364 363 363 362 362 362 364 364 364 364 362 360 358 358 357 357 360
329 330 331 329 338 353 356 352 353 356 356 355 356 357 356 355 355 355 355 354 355 355 354 354 358 363 364 364 365 366 366 366 367 367 366 366 365 365 366 366 365 365 365 365 365 365 365 364 364 363 362 362 363 363 364 364 362 360 358 358 357 355 356
331 332 332 332 339 347 351 352 354 354 355 355 354 353 355 354 353 355 355 354 354 355 355 355 358 362 364 364 364 365 366 366 367 367 366 367 366 366 367 366 366 366 365 365 365 365 366 365 364 364 364 363 363 363 363 363 363 361 358 357 356 355 354
334 333 333 338 345 351 356 360 361 358 357 355 353 352 355 355 353 353 354 355 356 357 357 358 359 362 364 364 364 365 366 366 366 365 366 367 366 366 366 366 366 366 365 365 365 365 366 365 365 365 364 364 364 363 363 363 362 361 359 357 356 355 354
330 333 339 347 356 362 365 366 364 363 362 359 354 352 352 354 354 352 353 357 358 358 359 360 361 362 363 364 364 364 365 365 365 364 365 366 366 366 366 365 366 366 366 365 365 365 365 365 365 365 364 364 364 363 363 363 362 361 360 358 357 355 354
337 347 353 356 360 364 366 366 366 367 366 361 356 352 351 353 354 352 354 358 359 360 360 360 361 363 363 364 364 364 364 364 364 364 365 366 366 366 365 366 366 366 366 365 365 364 365 365 365 363 363 363 363 362 362 362 362 360 358 358 357 356 354
346 352 354 357 359 361 364 366 366 366 364 360 356 352 351 353 353 353 355 357 359 360 360 360 361 362 363 363 363 364 365 364 364 365 365 366 366 365 365 366 366 366 366 365 365 364 364 365 364 363 362 362 363 362 362 363 363 361 358 358 358 356 354
352 354 356 359 360 360 364 366 365 363 360 358 356 355 353 353 353 354 356 359 359 360 359 359 359 360 361 362 362 363 364 364 365 365 366 366 366 366 366 365 365 365 365 365 365 364 364 363 363 363 363 363 362 362 362 363 364 361 359 359 358 356 354
357 356 357 360 359 359 362 364 364 364 363 363 363 361 357 356 355 356 359 360 359 358 357 358 359 360 360 361 361 362 363 364 364 365 365 366 366 366 366 365 365 365 365 365 365 364 364 363 363 363 364 363 363 363 362 362 363 362 360 359 358 356 354
356 356 356 357 357 359 361 362 363 365 365 364 363 361 358 358 356 357 360 361 359 358 357 357 359 361 361 362 361 362 363 363 364 365 365 365 366 366 365 364 364 365 365 365 364 364 364 364 364 364 363 363 363 363 363 362 362 362 361 360 358 356 355
354 356 356 355 355 358 361 362 362 363 362 362 362 359 359 359 357 359 361 362 360 358 357 359 362 362 363 363 362 362 362 363 363 365 365 364 365 365 365 365 365 365 365 365 365 365 365 365 364 364 363 363 363 362 362 362 361 361 360 359 358 357 355
353 353 353 355 355 357 359 359 360 361 360 360 363 362 360 360 361 363 364 364 365 363 361 362 364 364 364 364 363 362 363 363 365 365 365 363 364 365 366 366 365 365 365 366 365 365 365 364 364 363 362 362 361 362 362 362 361 361 360 358 358 357 356
351 351 351 353 353 355 356 357 358 358 357 359 362 365 364 364 366 367 366 366 366 366 365 364 363 364 364 364 363 363 363 363 364 364 364 364 364 365 366 366 366 366 366 366 366 365 364 364 363 363 363 362 361 361 362 362 362 362 361 359 358 357 356
350 351 352 352 352 353 354 355 356 356 356 356 358 360 363 364 364 364 363 361 362 364 366 366 364 363 363 362 363 363 363 363 363 364 365 365 365 366 367 367 367 366 365 365 364 364 363 363 362 363 363 363 362 362 362 362 362 362 362 361 359 357 356
350 350 352 352 352 352 353 354 354 355 356 355 355 356 357 358 359 360 359 358 360 362 364 366 366 365 364 364 363 363 363 363 363 364 365 365 365 366 366 366 366 365 365 365 364 363 364 363 363 363 363 363 363 363 363 362 362 363 363 362 360 358 356
349 350 351 351 351 352 353 354 354 354 354 353 353 354 354 354 355 356 356 358 359 361 363 365 366 366 365 365 364 364 363 363 362 363 364 364 363 364 363 364 364 363 364 364 363 363 363 363 363 363 362 363 363 363 364 363 363 363 363 361 359 358 356
349 350 351 351 350 351 353 353 353 353 352 351 351 351 351 351 352 352 353 355 356 358 360 362 364 365 365 365 364 365 365 364 362 362 363 362 361 361 362 363 362 363 363 364 364 364 364 364 364 364 363 363 363 363 364 364 364 364 363 361 359 355 352
348 349 350 349 349 349 350 351 351 350 350 349 349 348 348 349 349 349 350 351 352 354 356 358 360 361 361 361 361 362 362 363 362 362 363 362 361 361 362 362 361 361 362 362 361 361 360 360 361 362 362 362 362 362 363 363 363 363 363 362 361 356 351
347 348 349 348 347 348 348 348 348 348 348 348 348 347 347 347 347 348 348 349 351 352 352 352 354 354 354 355 356 357 357 358 359 358 359 360 359 359 358 357 356 355 356 357 357 357 356 355 355 356 356 355 356 359 360 361 362 362 361 360 360 358 356
346 347 348 348 347 348 348 347 347 348 348 348 348 347 348 347 346 346 347 347 348 349 349 349 349 350 350 350 350 351 352 353 354 354 353 353 353 353 352 352 349 345 341 341 343 344 344 344 344 345 345 344 346 349 351 354 357 359 360 360 358 357 357
346 346 347 347 347 347 347 347 347 347 347 348 348 348 348 347 346 346 346 346 346 346 347 347 347 347 347 346 346 347 348 349 350 350 348 348 347 347 347 346 344 339 334 331 330 330 332 334 336 336 335 334 334 335 336 337 340 343 347 352 354 355 357

ECMWFFLT1_925_thetae_051.txt.gz
Theta_e
344 344 349 355 358 358 360 363 363 364 365 365 365 363 362 363 363 365 366 368 368 367 367 365 364 365 363 363 363 363 363 364 364 364 363 363 360 360 362 364 365 363 361 360 360 361 360 359 359 358 361 364 364 362 361 363 363 363 363 362 362 361 360
345 343 346 349 354 358 360 362 364 365 365 365 366 364 363 364 364 365 368 369 369 368 368 366 365 365 364 364 364 363 363 364 364 365 364 363 362 361 361 362 364 364 362 360 359 361 361 361 361 360 361 364 365 364 362 363 365 363 362 362 363 362 361
345 342 344 346 353 359 360 361 364 366 365 365 366 365 364 365 365 366 368 370 370 369 369 368 367 366 365 365 363 363 364 364 364 365 364 363 363 362 361 361 362 363 363 362 359 360 361 362 362 362 362 363 365 365 363 363 364 363 361 361 362 362 363
346 343 343 347 355 360 360 360 363 365 366 365 367 366 366 366 366 367 368 370 371 370 371 370 368 367 365 364 364 363 364 365 365 366 365 364 364 363 362 361 362 363 363 363 361 359 360 362 364 364 363 364 365 365 364 363 363 363 361 361 361 361 363
346 345 343 346 353 358 360 360 362 365 366 365 367 367 367 367 367 367 368 370 371 370 371 370 368 367 365 364 364 363 365 365 365 366 365 364 363 365 364 362 362 362 361 362 363 361 361 361 364 366 365 365 366 365 364 363 363 363 363 362 361 360 361
342 345 344 344 349 356 360 358 360 365 365 364 366 367 367 368 367 367 368 369 370 370 371 370 368 367 366 365 364 364 365 366 366 366 365 364 364 365 365 363 362 362 361 361 362 363 362 362 363 365 365 365 365 363 363 364 363 364 364 363 361 360 360
341 346 346 345 346 352 358 358 360 363 364 363 364 366 366 367 367 366 367 368 369 370 370 369 369 367 367 366 365 365 366 366 367 366 365 364 364 365 366 365 363 362 362 362 362 363 364 364 364 364 365 365 365 363 363 364 364 363 364 364 362 361 360
341 345 345 344 345 349 354 359 359 361 363 363 363 365 365 366 367 366 366 367 368 369 369 369 368 368 368 368 366 366 366 366 367 367 366 365 365 366 367 366 365 364 363 363 363 364 364 365 365 365 365 365 365 365 363 364 365 364 364 364 363 362 361
339 343 344 344 343 344 351 357 360 361 363 363 362 363 365 365 366 366 366 366 366 367 367 367 367 368 369 369 367 366 366 366 367 367 367 365 365 366 366 366 366 366 364 364 364 364 365 365 366 366 366 365 365 365 364 364 365 365 364 364 364 363 361
339 343 345 344 343 345 349 354 360 362 364 366 364 363 364 365 365 365 365 365 365 366 366 366 366 367 370 369 368 367 367 367 367 366 366 365 364 365 365 365 366 366 365 364 362 363 365 366 366 367 367 366 365 366 365 365 366 366 365 365 365 364 361
345 350 351 349 349 349 349 356 365 367 368 370 366 363 364 364 364 364 364 364 364 364 364 365 364 366 370 369 367 367 367 368 368 366 366 365 364 364 364 362 362 364 365 365 362 361 363 366 366 367 369 368 366 366 366 366 366 367 366 366 365 364 362
348 354 356 354 352 351 355 362 369 370 371 371 365 362 363 363 364 363 363 363 363 363 363 365 364 365 368 368 366 367 368 369 368 366 366 366 364 363 363 360 359 361 364 365 363 361 361 365 367 367 369 369 368 367 367 368 367 367 367 365 365 365 364
345 351 357 356 353 354 358 363 365 367 369 366 362 361 362 362 363 362 363 363 362 362 363 364 364 365 367 368 366 367 369 369 368 367 366 366 365 362 361 359 358 358 362 364 365 364 361 363 367 368 368 370 369 368 368 368 368 368 368 366 365 365 365
343 349 357 358 357 358 359 360 362 365 366 363 361 361 360 361 362 362 363 363 362 362 362 363 364 365 367 368 367 368 370 370 369 368 365 365 366 364 361 360 359 358 359 363 365 365 363 362 365 368 368 369 370 369 369 369 369 368 369 367 365 365 365
337 342 349 354 359 362 362 362 363 364 365 364 361 360 360 359 361 361 361 362 362 361 360 362 363 364 366 368 368 369 371 371 370 369 367 365 366 367 364 361 360 360 359 362 365 365 365 363 363 367 369 369 370 369 369 370 370 369 368 368 367 365 365
333 335 339 345 355 360 361 363 366 366 367 367 364 362 361 360 360 361 361 361 361 361 360 361 363 364 365 367 369 370 371 372 371 370 369 367 367 369 367 364 362 362 361 362 364 365 366 364 363 365 368 369 370 370 370 370 370 368 366 366 367 366 365
332 333 335 343 353 359 361 363 366 369 370 369 367 365 361 360 361 360 360 360 360 360 359 359 362 364 365 367 369 371 372 373 372 371 371 370 369 369 369 367 364 364 363 363 364 365 366 366 365 364 366 368 370 370 370 370 370 368 365 363 364 365 366
333 333 333 338 345 351 354 358 363 369 368 366 367 366 362 361 362 360 359 360 359 360 359 358 361 364 366 366 369 371 372 373 373 372 371 371 370 369 370 369 367 366 366 366 365 366 367 367 367 366 365 366 368 369 370 370 369 368 365 363 361 362 364
332 332 333 335 337 338 339 345 354 360 361 360 361 362 361 360 360 360 360 359 359 359 359 358 359 363 366 367 368 372 373 373 374 373 372 372 371 370 371 370 370 368 368 368 367 367 368 368 368 367 366 365 367 368 369 370 369 368 366 363 361 360 362
332 332 334 334 334 334 334 338 348 354 355 356 355 355 358 359 358 359 360 359 359 360 360 360 360 362 366 367 368 372 373 374 374 374 373 373 371 371 371 371 371 370 368 369 368 368 369 369 369 369 368 366 366 366 368 369 369 368 366 364 362 360 360
335 335 337 334 334 343 350 351 355 357 356 355 352 350 354 358 358 359 359 360 360 360 361 362 361 362 365 367 369 372 373 374 374 374 374 373 372 372 371 371 372 371 369 369 369 369 369 369 369 369 369 368 367 366 367 367 367 368 367 365 363 361 360
334 334 335 333 338 357 368 367 363 362 361 362 358 353 352 355 357 358 359 360 360 361 362 363 362 362 365 368 370 372 374 374 374 374 374 373 373 372 371 372 372 371 370 369 368 369 369 369 370 369 369 369 368 367 366 366 366 366 367 366 364 362 361
333 333 332 337 348 362 369 368 365 363 363 364 362 356 353 353 355 358 359 360 361 362 362 363 364 363 365 369 371 371 372 373 373 373 373 373 373 372 372 372 372 371 371 370 368 368 369 369 370 369 369 369 369 368 367 366 365 365 366 365 364 362 361
329 334 342 351 357 361 363 367 369 368 366 367 367 365 361 357 356 359 360 360 361 363 363 364 364 363 365 370 372 371 372 372 371 372 373 373 374 372 372 372 371 371 372 370 368 368 367 369 369 369 369 369 369 369 368 367 367 366 365 365 364 363 361
347 350 354 359 361 360 363 369 370 368 366 366 367 367 364 360 359 360 361 361 362 362 363 363 363 364 366 369 371 370 371 370 370 371 372 372 373 372 372 371 371 372 372 370 369 368 367 367 368 369 369 369 369 369 368 368 367 366 365 364 363 363 361
358 356 356 359 362 361 364 368 369 370 370 369 370 370 364 359 359 360 360 361 362 363 364 364 364 364 366 368 369 369 370 369 370 371 371 371 372 371 371 371 370 371 370 370 369 369 368 367 366 367 368 368 368 368 367 367 367 366 365 365 363 362 361
357 357 356 360 361 360 363 367 369 370 370 370 370 369 365 361 360 360 360 361 363 365 365 364 365 364 365 367 367 368 369 369 370 370 370 369 370 370 369 369 369 369 370 369 369 368 369 368 367 366 367 367 367 366 366 366 365 365 365 365 364 362 361
356 357 359 361 361 361 363 367 369 368 367 367 366 363 363 364 362 362 362 363 365 366 364 364 364 365 365 367 366 366 367 368 369 370 369 368 370 371 370 370 369 369 369 368 368 368 369 369 368 367 367 367 366 365 365 365 365 365 365 364 363 363 361
356 356 357 359 360 361 363 365 366 365 365 367 368 365 362 362 364 364 364 366 367 364 362 362 364 365 366 367 366 366 367 367 369 369 369 368 370 370 371 371 370 369 369 368 368 369 369 369 369 367 366 365 364 364 365 365 365 365 364 363 363 362 361
356 356 357 358 358 359 362 364 365 365 364 365 369 368 365 364 366 367 368 369 369 366 364 364 365 366 368 368 367 367 366 366 368 368 368 368 369 370 372 372 370 369 368 369 369 368 368 367 367 366 366 365 365 364 365 365 365 364 364 364 363 362 361
353 355 357 357 357 357 359 361 362 362 362 362 364 366 367 368 368 368 368 369 369 369 368 368 369 370 369 368 368 367 365 366 367 368 369 369 369 370 371 370 370 369 368 368 367 366 366 366 365 365 365 366 366 365 365 365 364 364 364 363 363 362 361
352 353 356 357 356 356 358 358 359 359 360 360 360 361 363 364 365 366 365 364 366 368 369 369 370 369 369 369 369 368 366 366 367 368 369 368 368 369 368 368 367 367 366 366 365 365 365 365 365 365 365 365 365 365 365 365 364 364 364 363 363 363 361
351 353 355 355 355 356 356 357 358 358 359 359 359 359 360 360 361 362 362 363 365 366 367 369 369 369 368 368 368 367 367 367 366 367 368 367 366 365 365 364 365 365 365 365 364 365 365 365 365 365 364 363 364 364 364 365 364 365 365 364 362 361 360
351 352 353 354 354 355 357 357 357 357 357 356 356 356 357 358 358 359 360 361 363 364 367 369 369 369 369 368 368 369 368 366 365 366 366 365 364 365 364 364 364 364 365 365 365 366 366 366 366 366 365 365 365 365 366 366 366 365 364 362 360 357 356
351 352 352 353 353 354 355 356 355 355 355 354 354 354 354 355 355 356 358 359 360 363 365 366 367 368 368 368 368 369 369 366 365 365 363 362 363 364 363 363 365 367 365 362 362 362 362 363 363 363 363 362 362 361 362 363 362 360 358 356 356 355 351
350 351 352 351 352 352 353 353 353 353 353 352 352 352 352 352 353 353 354 356 358 359 360 361 361 362 362 364 365 366 366 365 365 365 366 364 364 362 356 351 354 359 358 354 352 351 351 352 351 349 349 349 347 345 345 344 343 342 341 340 342 343 342
349 350 351 351 351 352 352 351 351 351 351 351 351 350 350 350 351 351 352 353 354 355 356 356 356 356 357 358 358 359 360 360 360 361 362 362 362 363 356 346 340 341 342 341 340 340 340 339 338 337 336 335 334 333 332 332 332 332 331 330 330 330 331
350 350 350 351 351 351 351 351 351 351 351 352 351 350 350 349 349 350 350 351 351 352 353 353 354 354 354 354 353 354 355 354 354 354 355 355 355 356 355 347 337 333 332 333 334 334 332 331 330 330 330 330 331 331 330 329 329 329 329 330 329 329 329

ECMWFFLT1_925_thetae_054.txt.gz
Theta_e
347 352 350 351 354 355 355 357 355 355 359 364 365 363 363 362 364 366 367 367 368 366 365 363 362 362 362 362 360 359 358 359 360 361 362 360 358 359 361 363 363 362 363 363 362 362 362 361 361 361 360 361 362 361 360 359 359 359 360 360 359 359 359
345 350 353 350 352 356 357 359 358 357 358 364 365 363 362 363 364 366 367 367 368 367 365 364 364 364 363 362 360 359 358 359 360 361 361 361 359 359 360 362 364 364 363 363 362 362 362 361 360 360 360 360 362 362 361 360 359 360 361 360 360 359 359
343 348 353 351 352 355 355 359 359 360 360 364 364 363 363 364 364 365 367 368 368 367 366 365 364 364 364 363 361 360 359 359 360 362 362 361 360 360 358 359 363 365 364 362 362 362 361 361 360 360 360 361 362 363 363 362 360 360 362 362 361 360 361
346 346 351 352 354 355 354 355 358 362 362 364 364 364 363 364 365 365 367 369 369 369 369 367 365 366 365 363 362 361 360 360 361 362 362 362 361 360 357 358 362 364 364 363 361 360 361 361 360 360 360 360 362 364 364 363 362 362 363 363 363 362 361
349 347 349 352 354 356 355 354 360 364 364 364 365 364 364 365 365 366 367 370 370 370 370 368 367 367 366 364 363 362 360 360 361 361 361 362 361 360 358 357 359 361 364 364 362 359 358 360 361 361 360 360 362 364 365 364 364 364 364 362 363 363 362
348 349 349 351 352 353 356 358 362 366 364 365 366 365 364 364 364 365 367 370 370 371 371 369 367 367 366 365 364 362 361 361 360 360 362 362 361 361 359 357 358 360 361 362 363 361 358 359 361 362 361 361 361 364 365 365 364 364 364 363 362 362 362
348 350 349 349 350 351 355 359 362 365 365 364 366 366 365 364 365 364 366 370 370 370 370 369 368 367 365 365 364 362 362 362 362 361 362 362 361 361 360 359 359 359 360 361 361 362 360 357 359 361 363 363 362 363 365 365 364 364 364 363 362 361 361
351 350 348 349 348 347 350 356 359 363 366 365 366 367 366 364 365 364 366 370 370 371 370 369 369 367 364 364 364 362 362 363 362 362 362 362 361 361 361 361 361 360 360 361 361 362 362 359 358 359 363 365 363 364 365 365 364 364 364 363 362 361 360
350 351 347 347 346 346 349 355 358 364 367 367 365 367 367 365 365 365 366 369 370 371 370 368 369 367 365 365 363 362 361 362 364 363 362 363 363 362 361 362 362 360 361 362 361 361 361 361 361 359 360 364 365 365 364 364 364 363 364 364 362 362 360
349 354 351 346 346 349 352 354 363 369 370 369 367 369 368 366 366 366 365 368 368 371 370 369 369 368 367 365 365 364 362 362 365 365 365 365 365 364 363 362 363 362 361 361 361 361 361 360 362 362 360 362 364 365 364 364 364 363 363 364 364 363 361
353 356 355 352 352 356 354 358 369 375 375 372 369 368 369 368 367 367 366 367 369 369 370 370 369 369 368 367 366 364 362 362 365 366 366 366 364 363 363 361 364 364 363 361 360 361 361 361 361 363 363 362 363 365 365 364 364 363 363 363 364 364 361
359 359 359 357 358 359 357 362 373 379 378 373 369 368 369 370 369 368 367 367 368 368 370 369 369 369 369 368 366 365 364 364 364 364 366 365 363 363 362 361 362 364 365 364 361 360 361 362 362 364 364 364 363 364 365 365 364 364 364 363 364 365 363
363 364 363 359 363 366 365 369 375 381 380 373 368 366 368 369 369 368 369 368 367 368 369 369 370 368 368 370 368 365 364 364 363 364 366 364 362 363 361 360 361 363 364 365 364 362 362 363 364 363 364 365 364 364 365 365 364 364 364 365 365 365 364
354 357 359 362 369 378 381 379 382 383 380 373 367 365 366 368 367 368 369 369 368 368 367 368 369 368 369 369 369 366 365 365 364 364 364 362 361 362 360 360 360 360 363 365 366 364 362 362 364 364 364 365 366 366 364 364 364 365 364 365 365 366 366
346 347 354 359 369 379 383 384 386 385 379 375 370 367 366 366 366 367 368 369 368 367 366 367 367 368 368 369 370 369 367 365 365 364 362 361 362 361 360 360 360 359 361 363 364 365 363 362 361 363 365 366 366 367 366 365 365 365 365 365 365 365 366
341 343 346 353 363 371 375 379 383 385 384 380 373 368 366 366 366 368 367 368 367 367 366 366 367 368 368 370 370 370 367 366 366 365 364 362 363 362 361 360 360 361 362 361 362 363 365 364 361 361 365 367 368 368 368 366 365 365 364 364 365 364 365
338 340 341 348 358 364 371 377 381 384 385 383 378 371 366 365 367 367 365 366 366 366 365 366 368 369 367 368 371 370 369 368 367 367 366 363 363 363 362 361 361 362 361 360 360 360 363 365 363 361 362 366 368 370 369 367 366 365 364 363 363 363 363
335 339 344 351 359 365 369 369 374 379 378 374 371 369 366 367 367 364 365 365 365 365 365 364 367 369 368 369 370 371 370 369 369 369 368 366 365 365 364 362 361 361 361 361 359 359 362 365 365 363 361 364 368 370 371 369 367 366 366 365 363 362 362
333 337 342 353 363 367 365 362 366 373 371 368 367 365 364 366 365 363 364 364 364 364 363 363 366 369 369 370 370 372 372 371 370 370 369 368 366 364 365 365 363 362 362 362 361 360 361 363 366 365 363 363 367 370 371 371 370 369 368 366 365 363 362
335 333 336 346 353 355 360 367 370 370 369 367 364 362 362 362 362 364 363 363 364 364 363 363 364 368 370 369 370 373 373 372 373 372 371 370 368 367 366 366 366 365 364 363 363 362 362 363 365 366 365 363 365 367 370 370 371 371 370 367 366 364 362
338 338 339 341 346 355 368 375 372 367 366 361 356 358 363 362 361 362 363 364 364 365 364 364 363 366 371 370 370 372 373 374 375 374 373 371 370 369 368 368 368 367 366 366 365 364 364 364 366 367 367 366 365 366 368 369 370 371 371 369 367 366 364
334 334 335 341 357 375 380 372 364 363 363 360 354 352 357 361 361 360 362 364 365 365 365 366 364 365 369 371 371 371 373 375 376 376 375 373 372 372 370 369 370 369 368 367 365 366 365 366 367 367 367 368 367 367 367 367 367 369 370 371 369 368 366
344 340 341 348 362 372 374 368 365 365 363 363 359 352 352 355 357 358 362 363 364 367 366 367 367 366 368 371 371 370 372 376 377 378 376 374 373 372 371 371 372 371 371 368 366 367 367 367 367 367 367 369 369 368 366 366 365 366 367 369 370 369 367
354 351 356 359 362 367 370 371 370 367 364 364 362 360 359 358 357 359 363 364 364 366 368 368 368 367 368 371 371 371 373 375 377 378 376 375 376 374 373 373 372 372 372 370 368 367 367 368 368 367 367 368 369 368 368 366 366 365 364 366 368 369 368
356 357 359 362 361 359 363 368 368 367 366 365 364 365 366 366 365 364 366 367 367 366 367 369 368 367 367 369 371 371 372 374 377 377 376 376 376 375 374 373 372 372 372 371 369 368 367 368 369 369 369 369 369 369 368 368 368 366 365 365 366 368 368
358 358 359 361 360 358 358 366 370 371 370 370 371 373 372 369 367 366 367 370 368 365 366 366 366 367 366 367 369 370 371 373 377 377 377 377 376 375 374 373 373 374 374 372 371 369 368 367 368 369 370 369 369 369 368 369 369 368 367 367 365 366 367
358 358 356 357 360 361 361 366 371 369 367 369 371 372 372 370 367 364 366 369 368 366 366 365 366 366 365 366 368 371 372 374 375 375 376 376 376 375 373 373 372 373 372 373 372 371 369 368 367 368 368 370 369 369 369 368 368 368 369 368 367 366 366
356 358 356 355 360 363 363 365 368 367 366 368 369 369 367 368 367 365 366 369 370 366 364 365 366 366 366 366 367 370 373 374 373 375 374 374 376 375 374 373 373 372 372 371 372 372 372 371 369 368 368 368 368 368 368 367 367 368 368 368 368 367 365
356 358 357 358 360 360 361 365 366 366 366 367 371 370 365 364 367 367 366 367 368 365 364 366 367 367 367 368 368 370 372 372 373 374 372 372 374 375 374 374 372 372 372 371 372 373 372 371 371 369 369 369 369 368 368 368 367 368 368 367 367 366 366
357 356 355 358 359 358 359 363 366 365 364 365 369 371 368 366 366 367 367 370 368 366 367 367 367 368 370 368 369 370 370 372 373 372 372 373 373 374 374 373 372 372 372 371 372 372 372 372 372 371 370 369 369 368 367 366 367 367 367 366 366 365 365
355 354 353 356 357 357 357 361 362 363 363 363 366 368 369 369 368 369 372 373 372 369 367 366 367 370 369 369 370 370 369 371 372 371 371 372 372 373 374 373 373 373 373 372 372 371 371 372 371 372 371 369 369 368 367 366 365 367 366 365 365 365 364
353 353 354 356 358 357 357 358 359 360 362 363 362 364 366 367 368 369 369 368 370 371 370 368 369 370 369 369 370 369 369 369 370 371 371 371 370 372 373 372 373 372 372 372 371 370 370 371 370 369 369 369 369 368 367 366 366 366 366 365 364 363 360
352 353 354 355 356 356 357 358 358 359 360 360 359 362 362 364 365 366 363 363 365 368 370 369 370 370 371 371 371 369 368 369 367 369 369 369 369 370 371 370 370 370 371 370 368 368 368 368 367 366 366 367 368 367 367 368 366 363 358 354 352 353 354
352 353 354 355 354 355 357 358 357 357 357 357 357 358 359 360 361 362 363 363 365 366 368 369 369 370 370 370 369 368 369 368 367 367 368 367 365 365 367 368 367 366 368 369 367 368 368 367 366 366 365 365 366 365 367 365 358 350 343 339 338 340 341
351 352 353 354 355 355 356 357 357 356 355 355 355 355 356 357 357 358 361 363 365 369 370 370 370 370 371 370 369 369 368 367 366 367 365 363 359 359 361 365 366 363 361 362 364 367 367 365 362 362 362 359 356 356 356 351 342 335 333 332 331 332 332
351 352 352 352 352 353 355 355 355 354 353 354 354 354 355 356 356 357 358 360 363 367 367 368 368 369 370 371 370 369 368 368 369 368 363 356 351 350 351 352 356 358 356 357 359 360 361 360 357 355 355 349 344 341 341 336 331 329 329 330 330 330 330
352 352 352 352 352 354 353 353 352 352 352 353 353 352 353 354 354 355 356 356 358 360 362 362 363 364 365 364 363 364 365 365 366 365 363 356 350 345 342 341 342 344 346 348 350 350 349 349 345 343 343 338 332 330 330 328 327 327 327 328 328 329 329
352 352 352 351 353 353 352 352 353 353 352 352 351 351 351 352 352 352 353 354 355 356 356 357 358 358 360 359 358 358 360 360 360 359 360 359 352 344 340 339 339 337 336 335 335 336 335 333 331 330 330 329 328 328 328 327 327 327 327 327 327 327 328

ECMWFFLT1_925_thetae_057.txt.gz
Theta_e
354 355 355 356 356 355 356 356 355 353 353 356 358 358 359 360 360 362 361 361 360 359 359 359 358 357 356 355 356 355 355 356 357 357 357 357 357 358 359 357 357 358 357 357 358 358 358 358 358 358 359 359 358 360 360 362 362 360 359 359 359 359 359
354 354 355 356 355 356 357 355 353 353 352 356 358 359 360 361 361 362 362 362 361 360 359 359 359 358 356 356 356 356 355 355 357 357 357 358 357 358 359 358 357 358 358 358 358 359 359 359 359 359 360 360 359 360 360 361 361 360 358 359 360 359 359
354 353 353 354 355 356 357 356 354 353 353 356 358 358 360 361 362 363 362 363 362 361 360 359 360 359 358 357 356 357 357 356 357 357 357 358 358 358 359 359 358 357 357 358 358 359 360 360 360 359 359 360 360 360 360 361 361 360 358 358 360 359 359
352 352 352 352 355 356 357 357 355 353 353 356 357 357 359 361 362 363 363 363 363 362 361 360 359 360 358 357 357 357 357 357 357 357 356 356 357 357 358 360 360 358 358 358 359 359 359 361 361 360 360 360 360 360 360 360 360 359 358 358 359 359 359
351 352 351 352 353 354 355 356 354 354 354 356 358 357 358 361 362 363 364 364 364 362 361 361 360 359 360 359 358 358 357 357 357 357 356 356 357 357 357 358 360 361 359 358 360 360 360 361 361 361 360 360 361 360 360 360 359 360 359 358 359 360 360
351 351 352 352 352 354 355 354 354 353 354 356 357 357 358 361 362 363 364 365 364 364 363 362 361 360 360 360 358 358 358 358 357 357 357 357 357 357 357 356 358 361 361 360 360 361 361 361 360 361 361 360 360 360 360 360 360 360 360 359 359 359 359
352 351 351 352 352 354 353 354 354 353 353 354 356 359 359 361 362 362 364 365 365 365 364 363 362 361 360 359 359 359 358 358 358 356 357 357 358 358 357 356 357 359 362 362 361 362 362 362 361 361 360 360 360 360 360 360 360 361 361 360 360 361 361
351 351 351 351 352 353 354 354 353 352 353 353 356 361 361 360 363 362 364 365 366 365 365 364 364 362 361 360 360 360 358 358 357 357 357 358 358 358 357 357 357 357 360 362 362 362 362 362 362 361 360 360 361 361 361 360 361 361 361 361 361 361 361
350 352 350 350 351 351 353 353 353 354 354 353 357 362 361 361 362 363 363 365 365 366 366 365 365 362 361 362 361 361 360 359 358 357 357 358 358 358 358 358 357 356 357 359 361 362 362 360 360 361 361 360 360 361 362 362 361 362 363 362 362 362 363
348 351 352 350 350 351 352 352 352 356 356 356 359 362 363 362 363 363 363 364 364 366 366 366 365 363 363 362 362 362 360 359 359 358 358 358 359 359 359 358 358 357 357 357 358 361 362 361 359 359 361 361 360 361 361 362 362 362 363 362 362 362 362
348 350 352 351 351 353 353 353 356 358 359 359 359 363 364 362 363 363 363 364 365 366 366 366 366 365 363 363 362 363 362 360 360 359 359 359 359 359 359 359 359 358 356 356 356 358 360 362 360 359 360 362 362 361 360 361 363 363 363 363 363 363 362
347 349 351 351 352 353 355 358 363 365 366 363 362 364 364 363 363 363 362 363 365 367 367 367 367 366 364 364 363 362 362 361 360 359 359 359 359 359 359 359 359 359 357 356 357 358 359 360 361 360 359 360 361 362 362 361 361 362 362 363 363 363 362
351 350 348 350 351 353 359 362 366 369 368 365 363 364 366 364 363 362 363 363 364 367 368 368 368 367 365 364 363 362 362 361 360 360 359 359 359 358 358 359 359 359 359 358 357 358 359 360 361 361 360 358 358 361 363 363 362 363 363 364 363 363 363
352 347 346 352 353 355 360 363 367 371 370 366 364 364 366 365 365 364 363 364 364 366 369 369 369 368 366 365 363 362 362 361 360 360 359 359 358 357 357 359 358 358 359 359 358 359 359 359 360 361 360 360 359 359 361 363 363 363 363 364 363 363 363
350 349 359 364 356 355 360 361 366 370 371 367 365 364 367 366 366 365 365 365 365 366 368 369 369 367 367 366 364 362 362 361 360 360 360 360 358 358 358 358 359 358 358 358 359 358 358 358 359 360 360 361 361 360 360 361 363 364 364 364 364 363 363
352 358 373 373 361 359 364 365 368 371 372 370 366 364 367 367 366 366 366 366 365 366 368 369 369 369 367 367 365 364 362 362 361 360 360 360 359 359 359 359 359 358 357 358 359 358 358 357 357 359 360 361 362 362 361 361 362 363 364 363 363 363 363
355 362 371 373 371 375 380 379 379 377 375 372 366 364 366 368 368 366 366 367 366 366 367 368 370 369 368 369 367 365 363 362 361 360 360 360 360 361 360 359 360 358 357 359 359 360 360 359 358 359 360 361 362 362 363 362 362 363 363 364 363 363 363
353 359 366 371 377 385 387 385 386 382 376 370 366 365 365 366 368 368 367 368 367 366 367 367 369 369 369 369 368 367 366 363 362 361 360 359 360 361 361 360 359 358 358 358 359 361 361 360 360 359 359 362 362 362 363 363 363 363 363 363 363 363 363
349 353 362 372 378 380 379 380 382 381 376 370 366 366 365 366 367 368 367 367 369 368 367 367 367 369 368 369 368 368 367 366 364 362 361 361 360 361 362 361 360 359 359 358 359 361 362 363 362 361 360 361 363 363 363 363 364 363 363 363 363 363 363
349 355 361 367 370 373 375 379 382 377 370 367 367 366 366 365 366 367 367 367 368 368 367 367 367 367 369 369 368 369 368 367 366 364 362 363 361 361 361 361 360 359 359 359 359 360 362 363 363 362 361 361 361 363 363 363 364 364 364 363 363 363 363
356 354 358 369 376 382 384 384 384 378 369 366 367 366 366 366 366 366 367 366 367 367 367 367 367 367 369 369 368 369 369 369 367 366 365 364 363 362 362 362 362 360 359 360 359 360 360 362 362 363 363 362 361 362 363 364 365 365 365 365 364 364 364
364 361 365 375 383 387 384 377 375 373 365 362 362 362 362 363 364 365 366 365 366 366 366 366 365 367 369 368 368 369 369 369 368 368 367 365 365 364 363 363 363 362 360 360 360 361 361 360 361 361 363 363 363 362 362 363 365 366 366 366 366 365 365
363 362 362 365 369 373 373 367 365 364 360 357 358 359 361 362 362 363 364 365 366 366 366 366 365 365 367 369 369 369 370 370 370 369 368 367 367 366 365 364 364 363 363 361 360 360 361 360 361 360 361 363 363 364 363 362 364 365 367 368 368 367 366
358 360 360 359 361 364 367 367 364 361 359 357 358 359 359 362 363 362 362 363 365 366 367 367 366 365 367 369 370 369 369 370 370 369 369 368 368 367 366 366 365 364 364 363 362 361 361 361 361 361 361 362 363 364 364 363 363 364 366 368 369 369 369
358 357 358 360 361 362 366 370 367 364 365 363 363 366 365 363 365 365 365 364 364 365 366 367 366 365 366 369 370 370 371 371 372 371 370 370 369 369 369 367 366 366 366 366 364 363 362 362 363 362 362 362 363 364 365 365 365 364 365 366 368 369 370
359 358 357 360 363 364 366 368 365 366 368 365 366 369 369 369 369 368 368 367 366 364 364 365 366 365 365 366 368 371 371 371 372 373 372 372 371 371 370 370 369 368 367 367 366 365 364 364 363 364 365 364 364 365 365 365 366 366 366 366 366 366 368
358 358 358 360 361 363 364 364 364 365 366 365 367 369 368 368 370 369 368 367 368 367 364 362 365 365 365 365 367 370 371 371 372 373 373 373 373 372 372 371 370 370 369 369 369 368 367 366 365 365 366 365 365 365 365 366 366 366 367 367 366 366 366
357 356 358 358 358 357 362 364 365 365 363 364 368 369 367 366 366 367 367 367 368 369 366 363 363 365 365 366 367 369 371 371 372 374 374 374 374 374 374 372 372 371 370 370 370 370 368 368 366 366 366 366 367 367 366 366 366 366 367 367 367 368 366
357 355 357 357 356 355 360 363 363 362 363 362 364 367 368 367 367 365 366 366 366 368 368 366 364 364 365 366 366 369 371 371 372 374 375 375 375 374 374 374 373 372 372 371 371 370 370 369 368 367 367 367 368 368 368 368 368 368 367 368 368 367 368
356 356 356 357 356 355 357 360 361 362 362 361 362 363 365 368 370 368 369 370 369 367 368 368 365 365 366 366 366 369 370 371 372 374 375 376 375 374 375 375 373 373 372 372 372 371 370 369 369 369 367 367 367 368 368 369 369 369 369 368 368 368 368
354 355 355 356 356 355 355 357 360 361 360 359 360 361 362 365 369 368 368 369 369 370 369 368 368 368 367 366 368 369 371 372 372 374 375 375 375 375 375 374 374 373 372 372 372 372 371 372 371 370 369 368 368 368 369 368 368 368 368 367 366 366 366
354 354 354 356 356 355 356 357 358 360 359 357 357 358 359 361 363 364 364 365 368 370 369 368 370 371 368 368 368 368 371 373 372 373 374 374 374 375 375 375 374 373 373 373 372 371 372 372 372 371 371 369 369 369 369 367 365 364 363 363 362 362 362
355 354 353 354 355 355 356 357 358 358 358 356 355 355 356 357 359 360 362 363 364 366 369 370 371 371 371 370 370 370 371 373 374 373 373 372 373 374 374 375 374 373 373 373 372 372 372 372 372 372 371 371 371 369 365 360 356 354 355 356 356 355 353
354 353 352 352 354 354 354 356 357 357 356 354 354 354 354 357 357 358 361 365 366 366 368 370 370 370 371 371 370 370 370 372 373 374 372 372 372 373 374 374 374 372 373 373 373 372 372 371 371 370 370 370 369 363 353 346 345 343 343 343 341 339 338
351 351 352 353 352 352 353 355 356 355 354 353 353 354 354 355 356 357 359 364 368 370 369 370 371 371 372 371 370 370 370 371 372 370 367 365 365 365 367 369 371 370 370 370 371 371 370 370 369 367 366 365 362 356 345 337 335 334 332 331 331 330 329
349 348 352 353 352 352 353 353 353 353 353 353 352 353 354 354 354 356 357 361 365 369 369 370 370 369 370 371 370 370 369 367 364 362 361 361 360 358 356 357 362 365 364 365 366 368 368 367 365 363 363 356 348 344 339 333 330 329 328 328 327 327 327
348 349 352 352 352 352 353 352 352 352 352 352 352 352 352 352 352 353 355 357 360 364 366 367 365 363 364 366 366 366 363 359 355 354 354 355 355 353 350 346 347 351 353 356 358 360 361 359 355 354 354 347 337 332 331 329 328 328 328 327 327 328 328
347 348 351 352 352 352 352 352 353 352 351 352 350 350 351 352 351 352 353 355 356 360 362 363 361 359 359 361 362 362 359 354 349 348 347 346 346 346 343 337 334 335 337 340 343 346 347 345 343 340 339 336 332 328 328 328 328 328 328 328 328 328 330

ECMWFFLT1_925_thetae_060.txt.gz
Theta_e
351 353 353 353 353 353 353 353 350 350 350 350 352 352 352 352 352 352 353 354 354 354 355 354 355 355 355 355 355 354 353 352 352 352 351 352 354 354 352 352 353 353 353 354 353 354 354 354 356 356 357 357 356 356 356 355 355 357 360 360 359 359 358
352 353 354 353 353 353 353 352 349 351 351 351 353 353 353 354 353 353 354 354 354 354 355 354 354 355 355 354 354 354 354 352 352 352 351 352 353 355 354 353 353 353 353 353 352 354 354 355 355 355 356 357 356 356 356 356 356 356 358 360 360 359 359
351 352 353 353 354 353 353 353 350 351 352 352 352 353 354 354 354 354 354 354 354 353 355 355 354 355 354 354 354 353 353 353 352 352 352 352 352 354 355 354 353 353 354 355 354 354 354 355 355 355 355 355 357 356 356 356 357 356 357 360 360 359 359
351 352 353 352 354 353 353 353 351 350 353 352 353 354 355 354 355 355 355 355 355 354 355 355 355 355 354 354 353 353 353 353 353 352 352 352 352 352 355 356 355 354 355 356 355 354 354 354 354 355 355 355 356 357 357 357 357 357 357 360 361 359 359
353 352 352 353 353 353 353 354 351 351 352 353 354 354 355 356 356 357 356 356 356 355 355 355 355 355 354 354 354 353 353 353 353 353 352 352 353 353 354 356 356 355 355 355 356 356 355 355 355 356 356 356 357 357 357 357 357 357 358 360 361 359 358
352 352 353 353 353 353 353 353 353 351 351 353 354 354 355 356 357 357 357 357 357 357 356 356 356 356 356 355 354 354 354 354 353 353 353 353 354 354 354 355 356 356 355 355 356 357 356 356 356 356 357 357 357 357 358 359 358 358 359 360 360 359 357
352 351 353 353 353 353 353 353 353 351 352 352 354 355 356 357 358 358 358 359 358 358 357 357 356 356 356 356 355 355 354 354 354 353 354 354 354 355 355 355 355 357 356 355 355 357 357 358 357 356 357 357 358 358 358 359 359 358 358 360 360 359 357
351 352 351 353 353 352 353 353 353 351 352 352 353 355 356 357 358 359 359 359 359 359 358 358 357 357 357 357 356 355 355 355 355 354 354 354 355 356 355 355 356 356 358 357 356 356 356 357 358 358 358 358 358 359 358 358 360 360 360 359 360 359 357
351 352 351 352 352 351 353 353 352 352 351 352 352 354 356 357 358 359 359 360 360 360 359 359 358 358 357 357 356 356 356 355 355 355 355 355 355 355 355 355 355 356 358 358 357 357 356 356 357 358 359 358 359 359 358 359 359 359 360 359 359 359 358
351 351 351 353 351 352 353 352 353 353 352 352 352 353 355 356 358 359 360 361 360 361 360 360 359 358 358 357 357 357 356 356 355 355 356 356 355 355 355 355 355 355 357 358 359 358 357 357 357 358 358 359 359 359 359 359 359 359 360 359 359 359 358
350 351 351 352 350 353 353 353 355 355 352 352 351 353 354 354 357 359 360 361 362 361 361 361 360 359 359 358 358 357 357 356 356 355 356 355 355 356 355 355 355 355 356 357 359 359 358 358 358 358 359 358 359 359 359 359 359 359 360 360 359 359 358
350 352 351 352 352 352 353 354 356 356 354 352 352 354 355 354 357 358 359 361 362 362 363 361 361 361 360 359 358 358 358 357 357 356 356 355 355 355 356 355 356 355 355 355 356 358 359 360 359 359 359 359 358 358 359 359 359 359 360 360 360 360 359
350 351 350 351 351 352 354 354 355 356 354 352 352 354 355 355 356 357 359 361 361 363 363 363 363 361 361 360 359 359 358 357 357 357 356 356 355 355 355 355 355 356 355 355 354 356 358 360 360 360 360 360 360 360 359 359 359 359 359 360 360 360 360
352 350 349 350 350 352 355 355 355 356 354 352 351 353 355 356 356 357 359 360 361 363 363 363 363 362 362 361 360 360 359 358 358 357 357 356 356 356 355 356 356 355 356 355 354 355 356 357 359 360 359 360 359 360 360 359 360 359 360 360 360 360 361
351 348 349 349 350 353 353 354 356 355 354 353 351 353 356 357 358 358 358 359 361 362 363 364 363 364 363 362 361 361 360 359 359 358 357 357 356 356 356 355 356 356 356 356 355 355 355 355 357 359 360 360 359 359 359 359 359 359 359 360 360 361 360
350 349 349 349 350 351 351 353 355 355 357 356 352 353 357 358 359 359 359 359 361 362 363 363 364 364 364 363 362 362 360 360 360 359 359 358 357 357 356 356 356 356 356 356 356 356 355 355 355 357 358 359 359 358 359 359 360 359 359 359 359 360 360
347 349 349 347 348 349 352 354 355 355 358 357 354 354 358 360 360 360 360 361 360 361 363 364 364 364 364 364 363 362 362 361 360 360 359 359 358 357 357 357 357 356 356 356 357 356 356 356 355 356 356 358 358 358 358 358 359 359 359 359 359 360 360
348 347 348 349 349 352 354 355 358 359 358 356 355 357 358 361 362 361 361 361 360 362 363 364 365 365 364 365 364 363 363 361 361 360 360 359 358 358 357 357 357 356 356 356 357 357 357 357 356 355 356 357 357 359 358 358 358 357 358 359 359 360 360
350 348 349 351 350 352 354 355 357 361 360 358 357 357 360 362 363 362 362 361 362 361 363 365 366 366 365 365 365 365 364 362 362 361 360 360 359 358 358 358 357 356 356 356 356 357 357 357 357 356 357 357 357 358 358 358 358 358 358 358 358 360 361
361 359 358 356 354 355 356 359 362 361 359 360 359 360 362 362 363 364 363 362 363 362 362 364 366 366 366 366 366 365 364 364 362 361 361 360 359 358 358 358 357 356 356 356 356 356 356 357 357 357 357 356 357 357 358 358 358 358 359 358 358 359 360
371 372 373 372 371 372 372 376 375 367 361 362 362 361 362 364 365 364 364 363 364 363 363 364 365 366 367 367 366 366 365 365 363 362 361 360 360 359 358 358 358 358 356 356 356 356 356 357 357 357 357 356 356 357 357 357 357 358 358 358 359 359 359
365 368 371 373 376 379 377 374 372 367 364 363 363 363 363 364 365 365 365 365 365 364 364 364 364 365 366 367 367 367 366 366 364 363 362 361 360 359 358 358 358 358 358 357 356 356 356 356 357 357 357 358 357 356 356 356 357 358 358 359 359 360 361
361 364 367 368 368 369 367 364 362 361 362 363 363 363 363 365 366 366 365 365 365 366 365 364 365 365 365 367 367 367 367 367 366 364 362 361 361 359 359 358 359 359 359 358 357 357 356 357 357 357 358 359 358 357 357 357 357 358 359 359 360 360 361
362 365 366 364 364 363 363 363 363 362 364 365 366 366 365 364 364 365 366 366 366 366 366 366 365 364 365 367 367 367 368 367 366 365 364 363 362 360 359 359 359 358 359 359 358 357 357 357 357 357 358 359 359 359 359 359 358 359 360 361 361 361 362
362 362 363 362 363 363 362 363 364 364 366 366 367 368 367 366 365 364 364 364 365 366 365 365 365 365 366 366 366 367 367 367 367 367 366 365 364 362 361 360 359 359 359 359 359 358 358 358 357 357 358 358 359 360 360 361 360 360 360 361 361 362 363
359 358 359 361 361 362 362 362 361 362 364 364 365 367 367 366 367 367 365 364 364 364 364 365 365 366 366 365 366 367 367 368 368 367 367 366 365 364 363 362 360 360 360 360 360 359 358 358 358 358 358 358 358 359 360 361 361 361 362 361 361 362 363
355 356 356 358 359 360 359 360 360 359 361 363 364 366 365 366 366 366 366 367 365 364 364 365 364 365 364 365 366 367 367 367 368 368 367 367 366 365 364 364 363 362 361 361 361 360 360 360 359 359 358 359 359 359 359 360 360 362 362 362 362 362 363
355 355 354 355 357 357 357 359 359 358 359 361 363 364 366 366 366 365 365 365 365 365 364 363 365 364 364 365 364 366 368 368 368 368 368 367 367 367 365 365 364 364 363 362 362 362 362 361 361 360 359 359 360 360 360 360 361 361 361 362 363 363 363
355 355 354 353 354 356 355 357 358 358 358 359 360 362 364 365 368 367 366 365 366 366 364 363 365 365 364 364 365 365 367 368 368 368 368 368 368 368 367 367 366 365 365 364 364 363 364 363 363 362 362 361 361 362 363 362 362 363 362 363 364 364 365
353 355 354 353 354 355 355 355 357 357 356 356 358 359 359 360 363 364 364 365 367 368 367 365 365 366 365 364 365 366 367 368 369 370 369 369 369 368 368 368 367 367 366 365 365 365 365 365 365 364 363 363 363 364 364 365 364 364 364 365 365 365 365
350 352 353 352 354 354 353 355 356 355 354 354 355 356 356 357 358 359 360 363 364 367 369 368 367 367 365 364 364 365 366 368 369 370 370 371 370 370 369 369 369 369 368 368 367 367 366 367 367 366 365 364 364 364 365 366 367 366 366 366 366 366 365
348 348 349 351 353 353 353 354 355 353 353 352 351 353 355 355 356 357 359 362 364 365 368 371 369 367 364 365 365 365 367 368 369 371 372 372 371 371 370 370 370 370 370 369 369 368 368 368 367 367 367 366 365 365 365 366 366 365 366 365 366 366 366
349 347 347 349 352 352 352 353 352 352 351 351 351 352 354 355 355 356 358 362 366 365 367 371 371 367 366 366 365 365 367 369 370 371 373 373 373 373 372 372 371 371 370 370 370 369 369 368 368 368 367 367 366 365 364 363 362 362 362 363 363 363 363
349 347 347 348 351 352 352 352 352 352 351 352 352 352 353 354 355 356 358 362 366 367 367 369 371 370 368 367 366 368 369 369 370 372 373 373 372 371 373 372 372 371 371 371 371 370 369 368 369 368 368 368 366 361 356 355 357 356 356 356 357 356 355
344 344 345 348 349 351 351 352 352 352 351 352 352 352 352 352 353 355 355 359 365 368 368 368 371 371 371 368 368 369 369 370 372 372 371 369 366 366 367 369 371 372 371 372 372 371 370 370 370 370 370 368 366 359 352 348 348 349 348 346 346 344 342
340 342 344 345 347 349 351 352 351 351 352 351 350 351 351 351 351 352 353 356 363 368 369 368 370 370 371 370 369 370 370 371 370 368 367 365 362 360 358 359 364 367 368 369 371 371 370 370 369 370 370 366 361 357 354 350 344 341 339 337 335 332 331
339 340 342 344 345 348 350 351 351 351 351 351 350 350 351 351 351 351 351 354 360 365 367 368 368 369 369 369 369 368 369 367 363 362 361 360 360 359 355 352 354 358 361 366 368 369 371 371 369 368 368 366 359 352 347 343 337 333 331 330 329 329 329
340 340 341 342 343 346 349 351 352 351 351 351 350 350 350 350 350 351 352 354 358 361 363 365 366 367 366 365 364 364 364 362 358 356 355 353 353 355 356 352 345 342 345 352 356 358 361 362 360 358 356 356 353 345 337 333 331 331 329 328 328 329 329

ECMWFFLT1_925_thetae_063.txt.gz
Theta_e
349 350 350 350 351 349 350 349 347 347 348 348 349 349 350 351 352 352 353 353 353 352 354 354 354 355 355 354 354 354 354 354 354 353 353 353 352 352 351 351 351 351 351 351 352 352 353 353 352 352 352 352 353 352 350 350 350 351 352 353 356 358 359
349 350 351 350 351 350 350 350 347 347 347 348 348 348 350 351 352 352 352 352 353 353 353 353 354 355 354 355 354 354 354 353 353 353 353 352 352 352 351 351 351 350 350 350 351 352 352 353 352 351 352 352 352 353 351 350 351 352 353 353 355 358 359
349 350 350 351 352 352 352 350 348 348 347 348 348 348 350 350 351 352 352 352 353 352 353 353 354 354 355 355 354 354 354 354 353 353 353 352 352 352 352 352 351 351 350 350 351 351 352 353 353 352 351 352 353 353 352 351 352 353 354 354 355 356 358
349 350 350 350 352 352 352 351 349 347 347 347 348 348 349 350 351 352 352 352 353 353 353 353 354 354 354 355 354 354 354 353 353 353 352 352 352 352 352 352 351 351 351 350 350 350 351 352 352 353 352 353 353 353 353 353 353 353 353 354 355 355 357
349 349 350 351 352 353 352 351 350 348 347 348 348 349 349 350 350 351 351 352 352 353 353 353 353 354 354 354 354 354 354 354 353 353 352 352 351 351 352 352 351 351 351 351 351 351 352 353 353 353 353 353 353 354 354 354 353 354 354 354 355 355 356
349 349 350 350 351 352 352 351 350 348 348 348 349 348 349 350 350 351 351 352 352 352 353 353 353 354 354 354 354 354 354 354 353 353 353 352 352 351 351 351 352 352 352 351 351 351 352 352 353 352 352 353 354 354 354 354 353 354 354 354 355 355 355
348 349 350 350 350 351 351 351 350 349 348 348 348 349 350 350 350 351 351 352 352 352 352 352 353 353 354 354 354 354 353 354 353 353 352 352 351 351 350 351 352 352 353 352 352 352 352 352 352 353 353 352 353 353 353 354 354 354 354 355 355 356 357
349 349 349 350 350 350 350 351 350 349 349 349 349 349 350 351 351 350 351 351 352 352 352 353 353 353 353 353 353 354 353 353 353 353 353 352 351 351 351 351 351 352 353 353 353 353 353 353 353 354 354 354 353 354 353 354 354 355 355 355 356 356 357
348 349 349 350 350 350 350 350 350 349 349 349 349 350 350 351 352 351 351 351 352 352 352 352 353 353 354 353 353 353 353 352 353 352 352 352 351 351 351 351 351 351 353 353 354 354 353 354 354 355 355 355 354 354 354 354 354 354 356 355 356 356 357
349 350 349 350 349 350 351 350 350 351 350 350 350 351 351 352 353 352 352 352 352 353 352 352 353 353 354 353 353 353 353 353 352 352 352 352 352 352 351 351 352 352 352 353 354 354 354 354 354 355 356 356 356 355 355 355 354 355 355 356 356 357 356
349 350 350 351 351 351 351 351 352 352 351 349 349 351 352 352 353 353 354 353 353 354 353 353 353 353 354 354 353 353 353 352 353 352 352 353 352 352 352 352 352 352 352 353 353 354 354 354 355 355 356 356 356 357 356 355 356 355 356 357 357 357 356
350 350 351 351 351 352 353 352 354 354 352 349 349 351 352 352 353 354 354 354 354 354 355 353 354 354 353 354 354 354 353 353 353 353 353 352 352 353 353 352 353 353 353 352 353 353 354 355 355 355 355 356 356 357 356 356 356 356 357 357 357 357 357
351 351 350 351 351 352 354 354 354 354 352 350 349 350 352 352 354 354 355 356 356 355 356 355 355 355 354 354 354 355 355 353 353 353 353 353 353 352 353 353 353 353 353 353 353 354 354 354 355 355 355 355 355 356 357 357 357 357 357 357 357 357 358
352 351 350 352 352 353 355 354 354 355 353 350 350 350 351 353 354 354 355 356 356 356 357 357 357 356 356 356 355 355 355 354 354 354 353 354 353 353 353 353 353 353 353 353 353 353 354 354 355 355 355 355 355 355 356 356 357 357 357 358 357 357 358
351 350 350 352 352 354 354 354 355 355 353 351 350 350 351 352 353 354 355 357 357 357 357 358 358 357 357 356 356 356 356 355 355 354 354 354 354 353 353 353 353 353 353 353 353 353 353 354 354 356 356 356 356 356 356 356 356 356 356 357 357 357 358
349 349 350 351 351 352 352 353 354 354 353 353 350 349 351 351 352 354 355 356 357 358 358 359 359 358 358 358 357 357 356 356 356 355 355 354 354 354 354 353 353 353 353 353 353 353 353 353 354 355 356 356 356 357 356 356 356 356 355 356 357 357 358
348 350 349 349 351 351 351 353 353 354 354 354 350 350 351 351 351 353 354 356 357 358 359 360 360 359 359 358 358 357 357 357 356 356 356 355 355 355 354 354 354 353 354 354 353 354 353 353 353 353 354 355 356 356 357 357 356 356 356 356 357 357 357
348 350 348 349 350 350 351 352 353 354 354 352 349 350 350 351 353 353 353 355 356 358 359 360 361 360 359 360 359 358 359 358 357 357 356 356 356 355 354 354 354 354 353 354 354 354 354 353 354 353 353 353 355 356 356 357 356 356 356 357 357 357 357
349 348 348 349 350 350 350 351 352 352 352 350 349 349 350 351 352 352 354 354 356 357 358 360 361 361 361 361 360 360 359 359 358 358 357 356 356 356 356 355 355 354 354 354 354 354 354 354 354 353 353 353 354 354 355 355 356 356 356 356 357 357 357
347 347 347 348 349 349 349 350 351 350 349 350 350 349 350 351 353 354 353 354 355 357 358 360 361 361 361 361 361 361 360 360 359 359 358 357 357 356 356 356 356 355 355 354 354 354 354 354 354 354 354 353 353 353 353 354 355 355 355 356 356 357 357
363 357 353 350 349 350 350 351 352 350 347 349 350 350 350 352 353 355 354 355 356 357 358 360 360 361 362 362 361 361 361 361 360 360 359 359 358 357 357 356 356 355 355 355 354 355 354 354 354 355 354 354 354 354 353 353 354 354 355 355 355 356 357
378 375 373 370 369 368 362 355 352 350 348 350 350 351 352 352 355 356 356 356 357 358 358 359 361 361 362 362 362 362 362 362 361 361 360 359 359 358 358 358 357 356 356 356 355 355 355 355 354 354 354 355 354 354 354 353 354 354 354 355 355 356 357
367 370 373 373 373 372 363 354 353 353 352 352 353 353 353 355 357 358 358 358 358 359 359 360 361 362 362 362 363 363 362 362 361 361 360 360 360 359 359 358 358 357 357 356 355 355 355 354 355 354 355 355 355 355 355 354 354 354 354 355 355 356 356
361 363 364 364 364 363 360 360 361 360 359 360 359 357 355 357 358 360 360 360 360 359 360 360 361 362 362 363 363 363 363 363 363 362 361 360 360 359 359 359 358 358 358 357 356 356 355 355 355 355 354 354 354 354 355 354 355 354 355 354 355 356 356
360 360 360 360 362 361 361 363 362 362 363 364 364 363 361 359 360 362 361 361 361 361 361 360 361 361 363 364 363 364 364 364 363 363 362 362 361 360 360 359 359 359 358 358 357 357 356 356 355 354 354 354 354 355 355 355 355 354 355 354 355 355 355
357 358 358 357 358 358 359 361 361 361 362 361 363 365 362 362 363 362 363 363 362 362 362 361 362 362 362 363 364 365 365 365 365 364 363 363 361 361 361 360 360 359 358 358 358 357 357 356 355 355 355 354 355 354 354 355 355 355 356 355 356 356 355
353 355 357 357 357 357 357 357 357 357 357 359 363 365 363 363 364 363 363 363 362 362 362 363 363 363 362 362 363 364 365 365 365 364 364 363 363 362 362 360 361 360 358 358 358 357 357 357 356 356 355 355 355 355 355 356 355 356 356 357 357 357 356
352 353 355 356 356 355 354 354 354 354 354 357 361 364 364 364 364 364 364 362 362 364 364 363 363 364 363 363 364 364 365 366 366 365 365 365 364 364 362 362 361 360 359 358 358 358 358 357 357 356 356 356 356 356 355 356 356 356 357 357 357 358 358
352 353 353 354 355 354 353 352 351 351 352 354 357 360 363 363 362 362 362 361 362 364 366 365 365 364 364 364 364 364 364 365 365 365 366 365 365 364 363 363 362 361 360 359 358 358 358 358 358 357 356 356 356 357 356 356 357 356 357 357 357 358 359
349 351 352 352 354 353 351 350 350 349 351 353 354 356 358 360 360 359 358 360 362 364 366 367 366 365 365 364 363 364 365 364 365 366 366 366 366 365 364 363 362 362 361 360 359 359 358 358 358 358 358 357 357 357 357 356 357 357 358 357 358 358 358
346 348 349 350 351 352 350 350 349 348 350 352 353 353 355 356 357 356 356 359 363 365 366 367 368 368 367 364 363 363 364 364 365 366 365 366 366 366 366 364 363 363 362 362 360 360 359 359 359 359 359 358 358 358 358 358 359 359 358 359 359 360 360
344 344 346 348 350 351 350 349 349 349 349 350 352 352 353 354 355 354 355 357 362 365 365 367 368 369 368 366 363 362 363 364 365 366 365 366 367 366 366 365 365 364 364 362 362 361 361 361 360 360 360 360 360 360 360 360 361 361 361 361 361 361 362
343 342 343 345 348 349 350 349 348 348 348 349 351 352 352 352 353 353 354 356 359 364 366 367 368 369 369 366 363 362 363 365 365 366 366 366 366 367 366 366 365 365 364 364 363 363 362 362 362 362 362 361 361 362 362 361 361 362 362 363 363 364 364
341 340 340 342 345 348 349 348 348 348 348 348 349 350 350 351 351 351 352 354 356 360 365 368 368 369 370 367 365 363 364 365 365 366 367 368 368 367 367 367 366 366 365 365 365 364 364 363 363 363 363 363 363 362 361 360 361 362 363 364 364 364 364
338 337 339 341 343 345 348 349 349 349 348 348 349 349 350 350 349 350 350 351 352 357 363 367 367 369 369 368 367 364 365 366 367 368 368 367 366 365 365 366 367 367 367 366 366 366 366 365 366 366 365 365 365 363 359 358 360 362 363 362 363 364 363
336 335 337 339 341 343 346 349 350 349 349 349 349 349 350 349 349 350 349 349 351 355 361 365 366 368 369 369 368 366 366 367 368 368 366 364 363 362 360 360 363 366 367 368 368 368 368 366 367 368 366 366 366 364 362 361 362 361 360 360 360 358 357
335 336 337 339 340 341 343 347 350 350 349 349 349 348 349 349 349 349 350 352 352 354 358 362 364 365 367 369 369 367 367 368 367 365 363 362 362 361 358 355 357 360 364 366 367 367 368 368 368 369 369 368 366 362 359 359 359 356 352 350 347 344 341
336 337 338 340 341 341 342 345 348 350 350 349 349 348 348 348 348 348 349 352 353 354 356 360 362 363 365 367 368 367 366 366 365 362 360 358 358 359 358 357 354 351 353 360 365 365 366 367 366 366 367 366 363 360 355 352 350 345 338 334 333 331 330

ECMWFFLT1_925_thetae_066.txt.gz
Theta_e
348 349 348 349 349 349 349 349 348 348 349 349 350 350 351 351 352 353 353 353 353 353 353 353 353 354 353 353 353 352 352 352 351 350 351 352 352 352 352 352 353 352 353 352 352 353 352 352 351 350 350 350 350 351 351 351 352 351 349 347 347 348 351
347 348 348 348 348 349 349 348 347 348 348 349 349 349 350 351 351 352 353 353 353 352 353 353 353 354 354 353 354 353 352 352 352 351 351 351 352 352 352 352 352 352 352 352 351 352 352 352 351 350 351 351 351 351 351 351 352 352 351 348 348 349 351
346 347 347 348 349 349 349 348 347 347 348 348 349 349 350 350 351 352 352 352 352 353 353 353 353 354 354 354 354 353 353 352 352 351 351 351 352 352 352 352 352 352 352 352 352 351 352 352 351 351 350 351 351 351 351 351 352 353 352 350 349 349 351
346 346 347 348 349 349 349 348 347 346 347 348 349 349 349 350 351 352 352 352 352 352 353 352 353 354 354 354 354 354 353 353 352 352 352 352 351 351 352 352 352 351 351 351 351 350 350 350 351 351 350 351 351 350 351 350 351 352 353 352 350 350 351
346 346 346 347 348 349 348 348 347 346 347 347 348 349 349 350 350 351 352 352 352 352 352 352 352 353 353 353 354 354 353 353 353 353 352 352 351 351 351 351 352 352 351 351 351 350 349 349 350 350 351 350 351 351 351 350 351 351 353 353 352 351 352
346 346 347 348 347 348 348 347 347 346 346 346 347 348 349 349 350 351 351 352 352 352 352 352 353 353 353 353 353 353 353 353 353 353 352 352 352 352 351 351 351 351 351 351 350 350 350 350 349 349 350 350 350 351 351 351 350 351 352 353 353 353 352
345 346 347 347 347 347 348 347 347 346 346 346 346 347 348 349 350 350 351 351 352 351 351 352 352 353 353 353 353 354 353 353 353 352 352 352 352 351 351 352 352 351 351 351 350 350 350 350 349 349 349 350 350 351 350 351 350 351 352 353 353 354 353
345 347 346 346 347 347 347 348 347 346 347 346 346 347 347 348 349 350 351 351 351 351 352 352 352 353 353 353 353 354 353 353 353 352 352 352 352 352 351 351 352 351 351 351 350 351 350 350 350 349 349 350 350 350 351 351 351 350 352 353 353 353 354
344 346 346 347 346 346 348 348 348 347 347 346 347 347 347 348 348 349 350 351 351 351 352 351 352 352 352 353 353 353 353 353 353 352 352 352 352 351 351 351 351 351 351 351 351 350 350 350 350 350 350 350 351 351 351 351 351 351 352 353 354 353 353
345 346 346 347 346 347 348 348 349 349 348 347 346 347 348 347 348 349 349 351 351 352 352 351 352 352 353 353 353 353 353 353 353 353 353 352 352 352 351 351 351 351 351 351 351 350 350 350 350 351 351 351 351 351 352 351 351 352 352 352 352 353 353
345 347 348 348 348 348 349 350 352 352 349 348 347 347 348 348 348 349 349 350 350 351 352 351 352 351 352 352 352 353 353 353 353 353 352 352 352 352 352 351 351 351 350 351 350 350 351 351 351 351 351 352 351 351 352 351 352 352 352 352 353 353 353
344 347 348 349 349 349 351 352 353 354 351 348 347 347 347 348 349 348 349 350 350 351 352 351 352 351 352 352 352 352 353 352 353 352 352 353 352 352 352 351 351 351 351 350 350 351 351 351 352 352 352 352 352 352 352 352 353 353 353 354 353 353 353
345 346 346 348 349 349 353 354 354 353 352 348 347 348 348 347 349 348 349 350 350 350 351 351 352 351 351 352 352 352 353 352 352 352 352 352 352 352 352 352 351 351 351 351 350 350 350 351 351 352 352 352 352 353 352 352 353 353 353 354 354 354 354
346 346 346 348 348 350 353 354 354 353 352 349 348 348 349 349 349 349 349 349 349 351 350 351 351 351 351 352 352 352 352 352 352 352 352 352 352 352 352 352 351 351 351 351 350 350 351 351 351 351 351 352 352 353 353 353 354 354 354 354 354 354 354
344 344 345 348 349 351 352 352 354 353 352 350 349 348 349 349 349 350 349 350 350 350 351 351 351 351 352 352 352 352 352 351 352 352 352 352 351 351 351 351 351 351 351 351 351 351 351 351 351 351 351 352 352 353 353 353 354 353 353 353 354 354 354
342 345 346 347 348 350 352 352 352 353 353 351 349 348 349 349 349 350 351 351 351 350 351 351 351 351 352 352 352 352 352 352 352 352 352 352 351 351 351 352 352 351 351 351 351 351 352 352 352 351 351 352 352 353 353 354 354 353 352 352 353 353 354
342 346 345 347 349 348 350 352 352 352 354 353 349 348 349 350 350 350 351 351 351 351 352 352 352 352 352 352 352 352 352 352 352 352 352 351 352 352 352 352 352 352 351 351 351 352 352 352 352 352 352 352 353 353 353 353 353 352 353 352 353 354 354
344 348 348 347 349 349 350 352 352 353 353 350 348 349 349 350 351 351 352 352 352 353 353 353 353 353 352 353 353 352 353 353 352 352 353 352 352 352 352 352 352 352 352 351 352 352 352 351 351 352 352 352 353 353 353 353 353 352 353 354 354 354 354
345 346 348 348 349 350 351 350 351 351 351 349 349 348 349 350 351 352 352 352 353 353 354 354 354 354 353 353 353 353 353 353 353 353 353 353 353 352 353 352 352 352 352 352 352 352 351 352 352 351 352 351 352 352 352 353 353 353 354 353 354 354 355
349 346 346 347 348 348 350 350 351 349 349 348 349 348 349 349 350 352 353 353 354 354 355 355 355 355 355 354 354 354 354 354 354 354 354 354 353 353 353 353 353 353 353 352 352 352 352 352 352 352 352 352 352 352 352 352 352 352 352 353 354 354 355
353 351 350 349 349 350 350 351 352 350 348 348 349 349 348 349 350 351 352 353 354 355 355 356 356 356 356 356 356 355 355 355 355 354 354 355 354 354 354 353 353 353 353 353 353 353 353 352 352 352 352 352 352 352 352 351 351 351 352 352 353 354 354
363 354 350 350 351 352 353 350 349 349 349 348 349 349 348 349 350 350 352 353 354 356 356 357 357 357 357 357 356 357 356 356 356 355 355 355 355 355 354 354 354 353 354 354 353 353 353 353 353 353 352 353 353 352 352 352 352 351 351 351 352 353 354
367 360 354 352 349 347 347 345 345 347 348 348 349 349 348 349 350 350 351 352 354 356 356 357 358 358 357 358 358 357 358 357 357 356 356 356 356 355 355 355 355 355 354 354 354 353 353 353 353 353 352 353 353 352 353 353 352 352 352 351 352 352 352
360 363 364 360 353 347 343 345 347 347 348 349 349 348 349 350 351 351 352 352 354 355 356 357 358 358 358 359 359 358 359 358 358 357 357 357 356 356 356 355 355 355 355 355 354 354 354 354 353 353 353 353 353 353 353 353 353 353 352 352 352 352 352
358 360 360 360 357 352 348 348 349 348 349 349 349 349 349 350 352 352 353 353 353 354 355 357 357 358 359 359 359 359 359 359 359 359 358 358 357 357 357 356 356 356 355 355 355 355 355 354 354 354 353 354 354 353 353 353 353 353 353 353 353 353 353
356 357 358 358 357 356 354 353 352 351 350 349 349 350 350 351 353 354 354 354 354 354 355 355 356 357 358 359 359 360 360 360 360 360 359 359 359 359 358 357 357 357 357 356 356 355 356 355 354 355 355 354 354 353 354 354 354 353 354 354 353 353 353
353 354 356 356 357 357 357 356 357 356 355 354 352 352 351 353 353 354 356 356 355 355 355 355 356 356 357 358 359 359 360 361 360 360 360 360 360 359 359 359 358 358 358 357 357 356 356 356 355 355 355 354 354 354 354 354 354 354 354 353 353 353 353
351 352 353 353 354 354 354 355 356 357 358 359 356 354 353 354 356 357 358 357 356 357 356 357 357 357 357 358 360 360 361 361 361 361 361 361 360 360 359 360 359 359 358 358 357 357 357 357 356 356 356 355 355 355 354 354 354 354 354 354 354 353 354
348 350 350 350 350 351 351 352 353 353 357 359 360 359 357 358 359 360 359 359 359 359 359 358 359 358 359 359 360 360 361 362 362 362 362 361 361 361 360 360 360 359 359 358 358 357 357 357 356 356 356 356 356 355 355 355 354 354 354 354 354 354 354
344 346 348 349 349 349 348 349 350 351 353 355 358 360 359 359 361 360 359 361 362 362 362 361 360 361 360 360 361 361 361 362 362 362 363 363 362 361 361 361 360 359 359 359 358 358 357 357 357 356 356 356 356 356 355 355 355 355 355 354 354 355 354
340 342 344 347 349 348 347 348 349 349 349 352 354 357 359 360 361 359 359 362 364 364 364 364 364 362 362 362 361 362 361 362 363 363 364 363 363 362 362 361 361 360 359 359 359 358 358 358 357 357 356 357 356 356 356 356 356 355 355 355 355 355 355
338 339 341 344 347 347 347 347 347 347 348 348 350 352 355 357 359 357 358 362 365 366 366 366 365 365 364 363 362 362 361 361 363 363 363 363 364 364 363 362 362 361 360 359 359 358 358 358 357 357 357 356 356 356 356 356 356 356 356 356 356 356 356
336 337 338 340 343 346 346 346 346 346 346 346 348 349 350 352 353 354 357 361 364 365 366 366 366 367 367 366 364 363 362 362 362 363 363 363 364 364 364 364 363 362 361 360 360 359 359 358 358 357 357 356 357 357 357 357 356 356 357 357 357 357 357
335 336 337 339 340 344 346 345 345 345 345 345 348 348 348 349 350 351 353 358 361 364 365 366 366 368 368 367 365 364 363 361 361 362 362 363 363 364 364 364 364 363 362 361 361 360 360 359 358 358 358 358 358 358 358 357 358 358 359 358 358 359 359
335 335 337 338 339 342 345 346 345 345 345 346 347 349 349 349 350 351 352 353 357 361 364 366 366 366 368 368 366 364 363 362 362 362 363 363 362 362 363 363 363 363 363 362 362 361 361 360 360 360 360 359 359 359 358 358 359 360 361 360 360 360 360
334 335 336 338 339 341 344 346 346 346 346 346 348 348 349 349 350 351 351 352 354 358 361 364 366 366 367 368 367 365 362 362 363 363 363 361 360 359 359 359 361 362 363 363 363 363 363 362 362 362 362 361 361 360 360 360 362 362 362 361 361 361 362
334 334 336 338 339 341 343 345 348 348 347 346 347 347 348 348 349 349 350 352 354 354 357 361 363 365 366 367 366 365 364 363 364 364 362 360 360 359 357 355 356 358 361 363 364 363 364 364 363 363 363 362 362 362 361 361 361 360 360 361 360 360 361
333 334 337 338 338 340 341 344 347 348 347 346 346 346 347 348 347 347 349 352 353 353 355 357 361 363 364 365 365 365 364 364 364 362 360 358 358 358 357 356 353 352 353 358 362 363 364 364 364 365 364 364 364 363 362 360 358 358 358 359 358 356 354

ECMWFFLT1_925_thetae_069.txt.gz
Theta_e
350 351 350 350 350 350 350 351 352 353 354 355 355 355 355 355 355 356 356 355 355 355 355 354 354 354 354 354 354 353 354 354 354 354 353 353 353 353 351 349 349 349 350 352 351 351 352 352 352 352 351 351 351 351 350 351 351 351 351 351 352 354 354
350 350 350 350 350 350 351 352 353 353 353 354 355 354 355 356 356 357 356 356 356 356 355 355 354 355 354 354 354 354 354 354 353 353 354 353 352 352 351 349 348 348 348 350 350 350 351 351 351 351 351 351 351 351 350 350 350 351 352 351 353 356 356
349 350 350 350 350 351 351 352 353 353 353 353 354 354 355 356 357 357 356 357 356 356 356 355 355 355 354 355 355 354 354 354 354 353 353 353 352 352 352 350 349 349 348 349 350 350 351 351 351 351 351 351 351 351 350 350 350 351 352 351 352 356 358
348 349 349 350 350 351 351 351 352 352 352 353 353 354 355 356 357 357 357 356 356 356 357 356 356 356 355 355 355 355 354 354 354 353 353 353 353 353 353 352 350 350 350 350 350 351 351 351 351 351 351 351 351 351 350 350 351 351 352 352 353 357 358
348 348 349 350 350 351 350 350 352 352 352 352 353 353 355 355 356 356 356 356 356 356 356 356 356 356 356 356 355 355 355 354 354 354 354 354 354 353 353 352 351 351 351 350 351 351 351 351 351 351 351 351 351 351 350 350 350 351 352 353 355 358 358
347 348 349 350 349 350 350 349 351 352 351 352 352 353 354 354 355 355 356 356 356 356 356 356 356 356 357 357 356 356 355 355 354 354 354 354 354 354 352 352 352 352 352 351 351 351 351 351 351 352 351 351 351 351 351 350 350 351 352 353 355 358 358
346 348 349 349 349 349 349 349 350 351 351 351 352 353 353 353 354 354 355 356 356 356 357 356 356 357 357 357 357 357 356 356 355 354 355 355 354 353 353 353 352 352 352 352 351 351 351 351 351 351 351 351 351 351 350 350 349 351 352 352 354 357 358
346 348 347 348 348 348 348 349 350 350 351 351 351 352 352 352 353 354 354 355 355 356 356 356 356 357 357 357 357 357 356 356 356 355 355 355 355 354 354 353 353 351 352 352 351 351 351 351 351 350 350 350 350 350 349 349 349 350 352 352 353 356 357
345 349 348 347 346 346 348 348 350 351 351 351 351 352 352 352 353 354 354 354 355 356 356 356 356 356 357 357 357 357 357 356 356 356 356 355 355 355 354 354 353 352 352 352 352 351 351 350 351 351 350 350 350 349 349 349 348 349 351 352 352 354 355
345 349 349 347 346 347 348 348 350 352 351 352 352 352 352 352 353 353 354 354 354 355 355 355 356 356 357 357 357 357 357 357 357 356 356 356 355 355 354 354 354 353 352 352 353 353 351 351 351 351 350 350 350 349 349 349 349 349 350 350 351 352 354
344 350 351 349 348 349 348 350 352 353 354 354 352 352 352 352 353 353 354 354 354 354 355 355 355 356 356 356 356 357 357 357 357 356 356 356 355 355 355 354 354 354 353 353 353 353 353 351 351 351 350 350 350 349 349 349 350 350 350 351 351 352 353
342 348 352 351 350 350 350 352 354 356 356 354 351 352 353 352 353 353 353 354 354 354 355 355 355 356 356 356 356 357 357 357 357 356 356 356 355 355 355 354 354 354 353 353 353 354 354 353 352 352 351 350 350 350 349 349 350 350 350 352 352 352 352
343 345 349 351 351 352 355 357 357 357 357 354 351 351 352 352 352 352 354 354 354 354 355 355 355 355 356 356 356 357 358 357 357 356 356 356 356 355 355 354 354 354 354 354 354 354 354 354 354 352 351 350 350 350 350 349 350 350 350 351 353 352 352
342 342 346 348 350 354 357 358 358 357 355 353 352 351 352 352 352 353 354 354 353 354 355 355 355 355 356 356 356 357 357 357 357 356 356 356 356 355 355 355 354 354 354 354 354 354 354 354 355 354 352 352 351 351 351 351 350 351 351 351 352 353 353
334 336 342 346 350 354 356 357 358 358 356 354 353 352 352 352 352 353 354 354 354 354 355 355 356 356 356 356 356 357 357 356 356 356 356 356 355 355 355 355 354 354 354 354 354 354 354 354 355 355 355 354 354 353 353 353 353 352 352 351 352 353 354
329 329 335 342 348 352 354 355 357 358 358 356 354 353 352 352 353 353 353 353 354 354 355 355 356 356 356 356 357 357 355 355 355 356 356 356 355 355 355 355 355 355 354 354 354 354 354 354 355 355 355 355 355 355 355 355 354 352 351 351 351 353 355
334 329 330 336 344 349 352 354 356 358 358 357 355 354 353 353 352 352 352 353 354 354 355 355 356 356 356 356 357 356 355 355 356 356 356 356 355 355 355 354 355 355 354 354 354 354 354 354 355 355 355 355 356 356 356 355 353 351 350 349 349 352 355
349 338 332 332 338 347 351 351 354 357 355 354 355 354 353 354 353 352 352 353 353 354 354 355 355 356 356 357 357 355 356 356 356 356 356 355 355 354 354 354 354 354 355 354 354 355 355 355 355 355 355 355 355 356 356 355 353 350 349 349 349 350 353
356 347 338 334 336 342 348 349 351 354 354 353 354 353 353 353 352 353 353 353 353 353 353 354 355 356 356 356 357 356 356 356 356 356 356 355 355 354 354 354 354 355 355 355 355 355 355 355 355 355 355 355 356 356 356 356 354 352 350 349 349 349 351
358 351 341 337 336 338 345 350 351 353 355 355 353 353 353 352 353 353 354 354 354 354 355 356 355 356 357 356 357 357 356 356 356 356 356 355 354 355 355 355 355 355 355 355 355 355 355 355 355 356 356 355 356 356 356 356 355 353 352 350 350 350 351
358 354 345 340 341 343 348 352 353 353 355 354 353 353 354 353 353 354 354 355 354 354 355 356 356 356 357 357 357 357 356 357 357 356 357 356 355 355 356 356 355 356 355 355 356 356 356 355 355 356 356 356 356 356 356 355 354 353 353 352 351 351 352
358 357 352 345 344 348 352 352 351 352 354 353 352 353 353 353 353 353 354 355 355 356 356 356 357 357 357 357 357 356 357 357 357 357 357 357 356 356 356 357 356 356 356 356 356 356 356 356 356 356 356 356 355 356 356 355 354 353 352 351 351 352 352
355 357 355 348 345 351 353 352 352 354 354 353 352 352 353 353 353 354 356 356 356 357 357 357 358 358 357 357 357 357 357 357 357 358 358 358 358 357 357 357 357 356 356 356 356 356 356 356 356 356 356 356 356 356 356 356 354 353 352 352 352 351 352
354 356 355 349 346 351 353 353 353 354 353 353 353 353 354 354 355 356 358 357 357 358 358 358 358 358 358 358 358 357 357 357 358 358 358 358 358 358 358 358 357 357 357 357 356 356 357 356 356 357 357 356 356 356 356 356 356 354 353 352 352 352 351
354 355 356 353 349 349 352 355 354 353 354 354 353 354 354 355 356 357 358 359 358 358 358 358 359 359 359 359 358 359 358 358 358 358 358 359 359 358 358 358 358 358 358 357 357 357 357 357 357 357 357 357 357 356 356 356 356 355 354 353 352 352 351
352 353 356 356 354 352 354 356 356 354 354 355 354 354 353 354 355 357 358 359 358 358 359 359 359 360 360 359 359 360 359 359 359 359 359 359 359 359 359 359 358 359 359 358 358 357 358 358 358 358 358 357 357 357 356 356 356 356 355 354 353 353 352
351 353 355 357 359 358 355 355 355 354 354 354 354 353 354 355 356 358 360 360 359 359 359 360 361 361 361 361 361 361 360 360 360 360 359 360 360 360 360 360 359 359 359 359 359 358 359 359 358 359 358 358 358 358 357 357 357 356 356 355 354 353 352
349 352 354 356 358 359 359 358 358 356 355 354 353 354 355 356 357 359 360 359 360 360 360 360 361 361 362 362 362 362 362 361 361 361 361 361 361 361 361 361 360 360 360 360 360 360 360 360 360 359 359 359 359 358 358 358 357 356 356 355 355 354 353
344 347 351 354 355 357 360 361 361 360 357 354 353 354 355 355 359 360 360 360 360 360 359 359 359 360 362 363 362 363 363 363 363 362 361 362 363 363 362 362 361 361 361 361 361 361 361 361 361 360 360 360 360 359 359 359 358 357 356 355 355 354 354
341 343 347 351 354 355 357 360 361 361 360 357 357 357 356 357 360 361 361 361 359 357 357 357 357 360 361 363 363 364 364 364 364 363 363 364 364 363 363 364 363 363 363 362 362 362 361 361 361 360 360 361 361 361 361 360 359 358 356 356 355 355 355
340 342 344 348 352 354 355 358 359 359 361 361 361 361 360 361 363 364 364 361 357 356 356 356 356 359 361 362 363 363 363 364 365 364 364 365 364 364 364 365 364 364 363 363 362 362 362 362 362 361 362 361 361 362 362 361 360 359 358 357 356 355 355
339 341 344 346 349 352 353 355 357 357 358 360 360 361 363 363 364 364 363 360 356 356 356 356 357 359 361 362 364 363 363 365 365 365 366 365 365 365 365 365 365 365 364 364 363 362 363 363 362 362 362 362 362 363 363 363 362 361 360 358 357 356 356
337 340 343 345 347 350 352 353 355 356 356 357 357 359 361 362 363 363 361 360 360 358 357 357 358 359 361 363 364 363 364 365 365 366 366 366 365 366 365 366 366 365 365 365 364 363 363 363 363 363 363 363 363 364 363 364 363 362 361 360 358 356 355
336 338 341 343 346 349 351 352 354 354 354 355 356 356 358 359 361 362 364 364 364 363 360 359 359 359 361 362 362 362 364 365 366 366 367 367 367 367 366 367 366 366 366 365 365 364 364 364 363 363 363 363 364 364 364 364 364 363 362 361 359 358 357
335 337 339 341 345 348 350 352 353 353 352 353 354 354 355 356 357 360 364 366 367 367 367 366 364 364 363 363 363 362 362 363 365 365 366 368 367 366 366 366 366 366 366 366 365 364 364 365 365 364 364 364 364 364 365 365 364 363 362 361 359 359 358
334 337 337 339 343 347 349 351 352 352 352 351 352 352 353 353 354 356 359 363 366 368 368 368 368 368 366 366 366 365 364 364 365 365 366 365 364 362 361 361 363 365 366 365 365 364 363 364 364 364 364 364 364 364 364 364 364 363 361 361 360 358 358
333 335 336 337 340 343 347 349 350 350 350 350 351 351 351 352 352 353 355 358 361 364 366 368 370 370 369 368 368 367 366 366 366 366 365 362 360 358 357 356 357 359 361 363 363 363 362 363 363 363 363 364 364 364 363 362 362 362 361 360 359 358 358
332 334 334 335 337 340 342 345 346 348 348 348 349 350 350 350 350 351 353 355 356 360 362 365 368 370 369 369 367 366 366 366 365 364 362 359 357 357 356 354 353 352 354 358 361 362 361 361 362 362 361 362 362 362 361 361 360 360 359 359 359 358 357

ECMWFFLT1_925_thetae_072.txt.gz
Theta_e
351 352 353 355 356 355 356 358 359 361 360 361 361 360 360 360 361 361 361 363 363 363 363 361 359 358 357 357 356 356 356 356 357 357 358 360 357 357 358 358 358 357 356 355 355 356 357 358 358 358 359 360 360 360 360 359 358 358 358 359 358 358 359
348 351 351 353 355 355 356 358 360 360 359 360 361 361 361 360 361 361 362 362 363 363 363 362 360 359 358 357 357 356 356 356 357 357 358 359 359 358 359 359 359 358 357 355 355 357 358 359 359 359 359 359 359 359 359 359 359 358 358 359 359 359 358
345 348 351 354 355 356 356 357 360 360 360 360 361 360 361 360 361 361 361 362 363 364 363 362 361 359 358 358 357 357 356 357 356 356 357 358 360 358 359 360 359 358 357 356 356 357 358 359 360 360 359 358 358 358 358 359 358 359 359 359 359 358 359
343 346 349 352 354 355 355 356 359 359 359 359 359 360 360 361 362 361 361 362 363 363 364 362 361 360 359 359 359 358 357 357 357 357 357 359 360 360 359 360 360 358 358 357 356 356 357 359 361 361 361 359 359 359 359 359 359 359 359 359 359 359 358
343 343 346 351 353 354 354 355 358 359 358 359 359 360 361 361 361 362 362 362 363 363 363 362 361 361 360 360 359 359 358 357 358 357 358 359 360 360 359 360 360 358 357 357 357 357 358 359 360 360 361 361 360 358 359 359 359 360 360 359 358 358 357
342 343 345 349 352 355 355 355 357 359 358 358 359 360 360 361 361 361 362 362 362 362 363 363 362 361 362 361 360 360 359 358 358 358 359 359 359 359 360 359 359 358 357 356 358 358 359 359 358 359 360 360 358 357 357 358 358 359 360 359 359 359 357
341 343 346 349 352 354 353 353 356 358 358 357 357 360 359 360 360 360 361 362 362 362 363 362 362 361 362 361 361 360 360 359 359 359 359 359 359 360 360 360 359 359 358 358 357 358 359 360 359 358 359 359 358 357 356 357 359 358 360 361 360 360 359
339 344 346 349 350 352 352 354 356 357 358 357 357 359 359 359 359 360 360 361 361 361 362 361 362 362 362 362 361 361 361 360 360 360 360 360 360 360 360 360 360 360 358 358 358 359 359 360 359 359 359 358 359 359 358 360 360 359 359 360 361 361 359
338 344 348 349 347 349 351 353 355 356 357 357 356 357 358 358 359 359 360 360 360 360 361 360 361 362 362 363 362 362 362 361 361 361 362 361 360 360 360 360 360 360 359 358 359 359 359 358 359 359 360 360 360 360 360 360 361 360 358 360 362 362 360
336 343 348 349 347 349 352 353 355 357 357 358 357 358 358 358 359 360 360 360 359 360 360 360 361 362 363 363 363 363 363 362 362 362 362 361 360 360 359 360 360 360 359 359 358 359 359 359 359 359 361 362 361 361 361 361 361 361 360 360 362 362 360
342 347 352 352 350 350 350 353 357 358 359 360 358 357 359 358 358 359 358 359 359 359 360 360 360 361 362 363 363 363 363 363 363 362 362 361 360 360 359 358 359 360 360 360 358 358 359 359 359 359 361 362 362 361 361 362 362 361 360 360 361 362 361
343 349 355 355 352 352 353 355 359 359 360 361 358 357 358 358 359 359 358 358 359 360 360 360 360 361 363 363 363 363 364 364 363 362 363 361 359 359 359 358 359 359 360 359 358 357 358 359 360 360 360 362 362 361 362 362 362 362 361 359 359 361 361
341 344 350 352 352 353 355 358 359 360 360 359 358 357 358 358 358 357 358 358 358 359 359 360 360 361 362 363 363 363 364 364 363 362 362 362 361 359 359 359 358 358 359 360 359 358 357 358 360 360 360 361 362 361 362 363 363 363 362 361 359 360 361
338 339 344 348 351 354 356 358 360 360 360 359 357 356 357 358 357 357 358 358 358 359 360 360 361 361 363 363 363 363 365 364 364 363 362 362 362 360 360 359 359 359 359 360 359 359 357 358 359 361 360 361 362 361 361 363 363 363 363 362 360 360 361
336 334 340 346 351 356 356 359 361 362 361 360 358 357 357 358 358 358 358 358 358 359 359 360 360 361 363 363 362 364 365 365 364 363 363 363 363 362 361 360 360 360 360 360 359 358 357 357 357 360 361 361 362 362 361 362 363 363 362 363 362 360 359
337 335 337 340 347 355 357 358 361 363 363 362 359 357 357 358 358 357 358 358 358 358 359 360 361 361 362 363 364 365 365 365 365 364 363 364 363 363 363 361 361 361 361 361 360 359 359 358 358 358 360 361 362 362 361 362 362 362 359 358 359 361 360
346 347 348 347 347 350 353 358 360 363 364 362 360 357 357 357 358 358 358 359 358 358 359 359 361 362 362 363 364 364 365 366 365 364 364 364 364 364 364 362 362 362 362 361 361 361 361 361 360 359 359 360 362 362 362 362 361 359 356 352 352 357 361
356 357 356 357 357 354 351 351 357 362 362 360 358 357 356 357 358 359 357 359 358 358 359 360 361 363 363 364 364 365 367 366 365 365 365 365 365 365 364 364 363 363 363 362 362 362 362 361 361 361 360 359 361 361 362 362 362 359 355 350 347 349 355
357 358 358 360 363 361 356 349 351 357 360 360 358 357 356 357 357 358 358 358 359 359 359 359 361 363 363 364 365 366 366 366 366 365 365 365 365 365 365 364 364 364 364 363 363 363 362 362 361 361 361 360 360 361 361 362 362 359 356 352 350 348 350
357 358 359 360 360 362 360 352 347 352 360 360 357 355 355 356 358 358 358 359 359 358 359 360 362 364 364 364 365 367 366 366 366 366 366 366 365 366 365 364 365 364 363 364 364 363 363 363 362 363 362 361 361 361 360 360 361 360 358 355 353 351 350
356 357 358 360 361 363 362 356 346 347 356 359 357 355 357 356 357 358 359 360 360 359 360 361 362 364 364 364 365 366 366 366 367 366 366 366 366 366 365 365 365 364 364 363 363 363 364 363 363 363 363 362 361 360 361 359 359 359 359 356 355 354 352
355 356 357 358 359 361 363 360 348 343 350 358 356 354 356 356 357 357 358 359 360 359 361 362 363 365 365 364 365 366 366 366 366 366 366 366 365 365 365 365 365 365 364 363 362 363 364 363 363 363 363 363 362 361 360 360 359 358 358 357 356 355 354
352 353 355 356 358 362 363 358 350 345 349 355 355 353 355 357 357 357 358 360 360 360 362 363 364 365 365 364 365 365 365 365 365 365 365 365 365 365 365 365 365 364 364 363 362 361 362 363 363 363 362 362 362 361 361 361 359 358 357 356 356 355 354
350 352 354 356 360 361 357 353 351 349 351 356 355 354 355 356 356 356 360 361 360 362 363 363 363 364 364 365 364 365 365 364 365 365 365 366 365 365 365 365 364 365 364 363 362 361 361 362 363 362 362 361 362 362 362 362 361 359 358 357 356 355 355
350 352 355 358 360 360 355 352 351 350 353 357 356 355 357 357 357 358 361 361 361 361 362 362 363 364 364 363 364 363 364 364 364 364 365 365 365 365 365 365 364 364 364 363 363 361 360 361 362 362 362 361 362 362 361 362 362 360 359 357 356 354 355
350 352 355 358 360 360 356 353 354 354 355 356 355 356 358 357 357 359 362 362 361 360 361 361 361 363 364 363 363 364 364 364 364 364 365 364 365 364 365 364 363 364 363 363 362 362 361 361 361 362 363 362 362 361 360 361 362 361 360 359 357 356 355
351 352 355 357 358 360 359 355 356 357 355 355 356 358 359 357 358 361 361 361 361 360 360 360 361 362 362 363 363 363 363 363 364 364 364 364 364 365 364 364 363 363 363 363 362 362 362 361 361 362 362 362 362 362 361 361 361 362 360 359 358 357 356
349 351 354 356 357 360 360 357 356 356 355 357 359 358 359 358 360 363 363 362 362 362 360 360 362 362 363 363 363 363 363 363 363 364 364 363 365 365 364 364 363 363 363 363 363 363 363 363 363 363 362 363 363 363 363 362 361 361 361 360 359 357 356
346 348 351 355 356 358 361 360 358 356 355 359 359 358 359 360 362 364 364 363 363 362 360 361 363 363 364 364 363 363 363 363 364 364 363 363 365 365 366 364 364 363 364 364 364 364 364 364 364 363 363 363 363 363 363 363 362 362 361 360 359 358 357
343 345 349 354 356 358 359 361 361 358 356 358 358 358 359 360 363 365 365 365 364 362 361 363 364 365 366 365 364 365 365 365 365 365 364 364 365 366 366 366 366 365 366 366 365 365 364 364 364 363 364 363 363 363 364 363 364 363 362 360 360 359 357
341 343 346 352 356 358 359 360 362 362 360 358 357 358 359 361 364 366 366 366 365 362 362 365 367 367 368 366 366 366 365 366 366 366 366 365 366 366 368 368 367 367 367 366 366 364 364 364 365 364 365 364 364 365 365 364 365 365 364 363 361 360 358
339 341 343 348 353 357 359 359 360 363 363 363 361 360 360 361 365 366 367 366 366 365 366 369 370 369 368 368 367 367 367 367 367 368 368 367 367 368 369 368 368 368 368 367 366 364 364 365 365 365 365 366 366 366 366 366 366 366 366 365 364 362 360
337 340 342 345 350 354 356 359 360 362 363 363 363 363 363 363 364 365 367 367 367 366 367 369 370 369 368 369 368 367 368 368 367 368 369 367 368 369 369 369 368 369 368 367 365 365 365 366 365 366 366 366 366 367 366 367 367 367 367 366 365 362 361
336 339 340 343 347 351 353 355 358 361 362 362 363 364 365 366 366 366 368 367 364 364 367 368 369 368 369 368 368 368 368 368 367 368 369 369 368 369 370 369 369 369 369 368 367 367 367 366 367 367 366 367 367 366 366 366 367 367 367 367 366 363 361
336 337 338 341 345 348 351 352 354 356 358 360 361 362 364 365 366 367 367 367 366 366 368 368 367 367 368 368 368 369 369 368 367 367 368 369 370 368 368 369 368 369 369 369 368 368 367 366 367 366 366 366 365 366 368 367 367 367 367 366 367 366 363
336 337 337 339 341 343 347 350 351 353 354 356 358 360 361 363 365 366 367 368 369 369 369 369 368 367 368 368 369 369 369 369 368 367 367 369 370 368 364 363 365 367 368 369 369 369 367 366 367 368 368 367 366 366 367 367 366 368 367 367 366 366 364
335 337 336 336 338 340 343 345 348 350 351 353 354 357 357 359 362 363 366 368 370 370 371 370 368 368 368 369 369 369 370 370 370 369 368 369 371 370 364 362 362 363 364 365 367 367 368 367 366 367 367 367 367 367 366 365 365 366 366 366 365 364 362
332 335 335 335 337 338 339 341 345 347 349 351 352 354 355 356 358 359 363 366 368 371 372 371 371 371 370 370 371 370 370 369 370 371 370 370 371 370 368 365 363 361 360 361 363 365 366 365 365 365 365 366 366 365 364 364 364 365 364 362 362 361 361

ECMWFFLT1_925_thetae_075.txt.gz
Theta_e
347 348 353 354 354 355 359 361 362 362 362 363 363 360 360 360 361 362 363 366 367 366 366 366 364 363 362 361 360 359 358 358 358 358 359 361 360 359 360 358 357 355 355 357 356 354 353 354 354 355 357 359 360 360 361 362 361 360 360 361 361 360 359
348 347 351 352 352 355 360 363 363 363 361 362 363 361 361 360 362 362 364 366 367 367 367 367 366 365 362 362 361 360 359 358 359 359 359 361 362 361 360 358 357 356 355 354 354 355 356 356 356 356 358 359 360 360 360 361 362 360 360 360 361 361 361
347 348 350 352 353 356 360 362 363 364 362 362 363 362 361 362 362 364 365 367 368 368 368 367 367 366 363 363 361 360 360 359 359 359 359 360 362 362 360 359 358 357 357 355 353 354 356 358 359 357 358 359 359 360 360 360 361 361 360 360 361 360 362
348 349 351 352 354 358 360 360 363 364 363 363 363 362 363 362 364 365 366 368 369 369 369 368 368 365 364 363 362 360 359 359 359 359 359 360 361 361 361 360 360 358 358 357 353 353 354 356 359 359 359 358 357 358 360 359 359 360 360 360 361 360 360
345 347 348 350 352 356 357 360 363 364 363 363 363 364 363 364 365 365 366 368 369 369 368 368 367 364 364 363 361 360 360 360 360 360 360 360 361 362 361 360 360 358 357 357 355 354 354 356 358 359 360 360 357 357 359 359 359 360 360 361 361 359 359
340 343 346 351 350 351 352 356 362 363 363 363 363 365 365 364 365 365 366 367 368 369 369 369 367 365 364 363 360 360 360 360 361 360 361 361 361 363 362 361 361 359 357 357 357 355 355 356 356 358 359 359 357 355 356 358 359 359 360 360 361 359 357
338 339 343 349 351 349 350 354 361 362 363 362 362 364 364 364 365 364 365 366 368 368 369 369 367 365 364 362 361 361 361 361 361 361 362 362 362 363 363 361 361 359 357 356 357 357 356 356 357 357 358 357 355 354 354 357 358 358 360 361 361 360 358
338 340 341 346 349 350 349 351 357 361 361 360 360 363 364 364 364 364 365 366 367 368 368 368 366 365 364 363 361 362 362 362 362 361 362 362 363 363 362 362 362 360 359 357 357 357 357 358 358 356 358 356 355 355 355 356 358 358 358 360 361 360 359
338 339 340 344 345 345 348 350 356 361 362 360 360 362 363 363 364 364 364 365 366 367 367 367 365 365 365 363 363 363 363 363 362 362 362 362 363 363 362 362 363 362 360 358 357 358 358 359 359 357 358 357 356 357 356 356 359 358 357 358 361 361 359
337 339 343 345 343 345 347 349 356 361 361 362 361 361 362 363 364 364 365 365 366 366 366 366 364 364 365 365 364 364 365 363 363 362 362 362 362 362 361 363 364 363 361 359 357 357 358 359 360 360 360 358 357 359 358 358 360 360 357 357 360 362 361
338 341 344 344 344 345 345 349 358 364 365 365 362 362 362 363 364 364 364 364 364 365 365 365 363 365 366 365 365 364 364 364 363 362 362 362 361 361 361 361 362 362 362 360 357 357 358 359 359 361 362 361 360 361 361 361 361 360 358 357 359 362 362
339 345 347 346 345 345 347 356 364 366 368 365 362 362 363 363 364 363 364 363 364 365 364 363 363 364 366 365 364 364 364 364 362 362 363 361 360 360 361 359 358 361 362 360 357 356 358 361 361 361 364 364 362 362 363 363 362 362 360 357 357 360 361
339 345 348 348 348 348 351 361 367 367 367 365 361 360 362 363 363 363 364 363 364 364 364 364 363 364 366 366 364 365 365 365 362 362 362 362 360 360 361 358 357 358 360 360 358 356 356 360 362 361 362 365 364 364 364 364 363 364 363 358 356 359 360
335 341 346 349 351 353 355 360 367 367 364 364 362 360 361 362 363 362 362 364 364 363 363 363 362 363 366 365 364 365 367 366 363 361 362 363 362 360 360 358 356 356 359 360 359 357 356 357 360 361 362 364 364 364 365 365 365 364 365 362 358 358 360
334 335 339 343 347 352 355 359 366 367 364 363 363 361 359 361 362 362 363 364 363 364 363 363 363 363 366 366 366 367 367 367 365 363 362 363 363 361 359 358 358 356 358 361 360 358 355 354 357 361 362 362 365 364 363 364 366 365 365 365 361 358 359
336 336 338 340 344 349 352 356 362 366 367 366 364 361 360 361 362 363 362 363 364 362 362 363 363 363 366 367 366 368 368 368 367 365 363 364 363 362 361 360 359 358 358 361 361 359 358 355 355 359 361 363 364 364 364 363 365 365 364 364 363 360 358
343 343 343 343 344 347 351 353 357 364 367 368 364 362 359 360 362 362 362 363 362 362 363 363 364 365 366 368 368 369 369 370 368 366 364 364 365 364 362 361 360 360 360 362 363 362 360 358 355 356 359 361 364 365 364 363 363 364 362 360 360 361 360
345 346 346 346 349 352 355 354 354 359 364 364 363 362 359 360 361 362 362 362 362 362 362 363 366 365 367 368 368 369 371 371 370 368 366 366 368 367 365 363 362 362 362 362 363 364 362 360 359 358 357 359 362 363 363 362 361 362 362 359 356 357 360
348 346 345 347 350 352 356 356 355 356 361 363 362 359 358 359 361 361 362 362 362 362 362 363 365 366 367 368 369 371 372 372 372 370 368 368 370 369 368 365 364 364 364 364 365 365 364 362 361 360 359 358 359 362 362 362 362 361 360 359 355 353 356
352 350 349 350 351 352 355 362 364 363 363 362 362 360 359 357 360 361 362 362 362 362 362 363 365 367 367 369 370 372 371 372 372 371 370 370 371 371 370 367 367 367 367 366 366 366 366 365 363 362 361 360 359 361 362 360 362 362 360 359 357 353 352
353 353 352 354 357 357 359 363 366 367 365 361 358 361 360 357 358 360 361 361 362 362 363 364 365 367 369 369 370 371 371 372 372 372 372 372 371 372 371 369 369 369 368 367 366 367 368 366 365 365 364 363 361 361 362 360 360 362 362 360 359 356 353
352 351 353 354 355 358 361 362 363 366 368 363 358 357 360 359 356 360 362 362 363 363 363 363 365 367 369 369 370 371 371 371 372 372 373 372 372 372 371 370 370 370 369 367 365 366 368 367 366 366 366 365 363 361 361 360 359 361 363 361 360 358 356
348 350 351 354 355 357 360 361 363 365 365 363 358 355 359 360 356 358 361 362 363 364 363 364 366 368 369 369 370 372 372 372 372 372 372 372 372 372 371 372 371 370 369 368 365 365 367 367 366 366 366 366 365 363 362 361 359 360 360 361 361 359 357
345 347 351 354 357 357 358 361 363 363 363 360 357 353 356 360 358 358 362 362 364 365 364 364 366 368 369 370 370 372 372 371 372 372 372 373 373 372 371 371 371 371 370 369 366 364 363 366 366 366 366 366 366 366 364 361 360 359 359 359 359 359 358
344 347 352 355 356 357 358 359 362 362 362 359 354 351 355 359 359 358 362 363 364 364 364 364 366 370 370 370 370 371 372 371 372 373 372 373 372 372 372 371 370 370 370 368 367 363 361 363 364 365 365 366 365 366 365 362 360 360 360 360 359 358 358
342 345 351 354 356 357 358 359 360 362 361 358 353 352 355 359 359 359 362 365 365 364 365 366 367 369 370 370 370 371 371 372 372 372 372 373 372 371 371 370 370 370 369 368 366 365 362 361 361 363 363 364 363 364 365 364 362 362 361 360 359 358 358
343 345 350 353 355 357 358 359 361 362 360 357 354 354 357 359 360 361 362 365 365 365 364 366 367 369 370 370 369 370 371 371 371 371 371 371 371 370 370 370 369 369 368 368 366 365 363 362 360 361 362 362 362 362 363 364 364 364 363 362 361 359 358
340 342 347 352 355 357 359 358 359 362 360 356 355 356 358 359 360 364 364 366 366 366 365 366 368 369 370 371 369 369 371 370 370 372 370 370 371 371 369 370 369 368 368 367 366 366 365 364 363 361 361 361 362 362 362 363 364 364 364 363 362 360 358
338 340 344 350 353 357 360 360 361 361 359 357 357 358 357 359 362 364 365 366 366 365 365 367 368 369 371 370 369 369 370 369 370 370 369 369 371 371 369 370 369 367 368 368 367 367 367 367 366 364 362 362 363 363 364 364 364 363 363 363 362 361 360
337 339 343 348 352 357 360 362 362 360 358 356 357 357 357 360 363 365 365 367 367 365 366 367 368 369 370 370 369 369 369 368 370 370 368 369 371 371 371 370 368 368 368 368 367 367 366 367 368 366 364 364 365 365 365 365 365 365 364 363 363 362 361
336 339 342 346 350 356 360 361 361 361 360 358 357 358 360 360 362 364 367 367 367 365 366 368 369 370 371 370 369 369 369 368 369 369 367 369 371 371 371 370 369 368 368 368 368 367 367 368 367 367 366 366 366 366 365 365 366 365 364 364 363 362 361
336 339 342 345 348 353 359 362 361 363 364 361 358 359 361 361 361 365 367 368 367 366 366 368 369 370 370 370 368 368 368 368 369 368 368 368 370 371 371 369 369 368 368 368 368 368 367 367 366 366 366 365 366 366 365 365 365 366 365 364 363 363 362
335 338 342 344 345 349 355 360 363 365 365 364 361 360 360 360 363 366 367 367 367 365 366 370 370 370 370 369 368 368 368 368 368 369 368 368 369 370 370 370 369 368 369 368 367 367 367 366 365 365 365 366 366 366 366 367 367 366 367 365 364 363 363
335 338 341 342 343 346 351 356 361 363 364 366 366 365 364 362 363 366 367 367 365 365 368 371 370 371 371 370 369 368 368 368 368 368 369 368 368 369 370 369 368 368 368 368 366 366 366 366 365 366 366 366 367 367 367 367 367 367 367 366 365 363 361
334 336 339 341 342 343 346 350 355 357 360 363 364 366 368 367 365 366 366 366 365 366 370 372 372 372 372 371 370 370 368 368 368 368 369 369 367 367 369 369 366 368 370 369 368 368 367 365 367 367 367 366 367 366 368 368 367 367 367 367 366 363 361
332 335 338 341 341 342 343 345 348 350 354 358 361 363 366 367 367 367 367 366 366 366 370 372 372 372 372 371 371 370 370 369 368 368 370 369 367 365 364 364 364 367 369 368 368 368 368 367 367 367 366 367 367 366 366 367 368 368 368 367 367 365 363
331 333 337 339 340 341 341 343 345 347 348 352 357 360 362 364 364 365 366 368 368 367 370 371 371 370 371 371 371 371 371 369 368 369 369 370 370 367 364 361 361 362 365 367 367 367 366 367 367 366 367 368 367 366 365 365 367 367 368 367 367 366 364
330 330 333 336 337 339 340 340 341 344 345 348 353 356 357 358 360 361 363 367 369 370 369 370 370 369 369 370 371 371 370 369 369 370 370 368 371 371 369 366 363 360 359 361 364 366 365 365 365 365 366 368 368 366 365 364 365 366 367 366 366 366 365

ECMWFFLT1_925_thetae_078.txt.gz
Theta_e
352 350 351 352 355 357 359 359 359 360 359 359 359 359 358 358 360 360 363 365 366 365 364 362 363 362 359 358 357 355 353 352 351 351 352 351 350 351 356 355 354 355 355 356 354 352 350 351 354 355 357 358 359 359 360 361 361 360 360 360 359 360 359
350 349 350 350 353 358 359 357 358 359 359 359 360 359 358 359 360 362 362 365 366 366 365 364 363 363 361 359 358 357 356 355 353 353 354 355 353 353 356 358 357 356 355 356 357 354 351 350 351 354 355 357 359 360 361 362 362 362 362 361 360 360 360
350 351 350 351 355 359 359 358 357 358 358 359 360 359 358 360 362 362 363 365 366 366 366 365 364 364 362 360 359 357 356 356 356 356 357 358 357 356 357 359 359 357 355 356 357 357 353 351 352 353 355 357 359 360 361 362 363 362 361 361 361 362 362
352 349 349 353 357 358 357 357 357 358 358 359 360 359 358 360 361 362 364 365 366 367 367 366 365 365 364 362 360 358 357 357 357 357 358 359 358 358 358 360 360 358 356 355 355 356 356 354 354 354 355 357 359 361 361 362 363 363 362 360 361 361 362
353 351 352 355 354 353 354 355 357 359 359 358 358 360 361 360 362 362 363 366 367 368 368 366 366 365 364 363 362 360 357 357 357 357 357 358 359 359 360 360 359 358 357 354 354 354 356 356 356 355 356 357 359 360 361 362 361 362 362 361 362 361 361
351 350 354 354 351 353 353 353 357 357 357 357 358 359 360 360 361 362 364 366 368 369 368 367 367 365 364 363 363 361 359 358 357 357 358 358 359 361 361 361 360 359 357 357 355 353 354 356 357 358 358 358 360 359 359 361 361 361 361 361 362 362 361
349 350 352 354 354 355 352 352 354 356 358 357 357 360 361 361 361 362 364 367 368 369 368 368 367 366 365 365 363 362 360 359 358 357 359 359 360 362 362 362 360 359 358 357 356 354 354 356 357 359 359 359 359 358 358 360 360 360 360 361 361 361 360
349 350 351 355 355 352 352 355 356 357 357 357 357 359 360 360 361 362 364 366 368 369 369 368 368 367 366 365 364 363 361 360 359 358 359 360 360 362 363 362 361 359 358 357 358 355 354 354 356 359 359 360 360 357 357 358 359 359 360 360 361 362 361
346 350 352 354 353 352 352 354 355 357 356 357 356 356 358 359 362 362 363 366 368 370 369 368 368 368 367 365 363 363 362 360 360 360 360 360 361 361 362 362 361 361 359 357 357 357 354 354 356 357 358 360 360 357 356 357 358 358 359 360 361 361 361
344 349 351 353 351 354 354 352 355 358 358 356 355 356 358 361 364 364 364 367 369 369 370 369 369 368 367 366 364 362 362 361 361 361 360 361 360 361 362 363 362 361 359 357 356 357 356 355 356 356 358 359 358 357 355 356 356 357 358 359 360 360 360
344 352 351 350 352 354 355 355 357 360 360 358 356 357 362 365 364 364 365 367 367 369 370 369 368 368 367 367 364 363 362 361 362 361 361 360 361 361 362 363 363 362 361 358 356 356 357 356 356 356 358 358 358 357 355 356 356 357 358 359 359 360 361
343 353 354 352 354 355 354 357 362 365 362 359 357 359 364 366 365 365 365 366 367 368 369 369 369 368 368 366 364 362 362 361 362 362 362 361 361 361 361 362 362 361 361 359 357 356 357 357 358 357 358 357 358 357 355 355 356 357 358 358 358 359 361
348 353 356 355 357 358 359 362 365 367 366 363 360 361 365 366 365 365 366 366 366 367 369 369 369 368 368 366 364 363 363 363 361 362 362 361 361 361 362 362 361 361 362 360 357 356 357 358 358 358 359 357 357 358 357 356 357 358 358 359 358 358 359
346 347 352 354 358 360 363 365 368 369 368 366 363 362 362 365 364 365 367 366 366 368 367 368 368 368 367 366 364 363 363 363 361 362 362 361 360 361 362 360 359 361 363 362 359 356 356 358 358 359 360 359 358 358 358 358 358 359 359 358 357 357 358
339 339 344 351 358 362 364 368 373 372 371 368 364 362 364 364 365 365 366 366 366 366 367 369 368 367 368 366 365 364 364 364 363 362 362 362 360 360 361 360 359 362 363 362 359 356 356 356 358 359 360 362 361 359 360 360 359 360 360 359 357 357 358
341 343 341 345 352 356 359 366 373 376 376 374 367 364 364 364 365 366 365 366 366 366 367 368 368 367 368 367 366 364 365 365 363 363 362 362 361 360 360 359 359 361 361 362 361 358 355 354 358 360 360 362 364 362 361 362 361 360 359 358 356 355 357
346 345 345 346 351 356 357 361 370 374 378 376 371 367 365 365 366 365 365 365 365 365 366 367 367 367 367 368 367 367 366 366 364 363 362 362 363 361 360 360 361 359 360 362 362 359 355 354 357 360 360 361 364 364 363 364 364 363 360 357 355 354 355
346 346 347 348 351 355 354 354 361 367 368 368 367 365 363 365 366 364 364 365 365 365 365 365 368 368 367 369 369 367 367 366 365 364 362 363 364 362 361 362 361 359 359 360 361 360 358 356 355 358 360 361 363 365 364 364 364 364 361 358 356 355 354
349 350 349 350 350 353 354 355 360 364 365 363 361 360 360 363 365 364 364 365 364 365 365 365 366 367 368 369 369 369 369 367 366 365 364 364 365 363 362 362 361 361 358 360 361 360 360 358 356 356 359 360 362 363 364 364 363 363 363 360 358 355 355
353 353 352 353 352 352 356 358 360 361 363 365 362 358 356 358 362 363 364 365 365 365 365 365 366 367 369 369 369 369 369 368 368 367 365 365 365 365 364 363 363 362 360 360 362 362 362 360 358 357 357 359 361 363 363 363 362 362 362 361 358 356 355
351 351 353 354 354 355 358 360 360 360 361 362 363 361 357 356 359 362 363 364 365 365 365 366 367 367 369 369 370 370 370 370 370 368 366 366 366 366 365 364 363 363 362 361 361 363 364 361 360 358 357 357 360 362 362 362 362 362 361 361 359 357 356
348 349 350 352 353 356 359 358 358 359 360 361 363 364 361 356 354 358 362 364 366 367 366 367 368 369 369 369 371 371 372 371 372 369 368 366 367 367 366 365 365 364 363 361 360 363 364 364 362 361 359 358 359 360 361 361 361 362 361 361 360 359 358
344 346 348 350 351 354 356 357 357 358 360 362 363 366 364 360 355 355 361 364 365 366 366 367 371 370 369 370 372 372 373 373 372 371 369 368 367 368 368 366 365 364 364 363 361 362 365 365 364 363 362 361 358 359 359 359 360 361 361 362 361 360 359
339 343 346 348 350 353 354 356 358 360 359 362 361 363 364 364 362 360 360 363 365 367 366 367 370 371 370 371 371 372 373 373 373 373 372 370 369 369 369 367 366 365 365 364 363 364 365 366 366 364 363 362 361 360 359 359 360 360 360 360 361 360 360
335 339 343 345 348 350 352 355 358 359 360 361 361 362 362 363 365 362 362 364 365 366 366 366 369 371 371 370 370 372 373 373 373 374 373 373 371 371 371 370 367 366 366 364 364 364 365 366 366 365 364 363 363 363 361 360 359 359 360 360 360 361 361
333 337 341 344 345 347 351 354 357 360 361 361 362 364 363 362 361 361 363 366 364 365 366 365 367 370 371 370 370 372 373 372 373 373 373 374 373 373 373 371 368 367 367 366 364 363 363 365 366 366 365 364 364 364 363 362 359 359 360 360 360 360 361
333 336 339 341 343 346 349 352 356 359 360 362 363 363 363 362 359 359 363 365 365 364 365 364 365 368 370 370 370 371 372 372 372 372 373 373 373 373 373 372 370 368 368 367 366 363 361 362 364 365 365 365 364 363 364 364 363 362 360 359 359 359 360
332 334 337 340 342 345 348 352 356 358 360 363 363 364 363 361 358 360 365 367 366 366 365 365 365 367 369 371 371 372 372 372 372 373 372 372 373 374 373 372 371 370 368 368 367 365 362 361 361 362 363 365 363 363 364 364 365 364 362 361 359 358 359
330 332 335 338 342 345 349 351 354 358 362 363 363 363 361 357 358 362 367 369 366 364 366 366 366 368 371 372 372 373 372 373 373 373 372 372 373 374 373 373 372 370 370 370 367 365 365 363 360 359 361 362 362 362 362 362 363 363 364 363 361 359 359
329 331 334 337 341 344 347 350 355 360 363 364 362 362 361 357 359 365 370 369 366 365 366 367 367 370 372 373 373 373 373 373 373 373 372 372 373 374 374 373 372 371 371 370 367 367 367 365 364 362 360 361 361 361 361 361 362 362 363 362 363 361 360
328 330 332 335 339 343 345 349 356 361 365 367 364 365 364 359 361 369 372 369 367 366 367 369 369 371 373 373 373 373 373 373 373 373 372 373 373 373 374 373 372 372 371 370 369 368 368 367 366 364 362 361 361 362 362 363 363 363 363 362 363 362 362
329 330 332 334 338 342 344 348 354 359 363 367 367 369 369 361 361 372 373 368 368 369 366 368 371 372 373 373 373 372 372 372 372 373 373 373 374 374 374 373 371 371 372 371 370 369 368 367 367 366 364 364 364 364 364 363 365 366 365 363 363 363 363
327 330 332 333 337 342 343 346 351 356 360 365 367 369 371 367 363 369 372 370 370 368 367 370 372 372 373 373 372 372 371 371 372 372 371 372 373 372 372 371 371 370 371 371 369 368 369 369 368 368 367 366 365 365 364 365 366 368 367 365 364 363 362
327 330 332 333 336 341 343 343 348 354 357 362 366 368 371 372 367 366 368 369 369 367 368 371 373 372 374 373 372 372 372 370 371 370 370 370 371 371 371 371 371 370 370 370 369 369 368 368 368 368 368 367 366 365 365 366 367 367 367 366 366 365 364
328 330 331 332 336 340 340 340 345 351 353 357 361 364 368 370 369 368 366 367 366 365 367 371 373 373 373 373 372 371 370 371 371 371 369 370 370 369 369 370 370 370 369 369 368 368 368 367 368 369 367 367 366 366 366 366 367 366 367 367 366 365 364
328 330 331 332 335 339 339 338 342 347 349 351 353 356 360 362 364 367 369 369 369 368 368 371 373 373 372 373 372 370 370 371 371 370 369 370 368 365 365 364 367 369 369 369 368 368 367 368 368 367 366 365 366 366 366 367 367 365 366 366 367 365 365
329 330 331 332 335 337 337 337 339 343 346 348 347 348 350 352 353 356 362 365 367 368 370 372 373 374 373 372 371 370 370 371 371 370 370 369 366 362 361 361 361 365 368 368 368 367 367 367 366 366 364 365 366 367 366 366 368 367 367 367 368 367 366
329 330 330 332 334 335 336 336 337 340 343 344 344 344 346 347 346 348 353 359 362 363 367 369 371 372 374 374 372 371 369 370 370 370 371 370 366 363 362 360 358 358 361 363 365 366 366 366 366 365 365 366 367 366 366 366 367 367 367 367 367 367 367

ECMWFFLT1_925_thetae_081.txt.gz
Theta_e
353 353 353 354 354 355 355 356 354 352 353 353 353 353 353 354 355 356 356 356 355 355 356 357 358 357 356 354 353 351 347 346 346 345 345 347 347 346 344 343 344 347 349 350 350 351 351 351 353 355 357 357 356 359 358 357 357 356 355 357 358 356 357
353 353 353 352 353 353 355 356 356 354 353 354 354 354 355 355 356 356 357 357 356 356 356 356 358 358 357 355 353 353 351 348 347 347 346 347 348 349 347 344 343 344 348 349 349 351 353 354 353 354 357 356 354 357 358 357 357 357 357 357 358 359 358
352 353 353 354 353 353 355 356 356 355 354 355 355 355 355 355 357 357 358 358 358 357 357 356 358 358 357 355 354 353 352 350 349 348 347 347 348 349 349 347 344 343 346 349 349 349 351 354 354 354 355 356 355 355 357 358 358 358 358 357 357 359 358
352 352 353 354 354 355 357 356 356 356 355 356 356 357 357 356 357 358 359 360 359 359 359 358 358 358 357 356 355 354 353 351 349 348 347 346 345 347 349 350 347 345 347 350 351 349 349 350 353 354 355 355 355 354 356 357 358 357 358 358 356 355 355
353 353 352 353 353 356 358 356 356 356 356 357 357 357 357 357 357 359 360 361 361 359 360 359 358 358 358 357 356 355 354 352 350 348 347 346 345 345 348 351 351 349 349 350 353 352 350 348 349 353 356 355 354 355 357 357 358 357 358 359 359 355 355
353 354 354 352 353 356 358 356 355 356 356 357 357 357 357 358 358 359 360 362 362 361 362 361 360 359 359 358 356 355 354 353 351 349 348 348 347 346 348 351 352 353 351 352 354 355 353 351 349 350 354 355 354 355 357 358 359 359 358 360 360 359 358
353 353 353 352 354 357 357 356 355 354 356 356 357 358 358 358 358 360 361 362 363 363 363 362 362 361 361 360 358 356 355 354 352 351 350 349 349 348 348 350 353 355 354 354 355 356 356 355 351 349 352 355 355 355 357 358 359 360 359 359 360 359 360
352 353 351 352 355 356 356 356 355 354 355 355 356 357 358 358 359 360 361 362 363 364 364 364 363 362 362 361 360 358 357 356 355 353 352 352 352 352 350 351 354 356 357 356 356 356 357 357 355 351 351 354 356 356 357 358 358 360 360 359 359 359 359
351 352 351 352 354 356 356 355 354 354 355 355 356 356 358 357 358 359 361 363 364 364 364 364 364 363 363 362 361 360 358 357 356 356 355 354 354 354 353 353 355 356 358 358 356 355 355 356 355 353 353 353 355 356 358 358 358 358 359 358 358 357 357
351 351 353 354 354 354 354 354 354 355 355 356 356 357 358 359 358 359 361 362 363 365 365 365 365 364 364 363 362 361 359 358 357 356 356 355 354 356 356 355 356 357 358 358 357 355 354 354 356 355 355 355 355 357 358 359 358 357 358 357 357 356 356
351 353 354 354 352 353 354 354 356 358 357 356 356 357 359 359 359 359 359 361 363 365 365 365 365 365 365 364 363 362 360 359 357 357 356 355 356 356 357 357 357 358 359 358 357 356 354 353 356 357 356 356 356 357 358 358 357 356 356 355 356 356 356
351 353 354 354 353 355 355 355 358 360 358 357 357 358 358 359 359 359 358 360 362 365 367 366 366 366 365 364 363 362 361 359 358 357 356 356 356 356 358 358 359 359 360 358 358 357 355 354 355 357 357 357 357 357 358 358 357 356 356 355 355 356 357
351 351 353 354 353 355 357 358 359 360 358 356 357 357 358 359 359 359 359 359 361 365 367 367 367 367 366 365 363 362 362 360 358 357 356 356 356 357 357 359 359 359 360 359 358 357 357 355 354 356 357 357 358 358 358 358 358 357 356 355 355 356 356
353 351 353 354 354 356 358 358 360 360 358 356 357 358 357 358 360 359 360 360 361 365 367 368 368 367 367 366 364 363 362 361 360 358 357 357 356 357 357 358 359 360 360 360 359 358 357 356 355 355 356 357 358 358 358 358 357 357 356 355 355 355 356
351 351 352 354 357 360 362 360 358 358 357 355 355 356 356 357 358 359 360 360 361 365 367 369 368 368 368 367 365 364 363 362 361 359 358 357 356 357 357 358 360 360 360 360 359 357 356 356 356 355 355 356 357 358 359 358 358 357 357 356 356 356 356
353 352 352 355 358 362 365 366 366 366 364 360 356 355 355 356 357 359 360 361 363 365 367 368 368 368 368 367 366 365 363 362 361 359 358 358 357 358 358 358 360 361 361 360 359 358 356 356 356 355 355 356 358 358 359 358 357 356 356 357 356 356 357
355 355 355 356 358 359 361 363 367 375 376 366 357 358 357 358 359 360 363 364 363 365 366 369 369 368 369 368 367 365 364 362 361 360 359 359 358 358 359 359 359 361 361 361 359 358 357 356 356 357 356 356 357 357 358 358 358 357 356 356 355 355 357
354 355 355 355 357 358 360 361 363 371 373 362 357 359 358 357 357 358 361 365 365 365 366 367 369 368 368 369 367 365 365 362 361 361 360 359 360 358 359 359 360 360 361 361 360 358 357 356 356 356 357 357 358 358 357 357 358 357 356 356 356 355 356
351 351 352 354 354 355 360 360 361 364 364 358 356 357 357 357 358 357 357 359 362 366 366 366 368 368 368 369 368 366 365 363 362 361 360 360 360 359 359 360 360 360 360 361 361 359 358 357 357 357 357 358 359 359 358 357 357 357 357 356 356 355 356
345 347 348 349 350 351 356 357 357 357 359 359 358 357 357 356 357 359 359 357 357 362 366 366 368 368 368 369 367 366 365 364 363 361 361 361 360 360 360 360 361 360 361 361 362 361 360 358 357 357 358 358 358 359 360 359 358 358 357 357 357 356 356
339 341 343 345 346 348 351 352 354 356 358 360 360 360 360 357 356 356 358 359 359 361 365 367 368 368 368 368 367 367 366 364 363 362 362 361 361 361 360 360 361 361 360 362 362 362 361 359 357 357 358 359 359 360 361 361 360 359 359 359 358 357 357
336 335 337 341 343 345 347 349 351 353 356 357 358 359 360 360 360 358 355 357 361 363 365 366 367 369 368 368 368 367 366 365 364 363 363 362 362 362 361 361 360 361 361 361 361 362 361 360 358 357 358 359 360 359 361 362 361 360 360 360 360 359 359
333 334 335 338 340 343 344 346 347 349 352 354 355 357 358 359 359 360 358 359 361 365 366 365 366 368 368 368 368 367 367 367 366 364 363 363 363 363 362 361 361 361 361 361 361 362 361 360 360 358 357 358 360 360 361 361 361 362 360 360 361 361 362
330 332 334 336 338 340 341 343 345 347 349 353 355 357 359 360 360 361 362 361 362 364 366 365 365 367 368 368 368 368 368 367 366 365 364 363 363 364 363 362 361 361 362 361 361 362 362 361 359 358 357 356 358 360 361 361 361 361 362 360 361 361 362
330 331 332 334 336 338 340 342 344 347 349 352 354 356 357 360 361 362 363 362 362 363 365 365 365 366 368 368 368 368 369 368 367 367 365 365 364 364 364 364 362 362 362 362 361 360 362 362 361 360 359 357 356 359 360 362 362 361 361 361 361 361 361
328 330 331 332 334 336 338 341 344 346 348 350 352 354 355 358 360 362 364 365 363 363 364 366 365 366 367 369 369 368 368 369 368 368 366 365 364 364 364 364 363 362 362 362 362 360 360 362 362 361 360 360 359 357 358 359 361 361 361 360 360 361 361
328 328 330 331 332 334 336 339 342 344 346 348 350 353 355 358 360 361 363 365 364 363 363 365 365 365 367 368 369 369 369 370 369 368 367 367 366 365 365 365 364 364 362 362 363 361 361 362 362 362 362 361 360 360 359 358 358 358 359 359 359 360 360
327 327 329 329 331 333 334 337 340 343 345 347 349 353 357 360 363 364 363 363 364 363 362 363 365 364 367 369 369 369 370 370 370 369 369 368 367 366 365 365 365 364 363 362 362 362 361 361 362 363 363 363 362 361 361 359 358 357 357 357 358 359 359
326 326 328 328 330 332 333 335 339 343 345 346 349 353 357 361 364 367 365 363 364 363 361 362 364 365 367 369 369 369 370 371 371 371 371 369 369 368 366 366 366 365 364 363 362 362 361 361 363 364 364 363 363 362 362 361 360 358 357 356 357 358 359
325 325 326 327 330 332 333 335 339 342 343 345 348 352 357 362 367 369 368 367 365 363 361 362 364 366 367 369 370 369 370 370 371 371 371 370 371 370 368 367 367 367 365 364 363 362 362 362 363 364 364 364 363 363 362 362 361 361 360 358 358 357 358
325 326 326 328 330 331 333 336 339 341 341 343 346 351 357 363 367 370 370 370 368 363 360 362 364 365 366 369 370 369 370 371 371 371 371 371 371 371 370 370 369 368 367 365 364 363 362 362 362 363 363 364 364 364 364 363 363 363 362 362 361 359 358
325 326 327 328 330 331 333 336 338 339 340 341 344 350 354 359 364 368 368 370 371 367 360 363 366 365 366 369 369 370 370 370 371 372 372 371 371 372 372 371 370 370 368 367 365 364 363 362 361 361 361 362 363 364 364 363 364 363 363 363 363 362 361
325 326 327 328 329 331 333 336 337 337 338 339 344 348 351 352 356 359 359 363 371 371 364 365 367 366 367 368 370 369 370 370 371 371 371 371 371 372 372 372 371 371 370 368 367 365 364 363 362 361 360 360 361 362 363 363 363 364 363 363 363 363 363
324 326 328 329 329 330 332 335 336 336 336 339 341 343 345 347 350 351 353 359 367 371 369 368 367 367 367 368 369 370 371 371 371 372 372 371 371 372 372 373 372 372 371 370 369 367 366 365 363 362 360 359 359 359 360 361 363 364 363 363 362 362 363
324 325 328 329 329 328 330 332 335 334 334 335 337 337 340 344 346 347 349 354 360 367 370 370 368 368 368 369 370 370 370 371 371 371 372 372 371 372 373 373 373 373 372 370 370 368 366 365 364 363 362 360 359 358 359 360 361 362 362 361 360 361 361
324 326 328 329 327 327 329 331 333 333 332 332 333 334 335 340 342 344 347 351 356 360 364 368 371 370 369 370 371 370 370 371 371 372 372 372 371 372 372 371 371 372 371 370 371 369 367 366 365 363 362 361 360 359 358 359 359 360 363 363 362 360 360
325 327 328 328 326 327 329 330 330 330 330 330 330 331 333 336 339 341 345 349 353 355 358 362 367 369 370 371 371 371 370 370 369 370 371 371 371 372 370 367 365 367 369 370 370 370 369 367 365 364 364 363 362 362 360 359 359 360 363 364 364 363 363
326 326 327 327 326 327 330 329 327 327 328 328 328 329 330 333 337 339 342 347 351 352 355 358 361 365 366 365 364 365 366 366 365 364 364 366 366 366 365 363 361 361 363 365 367 369 369 367 366 366 365 364 363 364 363 361 361 361 362 363 365 365 364

ECMWFFLT1_925_thetae_084.txt.gz
Theta_e
352 352 351 352 353 353 352 350 348 349 347 346 347 346 346 346 347 345 345 348 348 349 349 349 351 350 349 350 350 348 345 343 344 344 342 342 340 341 342 343 343 343 344 347 349 347 345 346 349 352 354 355 356 356 355 355 356 356 356 356 356 356 355
352 352 352 351 353 353 353 351 348 349 348 347 347 347 347 346 346 347 346 347 349 349 350 349 350 351 349 348 348 348 347 343 342 342 343 343 342 341 342 344 346 346 345 345 348 349 347 346 348 351 353 355 356 357 356 356 355 355 355 356 357 357 355
352 353 352 351 353 352 353 352 348 350 348 348 348 347 347 347 347 348 348 348 348 349 350 350 351 351 350 349 348 347 348 345 343 342 342 343 343 343 343 345 347 347 346 346 347 348 347 347 347 350 351 354 356 356 357 358 357 354 355 355 357 357 355
352 353 351 351 353 352 353 352 349 350 349 348 348 348 348 348 348 349 349 349 349 349 351 351 352 352 351 350 349 348 348 347 345 343 341 341 343 344 343 344 345 345 346 347 347 346 347 347 348 348 350 352 354 355 356 359 358 355 354 354 357 357 356
353 352 351 351 353 352 353 352 350 350 350 349 348 348 349 348 348 349 350 351 349 350 350 351 352 353 353 352 351 350 349 348 347 345 343 341 342 345 346 344 344 343 344 345 346 346 346 347 348 348 349 350 353 354 355 357 358 357 355 353 355 357 358
352 351 352 351 352 353 352 351 351 350 350 350 349 349 350 349 350 350 351 352 351 351 351 352 353 353 354 353 352 351 350 349 348 346 345 343 342 344 345 344 343 341 340 340 344 347 346 346 347 349 350 351 352 354 355 355 356 358 357 355 354 354 357
353 351 351 351 350 352 353 352 352 351 351 351 350 350 350 350 351 351 352 352 353 352 351 352 353 353 354 354 353 353 352 351 351 348 347 345 344 344 343 343 343 340 339 338 340 344 346 347 348 348 350 351 352 354 354 354 355 356 357 356 355 354 354
351 351 350 351 351 351 352 352 352 352 352 351 351 351 351 351 352 352 353 354 353 353 353 352 353 354 355 355 354 354 353 352 352 350 349 348 347 346 345 345 345 343 342 342 341 342 343 345 346 348 350 351 352 354 354 355 354 355 356 357 356 355 353
352 353 350 351 350 350 351 351 351 352 353 352 352 353 353 352 354 353 354 354 355 355 354 353 354 354 355 355 355 355 354 353 353 352 350 349 348 348 346 346 346 347 347 346 344 343 343 343 344 347 348 350 351 353 355 355 354 355 356 357 357 356 354
351 350 350 351 350 350 353 350 352 353 353 353 353 353 354 353 354 355 356 356 356 356 356 356 355 355 355 356 355 355 354 354 353 352 351 350 349 348 347 347 347 347 349 348 346 346 345 345 345 347 348 349 350 352 354 355 355 354 356 357 358 357 355
352 351 351 351 350 352 353 353 354 354 352 354 354 354 354 354 355 356 355 357 357 357 357 356 357 356 356 356 356 356 355 354 354 353 352 352 350 349 348 348 347 346 348 349 349 348 348 349 350 350 351 351 350 351 353 355 355 355 356 356 358 358 356
350 352 351 351 353 353 355 356 357 355 353 353 354 355 355 355 355 356 356 358 359 359 359 358 358 358 358 357 357 356 356 355 354 354 353 352 351 350 349 348 348 347 347 350 350 351 350 351 352 353 354 353 352 351 352 353 355 355 355 356 357 359 358
354 354 354 354 352 353 355 357 356 356 354 353 353 354 355 355 356 356 357 358 359 360 361 360 360 360 359 359 358 358 357 356 356 355 354 353 352 352 350 350 349 349 349 350 351 353 353 353 353 354 355 355 354 353 352 353 355 356 356 356 357 359 359
358 357 358 358 357 359 363 362 359 357 353 352 354 354 354 355 356 355 357 357 359 361 360 362 362 361 361 361 360 359 359 358 357 356 355 354 354 353 352 351 351 351 350 350 352 353 354 354 354 354 355 356 356 354 353 352 354 355 356 356 357 358 359
357 356 357 356 356 359 362 367 372 370 357 352 353 353 353 355 355 356 357 357 359 361 361 362 362 362 362 361 361 361 361 359 359 358 357 356 355 354 354 352 352 353 353 352 353 354 354 354 354 354 354 355 356 356 354 354 354 355 355 356 357 357 357
351 351 352 354 353 354 354 356 364 367 360 355 355 354 354 355 356 356 356 356 358 361 362 362 363 363 363 362 362 362 361 361 360 359 358 357 356 356 355 354 354 353 354 354 354 355 355 355 355 355 354 354 355 355 355 355 355 354 354 354 355 357 356
342 343 345 348 348 350 352 351 353 357 356 355 357 357 354 356 357 356 356 357 358 359 362 363 364 363 364 363 363 363 362 362 361 360 359 358 357 356 355 354 354 354 355 355 356 356 356 355 355 356 355 354 354 356 356 356 356 355 354 354 354 355 356
338 340 340 342 344 346 348 350 351 352 354 353 353 355 356 356 357 357 357 357 357 358 361 363 364 364 364 364 364 364 363 363 362 361 360 359 358 357 355 355 354 354 355 356 356 357 357 357 356 356 355 354 355 355 356 356 356 355 355 354 354 355 356
338 338 338 339 340 342 344 346 348 348 350 350 351 352 354 355 356 358 358 358 358 358 360 363 365 365 365 365 364 365 364 363 362 362 361 360 359 357 357 356 355 355 355 356 357 357 358 357 357 356 356 355 354 354 356 356 356 356 356 355 355 355 356
335 335 336 337 338 339 341 343 344 345 346 347 349 350 351 353 353 355 358 358 359 359 359 362 365 366 366 366 365 366 365 364 363 363 361 361 359 358 357 356 355 356 355 356 357 358 358 358 357 356 356 355 355 355 355 355 356 355 356 356 355 355 356
332 332 333 335 336 337 338 340 341 343 344 345 348 350 350 352 353 352 354 357 359 359 359 360 363 365 367 367 366 366 365 365 364 363 362 361 360 358 358 357 356 356 355 356 357 357 358 358 357 357 355 356 355 355 355 355 354 355 356 355 356 356 356
329 330 331 332 333 335 336 338 339 341 344 345 347 349 350 352 353 351 350 352 356 359 360 360 360 362 365 367 367 366 366 365 364 363 362 361 360 359 358 357 357 356 356 356 357 358 359 358 357 357 356 355 355 356 355 355 354 354 354 355 355 356 357
327 328 329 330 331 332 334 335 337 340 343 344 345 346 348 349 351 351 351 350 353 357 357 358 358 360 363 367 367 367 367 366 365 363 363 362 361 360 358 358 357 356 357 357 357 358 358 358 359 358 356 355 356 355 356 356 355 355 354 354 355 356 357
327 327 328 329 330 331 332 334 336 338 341 343 344 345 346 348 350 352 352 351 354 358 358 358 358 359 362 365 367 368 367 366 365 364 363 363 361 360 359 359 358 358 357 357 357 358 358 359 359 358 357 356 355 355 356 356 356 356 355 355 355 355 356
326 326 327 328 329 330 332 333 334 337 339 341 343 344 345 347 349 352 355 354 356 360 361 361 360 360 361 363 365 367 367 366 366 365 364 363 362 361 360 360 359 359 358 358 358 358 359 359 360 359 358 357 356 355 356 356 357 356 357 356 356 355 356
325 325 326 327 328 330 332 333 334 336 338 341 342 343 345 347 349 354 356 358 360 362 363 363 362 362 362 362 364 366 367 367 367 365 365 364 362 362 361 360 360 358 358 358 358 358 358 359 360 359 359 358 357 357 356 357 357 357 358 357 357 356 357
325 324 325 327 328 330 331 333 334 336 338 340 340 342 344 346 349 353 355 359 362 363 365 365 364 363 362 363 364 366 366 367 366 366 366 365 364 362 361 360 360 360 359 359 358 358 358 359 360 360 360 358 358 357 356 357 358 358 358 358 358 358 357
325 324 325 326 328 329 330 332 334 336 337 337 338 340 342 345 349 353 355 359 363 366 366 366 366 365 364 363 364 365 367 366 366 367 366 365 364 363 362 362 361 360 360 359 359 358 359 359 359 360 360 360 359 358 357 356 357 358 358 358 358 359 359
324 324 325 326 327 329 330 332 333 335 335 336 337 339 342 344 348 350 353 356 360 361 360 360 362 364 365 363 363 365 366 367 367 367 366 366 365 364 363 362 362 362 361 360 360 359 359 359 359 359 360 359 359 359 358 356 357 357 358 359 359 359 359
324 324 325 326 327 329 330 330 332 334 334 334 335 336 338 341 343 345 348 350 352 352 351 352 357 362 365 365 363 364 366 367 367 367 366 366 365 364 363 362 362 362 362 361 361 360 360 359 359 359 360 360 360 360 359 358 357 357 357 357 358 358 360
323 323 325 326 327 328 329 330 331 332 332 332 332 333 334 335 337 340 343 345 345 346 347 350 355 360 364 365 364 363 365 366 367 368 367 367 366 365 364 363 362 363 362 362 361 360 360 360 359 358 359 360 360 360 359 359 358 358 357 357 357 358 359
322 323 325 327 327 328 329 330 330 329 330 330 330 330 330 331 333 336 338 339 341 344 345 348 353 358 362 365 364 363 364 366 367 368 367 367 367 366 365 364 364 363 363 363 362 361 360 360 360 359 359 359 360 360 360 360 359 359 359 358 358 358 358
322 323 325 327 327 327 328 329 328 327 328 328 328 328 328 329 330 332 335 337 339 341 343 348 353 356 360 364 364 363 365 366 368 368 368 368 368 367 366 365 364 364 364 363 363 362 362 360 360 359 359 359 359 360 361 361 361 360 360 360 360 359 359
322 323 325 326 326 326 328 329 327 326 327 327 326 327 327 328 328 330 332 335 337 339 342 347 352 355 357 362 364 363 365 367 367 368 368 369 368 368 367 367 366 365 364 364 364 363 362 362 361 359 359 359 359 360 361 361 361 360 360 360 360 360 360
323 324 325 326 325 325 328 328 326 325 326 325 325 326 326 326 327 328 330 332 335 336 340 346 351 353 356 362 365 364 365 367 368 369 368 369 369 369 369 368 367 366 366 365 365 364 363 363 361 360 360 359 359 360 360 360 361 361 361 361 361 360 361
324 324 324 324 323 323 326 328 326 325 325 324 325 326 326 325 326 327 328 329 332 334 339 344 349 352 356 361 364 366 365 366 367 368 368 369 369 369 370 370 369 368 368 367 366 366 365 364 362 362 360 360 359 359 360 360 360 361 361 361 361 361 360
325 325 323 322 322 323 326 327 326 325 324 324 324 324 325 325 325 326 326 327 329 333 339 343 346 351 355 358 360 364 366 367 367 367 368 369 369 369 369 369 368 368 369 368 369 368 367 366 365 364 362 362 360 359 359 359 359 359 360 361 362 362 361
326 325 323 322 323 323 326 327 325 324 324 324 323 323 323 324 325 324 325 326 328 331 337 341 343 346 352 356 357 358 362 365 368 368 368 369 369 369 367 365 363 362 365 367 368 369 368 368 367 366 365 363 362 361 360 359 358 358 358 358 360 361 361

ECMWFFLT1_925_thetae_087.txt.gz
Theta_e
353 353 352 351 350 350 349 348 346 345 344 344 344 344 344 344 343 344 346 347 347 347 347 348 349 349 349 349 348 347 347 347 346 343 342 342 342 343 342 342 342 342 343 345 345 344 345 344 343 345 348 351 353 353 353 352 352 353 355 355 356 357 356
353 353 352 351 351 350 350 348 346 346 345 345 344 344 344 344 343 344 345 347 347 347 347 348 348 349 349 349 348 347 347 346 346 344 342 342 341 341 342 341 340 340 340 342 341 342 344 346 345 344 347 349 351 353 353 353 352 352 354 355 356 356 355
353 353 352 351 351 351 351 349 347 347 346 345 344 344 345 344 343 344 344 346 347 346 347 348 348 349 348 349 348 347 347 346 346 345 343 342 340 341 341 341 339 339 340 341 339 339 341 345 345 344 345 347 349 351 353 354 353 352 353 355 356 355 355
353 353 351 351 351 350 351 349 347 347 346 346 345 344 344 344 344 343 344 345 346 346 347 347 348 348 348 349 348 348 347 346 346 345 344 343 342 343 344 342 340 339 341 341 340 340 340 343 346 345 344 346 348 349 351 353 353 352 354 355 356 356 355
354 353 351 352 351 350 350 350 348 348 347 346 346 344 345 344 345 344 343 344 346 346 346 346 347 348 348 348 348 348 347 346 345 344 344 345 345 345 345 344 342 341 340 341 340 342 342 343 345 346 346 345 347 348 350 352 353 352 355 356 356 356 355
354 353 352 351 351 350 350 350 349 348 348 347 346 345 345 344 344 345 343 344 345 346 346 346 347 348 348 348 348 347 348 347 345 344 344 344 345 345 344 343 342 341 341 340 341 342 344 344 345 346 347 346 346 348 349 352 353 353 355 357 357 356 355
352 353 354 350 350 350 350 350 350 348 348 348 347 346 345 345 345 345 344 344 345 346 346 346 346 347 348 348 348 347 347 348 347 346 344 343 343 343 344 344 342 341 342 341 342 343 345 345 345 346 347 347 346 347 349 351 352 353 354 357 357 357 355
352 351 352 352 350 350 349 350 351 349 348 348 347 347 346 346 346 345 345 345 345 345 346 347 347 346 348 348 348 348 347 347 347 346 346 344 343 342 342 343 343 343 343 343 343 345 345 346 345 346 347 347 346 347 348 349 350 352 353 356 357 357 356
352 351 351 351 349 350 350 349 350 350 349 348 347 348 346 346 346 345 346 346 345 346 346 347 348 347 348 348 348 348 348 347 347 346 346 345 345 343 342 341 342 343 344 344 344 345 346 346 345 346 346 347 346 346 347 348 349 351 353 354 356 356 356
350 350 351 351 350 350 351 349 350 350 349 348 347 347 347 347 347 346 346 346 347 347 346 346 348 348 349 349 349 349 349 349 348 347 347 346 345 344 344 342 341 342 344 345 345 345 344 345 344 345 346 346 347 348 348 349 350 351 352 353 355 355 356
353 353 353 351 349 350 350 352 353 351 349 349 348 348 347 348 347 347 347 347 348 348 347 347 347 349 349 350 350 350 350 350 349 349 349 348 347 346 345 344 343 342 342 343 345 345 344 343 343 344 346 346 348 348 348 349 350 352 352 352 353 355 354
350 354 357 358 356 353 352 351 352 352 351 349 348 349 348 347 347 348 348 348 348 348 349 348 348 349 349 350 351 351 351 351 350 350 350 349 349 348 347 346 345 344 343 343 343 344 344 344 344 344 345 346 346 347 347 348 350 351 351 353 353 354 354
343 346 349 353 357 361 364 361 355 352 350 350 349 349 349 349 349 348 349 349 349 350 350 349 349 349 350 350 351 352 352 352 351 351 351 350 350 349 349 348 347 346 345 344 344 345 345 346 346 345 346 346 345 346 346 346 348 348 350 351 353 354 355
337 339 341 345 347 352 359 364 364 357 351 350 351 351 350 350 349 349 350 350 350 351 351 351 351 350 351 351 351 353 353 353 353 352 352 351 351 351 350 349 349 347 346 346 345 345 346 347 348 348 347 347 346 346 346 346 347 348 349 350 352 353 354
335 336 337 339 341 344 346 350 357 358 355 351 351 351 351 351 351 351 351 351 352 352 352 353 352 352 352 352 352 353 353 353 354 353 353 353 352 351 351 351 349 348 348 347 346 346 346 347 347 348 348 349 348 348 348 348 348 349 349 351 351 353 354
334 334 335 336 337 339 340 342 346 349 351 352 353 354 352 352 353 352 353 352 353 354 354 354 354 354 353 354 353 353 353 354 354 354 354 353 353 353 352 351 351 350 349 348 347 347 347 346 347 348 349 350 349 350 350 351 351 350 351 351 352 352 353
333 333 334 334 335 336 337 338 341 343 346 348 350 353 353 353 353 352 353 354 353 355 355 355 355 356 354 355 355 354 354 354 354 354 354 354 354 354 353 352 352 351 350 349 348 348 348 348 348 348 349 350 351 351 352 352 352 352 352 352 352 352 353
333 332 332 333 333 334 334 335 337 340 343 346 349 350 351 353 355 354 353 355 354 356 357 357 358 357 357 356 356 356 356 356 356 356 355 355 354 354 354 353 353 352 351 350 350 350 349 349 349 349 350 351 351 352 352 353 353 352 353 353 353 353 353
333 332 332 332 332 332 333 333 336 338 341 344 346 349 350 351 353 355 354 355 355 356 357 359 359 358 359 358 357 358 358 357 357 357 356 356 356 355 355 354 353 353 353 352 352 351 351 351 351 351 351 352 352 352 353 352 353 353 353 354 353 354 354
332 332 332 331 331 331 331 333 334 336 338 342 344 346 348 350 350 352 354 355 355 355 356 359 360 360 360 360 360 359 360 359 359 359 358 358 358 357 356 355 355 354 354 353 353 352 352 352 352 352 352 352 353 353 352 353 353 352 353 353 353 353 354
330 330 331 331 331 331 331 333 334 335 337 340 342 343 345 346 348 350 351 354 355 355 356 358 359 361 361 361 360 360 360 360 360 360 360 359 358 358 358 356 356 355 354 354 354 353 354 353 354 353 353 354 353 353 353 353 353 353 354 353 353 354 354
328 328 329 330 330 330 331 332 333 334 336 339 340 342 343 344 345 348 351 352 353 354 355 357 358 359 360 360 359 360 360 361 361 361 360 360 360 359 359 358 357 356 356 355 354 354 354 354 354 354 354 354 354 354 354 354 353 354 354 353 353 354 354
327 327 327 328 328 329 330 331 333 334 336 338 339 341 342 342 344 348 351 353 354 353 353 355 355 356 357 357 358 358 357 358 360 361 361 361 361 360 359 358 358 357 356 356 354 354 354 354 354 355 355 355 355 355 355 355 354 354 354 354 354 354 355
326 326 326 326 327 328 329 331 332 334 336 337 338 339 341 342 343 346 350 353 356 355 355 355 354 354 354 355 356 357 357 356 356 359 361 362 361 361 360 359 358 358 357 356 355 355 355 354 355 354 355 355 355 355 355 355 355 354 354 354 354 354 355
326 325 325 326 327 328 329 330 332 334 335 336 336 336 339 341 343 346 348 351 354 357 359 359 359 358 357 355 354 355 357 357 355 356 360 362 362 361 361 360 359 359 358 357 356 355 355 355 355 355 356 355 356 355 356 355 355 354 355 354 354 354 354
325 325 325 326 326 327 329 330 331 334 334 334 334 335 337 340 343 346 348 350 352 357 360 359 359 360 360 359 358 357 357 357 358 358 362 364 363 362 362 361 360 359 358 357 357 356 355 355 355 355 356 356 356 356 355 355 355 355 355 354 355 354 354
324 324 324 325 326 328 329 330 330 332 333 332 332 333 334 337 340 343 346 347 349 352 352 350 351 352 355 357 360 360 360 359 360 362 364 365 364 363 362 362 360 360 358 358 357 356 356 355 356 356 356 356 356 356 356 356 356 355 355 354 354 354 354
323 323 324 325 326 328 329 329 330 331 331 330 331 331 331 333 335 337 340 343 345 345 344 344 346 347 350 354 358 362 363 362 362 364 365 365 364 363 363 362 361 360 359 359 358 357 356 356 356 356 356 356 356 357 356 356 356 356 356 355 355 355 354
323 323 323 325 326 327 328 328 329 329 329 329 329 329 329 330 332 333 336 338 339 339 339 341 343 345 347 352 356 361 363 364 363 364 365 366 365 364 364 363 361 360 359 359 358 357 357 357 357 356 357 356 357 357 357 357 357 356 356 356 355 355 355
323 322 322 324 326 327 327 328 329 328 327 327 328 327 327 328 330 331 333 333 334 335 338 339 342 344 347 351 355 358 361 364 364 364 365 365 365 365 363 362 361 361 360 359 359 357 358 357 357 356 357 356 357 358 357 358 357 357 357 357 356 356 356
322 322 321 323 325 326 326 328 328 326 326 326 326 326 327 327 328 329 330 330 331 334 336 338 340 343 347 350 353 355 359 362 363 363 365 365 365 365 364 363 362 361 360 359 359 358 358 357 357 357 357 356 357 357 357 358 358 357 357 357 357 356 356
321 322 322 322 325 325 325 327 327 326 325 326 325 325 326 326 326 327 328 328 329 332 334 336 339 342 346 349 351 353 356 360 363 363 365 365 365 365 365 364 362 362 360 360 360 359 358 358 358 357 357 357 357 357 358 358 358 358 358 358 357 357 357
320 322 322 323 324 325 324 326 327 326 326 325 325 324 325 325 325 326 326 327 328 331 333 335 338 342 345 348 349 352 356 360 362 363 364 365 366 365 365 364 363 362 361 361 360 359 359 359 358 358 357 357 357 357 357 358 357 358 358 357 357 357 357
320 321 323 323 323 323 323 325 327 326 325 325 325 324 324 324 325 325 325 325 328 329 331 334 338 342 345 346 349 352 356 358 361 363 364 365 365 365 365 364 363 363 361 361 361 360 359 359 358 358 358 358 357 357 357 357 358 358 358 357 357 357 357
320 321 323 323 323 322 322 324 326 325 325 324 324 323 323 324 324 324 324 324 326 328 329 332 337 341 343 345 348 352 354 356 359 362 363 365 365 365 365 365 365 364 362 362 362 362 361 360 360 359 359 359 358 358 357 357 358 358 358 358 358 357 357
320 321 322 324 323 322 322 324 325 325 323 323 323 323 323 323 323 324 323 324 325 327 328 332 336 340 341 342 345 349 351 353 357 360 363 364 365 365 366 365 365 365 364 363 363 362 363 362 361 360 360 359 359 359 358 358 358 358 358 358 359 359 358
319 320 321 323 324 322 323 325 325 324 322 321 322 322 322 322 322 322 323 323 325 326 328 331 334 337 338 338 340 345 348 350 353 358 362 364 365 366 366 365 365 364 364 363 363 363 362 362 362 362 361 360 360 360 359 359 359 358 358 359 359 359 359
319 321 321 324 324 323 324 325 325 322 321 320 321 321 321 321 321 320 321 323 324 325 327 330 331 333 334 336 338 341 345 348 350 353 358 362 366 366 366 365 365 364 364 364 363 363 363 363 362 362 362 362 361 360 360 360 359 358 358 358 358 359 359

ECMWFFLT1_925_thetae_093.txt.gz
Theta_e
349 349 349 349 349 348 348 350 351 349 349 349 349 350 350 351 351 351 351 350 351 352 351 350 350 350 349 349 348 347 348 349 350 351 351 350 350 350 349 348 348 348 348 347 346 345 345 345 346 346 346 345 346 348 350 353 355 355 355 356 356 355 356
346 348 349 349 349 349 349 351 351 351 350 348 349 350 349 350 351 351 351 350 350 350 350 349 350 350 349 349 349 349 349 349 349 350 351 351 350 350 349 348 347 347 347 348 346 344 343 343 344 345 345 345 345 345 347 351 354 355 355 355 355 355 355
343 344 346 348 350 349 350 351 351 351 350 348 348 348 349 351 351 351 350 350 350 350 351 350 349 350 349 350 350 349 349 349 350 350 350 350 350 350 349 348 348 347 347 347 346 345 343 342 343 344 345 345 345 345 345 348 351 354 354 354 355 355 354
342 342 344 346 349 349 350 351 351 351 350 349 348 348 349 350 350 350 349 350 350 350 351 350 350 350 350 350 350 350 349 350 349 350 350 351 351 350 349 348 347 347 347 346 346 346 343 343 343 343 344 344 344 344 345 345 347 350 353 353 354 354 354
341 341 342 344 347 348 349 351 351 351 350 349 348 348 348 349 349 349 349 350 350 350 350 349 350 350 349 349 350 350 349 349 349 349 350 350 350 350 349 348 347 346 346 346 346 345 344 343 343 342 342 341 341 342 343 344 345 346 349 351 352 353 354
341 341 341 342 345 347 348 350 351 350 349 349 349 348 348 348 348 349 349 349 350 351 351 350 350 350 349 349 350 350 349 349 349 349 350 350 349 350 349 348 347 346 345 345 345 345 344 343 343 342 341 339 339 339 340 342 344 344 345 347 349 351 354
339 341 341 341 343 347 348 350 351 349 349 349 348 348 348 347 348 348 348 349 349 350 351 351 351 351 350 350 350 350 349 349 348 348 349 349 349 349 348 348 346 346 344 344 344 344 344 343 343 343 342 340 339 339 339 340 342 344 344 345 346 347 350
336 339 341 341 341 344 348 351 351 349 349 348 348 348 347 347 347 347 347 348 348 349 350 350 350 351 350 350 350 350 349 349 349 348 348 349 349 348 348 347 346 345 344 344 342 342 342 343 342 343 343 341 338 338 339 340 340 343 344 344 345 345 347
333 336 338 339 340 341 346 351 352 351 350 348 348 348 347 347 347 347 347 347 348 348 349 349 350 350 350 349 349 349 349 350 350 349 349 349 349 348 348 347 346 345 344 343 342 341 340 341 342 342 342 340 339 339 339 340 340 341 343 344 344 344 345
332 334 335 337 338 340 344 347 349 352 354 353 350 348 348 347 347 347 347 347 347 348 348 349 349 350 350 349 349 350 350 350 350 350 349 349 349 348 348 347 347 346 344 344 344 342 339 338 339 340 341 340 340 341 340 340 340 340 342 343 344 344 344
332 333 334 335 336 338 341 343 345 348 350 353 354 349 348 348 347 347 347 347 346 347 348 348 349 350 349 349 350 351 351 351 351 351 350 349 349 348 348 347 347 346 345 344 345 344 341 338 338 338 339 339 340 341 340 340 340 340 340 341 343 344 344
332 332 333 334 335 335 338 341 344 346 347 349 351 352 351 348 347 347 347 347 346 346 347 348 348 349 349 350 350 350 351 351 351 351 350 350 349 348 348 347 347 347 345 345 345 345 343 342 339 338 336 336 337 338 338 339 340 340 340 341 342 343 344
333 332 332 334 334 335 336 338 341 344 345 347 348 350 352 351 349 347 347 347 347 346 347 348 348 349 349 349 350 351 351 351 351 350 350 350 349 349 348 347 347 347 346 345 345 344 345 344 342 340 337 336 336 335 335 337 339 340 340 341 343 343 344
332 331 331 332 333 334 335 336 338 341 343 344 346 348 349 351 352 351 349 348 347 346 347 347 348 349 349 349 349 351 351 350 350 350 350 350 350 349 349 348 347 347 346 346 345 345 345 345 344 342 340 339 338 337 337 338 339 340 340 341 342 343 344
330 330 330 331 332 333 333 334 336 339 340 342 344 345 346 348 350 352 353 350 348 347 346 347 348 348 349 349 350 350 350 349 350 350 350 350 349 349 349 349 348 347 346 346 345 346 345 345 345 345 343 342 341 339 340 341 340 340 339 340 341 342 343
328 328 329 330 330 331 332 333 335 337 338 340 342 343 344 345 347 350 353 353 351 348 346 347 348 348 348 349 349 348 348 348 349 350 350 349 348 348 348 349 349 348 347 346 345 345 345 345 345 346 345 344 343 342 342 341 340 339 337 338 340 341 343
327 327 327 328 329 330 330 332 334 336 337 338 339 340 342 343 345 348 351 353 354 352 349 348 348 347 347 348 348 347 347 348 348 348 349 348 348 348 347 348 349 348 347 347 346 346 345 345 345 346 346 346 346 345 345 344 341 340 339 338 339 340 342
325 326 326 326 328 329 329 330 332 334 335 337 338 338 338 340 342 345 348 351 353 355 353 350 348 347 347 347 347 347 347 348 348 348 349 348 348 348 347 347 348 348 348 348 348 347 346 346 347 346 346 347 347 347 347 347 344 343 342 341 340 339 342
325 324 325 325 326 327 328 329 331 333 334 335 337 337 336 337 339 341 344 348 352 355 355 354 351 348 348 348 348 347 347 348 349 349 349 348 348 348 348 349 349 349 349 349 349 348 348 348 348 347 347 347 348 348 349 349 347 346 344 343 343 341 342
324 324 324 324 324 326 328 330 330 331 333 335 336 336 334 334 335 337 340 345 349 354 356 356 355 351 350 350 349 347 348 348 350 350 349 349 349 349 351 350 349 349 350 351 351 350 350 349 349 349 348 348 349 349 349 350 349 348 347 345 345 344 343
322 323 324 324 324 325 327 329 330 330 332 334 335 335 333 332 332 334 338 343 347 349 353 356 357 355 353 352 351 350 350 349 350 351 351 351 351 351 352 351 351 351 352 352 353 352 351 350 351 351 350 349 350 350 350 350 350 349 348 348 346 346 345
320 321 323 324 324 325 326 328 329 330 331 332 333 333 332 331 331 332 336 341 345 346 348 350 353 356 356 355 354 352 352 351 351 351 351 353 353 354 354 353 352 352 353 354 354 353 353 352 352 352 351 351 351 351 351 351 350 349 349 349 348 347 346
320 320 322 324 325 325 325 326 329 330 330 331 331 331 331 330 330 332 335 338 341 343 345 345 346 349 354 357 357 355 354 354 353 353 353 354 355 355 355 355 354 354 354 355 355 354 355 354 354 353 353 353 352 352 352 352 351 351 350 350 349 347 347
320 321 321 323 324 324 325 326 328 329 329 330 329 329 330 329 329 332 334 335 337 340 342 341 340 341 347 353 356 358 358 357 356 356 356 356 356 356 356 356 356 355 355 355 355 355 355 355 355 355 354 354 353 353 353 353 352 352 351 351 350 348 348
320 320 321 322 322 324 325 326 327 328 328 329 328 328 328 328 329 332 334 334 335 338 338 336 335 336 340 345 349 352 357 358 358 358 358 357 357 356 357 357 357 356 355 355 356 356 356 356 356 356 356 355 355 354 354 354 354 353 352 352 351 350 349
320 320 320 321 321 323 324 325 326 327 327 328 328 327 327 328 329 332 333 333 333 335 335 333 332 333 336 339 342 346 351 356 359 359 359 359 359 358 359 359 358 357 357 357 357 357 357 357 357 357 357 356 356 356 355 355 355 354 353 353 352 352 350
319 319 319 320 321 322 323 325 326 326 326 327 328 327 327 327 329 331 332 331 332 332 331 331 331 332 334 336 339 342 347 352 357 359 359 359 360 360 360 360 359 359 359 358 358 358 357 357 358 357 357 357 357 357 357 356 356 356 355 354 353 353 352
317 318 318 319 320 321 322 323 325 326 326 326 326 326 326 326 328 330 331 331 332 330 329 330 331 332 332 334 337 340 344 348 353 357 358 359 360 360 361 361 360 360 360 359 359 358 358 357 357 357 358 358 358 358 358 357 357 356 356 355 354 354 354
316 317 317 318 319 319 321 322 324 325 326 325 325 326 326 326 327 328 330 330 330 329 328 329 331 331 331 333 336 339 343 345 348 352 354 356 358 359 360 360 361 360 360 360 360 359 359 358 358 357 357 358 358 359 359 359 358 357 356 356 355 355 355
316 316 316 317 318 318 319 321 323 325 325 325 325 326 326 326 326 327 329 329 328 328 328 329 330 331 331 332 334 337 341 344 346 348 349 350 353 356 358 360 360 360 361 361 360 360 359 359 359 359 358 359 359 360 360 360 359 358 357 356 356 355 355
315 315 315 316 317 318 319 320 321 323 324 325 325 326 325 324 325 326 327 327 327 327 327 328 330 330 330 331 334 336 339 342 344 346 347 348 349 351 355 358 359 360 360 361 360 361 361 360 360 360 360 360 361 361 361 361 361 360 359 357 356 356 356
314 315 315 315 316 318 318 319 320 321 323 324 325 326 324 323 323 325 326 326 326 326 326 327 329 329 329 331 332 334 337 340 342 345 347 349 351 352 354 357 360 361 361 361 361 361 361 361 361 361 361 361 362 362 362 362 361 361 360 359 357 357 356
314 314 314 315 316 317 318 319 319 321 322 324 325 326 324 322 322 323 324 325 325 324 325 326 327 328 328 329 330 332 335 338 341 342 345 348 352 353 354 357 361 362 362 362 362 362 362 362 362 362 362 362 363 363 362 362 362 362 362 360 359 358 357
313 314 314 315 315 316 317 318 319 320 322 323 325 325 324 323 321 321 322 323 323 323 323 325 326 327 327 327 329 332 334 336 338 339 341 344 347 350 353 356 360 363 364 364 364 363 363 363 363 363 363 363 363 364 363 363 363 363 362 362 360 359 357
313 313 314 315 315 316 317 317 319 320 321 323 324 325 325 323 321 320 320 321 322 322 323 324 325 326 326 327 329 331 332 333 334 336 338 340 343 346 350 352 355 358 361 364 365 364 364 364 364 364 364 364 364 364 364 364 364 363 362 362 361 360 358
312 313 314 314 315 316 317 317 319 320 321 322 324 325 325 323 321 320 319 320 320 321 322 323 323 324 326 327 327 329 329 330 331 334 336 338 339 341 344 346 349 351 354 358 362 364 364 365 365 365 364 365 365 365 364 364 364 363 362 361 361 360 359
312 312 313 314 315 316 316 317 318 320 321 322 324 325 324 323 321 320 319 319 319 319 320 322 322 323 325 325 326 327 327 327 329 332 334 335 336 338 339 341 346 350 352 354 358 362 363 363 364 364 364 364 364 365 364 363 363 362 362 361 360 360 359
311 312 313 314 315 316 317 318 319 320 321 322 324 324 324 323 321 320 319 319 318 318 319 320 321 322 323 324 324 325 326 327 328 330 331 332 333 335 337 339 342 347 350 352 355 359 362 363 363 363 363 363 363 363 363 363 362 361 361 360 360 360 359

ECMWFFLT1_925_thetae_096.txt.gz
Theta_e
349 351 352 353 352 352 352 355 355 354 354 354 354 355 355 355 355 356 358 360 362 363 363 362 361 361 360 359 358 358 357 356 357 357 357 356 355 354 356 355 355 355 353 350 350 352 353 355 355 355 356 357 357 359 360 360 361 362 362 362 362 363 363
348 349 350 351 352 353 354 355 355 355 354 353 354 354 355 355 355 356 358 360 361 362 363 362 361 361 360 360 359 358 358 357 356 357 357 357 356 355 355 355 355 355 354 351 350 352 354 355 355 355 356 356 355 357 358 357 359 361 361 362 363 364 364
346 348 348 349 350 352 354 355 355 355 355 354 354 355 355 355 356 356 358 360 361 361 362 362 361 360 360 360 359 359 359 358 357 357 356 356 357 355 354 356 355 355 354 354 353 353 352 353 355 355 355 355 354 356 357 356 358 359 361 362 363 363 365
346 346 347 347 349 351 353 356 355 355 354 354 354 354 355 355 355 356 357 359 360 361 361 361 361 360 360 360 360 360 360 359 357 356 355 353 355 355 353 354 355 354 352 353 354 352 350 353 356 356 354 354 355 356 356 356 357 358 359 361 361 361 363
345 345 346 347 348 349 352 354 355 355 354 354 354 354 355 355 355 356 358 358 358 360 361 360 360 360 360 360 359 359 359 359 357 355 355 353 353 355 354 353 354 353 352 353 353 354 354 354 355 355 354 354 354 355 356 356 356 356 358 359 359 359 359
343 345 346 346 346 347 350 352 353 354 355 355 354 353 354 354 355 355 357 357 357 358 359 360 359 359 360 360 359 359 359 360 358 357 355 354 353 355 354 353 353 351 351 352 352 353 355 354 352 354 354 352 351 351 352 354 353 355 356 357 358 357 357
341 343 345 346 346 347 351 354 353 352 354 354 353 353 353 353 354 354 355 355 356 356 358 358 358 359 360 360 359 359 359 359 359 357 356 355 354 355 355 353 352 351 350 351 352 353 353 354 352 353 353 351 350 350 350 352 353 353 354 356 357 357 356
338 339 341 344 345 346 350 356 355 354 354 355 353 353 353 352 353 353 353 353 354 355 355 357 357 358 359 359 359 359 359 359 359 358 357 355 355 355 355 353 352 352 351 351 352 352 352 352 352 352 352 351 351 352 352 355 356 353 352 355 357 357 355
336 337 337 340 342 346 350 354 355 356 357 357 357 354 352 352 353 353 353 352 353 353 354 355 356 357 359 359 359 359 359 359 359 359 358 356 355 354 353 352 352 352 352 351 350 351 351 349 350 351 353 352 351 354 354 355 356 354 352 355 357 357 355
335 336 335 336 339 343 348 350 352 354 355 356 357 357 355 353 352 352 352 351 352 353 353 353 354 356 357 359 359 359 359 359 358 358 357 356 355 354 353 351 351 351 352 350 348 349 351 349 349 351 354 353 352 354 353 354 355 353 352 354 356 357 355
335 335 335 334 336 338 341 345 349 352 353 354 355 355 356 356 354 351 352 352 352 352 352 352 353 354 356 358 359 358 358 358 358 357 357 356 354 353 353 351 351 351 352 351 348 348 349 351 349 351 353 353 351 351 350 351 353 353 351 351 353 354 354
334 334 334 334 335 336 338 341 344 348 351 352 353 353 353 354 355 355 352 351 351 352 351 352 352 352 354 356 358 357 358 358 357 356 356 356 354 353 353 352 351 351 351 351 349 347 347 349 351 351 351 349 348 349 348 345 349 352 350 349 350 352 353
333 333 333 333 334 335 336 338 340 343 346 348 350 351 352 353 354 356 356 353 350 351 352 351 352 352 353 354 356 357 357 358 357 357 356 356 355 353 353 352 351 351 352 352 350 348 345 347 349 351 352 349 347 348 349 347 348 349 348 347 348 350 353
332 332 331 332 333 333 334 336 337 340 342 344 346 348 350 351 351 354 357 356 354 351 351 351 351 352 353 354 354 355 357 357 357 357 356 356 356 355 353 352 352 351 351 352 352 350 347 345 346 349 351 351 350 348 350 351 352 352 350 349 349 349 350
330 329 330 331 332 333 333 333 335 337 339 341 342 343 346 348 349 351 354 355 356 354 352 350 351 352 353 354 354 355 357 358 357 357 357 356 357 356 355 354 353 353 353 353 353 351 350 348 346 347 350 350 351 350 349 350 352 353 353 351 352 349 348
329 328 328 329 330 332 332 333 335 335 336 339 340 341 342 343 346 348 349 352 354 356 354 352 350 352 353 354 355 355 356 358 358 357 357 357 357 358 356 355 354 354 354 354 353 353 352 351 350 349 349 351 352 353 352 350 350 351 349 348 349 351 350
329 329 328 328 329 330 331 333 335 334 334 337 338 340 340 340 342 345 346 348 351 354 355 353 351 351 352 353 355 356 357 359 359 358 358 358 358 358 358 357 356 355 355 354 354 354 353 353 352 351 350 351 352 353 353 352 351 350 348 345 343 346 350
329 329 329 328 329 329 329 332 334 334 333 334 336 338 338 338 340 341 344 347 350 352 354 355 355 354 353 353 354 356 357 358 359 358 358 358 359 359 359 358 357 356 356 355 354 354 354 353 353 353 351 351 350 352 352 353 353 351 349 347 343 342 346
329 328 328 328 328 328 328 331 333 334 333 333 334 335 336 337 337 338 340 344 347 350 353 355 356 357 357 354 353 355 358 358 359 359 359 359 359 359 360 359 358 358 357 356 356 356 355 355 353 353 353 352 351 351 352 352 353 351 350 348 347 345 344
327 327 328 328 328 329 329 330 331 332 333 333 333 334 334 334 335 335 338 342 345 348 350 352 354 356 358 357 354 353 357 358 359 358 359 359 359 359 359 359 358 358 357 357 356 357 356 355 355 355 354 354 353 353 352 351 352 352 350 349 348 348 346
325 325 326 327 327 329 330 330 329 331 332 333 333 333 333 334 334 334 337 340 343 345 346 347 349 351 354 356 357 354 355 357 358 358 359 359 359 359 358 359 359 358 358 357 357 357 357 356 356 355 355 355 355 354 354 353 352 351 351 350 349 349 348
323 323 325 326 327 328 329 330 329 330 331 332 332 332 332 333 333 333 336 340 342 343 343 343 343 345 347 351 355 356 356 356 356 358 359 359 359 360 359 359 359 359 359 357 355 355 356 357 357 356 356 355 356 355 355 354 353 352 351 351 350 350 349
323 322 324 324 325 326 327 328 329 330 330 330 331 331 332 332 332 333 336 338 340 342 343 341 340 341 342 345 348 350 354 356 356 356 358 358 360 360 359 359 359 359 359 358 357 355 356 357 357 357 357 356 356 357 356 355 354 353 352 351 351 350 350
322 322 323 323 323 324 325 326 328 329 329 329 329 330 331 332 332 333 336 337 338 341 342 341 339 338 339 341 343 344 347 353 356 357 357 358 359 359 360 360 360 360 359 359 358 356 355 356 357 358 358 357 357 357 357 357 356 355 353 353 352 351 350
320 321 321 321 322 323 323 325 326 328 329 329 329 329 329 330 331 332 334 336 337 339 340 338 338 337 337 339 341 341 342 346 350 355 357 358 358 359 359 359 359 360 360 360 359 358 357 356 356 357 358 358 358 357 358 357 357 357 355 355 353 352 351
319 319 319 320 321 322 322 323 325 327 327 328 329 328 328 328 329 330 333 334 335 337 338 336 335 336 336 337 338 339 340 343 347 351 355 357 357 356 357 358 360 360 360 360 360 359 359 358 357 358 358 358 359 359 358 358 358 358 357 356 355 354 351
317 318 318 318 319 320 321 322 323 324 325 327 328 328 327 328 328 329 331 333 334 335 336 334 334 335 335 336 337 338 339 342 345 348 352 355 355 353 353 354 357 358 359 360 361 361 361 360 359 359 358 358 359 359 359 359 359 359 358 357 356 354 353
317 317 317 318 318 319 319 320 322 322 323 325 327 327 327 327 327 328 329 331 332 333 333 333 334 335 335 335 337 338 339 341 342 346 350 352 353 352 353 353 353 353 353 355 358 360 362 362 361 361 360 360 361 361 361 360 359 359 359 358 357 356 354
316 316 317 318 318 318 318 319 320 321 322 322 324 326 327 326 327 327 328 329 330 330 331 332 333 334 335 336 337 338 339 339 340 343 346 349 351 351 353 355 355 354 352 350 350 353 358 360 362 363 362 361 362 362 361 362 361 360 359 359 358 357 356
316 316 316 317 317 317 317 318 319 320 321 321 323 324 326 327 327 327 327 328 329 328 329 330 330 332 334 336 337 338 338 338 339 340 342 346 349 350 352 354 355 355 356 353 349 348 351 356 360 364 364 362 362 361 361 362 362 362 361 360 359 358 357
316 316 317 317 317 317 317 318 318 319 320 321 322 323 325 327 327 327 327 328 328 327 328 329 329 330 332 334 336 337 337 338 339 339 341 343 345 348 350 353 355 355 355 355 353 352 352 352 356 363 364 363 362 362 361 361 362 362 362 361 360 360 358
315 316 316 316 317 318 318 318 318 319 319 320 321 322 323 325 326 327 326 327 327 327 327 327 327 329 331 333 334 335 337 338 338 339 340 341 341 343 347 351 353 354 356 357 355 354 352 351 354 361 363 362 362 362 362 362 363 363 363 363 362 361 360
314 314 314 315 316 317 318 318 319 319 320 320 321 322 322 324 326 327 326 326 327 326 326 327 327 327 329 331 333 334 336 338 338 338 339 339 339 341 342 346 349 353 356 358 356 355 353 350 352 358 363 363 363 363 363 364 364 364 364 364 364 363 362
314 313 314 314 315 316 317 318 319 319 320 320 321 321 322 323 325 326 326 326 326 326 327 327 327 327 327 328 331 333 335 336 337 336 337 338 338 339 340 341 344 346 350 351 353 354 354 350 352 358 360 358 358 358 359 361 363 364 365 365 364 363 362
313 313 313 314 315 315 316 317 318 319 319 320 321 322 322 323 324 325 326 325 325 326 326 326 326 326 327 327 330 332 333 334 335 335 335 337 337 338 338 338 338 340 341 342 344 347 348 349 353 357 357 355 354 352 352 355 358 361 363 364 365 365 363
312 312 313 313 314 315 315 316 317 318 319 320 320 321 322 323 324 324 325 325 325 324 325 325 325 325 326 327 327 330 331 331 332 333 334 335 336 337 337 337 336 336 337 338 339 341 343 346 350 353 355 356 355 354 353 353 353 354 357 360 363 366 364
312 313 313 313 313 314 314 315 316 317 318 319 320 321 322 323 323 324 324 325 324 324 323 323 323 324 325 326 326 327 328 328 330 332 333 333 334 335 336 336 335 335 335 336 338 341 344 345 348 350 354 357 358 357 356 355 354 354 354 355 359 364 364
312 313 313 313 313 314 314 314 315 316 317 319 320 321 322 323 323 323 324 324 324 323 323 322 322 323 324 325 325 325 326 327 329 331 331 331 333 333 333 335 335 336 336 336 337 340 342 343 345 348 352 357 360 360 360 358 356 356 354 353 355 361 363

ECMWFFLT1_925_thetae_102.txt.gz
Theta_e
359 359 359 358 356 358 359 357 358 358 356 356 352 348 348 349 350 353 358 361 361 362 360 359 361 363 361 359 357 357 356 356 358 357 357 357 357 358 358 358 358 359 359 359 359 358 357 355 355 357 359 360 361 361 362 361 360 362 362 359 361 360 359
358 356 357 358 356 357 357 357 358 359 358 356 353 351 350 349 351 353 358 362 363 363 362 360 362 363 362 360 357 357 357 356 357 358 358 356 355 355 356 357 357 357 357 358 357 356 355 355 355 355 358 360 361 362 363 362 361 363 362 358 359 360 360
355 355 356 357 356 355 355 355 356 358 357 356 355 355 353 353 352 352 358 364 365 364 363 362 363 363 362 360 358 358 357 357 358 358 358 356 355 354 353 354 355 356 356 355 354 354 355 356 355 355 357 358 359 360 362 362 362 363 362 361 361 360 362
353 354 355 356 355 354 355 356 356 357 355 357 356 357 356 357 356 353 356 362 366 366 365 364 364 364 363 360 358 358 358 357 358 358 357 356 354 352 352 353 353 354 356 355 352 353 353 354 356 356 357 356 357 358 359 360 361 361 362 364 364 362 363
352 353 353 354 356 355 357 357 355 356 353 355 356 356 356 357 358 356 356 360 365 365 364 364 365 364 363 361 360 359 358 358 357 356 357 354 353 352 351 352 354 353 354 354 352 350 351 353 355 356 357 357 356 356 357 357 358 359 360 362 363 362 364
349 351 352 352 353 354 357 356 357 357 355 356 357 357 357 356 355 356 356 357 361 361 361 362 362 364 364 363 361 359 358 359 356 356 355 353 353 353 351 350 352 352 352 352 352 350 350 351 354 355 356 357 356 356 356 356 356 357 358 360 361 361 362
346 349 351 352 352 352 355 357 357 357 358 359 359 358 358 357 356 356 356 356 358 359 359 358 359 361 363 363 361 359 359 360 358 355 355 355 353 352 351 351 351 352 350 350 352 351 350 350 350 353 355 355 354 353 354 355 356 356 357 358 359 360 359
344 347 348 348 349 350 354 357 358 359 360 361 360 359 358 356 357 358 357 356 356 358 357 355 356 357 360 361 362 359 359 360 359 356 354 354 352 352 353 351 350 351 350 349 350 349 349 349 350 351 353 354 353 351 351 353 355 354 355 356 358 359 359
342 343 344 345 346 346 350 353 356 359 360 359 359 359 358 357 356 357 358 355 354 356 356 355 356 355 354 357 360 359 360 361 361 358 355 354 352 352 351 351 351 350 349 349 349 349 349 350 350 350 351 352 351 349 348 350 352 352 354 354 356 358 358
340 340 341 342 343 344 346 347 351 355 357 357 357 357 358 358 356 354 355 355 353 354 354 355 355 354 352 353 357 358 357 359 360 359 357 353 352 351 350 350 351 352 351 349 349 348 349 349 350 351 350 351 350 348 347 349 349 350 352 353 354 356 357
339 339 339 339 340 341 342 343 346 350 354 355 355 355 356 357 357 356 356 354 353 352 353 353 353 353 352 353 355 358 357 356 357 358 358 355 351 350 349 348 349 351 352 350 348 347 348 349 350 352 351 350 350 349 348 348 349 350 351 352 353 354 355
339 339 338 338 338 338 340 342 342 345 349 353 353 353 354 355 355 357 356 355 355 354 354 354 354 354 353 354 355 356 355 355 354 354 355 356 352 351 349 348 347 349 352 351 349 346 347 348 349 351 352 351 349 350 349 349 349 351 352 353 351 352 353
338 339 338 338 337 338 339 340 340 341 344 347 350 350 351 353 352 353 353 353 355 355 356 357 357 355 355 355 356 355 355 356 355 354 352 352 352 349 349 348 346 346 349 350 349 346 346 348 348 349 351 351 350 350 351 350 350 352 352 353 352 349 350
337 337 337 338 337 337 339 338 339 340 340 342 347 347 347 350 351 351 351 351 353 355 356 356 356 356 355 354 354 354 355 356 357 355 352 353 353 350 346 347 346 345 345 348 348 347 345 345 347 349 349 351 351 350 351 351 351 351 352 354 352 350 349
335 335 336 336 336 337 337 337 338 340 339 340 342 344 345 346 348 350 352 353 353 354 354 352 353 355 356 354 353 352 353 355 357 356 354 353 353 354 350 347 346 346 344 345 346 346 345 343 344 346 348 350 350 351 352 352 352 352 352 353 353 350 349
334 334 334 335 335 335 335 336 338 339 338 338 338 339 342 344 345 348 350 352 353 353 352 350 350 355 358 356 353 352 352 353 354 355 356 353 352 356 356 353 350 347 345 345 346 345 346 344 342 344 346 348 349 350 352 353 352 352 352 352 351 350 349
334 334 334 334 335 334 335 336 337 337 338 337 336 336 338 341 343 345 347 348 351 353 352 350 351 357 359 356 352 352 352 353 353 354 355 355 355 357 358 357 355 353 350 347 346 346 346 345 342 342 344 346 348 349 351 352 351 351 352 351 350 349 348
333 333 333 334 334 335 334 335 336 336 337 336 336 336 336 338 340 342 345 346 347 349 349 350 352 355 356 357 355 354 355 355 354 354 354 355 358 359 359 357 356 357 356 354 349 346 347 347 345 345 343 342 344 347 349 351 351 350 349 349 349 348 348
333 333 332 332 333 333 334 335 335 336 336 336 335 335 336 336 337 339 342 343 344 346 347 347 350 352 352 355 355 354 355 356 356 356 355 355 356 356 354 354 356 356 354 353 355 353 350 348 347 347 347 344 343 344 347 348 350 349 348 347 348 348 347
331 332 331 331 331 332 333 333 334 334 335 336 335 334 334 335 335 337 338 341 342 344 344 344 345 346 348 351 352 351 351 353 355 356 355 354 354 353 352 354 356 355 354 353 353 353 353 353 351 350 350 349 347 346 346 346 347 350 348 348 346 346 347
329 330 330 329 330 331 331 330 331 332 333 335 335 335 334 334 335 336 337 338 339 341 343 343 343 343 344 346 347 347 347 348 351 352 353 353 354 354 353 353 354 355 355 354 354 354 353 353 355 355 352 352 352 351 350 349 347 347 349 349 347 346 346
327 327 327 328 328 330 330 329 328 329 331 333 334 334 333 335 335 336 337 337 336 338 342 342 341 341 342 343 344 344 345 346 348 349 351 352 352 351 352 353 354 354 355 354 354 353 353 353 354 355 357 356 355 355 355 354 351 349 349 349 349 348 345
326 325 325 325 324 326 328 326 326 327 328 330 331 330 331 334 335 335 337 337 336 337 339 340 340 340 340 341 341 342 344 346 346 347 348 350 350 350 351 352 353 354 354 354 354 354 354 353 353 354 357 358 357 357 358 358 356 354 352 350 350 350 348
324 324 323 322 321 322 325 325 324 324 326 328 329 328 328 332 334 334 336 336 335 336 338 338 338 338 338 339 339 340 342 343 344 346 348 348 350 350 349 350 353 354 355 354 354 354 355 355 354 354 355 356 356 357 357 358 358 358 356 355 352 351 350
323 322 321 320 319 321 323 323 322 322 324 325 326 326 326 329 332 333 334 334 334 336 337 336 336 336 337 338 338 338 340 342 344 345 347 348 349 350 349 349 350 352 354 355 354 354 355 356 356 357 356 356 357 357 356 357 358 358 358 358 356 354 352
321 321 320 319 320 321 321 321 321 321 321 323 324 325 324 326 329 330 332 333 333 333 335 334 334 335 336 337 337 337 339 341 343 345 345 347 348 349 349 349 349 350 353 355 356 356 356 356 357 358 358 358 358 357 356 357 358 357 357 358 358 357 355
319 320 320 319 320 320 320 321 321 321 321 322 322 322 322 325 327 328 330 332 332 332 332 333 333 334 335 335 335 336 337 339 341 342 344 345 347 347 346 346 348 351 353 354 356 356 356 356 356 357 358 359 359 358 357 356 356 357 357 357 357 358 357
318 319 319 318 319 320 320 321 322 322 322 322 321 321 322 324 325 327 329 330 330 331 332 332 333 333 333 334 334 335 336 337 338 340 342 344 347 346 342 340 340 346 352 355 356 356 356 356 356 357 358 358 358 359 359 357 357 357 356 355 357 358 357
319 318 318 317 318 319 320 321 321 321 322 322 322 322 323 323 325 326 327 328 328 329 332 333 332 332 333 333 334 334 335 335 336 337 339 343 346 347 346 343 341 345 351 353 354 354 356 356 356 356 357 358 358 358 359 358 359 359 357 355 356 357 357
318 318 318 317 318 318 319 320 320 321 321 321 322 323 324 324 325 325 326 326 326 328 331 332 331 332 332 332 332 333 333 334 335 335 337 341 343 344 346 347 347 348 350 350 351 352 353 352 352 353 355 355 355 356 357 358 359 361 360 359 358 358 357
318 318 318 318 318 319 319 319 319 319 320 321 322 323 323 324 324 325 325 325 326 327 329 329 330 331 332 331 331 332 332 332 333 334 336 338 339 341 343 346 348 349 347 346 347 348 349 349 349 350 350 351 352 353 354 356 357 360 362 362 361 360 358
318 318 318 318 319 319 318 318 319 319 320 321 321 321 322 323 323 324 325 325 326 326 326 326 328 330 331 331 331 331 331 331 332 333 334 334 335 339 339 341 345 348 346 345 344 345 346 347 347 348 349 350 351 352 353 354 356 358 360 361 361 361 359
318 318 318 319 318 318 318 318 319 320 320 320 320 320 321 321 322 322 323 324 325 325 325 326 327 329 330 330 329 329 330 331 332 332 333 334 334 335 335 336 340 345 347 347 346 345 346 346 346 347 348 349 350 351 351 353 355 357 358 359 360 360 359
317 318 318 318 318 318 318 318 319 319 319 319 319 319 320 320 321 321 322 323 324 324 325 326 326 327 329 329 329 329 329 330 331 332 332 333 333 332 333 334 337 339 341 341 342 342 343 343 343 344 344 345 347 347 348 349 350 352 353 356 358 359 359
318 317 317 317 317 317 317 318 318 318 318 318 318 318 319 319 320 320 321 321 322 323 325 326 326 328 328 328 327 327 328 329 330 330 331 331 332 332 333 333 334 335 337 337 337 337 337 337 338 339 339 340 341 343 346 347 348 349 351 354 356 357 357
317 316 316 316 316 316 316 317 317 318 318 317 318 317 318 318 319 319 320 321 321 322 324 325 326 326 327 327 327 327 328 328 329 329 330 330 331 332 333 333 333 334 335 335 334 333 334 336 336 335 335 336 337 338 340 342 344 346 348 350 352 352 353
316 316 316 316 315 316 316 316 317 317 317 317 318 317 318 318 318 318 319 320 320 321 323 324 326 326 326 326 325 326 326 327 327 328 329 330 331 332 333 334 333 333 334 333 333 333 333 334 333 332 334 336 336 337 338 339 340 342 343 344 346 347 349
315 315 315 315 315 315 315 316 316 317 317 317 317 318 318 317 317 318 319 319 319 320 321 322 324 325 325 325 325 325 325 325 326 327 328 328 329 330 332 332 332 332 332 333 333 332 331 330 329 332 336 337 337 338 340 340 342 343 344 346 347 348 350

ECMWFFLT1_925_thetae_105.txt.gz
Theta_e
362 363 366 366 365 367 366 359 357 356 351 348 350 348 346 348 351 354 355 355 357 357 356 358 357 355 356 357 358 357 355 354 354 354 354 354 354 356 357 358 359 358 357 357 357 357 356 356 358 358 357 357 358 357 355 357 359 360 360 358 358 358 358
363 363 364 364 363 366 364 357 356 358 356 352 352 349 346 348 350 354 356 355 356 357 356 357 358 356 356 357 358 357 355 354 354 354 355 354 356 357 356 358 359 358 359 358 357 359 358 357 357 357 357 358 359 359 358 358 358 360 361 359 360 360 358
358 359 360 361 362 364 361 354 352 355 358 356 354 352 350 351 352 354 356 356 356 357 357 358 359 358 358 358 358 357 355 354 354 355 356 355 356 358 357 358 358 358 359 358 357 358 358 357 357 357 357 357 359 360 360 360 358 360 363 359 358 358 358
356 356 357 359 359 359 358 354 352 354 356 356 354 353 352 353 355 355 356 357 357 358 358 358 359 359 360 359 358 357 356 355 355 356 356 355 355 357 357 357 357 357 358 358 357 357 356 357 356 356 356 356 358 361 361 360 358 359 363 359 356 356 358
353 354 353 357 358 357 357 356 354 354 354 355 353 352 351 352 355 357 359 359 358 358 358 358 359 360 361 361 359 358 356 355 356 356 356 356 356 356 356 356 356 356 357 357 356 355 354 355 355 356 357 356 357 359 359 360 359 358 360 362 360 359 360
354 355 354 356 356 355 356 355 356 355 353 353 352 352 353 353 354 357 361 362 360 361 360 358 359 361 362 363 361 359 357 356 356 356 356 356 356 355 354 353 354 354 355 355 355 353 352 353 354 355 356 356 357 358 357 358 359 359 359 361 362 361 362
351 353 351 351 350 351 354 355 355 355 353 352 352 353 355 354 355 355 358 363 363 362 362 361 361 362 362 363 361 359 357 356 356 356 356 357 356 355 353 352 352 352 353 354 355 353 351 352 353 353 354 355 356 357 357 356 357 358 358 358 359 359 361
345 347 347 346 345 346 350 354 354 354 354 354 353 355 356 356 356 355 355 359 358 356 358 361 361 362 362 362 361 359 359 357 357 356 356 357 356 355 353 351 351 351 352 353 354 352 351 352 353 353 353 354 354 355 355 355 355 356 357 357 356 356 358
342 344 343 343 343 343 347 352 353 353 353 354 354 355 355 355 355 355 355 355 353 352 353 355 357 360 360 359 359 358 358 359 358 357 356 356 355 355 354 352 351 351 351 351 352 352 350 351 352 352 352 352 353 353 354 355 354 354 355 356 356 355 355
340 341 341 343 344 342 343 348 352 354 352 353 354 354 355 355 354 355 355 353 353 354 354 354 355 358 358 356 357 357 357 358 358 358 357 356 355 354 354 353 351 351 351 350 351 350 350 350 350 350 351 351 353 353 353 353 354 353 353 354 355 355 353
339 339 340 344 344 341 340 343 347 351 351 351 352 352 353 353 353 355 354 352 353 353 353 353 354 355 355 355 356 356 356 356 357 358 358 356 355 353 353 353 351 351 351 350 351 350 349 350 350 349 348 350 351 352 352 351 351 352 352 352 353 354 353
339 338 339 342 343 340 339 340 341 346 349 349 350 350 351 352 352 354 355 354 353 352 353 354 354 354 354 354 354 353 354 354 354 356 357 357 356 354 352 351 351 351 351 350 350 350 350 349 349 349 348 348 350 351 351 350 349 350 350 350 351 352 353
338 338 338 339 340 339 339 339 339 340 343 345 347 349 351 352 352 354 354 354 355 355 355 356 356 355 354 353 353 353 353 354 354 354 355 356 356 355 353 351 349 349 350 351 350 349 350 349 348 349 349 349 349 350 350 350 349 348 349 349 349 350 352
338 337 336 337 338 338 339 339 338 337 338 340 342 345 349 351 353 354 354 353 353 353 355 357 357 357 355 355 355 355 355 355 355 355 354 354 353 353 352 351 351 351 349 349 351 350 349 349 348 348 349 349 350 350 350 349 349 349 348 348 349 349 351
337 336 336 336 337 338 339 338 338 337 337 338 339 341 344 347 350 352 353 353 351 350 353 357 358 357 356 356 355 355 355 354 354 356 355 355 353 352 352 350 352 355 353 350 351 351 349 348 348 347 348 348 349 350 350 349 349 349 348 349 349 350 351
336 335 335 335 336 336 337 338 338 337 336 337 337 338 340 342 345 347 349 351 350 351 353 356 357 356 356 355 354 354 354 353 353 353 353 355 354 354 353 352 351 354 355 352 350 351 350 349 347 347 347 349 349 349 350 350 349 348 348 348 348 349 351
335 335 335 335 335 336 336 337 337 337 337 336 336 336 337 338 340 342 344 347 347 348 350 352 353 354 354 354 355 355 356 355 354 353 352 354 356 356 356 354 352 354 357 354 351 351 350 348 348 347 346 347 348 348 349 350 349 349 348 348 349 349 350
334 335 335 335 336 336 336 335 336 337 337 336 335 336 336 336 337 339 341 344 344 344 345 347 349 349 348 348 350 351 354 356 356 356 354 354 355 355 356 356 355 356 358 357 354 353 351 348 348 348 347 347 348 348 349 349 349 349 348 348 348 349 350
334 334 334 334 334 334 334 334 335 336 336 335 334 335 335 335 336 337 337 341 343 342 341 343 344 345 345 344 343 345 348 352 354 355 355 354 354 354 355 356 357 357 357 356 355 355 354 351 348 347 348 349 349 348 348 348 349 348 348 348 349 349 350
334 334 334 332 331 331 331 332 332 333 334 334 333 334 336 336 336 336 336 338 342 342 340 340 341 342 342 343 343 342 343 344 347 350 352 352 353 354 354 354 355 356 356 357 356 355 355 354 350 346 346 348 351 351 349 347 348 348 348 348 349 350 350
332 334 334 334 332 330 329 329 330 331 332 331 330 332 334 336 336 336 335 337 339 339 338 337 338 339 339 340 342 343 343 342 341 345 349 350 350 351 352 353 354 354 355 356 356 355 355 354 353 350 347 347 350 353 353 350 348 348 348 348 348 349 350
329 329 331 332 331 328 326 326 326 328 330 328 326 328 331 334 336 335 335 336 337 337 335 335 337 339 338 337 339 340 343 343 340 341 347 349 349 349 350 349 351 352 353 354 354 354 355 355 354 353 352 351 351 352 354 354 351 350 351 350 350 349 349
325 324 325 328 327 325 323 323 323 325 327 326 324 324 326 331 335 334 333 335 336 335 333 333 336 338 336 336 337 337 340 343 342 340 342 345 347 349 349 349 349 349 351 354 355 354 354 355 354 354 354 352 352 352 354 355 354 354 354 354 354 353 350
322 320 321 323 323 322 321 320 320 322 324 324 322 321 324 330 333 333 331 333 334 335 334 333 334 336 334 333 335 336 337 341 344 343 343 344 344 345 347 348 348 349 350 353 355 355 355 354 354 354 355 354 354 354 354 355 356 355 355 354 354 355 354
320 320 320 320 320 320 320 320 321 322 323 322 321 321 324 328 330 330 331 331 332 334 334 333 333 333 332 331 333 336 336 338 340 340 341 344 344 343 343 344 344 346 350 352 354 354 354 354 354 354 355 355 355 355 355 356 356 356 356 355 353 354 356
320 320 319 319 319 320 321 322 322 322 322 322 322 323 324 325 327 328 330 330 330 331 332 333 333 333 332 331 332 334 335 335 337 336 337 341 343 344 344 343 341 342 345 348 352 355 355 355 355 356 356 355 356 357 357 357 357 356 356 356 355 355 354
319 318 318 318 319 320 321 321 321 322 321 321 322 323 323 324 325 327 327 327 328 328 330 332 332 332 332 332 332 332 332 333 334 334 334 336 339 341 344 346 345 343 343 344 348 353 355 355 356 356 356 356 356 356 357 358 358 358 357 356 355 354 354
318 317 317 318 319 320 320 320 321 321 320 321 322 322 323 323 324 325 325 326 326 326 328 332 333 331 331 332 332 330 329 329 331 333 333 333 336 339 341 343 345 346 346 346 348 349 351 353 355 355 356 356 356 356 357 358 358 358 358 358 357 355 355
318 317 317 318 319 319 319 319 319 319 319 320 321 322 322 323 323 324 325 326 326 326 327 329 330 328 329 332 332 331 329 327 326 330 332 333 335 336 337 338 341 344 346 347 346 345 345 348 350 351 353 354 354 354 355 357 358 358 358 358 358 358 357
318 318 318 318 319 319 318 318 318 319 319 320 321 321 321 322 322 323 324 324 324 324 325 326 325 326 330 332 330 330 331 329 325 327 331 333 333 333 334 336 338 341 346 346 343 342 342 343 345 347 349 350 351 350 350 352 355 356 356 357 358 359 360
318 318 318 318 318 318 318 318 318 319 320 320 320 320 320 320 320 321 322 322 321 322 324 324 325 326 328 329 329 329 330 330 328 328 330 331 331 332 334 334 333 337 345 348 345 344 345 344 343 345 346 347 348 348 348 350 352 353 354 355 357 359 361
318 318 318 318 318 318 318 318 319 319 319 319 319 319 319 319 319 320 320 320 321 321 322 323 324 325 325 326 328 329 328 328 329 329 329 329 331 332 332 332 332 335 340 344 344 343 342 342 342 341 341 341 343 344 345 346 348 351 352 353 355 357 359
318 318 318 317 317 318 318 318 318 318 318 318 318 318 318 318 318 319 319 320 320 321 321 321 322 324 325 326 328 329 327 327 328 329 328 329 331 332 331 332 332 333 334 336 337 337 337 338 338 337 336 336 338 339 339 339 340 343 346 348 352 355 357
318 317 317 317 317 317 317 317 317 317 317 317 317 317 317 318 318 318 318 319 319 320 320 321 321 323 325 325 326 328 328 326 327 329 329 330 330 330 330 330 330 330 331 333 333 334 336 335 334 333 333 335 335 336 335 334 335 338 340 344 348 351 354
317 317 316 316 316 316 316 316 316 316 317 317 317 317 317 318 318 318 318 318 318 319 319 320 321 322 324 324 325 326 327 326 327 328 328 328 328 328 328 328 328 330 332 333 333 334 334 334 333 333 333 333 333 333 334 333 333 335 337 340 343 345 346
316 316 316 315 315 315 315 315 316 316 317 317 317 317 317 317 317 318 318 318 318 319 319 319 319 320 321 323 324 326 326 326 326 327 326 326 327 328 328 328 329 330 331 332 332 332 333 333 333 333 332 331 330 331 332 333 334 335 337 339 340 341 342
316 315 315 314 314 314 315 316 316 317 317 317 317 317 318 318 318 319 319 319 318 318 319 320 320 319 320 321 322 323 326 327 326 325 325 325 326 327 326 326 326 327 329 330 331 330 331 332 332 332 331 330 330 330 331 333 335 336 338 339 339 339 340
315 314 314 313 314 314 315 316 316 316 316 316 316 317 319 320 320 321 320 319 319 319 318 319 320 320 320 321 322 323 325 327 326 325 325 325 324 324 324 325 326 328 329 329 329 329 330 330 330 330 329 329 330 331 331 333 335 337 338 338 338 340 341

ECMWFFLT1_925_thetae_108.txt.gz
Theta_e
361 360 358 358 360 361 354 348 343 341 343 345 347 347 348 351 352 353 353 352 351 352 353 353 353 352 352 352 350 350 353 354 354 354 353 354 354 352 353 354 354 354 354 354 355 356 356 355 355 354 354 353 355 356 355 354 356 357 357 357 357 356 356
359 356 357 358 363 364 357 352 353 349 345 346 346 346 348 351 353 353 353 353 352 352 352 353 354 353 352 352 351 350 352 353 353 353 353 353 354 353 353 354 354 355 354 353 354 355 355 355 355 354 355 355 355 356 355 354 355 358 359 359 357 357 357
355 354 359 362 366 367 357 351 352 353 351 349 347 347 348 350 353 353 352 353 353 352 352 353 354 353 352 353 353 351 351 353 353 353 353 353 354 354 354 355 355 355 355 354 354 355 355 356 355 354 355 355 355 356 357 356 355 357 359 360 359 358 358
353 354 356 358 361 360 354 349 349 351 352 351 350 350 350 351 353 353 352 353 353 353 353 354 355 355 353 353 355 353 352 353 353 353 354 354 353 354 355 356 357 357 357 356 355 356 356 356 357 356 356 356 356 355 357 358 357 358 359 360 359 359 358
354 353 353 355 357 358 355 351 349 351 352 352 351 353 353 353 353 354 353 353 353 353 351 352 354 355 355 353 354 354 354 353 353 353 354 354 353 354 355 355 357 358 358 357 356 356 357 358 358 357 356 357 356 354 356 359 359 358 357 359 360 358 357
350 350 350 351 354 356 357 356 353 352 351 351 352 353 353 354 355 354 355 355 354 354 353 353 355 355 356 355 353 354 355 355 354 353 353 354 354 355 356 356 356 357 357 358 358 357 357 358 357 356 357 357 356 354 355 358 358 356 355 357 358 359 357
347 346 345 346 350 354 355 356 356 353 351 352 353 353 352 353 356 356 356 355 356 356 356 356 357 357 357 356 354 354 356 356 355 353 353 354 355 355 356 356 356 356 357 357 358 357 356 356 355 355 355 356 355 355 355 356 356 355 355 356 356 358 358
344 344 343 343 348 353 353 354 355 355 354 354 355 355 354 352 353 356 358 357 356 356 356 357 358 358 358 358 357 356 356 356 355 354 354 354 355 355 355 356 356 355 355 356 357 357 355 354 354 354 354 355 355 355 355 356 356 355 356 357 357 357 356
342 343 342 341 345 351 354 353 354 355 355 355 355 355 355 353 352 354 357 358 358 357 357 357 357 358 358 359 359 358 357 357 356 355 355 355 356 355 355 355 355 354 354 354 354 355 355 354 352 353 353 354 355 355 355 356 356 356 355 356 357 357 356
342 342 341 340 342 347 351 352 352 353 353 353 354 354 354 353 352 353 354 355 357 358 358 357 357 358 360 360 361 360 359 359 357 356 355 355 355 355 355 355 355 354 352 352 352 352 354 354 352 352 352 353 353 353 353 354 355 355 355 354 355 355 355
340 341 341 340 340 341 345 348 349 350 351 351 352 352 353 352 351 351 351 352 355 357 357 356 357 357 355 355 358 359 358 357 357 357 356 356 356 355 356 356 355 354 352 351 351 351 352 353 352 351 351 352 352 351 351 351 351 353 354 354 353 352 353
339 340 340 340 339 338 339 342 343 347 349 350 351 351 352 353 351 350 351 351 353 354 353 354 355 356 353 352 352 351 351 353 356 358 357 357 356 356 356 356 355 354 352 351 351 350 351 352 352 351 351 351 351 350 350 350 350 351 352 353 353 352 351
338 339 339 339 338 337 337 339 339 341 344 347 350 351 352 353 353 353 353 353 353 353 352 352 353 353 352 351 350 348 349 351 354 357 358 357 357 356 355 355 355 354 353 351 351 351 350 351 351 351 350 350 350 350 349 349 350 351 350 351 352 352 351
338 338 338 337 337 336 337 338 338 339 340 341 344 348 350 351 352 353 353 353 353 353 353 353 353 353 351 350 348 348 349 350 350 352 355 357 358 357 355 354 353 352 351 351 351 351 350 350 351 350 350 349 349 349 348 348 349 350 350 350 350 350 350
338 337 337 337 337 336 336 336 336 337 338 338 339 342 345 347 349 350 350 350 351 352 353 354 354 353 352 350 348 348 350 349 349 351 353 354 355 356 355 354 352 351 350 350 350 350 351 350 350 350 350 350 349 348 348 348 348 349 349 350 349 349 349
337 336 336 336 336 336 336 335 335 335 336 337 337 339 340 342 345 347 347 348 349 349 351 354 355 353 354 353 352 352 352 352 353 354 354 354 354 355 354 353 353 351 351 351 351 351 350 350 350 349 349 349 349 349 348 348 348 348 348 348 348 347 348
336 336 335 335 335 335 335 336 335 335 336 336 336 337 338 340 342 343 343 345 346 346 347 349 350 352 353 355 356 356 355 353 353 354 354 354 354 354 354 353 353 351 350 350 351 352 351 350 350 350 349 348 348 349 349 348 347 347 347 348 348 347 347
335 334 334 334 334 334 334 334 334 333 334 335 336 336 336 339 340 341 341 341 342 344 344 344 344 345 347 349 352 356 357 356 355 355 356 356 356 355 355 354 354 353 352 351 351 352 353 352 350 350 349 349 348 348 349 349 349 348 347 347 347 347 347
333 332 333 333 333 333 332 333 333 332 332 334 335 335 336 338 340 340 339 338 338 341 341 341 342 342 343 344 345 348 351 354 354 354 353 354 354 354 355 355 355 355 355 355 353 353 354 354 352 351 350 349 348 347 347 348 349 349 349 348 348 347 348
332 332 331 332 332 330 329 330 331 329 329 331 334 335 335 337 339 337 334 332 334 337 338 338 339 339 340 341 341 343 344 346 348 350 350 350 351 351 352 352 353 354 354 355 355 355 355 355 354 353 351 350 348 347 347 348 348 349 349 349 349 348 347
331 331 331 333 332 328 326 328 329 326 324 325 329 334 335 336 337 336 333 331 331 333 334 333 334 335 337 338 339 341 342 342 343 344 346 347 348 349 349 349 350 351 351 352 354 354 355 355 355 355 354 352 350 349 348 348 349 350 350 349 349 349 349
330 330 330 329 328 324 323 326 326 324 323 324 328 333 334 334 335 335 334 333 331 330 330 329 329 331 334 336 336 338 341 343 343 342 343 344 345 346 347 347 348 349 349 351 352 354 354 354 354 354 355 354 353 351 350 349 349 350 352 351 350 349 350
328 328 326 324 321 321 322 324 323 323 325 328 330 333 333 332 333 334 334 333 332 332 331 330 329 328 331 334 335 335 337 339 339 339 341 343 344 344 343 344 344 345 346 349 351 353 353 354 354 354 354 354 354 354 353 352 351 350 351 352 352 350 350
325 323 322 320 321 322 322 322 322 322 324 326 327 330 331 330 330 332 332 332 332 333 332 332 330 329 330 332 333 333 334 335 334 334 337 340 341 342 342 343 344 343 343 346 349 351 353 354 355 354 355 354 354 354 354 353 353 352 352 352 353 353 352
321 320 320 320 321 322 321 321 322 322 323 323 324 326 328 328 328 328 328 328 329 330 332 333 331 330 329 331 331 330 330 331 332 333 334 335 336 337 339 342 345 345 344 344 345 348 351 353 355 355 355 355 355 355 355 355 355 355 355 354 354 355 354
318 319 321 321 321 321 321 321 321 322 322 322 323 323 324 325 325 326 326 326 326 327 329 332 332 329 328 331 332 331 328 326 327 331 332 332 334 336 336 337 340 343 345 346 345 346 348 350 353 355 355 355 356 355 356 356 356 356 356 356 356 356 356
319 321 320 320 320 320 320 320 321 321 321 321 321 322 323 324 324 325 325 325 325 325 326 328 329 327 327 330 332 332 329 326 323 325 329 331 333 333 333 334 335 338 343 347 348 347 345 344 347 351 352 353 354 355 355 356 357 357 358 358 357 357 356
319 320 319 319 319 319 319 319 320 321 320 320 321 321 321 322 323 323 324 323 323 323 324 325 325 325 327 330 331 331 330 327 323 320 325 331 332 330 332 333 333 336 343 347 346 344 342 340 340 341 342 344 347 351 352 352 353 355 356 357 357 357 356
318 318 318 318 317 318 318 318 319 320 320 320 320 320 320 320 321 321 321 321 321 321 322 324 324 325 327 329 329 329 328 328 325 321 323 328 329 329 332 333 332 337 344 349 347 344 342 340 339 337 336 335 336 339 341 343 345 348 351 354 355 355 355
318 318 318 317 317 317 318 318 319 319 319 319 318 319 319 319 319 319 319 319 319 319 320 322 323 324 325 325 326 327 328 328 326 324 324 326 327 330 332 332 332 335 340 343 343 340 337 337 338 338 337 335 331 329 329 332 336 338 342 347 350 352 354
317 318 317 317 317 317 318 318 319 318 318 318 318 317 318 317 318 318 318 318 319 319 319 320 321 322 323 324 324 326 328 328 326 326 326 326 328 330 331 330 331 331 331 332 334 333 333 335 336 336 335 334 333 330 329 329 330 330 331 335 341 346 349
317 317 317 317 317 318 318 318 318 317 317 317 317 317 317 317 317 318 318 318 319 319 319 319 319 321 322 323 324 325 326 327 327 326 326 327 329 329 329 329 328 327 327 328 331 332 332 333 334 335 334 333 332 332 331 331 330 329 328 329 334 338 341
317 317 317 316 317 317 317 317 317 316 316 316 317 317 317 317 317 317 318 318 318 318 318 318 319 319 320 322 323 324 324 326 327 326 326 327 328 328 328 328 326 325 326 328 330 331 331 331 332 333 333 333 333 333 332 331 331 330 330 329 332 335 337
316 316 316 316 317 316 316 316 316 315 316 317 317 317 316 316 316 316 317 318 318 318 319 318 318 319 319 319 321 322 322 323 325 326 326 326 327 327 327 326 324 324 325 327 328 329 330 330 331 331 331 332 333 332 332 331 330 330 330 330 331 332 335
315 316 316 315 316 315 314 314 315 315 316 316 316 316 315 315 315 316 317 318 318 318 318 318 318 318 318 318 319 320 321 322 323 326 326 326 326 325 324 323 322 322 322 323 325 328 329 329 328 328 329 329 330 329 330 329 329 329 330 331 331 332 334
315 315 314 314 314 313 313 314 315 316 316 315 314 315 316 317 318 319 320 320 320 319 319 319 319 319 319 319 319 319 320 321 323 325 327 326 325 324 324 323 322 321 321 324 326 328 329 328 327 327 327 324 323 323 325 327 329 330 331 332 333 333 334
315 314 314 313 313 313 314 315 316 315 314 314 315 317 318 320 320 320 320 320 320 320 320 319 320 320 320 319 319 318 319 320 321 324 325 325 324 324 324 323 322 321 323 325 326 326 326 325 325 325 323 320 320 323 326 329 330 330 330 330 330 332 334
315 314 313 313 312 314 315 315 315 314 314 315 317 318 318 319 319 319 318 318 318 319 319 319 320 320 321 320 320 319 319 320 321 323 325 326 325 324 324 324 324 324 325 326 326 325 324 323 322 320 318 320 324 327 328 329 329 328 328 329 330 332 334

ECMWFFLT1_925_thetae_111.txt.gz
Theta_e
362 363 365 366 362 354 345 342 343 345 345 346 347 347 348 350 350 350 351 351 350 350 350 349 348 348 350 349 350 351 351 353 352 352 352 353 352 352 352 353 355 355 353 353 354 354 354 354 355 355 354 352 352 354 355 355 355 355 356 356 356 356 355
360 362 364 362 363 364 354 345 344 344 344 346 347 347 347 349 350 350 351 351 350 350 350 350 349 348 349 349 350 351 351 354 354 354 354 354 353 353 353 353 353 354 354 352 352 353 353 354 355 355 354 352 351 353 355 355 355 355 356 357 356 356 356
360 361 363 361 361 362 355 349 347 344 344 345 347 347 348 349 350 349 350 350 351 350 350 350 350 349 349 349 350 350 350 353 355 356 354 354 354 353 353 353 352 353 353 353 353 353 353 354 355 354 353 351 351 354 356 355 354 354 356 357 358 357 357
359 359 360 361 360 357 352 350 350 347 345 345 345 347 348 349 350 350 350 350 350 351 351 350 350 350 350 349 349 349 349 351 353 355 355 354 354 353 352 352 352 352 353 353 353 352 352 353 354 355 354 353 353 354 355 356 355 354 355 356 357 358 359
358 358 359 360 361 360 355 350 351 351 348 347 346 346 347 348 350 350 350 350 351 350 351 351 351 351 351 351 350 350 349 349 351 353 353 353 352 352 353 353 352 352 352 353 354 353 353 353 354 355 354 354 354 355 355 356 357 356 355 355 355 357 358
354 354 356 358 359 359 356 352 352 351 350 351 349 347 347 348 350 351 351 351 352 351 351 352 353 352 352 351 350 350 350 348 348 351 352 353 352 352 353 353 353 352 353 354 355 355 354 354 354 355 355 355 355 355 355 355 356 356 357 357 355 355 355
349 350 354 357 358 358 357 354 353 351 351 352 352 352 351 349 349 351 352 352 353 352 351 352 353 353 352 353 352 352 350 348 347 349 352 353 353 353 353 353 353 353 354 355 356 357 356 356 355 355 356 356 356 356 356 355 355 356 357 358 355 353 353
348 350 353 355 356 356 356 356 354 353 352 353 353 353 353 353 353 352 352 352 353 353 352 352 353 352 352 352 353 352 351 349 347 348 351 352 353 354 353 354 353 354 354 355 356 357 357 357 356 356 357 358 356 356 356 355 354 354 356 357 354 352 351
347 349 353 353 353 354 355 355 355 355 354 353 353 353 353 354 354 353 353 352 353 354 353 353 353 354 353 354 354 353 353 352 350 348 349 351 353 353 354 353 354 354 354 355 356 357 357 357 357 356 356 356 356 355 355 355 354 354 355 356 354 353 352
345 346 349 351 353 353 353 353 353 353 352 353 353 353 352 353 354 354 353 352 352 354 355 355 355 356 356 356 355 355 354 354 353 351 350 350 351 352 352 353 353 354 355 356 356 356 356 356 357 356 356 355 354 354 354 354 354 354 355 355 355 354 353
343 344 345 347 349 349 349 350 350 349 349 351 352 352 352 352 352 352 353 353 354 354 356 356 356 357 358 357 357 356 355 355 355 354 353 352 352 352 352 352 352 353 355 355 355 355 355 355 356 356 355 354 353 353 353 354 354 354 354 354 354 354 354
341 342 343 343 343 344 345 347 348 349 349 349 350 352 352 352 350 349 350 352 353 353 355 356 355 357 358 358 358 357 357 356 355 355 355 354 354 354 353 353 353 353 354 354 353 354 354 353 354 354 354 354 353 352 352 352 353 353 353 353 354 353 353
339 339 340 340 341 342 342 342 344 347 348 349 350 350 350 349 349 350 350 351 351 351 353 356 355 355 356 357 358 358 358 357 357 357 357 357 356 355 355 354 354 354 354 353 353 354 354 352 352 351 352 353 353 352 351 351 351 352 352 351 351 351 352
338 337 337 338 340 341 341 340 341 343 346 348 349 350 350 350 350 351 352 352 352 351 352 354 353 352 355 356 356 356 357 357 356 356 356 357 356 356 356 355 355 355 354 354 355 354 354 353 352 350 350 351 351 351 351 350 351 351 350 349 349 349 350
337 336 337 337 337 337 338 339 339 340 341 343 345 347 349 349 350 351 351 351 352 351 351 352 351 351 353 353 352 352 354 354 354 355 355 356 356 356 356 355 355 355 355 355 355 355 355 353 352 351 350 350 350 350 351 351 350 350 350 349 349 349 349
337 336 336 336 335 335 336 337 338 338 339 340 341 343 345 346 347 347 348 349 349 350 351 352 353 351 351 351 349 349 349 350 351 351 352 353 354 353 354 354 354 353 354 355 354 353 352 352 351 351 351 350 350 350 350 350 350 349 349 349 348 348 349
336 336 336 335 335 334 334 335 336 336 337 338 339 341 342 342 343 344 344 345 345 345 348 350 351 351 350 350 349 349 349 349 349 349 350 351 351 351 350 351 352 351 351 352 353 352 352 351 350 350 350 350 350 350 350 350 350 349 348 348 348 348 347
336 335 335 334 334 334 333 333 334 335 336 338 338 340 340 340 340 341 342 342 340 340 342 344 345 345 346 346 347 349 351 352 351 352 351 351 351 351 350 349 350 350 349 349 350 352 351 351 351 350 349 350 350 350 350 350 349 349 349 348 348 348 348
335 334 333 333 333 333 332 331 331 334 336 337 338 337 337 337 338 339 339 339 339 339 339 339 339 340 341 341 342 344 346 349 350 351 352 351 351 351 351 349 350 350 349 349 349 352 353 353 352 352 351 350 349 349 349 349 349 349 349 348 349 348 348
332 332 331 331 331 330 328 327 328 332 335 336 335 334 332 332 334 334 334 333 334 336 337 337 337 337 338 339 338 339 341 342 344 345 346 347 347 348 349 349 349 349 349 350 351 351 352 353 354 354 354 352 350 349 349 348 348 348 348 348 347 347 348
330 330 330 331 330 328 325 324 326 331 334 335 335 334 333 332 331 331 330 329 330 331 332 334 335 335 336 338 339 340 340 340 341 343 343 344 345 345 346 346 346 345 346 348 351 351 350 352 354 354 354 354 353 352 350 348 348 348 348 348 347 348 348
328 327 327 327 326 325 324 324 327 330 333 333 334 335 333 332 331 331 331 331 330 329 329 330 332 333 333 334 336 337 337 336 336 339 341 341 342 342 343 344 344 343 343 345 347 350 350 351 353 354 354 354 353 353 353 352 351 350 349 350 350 350 350
325 323 322 322 323 324 324 326 329 331 332 332 333 334 334 333 332 332 331 332 331 331 330 329 329 331 331 331 331 331 332 332 334 334 335 336 337 338 340 342 344 344 344 343 345 348 350 351 353 353 354 354 354 354 354 353 353 352 352 351 351 351 351
321 321 321 322 322 323 324 326 328 329 330 330 329 330 332 331 330 330 330 330 331 331 331 330 329 329 330 331 330 328 327 328 330 331 332 333 333 334 335 338 340 343 345 346 347 347 349 350 353 354 355 355 355 355 355 355 355 355 355 355 354 354 353
320 321 321 321 322 322 323 324 325 327 327 327 326 326 327 328 327 327 326 327 329 329 328 327 327 327 328 331 331 329 327 325 325 327 331 331 331 332 333 334 337 341 346 349 348 346 345 347 350 353 353 353 355 355 355 355 355 356 356 356 355 355 354
320 320 320 321 321 322 322 322 322 323 323 323 324 324 325 326 325 325 324 324 326 326 325 324 325 327 329 330 330 330 328 326 323 324 327 329 329 331 332 335 339 343 346 346 344 341 340 339 341 341 341 342 344 344 345 347 349 351 354 355 355 355 355
320 320 319 320 321 321 321 321 321 321 320 321 322 322 323 324 323 323 322 322 322 322 322 323 324 326 328 329 329 328 328 328 325 323 324 327 328 331 333 338 344 347 346 344 340 336 335 335 335 333 331 331 332 333 334 337 338 340 343 346 349 352 353
320 320 319 320 320 320 320 320 319 320 319 319 320 320 321 321 321 320 320 320 320 319 320 322 322 324 325 326 327 327 328 328 326 323 324 326 328 330 332 334 339 342 341 338 334 332 333 333 333 332 331 330 331 331 332 332 332 331 332 334 339 344 347
318 318 318 319 320 319 319 319 319 318 318 318 318 318 318 318 318 318 318 318 319 318 318 320 321 322 323 324 324 325 327 328 327 325 325 326 328 330 330 330 331 332 331 331 331 330 331 332 332 332 331 331 331 331 332 332 330 328 329 330 333 336 339
316 317 318 319 319 318 319 318 318 317 317 317 317 317 316 317 317 317 317 318 318 318 317 317 318 319 321 322 323 324 325 326 327 326 325 326 327 328 329 328 327 326 325 326 328 330 330 330 331 331 331 331 332 331 332 332 330 328 328 329 331 331 334
316 317 318 318 318 318 318 317 317 317 316 317 317 316 317 317 317 317 318 318 318 318 318 317 316 316 318 320 321 322 323 324 326 326 326 326 327 328 328 327 326 324 322 322 324 328 329 329 329 329 329 329 329 329 329 329 327 326 327 330 331 331 332
316 317 318 318 318 318 317 317 316 316 316 316 317 316 316 316 316 316 317 317 318 318 318 318 317 317 317 318 319 320 321 322 324 325 326 326 326 327 327 326 324 323 321 320 322 326 329 329 328 328 327 327 325 324 324 322 322 325 328 330 330 330 331
316 317 317 317 317 316 316 316 315 315 316 316 316 316 316 315 315 316 316 317 317 318 318 318 318 318 318 318 318 319 320 321 322 323 325 326 326 326 326 325 323 322 321 320 323 326 328 327 326 326 325 324 321 320 320 321 323 327 329 329 328 329 330
316 316 316 316 316 315 315 315 315 316 316 315 315 315 315 315 316 317 317 317 317 317 317 317 318 318 318 319 318 318 319 319 320 322 324 325 326 326 325 324 323 322 321 322 325 327 326 325 325 324 322 320 320 320 322 324 326 328 328 328 329 329 329
316 316 316 315 315 315 314 314 315 316 316 315 315 315 315 317 318 319 318 318 318 318 318 318 318 318 318 319 318 318 318 318 319 320 322 324 325 325 324 323 323 322 321 322 325 326 325 324 324 323 321 319 320 322 324 325 327 328 328 329 330 331 331
315 316 316 315 315 314 314 314 315 315 315 315 315 316 317 318 319 319 319 318 318 318 318 318 319 318 318 319 319 319 319 318 319 320 321 323 325 325 324 323 323 322 321 322 324 325 325 324 324 322 320 319 320 323 324 325 326 327 328 329 330 330 331
315 315 315 314 314 313 314 315 315 315 315 315 315 317 318 318 318 318 317 317 317 317 317 318 318 318 319 319 320 321 321 321 321 322 322 323 325 325 325 324 324 323 323 323 324 324 324 324 322 320 319 319 320 323 326 326 325 326 326 327 327 327 328
315 314 314 313 312 313 315 315 315 314 314 315 315 316 317 317 317 316 316 316 315 315 316 316 317 317 317 319 320 322 322 322 323 323 323 324 325 325 325 325 324 323 323 324 324 324 324 322 320 318 318 318 320 324 327 327 324 323 324 324 324 324 325

ECMWFFLT1_925_thetae_114.txt.gz
Theta_e
364 365 363 350 343 344 342 342 343 344 345 346 346 347 348 349 349 349 350 350 351 350 350 350 349 349 349 348 348 349 349 348 349 350 351 352 352 351 352 353 353 353 353 352 350 350 352 353 354 355 354 351 349 351 352 352 353 353 354 355 355 355 354
362 363 364 355 345 344 342 341 343 344 345 346 346 346 347 348 349 349 350 350 350 350 349 349 349 349 348 346 346 348 349 348 348 350 351 351 351 351 351 352 351 352 353 353 352 351 351 353 354 354 354 352 350 350 352 353 354 353 354 355 355 355 355
361 361 363 359 352 345 341 341 343 344 344 345 346 346 346 348 349 349 350 350 350 350 350 349 349 349 347 345 345 347 349 349 349 351 351 351 351 351 351 351 351 351 352 353 353 352 351 352 353 354 354 353 351 349 350 352 353 354 354 355 356 356 356
360 360 360 361 359 350 343 341 343 343 344 345 346 346 346 347 349 349 349 349 350 349 349 349 348 349 348 346 345 347 349 349 349 351 352 352 352 353 353 352 352 353 352 352 353 353 352 352 352 353 354 354 353 351 351 353 354 354 354 354 356 356 356
360 360 359 360 361 357 349 343 342 343 344 345 345 346 346 347 348 349 349 349 349 349 349 348 349 349 348 347 346 347 348 349 350 351 352 354 354 354 354 353 353 352 352 352 352 352 353 352 352 353 353 354 354 353 352 354 355 355 355 354 354 356 356
359 359 359 358 359 358 352 347 345 343 343 344 345 346 346 347 348 349 349 349 349 349 349 349 349 349 349 348 347 347 347 348 349 349 350 353 354 354 354 353 353 352 352 352 352 352 352 353 353 352 353 354 354 354 353 354 354 355 355 356 355 355 356
358 358 358 358 358 357 354 352 350 348 345 345 344 346 346 346 347 348 349 349 349 350 350 349 349 348 348 349 349 348 347 347 348 349 348 350 352 354 353 352 352 352 352 352 352 352 353 353 354 353 353 354 354 355 355 354 355 355 355 356 356 356 357
355 356 358 359 358 357 355 354 353 352 350 348 346 346 346 346 348 348 349 349 349 350 350 350 350 350 349 349 349 349 348 348 348 348 349 348 350 352 352 352 351 352 352 352 352 352 353 354 355 355 355 355 354 355 356 356 356 355 355 356 356 357 357
352 355 357 357 356 355 354 354 354 353 353 352 350 349 347 347 347 348 349 350 350 350 351 350 350 351 351 350 350 350 350 350 349 349 349 349 348 349 351 351 351 352 353 353 353 353 353 354 355 356 356 356 356 355 356 356 356 355 355 355 355 356 356
351 354 354 354 354 354 354 354 353 353 353 353 352 351 350 349 348 349 350 349 350 350 350 351 351 351 352 351 351 351 351 351 351 351 351 350 348 347 350 351 351 352 353 353 354 353 354 354 355 356 356 356 356 356 355 355 355 354 354 354 354 354 354
350 351 352 353 354 354 354 354 352 353 353 352 352 352 352 351 350 350 350 349 349 350 351 352 352 352 352 352 352 352 352 352 352 352 351 351 350 348 349 351 351 352 353 353 353 354 354 355 355 355 355 355 355 356 355 355 354 353 353 353 353 353 353
347 348 348 349 351 351 352 352 351 351 351 351 351 352 352 352 352 351 350 350 350 351 352 353 353 353 353 352 353 352 352 352 352 352 352 352 352 351 350 350 350 351 351 351 352 352 352 353 354 354 354 354 354 355 355 355 354 353 352 352 352 353 353
344 344 344 344 347 348 349 350 349 349 350 349 350 351 351 351 352 352 351 351 351 352 353 353 354 354 355 354 355 354 354 354 353 353 353 353 354 353 353 352 351 350 349 348 348 349 349 351 352 352 353 353 353 353 353 353 353 352 352 351 351 352 352
342 341 341 342 344 346 347 348 348 348 349 349 349 350 350 349 350 351 351 351 352 352 353 354 354 354 354 354 355 355 355 355 354 354 354 354 354 354 354 354 354 353 352 351 350 350 350 350 350 351 352 353 353 352 352 351 351 351 351 351 351 351 351
341 340 340 341 342 343 344 344 344 345 347 348 348 349 349 349 350 350 349 349 350 350 351 352 353 352 351 350 352 354 354 352 351 352 354 355 354 355 355 354 354 355 354 354 354 353 353 352 352 352 353 354 354 353 352 351 350 350 350 350 350 350 350
340 339 339 339 340 341 342 342 342 342 343 345 346 347 348 348 348 347 346 346 347 348 349 350 350 349 348 348 349 350 350 349 348 350 353 354 354 355 355 354 353 353 354 354 354 353 354 353 353 353 353 353 354 353 352 351 351 350 349 350 349 349 349
340 339 338 337 337 339 340 340 340 340 341 342 342 344 344 344 344 343 343 343 344 346 348 348 348 347 347 347 348 349 349 348 347 348 350 351 351 352 352 352 350 349 351 353 353 353 353 352 352 352 351 351 351 351 352 351 351 350 350 350 350 349 350
340 340 339 337 336 337 338 339 340 339 339 339 339 340 340 340 341 340 340 341 341 343 344 344 344 343 344 344 346 348 349 349 348 348 349 349 349 349 349 350 349 347 348 351 352 352 352 351 351 351 350 350 349 348 349 349 349 350 350 350 349 349 350
337 338 338 336 336 337 337 337 338 337 337 337 337 338 337 337 337 336 337 337 338 339 340 340 340 340 340 341 342 344 346 347 348 348 348 349 350 350 350 350 350 349 348 350 351 351 351 350 350 351 351 351 351 349 349 348 348 348 348 349 349 349 349
335 335 334 333 334 334 334 334 335 334 334 334 334 333 333 332 332 333 334 334 334 335 335 336 337 337 337 339 340 341 343 344 345 346 346 346 346 347 348 348 349 349 349 350 350 350 350 350 349 350 350 351 351 351 351 350 349 349 348 347 347 348 348
332 331 330 330 331 331 331 332 333 333 332 332 331 331 330 330 330 330 331 332 332 332 331 332 332 331 331 332 334 336 338 340 342 342 342 343 343 344 345 345 345 346 346 348 348 349 349 350 350 350 351 351 351 351 351 351 350 351 351 350 348 348 348
329 327 327 328 328 329 330 332 333 332 332 331 331 331 331 330 330 329 329 330 329 330 330 330 329 328 327 327 328 330 332 334 335 336 337 339 341 343 344 345 345 344 344 344 345 346 347 347 349 350 351 351 352 351 352 352 351 350 351 352 352 350 350
326 325 325 326 327 328 330 332 333 332 332 332 331 332 332 331 331 330 329 328 327 328 328 329 330 329 327 326 326 327 329 331 331 331 332 334 336 338 340 343 346 346 346 345 346 347 347 348 348 349 350 352 353 353 353 351 350 351 352 353 353 352 352
323 323 324 324 326 327 328 330 331 331 332 331 329 329 330 330 330 330 328 327 326 326 328 329 330 330 328 328 327 325 326 328 329 330 331 333 336 338 338 341 346 348 347 347 347 347 347 349 348 347 349 350 349 350 351 348 348 350 353 354 355 354 354
322 322 323 324 325 325 325 327 328 329 329 328 326 326 326 327 328 327 325 324 324 325 326 327 328 328 328 328 328 325 324 325 326 328 331 334 340 343 343 344 346 345 343 341 341 340 340 340 340 339 340 340 339 340 343 342 343 346 347 349 352 354 354
321 321 322 323 324 324 324 325 326 326 325 324 323 323 324 324 324 323 322 322 323 322 322 323 325 326 327 327 328 326 325 324 324 327 329 332 337 342 345 346 343 339 336 335 335 334 333 333 332 331 332 334 334 336 337 336 337 340 341 344 348 350 351
321 321 321 321 322 323 323 323 323 322 322 322 322 322 322 322 322 320 320 320 320 319 319 321 323 324 326 326 327 327 326 325 324 325 327 329 332 336 339 339 337 334 332 332 331 331 331 331 331 331 331 332 332 334 334 333 332 333 335 339 341 341 343
320 321 321 320 321 321 321 320 320 319 319 319 320 320 321 321 320 319 319 319 318 318 317 319 320 322 323 324 325 326 327 326 325 324 326 327 328 330 330 330 329 328 328 329 329 330 330 330 330 330 331 330 329 328 328 329 330 330 330 333 334 334 335
320 320 320 320 319 319 319 318 318 317 317 317 317 317 317 318 318 317 318 318 318 317 316 316 317 319 321 322 323 324 325 326 325 325 325 326 327 328 327 326 325 323 322 323 326 327 328 328 328 329 328 327 326 324 322 325 329 329 329 329 330 331 333
319 319 319 319 318 318 318 317 317 317 316 316 316 316 316 316 316 317 317 318 318 317 316 316 316 316 318 319 320 321 323 324 325 325 326 326 326 326 326 325 324 322 319 319 322 326 327 327 327 327 325 323 322 321 322 325 328 329 329 328 329 331 333
318 318 318 318 317 317 317 316 316 316 316 316 316 316 316 316 316 317 317 317 318 317 317 316 316 316 316 317 318 319 320 322 323 325 326 326 326 325 325 324 323 322 320 319 322 326 327 326 325 324 322 320 320 321 323 326 327 328 328 328 329 330 331
317 318 318 317 317 316 316 316 316 316 316 316 315 316 316 316 316 316 316 317 317 317 317 317 317 317 317 317 317 318 319 320 321 323 325 325 325 325 324 323 322 322 320 321 324 326 326 325 324 322 320 319 321 323 325 326 327 328 328 328 329 330 330
317 317 317 317 316 316 316 316 316 316 315 315 315 315 315 315 315 316 316 316 316 317 317 317 317 317 318 318 317 317 317 318 319 321 323 325 325 325 324 322 322 322 321 323 325 325 324 323 322 320 319 320 321 324 326 326 327 327 328 329 330 330 331
316 317 316 316 316 315 315 315 315 315 315 315 316 315 315 316 316 317 317 317 317 316 317 317 318 318 317 317 317 317 317 317 318 319 322 324 325 325 324 323 322 321 322 323 324 325 324 322 321 319 320 321 322 324 325 325 324 325 326 327 327 328 328
316 316 316 315 315 314 314 314 315 315 315 316 316 316 316 317 317 318 317 318 317 317 317 318 318 318 318 318 318 318 318 318 318 319 320 322 324 324 324 323 323 322 322 323 324 324 323 321 320 319 320 321 323 324 324 323 323 322 323 323 324 325 326
315 316 316 315 314 314 313 314 314 315 316 317 317 316 316 317 317 317 317 317 317 317 317 317 317 317 318 318 319 320 320 320 320 321 321 322 324 325 324 324 323 323 323 323 323 322 321 320 320 319 319 321 323 323 322 322 322 321 321 321 322 323 324
315 315 314 314 314 313 313 314 314 315 316 317 316 315 315 316 316 316 316 316 316 316 316 316 316 317 318 318 319 320 321 321 321 322 323 323 324 324 324 324 323 323 323 323 322 321 319 319 320 320 319 320 323 324 322 321 321 320 320 320 320 321 322
315 314 314 314 314 313 314 314 314 315 315 315 315 315 314 315 315 315 315 315 315 314 314 314 314 315 317 317 317 318 319 320 320 321 321 322 322 322 323 322 322 322 322 322 321 321 320 319 319 320 320 320 322 324 322 321 320 319 319 318 319 319 319

ECMWFFLT1_925_thetae_117.txt.gz
Theta_e
349 347 345 344 343 343 346 348 348 349 350 351 351 351 352 353 353 353 353 353 352 352 352 351 351 350 349 349 349 349 349 349 350 350 349 350 352 352 351 352 353 354 354 355 354 352 352 354 355 354 353 352 351 350 349 348 347 349 352 353 354 354 354
352 348 345 343 343 344 346 348 349 349 349 350 351 351 352 353 353 353 353 352 352 352 352 351 351 350 349 349 349 349 349 349 350 349 349 349 350 351 351 352 352 352 352 353 353 351 350 352 354 354 354 354 352 351 351 351 350 351 353 354 355 356 355
353 350 345 343 343 345 347 348 348 349 349 349 350 350 351 352 352 352 353 352 352 353 352 351 351 350 350 349 349 349 349 349 349 349 349 349 350 351 351 351 352 352 352 351 352 353 352 352 353 354 354 354 354 352 351 352 353 354 355 354 356 358 357
355 352 348 344 343 345 347 347 348 348 348 349 349 349 350 352 352 352 352 352 352 352 352 351 351 350 350 350 349 349 349 348 348 348 349 350 350 350 351 351 351 352 352 352 352 353 353 352 352 353 354 354 355 354 352 352 353 354 354 354 356 357 357
356 354 352 348 344 345 347 347 348 349 348 348 350 350 350 351 352 352 352 352 352 353 351 351 351 351 350 349 349 349 348 347 348 348 348 349 351 351 351 352 352 352 353 353 352 352 352 352 352 352 352 353 354 355 355 353 353 354 354 355 355 357 358
356 356 355 351 347 346 346 347 347 347 348 349 349 349 349 350 351 352 352 352 352 353 352 352 351 350 349 349 349 349 347 346 346 348 348 348 350 352 353 353 354 353 353 353 352 351 351 352 352 352 352 353 355 356 356 355 355 354 355 355 356 356 358
356 356 356 355 351 348 348 349 348 347 348 349 349 349 349 349 350 351 352 352 352 352 352 352 351 350 349 349 349 348 347 346 346 348 348 349 349 352 354 354 354 354 353 352 352 352 352 351 352 352 353 354 354 355 355 355 355 355 355 355 355 355 357
357 356 356 355 352 350 352 352 351 349 348 348 349 349 349 349 350 352 352 352 352 352 352 351 351 350 349 349 349 349 349 349 349 347 348 349 350 351 353 353 353 353 352 352 352 352 352 352 352 353 354 355 355 354 354 354 355 355 356 356 355 356 357
358 357 356 356 354 354 356 355 354 353 351 350 350 350 349 349 350 351 351 350 351 352 351 350 350 350 349 348 349 349 350 350 350 348 348 349 350 351 352 352 353 353 351 352 353 353 352 353 353 354 354 355 356 356 355 355 355 355 356 356 355 355 356
357 357 358 358 357 357 357 355 355 355 354 353 352 351 350 349 349 350 350 349 350 351 350 349 349 350 349 348 349 349 351 351 351 351 350 350 351 351 352 353 353 352 351 353 355 354 353 352 353 354 354 355 355 356 356 356 355 355 355 354 354 354 354
356 356 357 358 357 356 355 355 356 356 356 355 354 352 349 347 348 349 348 349 350 350 351 350 350 350 350 350 350 350 350 352 353 354 352 352 352 351 351 353 353 352 351 353 355 356 355 354 354 354 354 355 355 355 355 355 355 355 355 354 353 352 353
354 354 356 356 355 355 355 355 355 355 355 355 355 354 351 349 349 351 350 349 350 351 352 352 352 352 352 352 352 352 351 352 354 355 354 354 353 353 353 353 354 353 353 353 354 355 355 355 355 354 354 354 354 354 354 354 354 354 354 354 354 353 353
350 350 352 353 353 354 355 354 355 355 353 354 355 354 353 353 353 353 351 350 351 353 355 353 353 354 355 355 355 355 354 354 355 355 355 355 354 354 355 354 354 354 354 354 354 354 355 355 355 353 352 352 352 352 352 352 353 353 352 353 353 353 352
347 348 349 350 350 352 354 353 353 354 354 354 353 353 353 353 353 353 352 352 353 354 354 353 353 353 354 355 356 356 356 356 356 355 354 354 353 353 355 355 355 355 354 354 354 354 354 353 354 353 352 352 351 351 352 352 353 353 352 352 352 352 352
347 347 347 347 348 350 352 352 353 353 353 353 352 352 352 352 352 352 352 352 352 353 353 353 352 352 352 353 354 356 356 356 355 354 353 353 353 354 354 354 354 354 354 354 354 355 354 354 354 354 354 354 353 352 352 353 353 353 352 352 351 351 352
347 345 345 345 345 346 347 349 351 351 351 351 351 351 352 350 350 350 349 349 349 350 350 352 352 351 351 351 352 353 354 354 354 354 355 354 354 354 354 354 354 354 354 354 354 354 355 354 355 354 355 355 355 354 353 353 353 352 351 351 350 351 353
345 343 343 343 344 344 345 347 348 348 348 348 348 348 348 347 347 347 347 347 347 348 348 349 350 349 348 349 350 350 351 352 352 352 353 353 353 354 354 354 354 354 354 354 353 354 354 354 354 354 354 354 353 354 353 352 352 351 350 350 349 349 351
343 341 342 342 342 343 343 344 343 343 344 344 344 345 344 344 345 344 344 344 345 346 347 347 348 348 347 348 348 349 349 349 350 349 349 349 350 351 352 352 353 353 353 352 352 352 353 352 353 353 353 353 352 352 352 352 350 349 349 349 349 348 349
341 340 341 342 342 341 340 340 340 340 340 339 340 340 340 341 340 339 340 340 341 343 343 344 345 344 345 347 348 349 350 349 349 349 349 349 349 349 350 350 351 352 352 352 351 351 352 351 351 351 351 351 352 352 352 352 350 349 349 349 349 348 348
338 338 339 339 339 338 338 338 336 335 335 334 335 335 336 336 335 335 337 337 337 338 339 340 341 341 342 344 346 347 348 348 349 349 349 350 349 350 350 350 350 351 351 352 351 351 352 352 351 351 351 351 351 351 352 352 351 350 350 350 349 349 349
337 337 337 336 336 336 336 335 334 333 333 332 332 332 332 332 332 333 333 333 333 333 334 335 336 336 337 339 342 344 344 345 346 346 347 347 348 348 347 347 348 349 349 350 350 351 352 352 352 352 352 352 352 352 352 351 350 351 350 350 350 350 350
335 335 336 336 336 335 334 333 333 333 332 330 330 330 329 329 330 330 330 329 329 329 330 331 331 332 332 333 335 337 338 340 341 343 344 345 345 346 345 345 345 345 346 347 348 349 350 350 351 351 352 352 353 353 352 350 350 351 351 350 350 350 350
335 334 334 335 334 333 332 332 332 332 330 329 329 328 327 328 329 329 329 328 328 328 328 329 330 330 329 329 331 332 333 335 336 337 340 342 343 345 346 346 345 345 345 347 347 348 348 349 349 349 350 353 352 351 348 347 348 349 351 352 352 351 352
333 333 332 332 332 331 331 331 331 330 329 329 327 326 326 327 327 328 328 328 328 328 328 329 329 328 327 327 329 331 333 335 336 337 338 339 342 345 346 346 346 346 346 345 343 343 343 344 345 345 346 348 348 347 345 344 345 346 348 350 351 353 354
332 331 331 331 330 330 330 329 329 329 329 328 326 326 326 326 326 326 326 327 327 327 327 328 327 326 325 325 326 329 332 335 339 341 341 341 343 344 345 344 344 344 342 339 337 336 336 337 339 340 340 340 339 339 338 339 340 341 343 345 348 350 352
331 330 330 329 329 329 329 328 327 327 326 325 324 325 325 324 324 324 324 324 325 325 326 326 326 326 325 324 324 326 328 330 334 338 340 341 342 340 339 338 337 336 336 335 334 334 333 332 333 336 337 336 335 335 335 334 334 335 338 340 343 345 347
329 329 329 328 327 327 326 325 324 324 323 322 322 323 322 322 322 322 322 322 323 323 323 324 325 326 326 326 325 324 325 327 329 331 332 333 334 333 331 331 331 331 331 332 333 334 335 333 332 332 332 332 332 334 334 333 332 331 332 334 336 338 340
327 327 327 326 325 325 324 323 322 322 321 321 321 321 321 321 321 321 322 322 321 321 321 321 323 324 325 326 326 324 324 325 326 327 328 328 328 328 326 325 326 327 328 329 330 332 333 333 331 329 327 326 326 329 331 331 330 329 329 330 331 332 333
327 327 326 325 324 323 323 322 321 321 321 320 320 321 321 320 320 321 321 320 319 318 318 319 320 322 323 324 325 325 325 324 324 326 327 327 326 326 324 323 322 323 324 326 329 330 329 329 329 328 327 325 324 325 327 328 329 328 329 329 330 331 332
326 325 324 323 323 322 321 321 320 320 320 319 318 318 319 319 321 321 320 319 317 317 318 318 318 319 320 322 323 324 325 325 325 325 326 326 326 325 324 323 322 322 322 324 328 330 329 327 327 327 326 327 326 325 326 327 327 328 328 329 330 331 332
324 324 323 322 321 321 320 320 320 319 319 318 317 316 316 318 320 320 319 318 317 317 319 320 319 319 320 320 321 323 324 325 326 326 325 326 326 327 326 325 325 324 325 327 328 329 329 327 327 326 326 327 328 328 328 327 328 328 329 329 330 330 332
322 322 322 321 321 320 319 319 319 319 320 319 318 317 316 317 317 318 318 317 316 318 320 321 321 320 320 320 320 322 324 325 325 326 326 326 327 327 326 326 326 326 327 328 328 329 328 327 326 326 326 327 328 329 329 328 328 328 328 329 330 330 330
322 321 321 320 319 318 318 319 320 320 320 319 318 318 317 316 316 316 316 317 317 319 320 320 320 320 320 320 320 321 322 324 324 325 326 327 327 326 325 325 326 327 327 327 327 327 327 326 325 325 325 326 328 328 328 327 326 325 326 327 327 328 327
322 322 321 319 317 316 317 320 320 320 320 319 318 317 316 315 315 315 315 316 317 319 319 318 319 320 320 320 321 321 322 322 323 324 326 327 327 326 325 325 325 326 326 326 326 326 325 325 324 324 324 326 327 327 327 327 325 323 323 324 324 325 325
322 321 320 319 316 315 317 319 320 321 321 319 318 317 316 316 316 316 316 316 317 319 319 319 319 320 321 321 321 322 322 322 322 323 325 326 326 326 325 324 325 326 325 324 323 323 323 324 324 323 324 325 326 326 326 326 324 321 321 321 322 322 322
321 320 319 318 316 316 316 316 317 318 318 317 317 317 317 317 317 317 318 318 318 319 319 320 320 320 321 321 321 321 322 322 323 324 325 325 326 326 324 323 323 324 324 322 321 321 321 321 321 321 323 324 324 324 324 323 321 320 319 319 319 319 319
319 318 317 316 316 317 316 316 316 317 316 316 317 317 317 317 317 317 317 317 318 318 319 320 320 320 320 320 320 321 322 322 322 323 324 325 325 325 324 323 322 322 322 321 320 320 320 319 319 319 322 323 323 322 321 320 319 319 318 318 318 318 318
319 317 315 315 315 316 315 317 319 319 317 317 318 318 317 316 316 316 316 315 316 317 318 318 319 319 318 318 319 320 321 321 322 322 323 323 324 324 324 323 322 321 321 320 320 319 319 320 320 320 322 323 322 322 320 319 318 318 318 318 318 318 317

ECMWFFLT1_925_thetae_123.txt.gz
Theta_e
346 346 346 347 345 344 346 346 346 347 348 349 349 349 350 350 351 353 355 357 358 359 359 360 358 357 358 360 360 360 361 361 361 360 360 359 359 359 359 360 360 359 358 358 357 359 360 360 359 360 360 360 360 360 359 360 360 359 359 360 359 359 360
345 345 345 345 346 345 346 346 347 347 348 349 350 349 349 350 351 352 354 356 357 359 358 359 358 357 357 358 358 358 360 361 360 359 359 359 360 361 360 359 359 359 359 357 357 359 361 361 361 361 362 361 360 361 359 359 359 359 361 362 360 362 362
345 346 346 345 346 345 346 347 347 348 349 349 349 349 348 349 351 352 354 355 356 357 357 357 358 357 356 357 357 357 358 359 360 359 358 358 358 359 360 359 359 358 358 358 357 358 358 360 361 362 361 360 360 360 359 360 359 359 364 364 361 363 364
346 345 346 346 346 345 346 347 348 349 349 349 349 348 349 350 351 352 353 353 354 355 356 356 356 356 356 357 356 356 357 357 358 358 357 356 355 357 358 359 359 357 357 358 357 357 357 358 360 361 361 361 361 360 359 360 359 359 363 363 360 363 364
347 346 345 346 345 345 346 347 348 348 348 348 348 348 349 350 351 352 352 351 350 352 354 354 353 354 355 355 355 355 355 356 356 357 357 355 355 356 356 358 358 356 357 357 357 358 358 358 359 360 360 361 362 360 360 360 360 360 363 361 359 362 362
347 347 347 346 345 345 346 347 347 347 348 348 348 348 349 350 351 351 351 350 349 349 351 352 352 352 353 354 353 354 354 355 355 356 356 356 356 356 356 356 356 355 356 357 356 357 358 357 358 358 358 358 358 359 359 359 359 360 361 360 360 362 361
350 349 348 346 345 345 345 346 347 347 348 348 348 347 348 350 351 352 352 350 349 348 349 350 350 351 352 352 352 352 353 354 354 354 356 357 357 357 356 356 356 355 356 356 356 357 357 356 358 358 357 357 356 357 358 359 359 361 362 362 362 362 360
354 353 351 347 344 344 346 347 347 348 349 349 349 349 348 349 351 351 352 351 350 349 348 349 349 350 352 352 351 351 352 352 353 353 353 355 356 356 356 357 356 356 356 356 356 357 356 356 357 357 357 357 356 357 360 361 361 361 361 362 363 362 359
357 358 358 354 347 344 347 348 346 348 349 350 351 350 347 348 350 353 353 353 352 350 349 350 349 350 352 352 351 351 351 351 351 352 351 352 354 355 355 356 356 356 357 357 357 357 357 356 355 357 357 357 358 359 360 362 360 359 360 362 364 363 361
359 360 358 355 350 346 347 347 346 347 350 353 354 353 349 348 352 356 356 356 356 352 351 352 350 350 353 353 352 351 350 350 350 350 349 349 350 352 352 353 355 357 356 356 355 355 357 356 356 359 358 358 361 361 360 362 360 358 360 362 363 363 361
360 361 360 357 351 348 347 347 348 348 352 356 358 356 353 351 356 359 359 360 360 356 355 354 350 350 353 354 352 351 350 350 349 348 348 347 347 348 349 350 352 355 355 354 354 354 356 356 357 361 360 358 361 361 360 362 361 359 360 360 361 361 360
361 363 364 362 359 355 353 353 353 353 355 359 359 358 358 357 359 362 361 362 362 361 360 357 353 352 354 354 353 353 352 350 348 347 347 347 346 345 347 347 348 351 353 353 352 352 355 356 356 359 360 359 360 360 361 362 361 361 361 360 360 360 358
360 362 361 362 362 360 361 361 359 359 360 360 359 358 359 360 360 362 362 362 363 363 362 361 358 356 356 356 353 354 354 352 349 347 345 346 346 344 345 345 345 347 349 351 351 350 352 354 355 357 358 358 358 359 361 362 361 361 361 360 359 358 357
358 358 358 360 361 361 362 362 362 363 362 361 360 359 359 360 360 362 362 361 362 362 362 363 362 360 361 359 355 355 356 354 350 349 347 347 346 344 345 345 344 345 346 347 348 348 348 350 351 354 355 356 356 356 357 358 359 359 360 360 359 357 356
355 354 354 356 358 359 359 359 360 360 359 359 360 361 361 361 360 361 361 361 362 361 361 362 363 364 363 362 358 358 359 356 353 353 352 352 351 349 348 347 346 346 345 345 346 347 346 346 347 349 351 352 353 353 352 352 353 355 356 358 358 356 354
354 352 352 353 354 356 357 358 359 358 357 357 358 359 360 360 360 360 360 360 360 361 361 362 364 365 365 363 362 362 362 360 358 358 358 359 359 358 356 353 349 348 347 347 347 346 346 346 345 346 347 348 350 351 350 349 349 350 352 354 355 356 353
354 353 353 352 353 354 355 357 359 358 357 357 357 357 357 357 358 359 358 358 358 359 360 361 362 364 364 365 365 365 364 363 362 362 361 361 362 362 361 359 355 353 352 352 351 350 348 347 346 345 345 345 347 348 348 348 348 349 350 352 353 354 354
352 353 354 354 354 355 355 356 357 357 357 356 357 357 356 356 357 357 357 357 357 358 359 359 359 361 362 364 365 364 363 362 361 360 360 361 363 363 363 362 360 359 358 357 356 354 352 351 350 349 346 344 344 344 345 348 349 348 349 351 352 352 351
353 352 353 354 353 353 354 354 355 355 355 355 356 356 357 357 357 356 357 357 357 358 358 358 358 359 361 361 360 360 359 357 357 357 357 360 362 363 363 363 362 361 361 362 361 359 357 355 354 353 350 348 345 343 345 349 349 348 348 351 352 352 351
352 351 351 350 348 349 350 350 350 350 350 351 352 352 352 353 353 353 354 355 355 355 355 356 357 357 358 358 357 356 356 355 355 356 356 356 357 359 360 361 361 361 362 363 363 364 363 360 357 355 354 353 351 348 351 353 352 350 350 351 351 352 351
350 349 347 345 345 347 348 348 347 347 347 346 346 346 347 348 349 350 351 351 351 351 350 351 351 352 353 354 354 355 355 355 355 355 356 355 355 356 356 357 358 359 360 362 362 363 362 361 359 357 356 358 356 352 352 353 353 353 352 352 352 352 351
347 345 344 344 344 345 345 344 344 344 344 342 342 342 342 343 345 346 346 347 348 347 346 347 347 348 350 351 352 353 354 354 354 355 356 355 355 356 356 356 357 357 358 360 360 359 358 357 357 355 355 356 353 350 349 351 352 353 353 353 353 352 351
344 343 344 344 343 343 342 341 340 340 340 340 340 340 340 340 340 341 341 342 342 343 343 344 345 346 347 349 350 350 351 351 352 353 355 353 352 355 356 355 356 356 357 358 357 354 353 354 353 353 353 352 350 349 349 348 350 351 351 352 352 351 351
343 343 343 342 342 341 340 339 339 338 338 338 338 337 337 336 337 337 337 337 338 339 339 340 341 343 344 345 346 347 348 349 349 349 350 349 350 352 353 354 353 353 353 353 352 350 350 351 349 349 349 348 347 347 347 347 349 350 349 350 350 350 352
342 342 341 341 341 340 339 339 338 338 338 337 336 336 335 334 334 334 333 333 334 335 336 337 338 340 341 342 343 344 345 346 347 347 346 347 348 350 351 351 350 349 349 349 348 348 348 348 347 345 344 344 344 344 344 344 346 347 347 348 348 349 351
340 339 339 337 337 337 337 337 337 337 338 337 336 336 334 333 332 331 331 331 332 333 333 333 334 336 338 339 341 343 344 346 346 347 346 346 347 347 348 348 347 346 346 346 346 346 347 346 345 343 341 340 342 342 340 338 338 338 339 340 342 345 348
335 335 335 333 333 333 333 333 333 334 335 335 335 333 331 331 331 332 332 331 332 333 333 332 332 333 334 335 337 339 341 343 343 344 345 345 345 344 345 345 344 343 343 343 343 343 344 344 343 341 338 336 336 335 332 330 329 330 330 331 333 337 343
334 333 332 332 332 331 331 331 331 330 331 332 331 331 332 332 332 332 332 332 331 332 331 330 330 332 333 333 335 336 337 338 338 339 340 341 342 342 342 341 341 340 340 340 340 340 340 340 340 339 338 337 336 333 330 328 326 326 328 329 330 332 337
335 332 332 333 332 330 330 329 327 327 328 329 328 329 332 333 333 333 333 332 331 332 331 328 327 330 332 333 334 335 336 335 336 336 337 337 338 338 338 338 339 339 339 339 339 338 338 338 337 337 338 338 338 337 336 333 330 327 329 331 331 332 334
333 331 331 331 330 328 328 328 327 327 327 327 327 328 330 332 332 332 331 331 331 331 331 329 328 329 331 332 332 334 334 335 336 336 336 336 337 337 337 337 337 337 336 337 337 336 337 338 338 337 337 337 337 337 338 337 333 328 328 330 330 331 332
333 332 332 330 329 328 328 328 329 329 329 329 328 328 328 329 330 330 330 330 329 329 330 330 329 329 330 331 332 332 332 333 334 335 335 335 336 336 336 336 336 335 336 336 336 336 336 336 337 336 336 337 337 336 336 337 335 331 330 330 331 330 329
333 332 331 330 329 329 328 329 329 328 328 327 327 327 327 327 328 328 328 327 327 327 327 328 329 329 329 329 330 330 330 331 331 332 332 332 332 333 333 333 334 334 334 334 334 334 335 334 333 333 333 334 335 336 336 335 335 335 333 333 334 333 331
333 332 331 330 329 328 327 327 327 326 327 327 327 327 327 326 326 326 326 327 326 326 326 326 326 327 326 326 327 328 329 330 330 330 329 328 329 329 329 330 332 331 331 332 333 332 332 331 331 330 331 332 334 334 334 333 333 333 332 330 331 332 332
334 333 331 330 329 327 327 327 327 327 327 327 326 326 325 326 326 326 327 328 327 326 327 326 326 325 325 325 325 327 328 329 329 329 329 328 329 330 330 330 331 330 330 331 331 331 330 330 330 329 329 331 332 332 332 331 330 329 326 323 323 324 326
333 332 331 330 328 327 327 327 327 327 326 325 325 325 325 325 325 325 326 327 327 327 327 326 326 326 326 326 326 326 326 325 325 327 329 328 329 330 329 327 328 329 329 327 326 326 327 327 328 328 329 330 330 331 331 330 325 322 321 319 318 318 319
332 331 330 329 328 327 327 327 326 325 325 324 325 325 326 326 325 326 326 326 327 328 327 326 326 326 327 327 327 326 326 326 326 328 329 328 328 328 327 326 325 325 325 323 321 321 321 322 323 324 326 328 327 326 326 324 321 319 319 318 318 317 317
332 332 330 328 327 327 327 327 326 326 324 323 324 324 324 325 325 326 327 326 327 327 327 327 327 326 326 327 326 326 327 328 327 328 329 329 328 327 326 326 325 323 322 321 320 319 319 319 320 320 321 324 325 323 322 320 319 319 318 318 318 317 317
331 331 328 326 326 327 327 327 327 327 325 324 324 325 324 324 324 325 325 326 326 326 326 326 327 326 326 326 324 323 326 327 326 326 327 327 327 326 325 326 327 325 323 321 320 320 320 319 319 318 318 320 323 324 323 321 320 319 318 317 317 317 317

ECMWFFLT1_925_thetae_129.txt.gz
Theta_e
352 353 355 355 351 350 349 348 349 348 349 349 351 355 357 358 357 357 357 357 357 357 357 357 358 357 358 359 359 359 358 358 357 356 357 357 357 358 357 358 359 356 355 357 356 356 356 356 357 357 355 355 358 356 356 357 356 357 357 355 356 356 355
352 352 353 355 352 351 349 348 348 348 348 349 350 353 356 358 358 357 357 357 357 357 357 358 358 357 357 359 360 360 358 358 358 358 358 358 359 357 354 355 358 357 356 357 356 356 357 356 357 357 355 354 357 358 357 357 357 357 358 356 355 357 355
352 351 353 355 353 352 350 347 347 348 348 350 350 352 355 357 357 357 358 358 358 358 357 359 359 357 357 359 361 360 358 357 358 359 359 358 358 357 354 354 356 356 358 358 357 358 358 357 357 357 356 355 357 359 358 357 355 356 359 357 355 357 355
354 349 353 356 353 352 349 347 347 347 348 350 350 352 355 357 357 357 358 359 359 359 358 359 360 358 357 359 361 361 358 356 358 359 359 358 357 358 357 357 356 357 358 358 357 358 358 358 357 357 358 357 358 360 359 357 355 353 357 359 357 356 356
357 350 352 356 353 353 350 346 347 347 348 350 350 352 354 357 358 358 359 359 360 360 359 359 359 358 358 359 360 360 359 359 359 358 358 358 358 357 357 357 358 358 358 357 356 356 357 359 359 358 359 359 359 360 359 358 357 355 356 360 359 357 358
359 352 351 354 353 353 351 346 347 347 348 349 350 353 354 355 358 359 359 360 360 360 359 359 359 357 358 360 359 359 360 360 359 358 358 358 358 358 357 358 358 357 356 356 356 356 358 359 359 359 360 360 359 360 359 359 359 357 357 359 359 358 359
360 354 350 351 351 352 349 346 348 348 348 350 350 353 354 355 358 359 359 360 359 360 360 359 358 358 358 360 359 358 359 360 360 358 358 358 357 356 357 358 357 356 356 356 355 356 357 357 358 358 359 359 359 360 360 359 359 359 358 359 359 358 359
362 360 356 350 347 350 348 345 347 348 349 350 350 352 354 354 357 357 358 360 359 360 360 359 358 358 358 358 358 358 358 358 359 358 358 357 355 355 355 356 356 356 356 356 356 356 356 356 358 359 359 359 359 360 360 359 358 359 359 359 359 357 357
364 366 368 360 347 345 348 345 345 349 351 351 350 351 352 352 356 357 357 359 359 359 360 358 357 357 358 357 357 357 357 357 357 357 357 356 356 355 355 355 356 356 356 356 357 357 356 356 357 358 359 358 358 358 358 357 357 358 358 359 359 358 357
366 369 375 374 359 345 345 346 345 348 350 351 350 350 350 351 354 356 357 358 358 358 358 357 356 356 357 356 355 355 356 355 356 357 356 356 356 355 355 355 355 355 355 355 355 356 357 356 356 357 357 357 357 357 356 356 357 357 358 359 360 360 359
369 371 373 376 371 358 349 345 345 348 350 351 350 350 351 351 352 354 355 356 356 356 356 355 355 354 354 355 354 354 354 355 356 356 355 356 357 355 354 356 356 355 355 355 355 356 356 356 356 356 357 356 357 357 356 356 357 358 359 359 359 360 360
367 372 371 370 374 373 362 351 348 348 350 351 350 351 352 352 352 354 354 354 354 354 354 354 354 353 353 354 354 353 353 354 354 354 354 355 355 355 355 355 356 356 355 355 355 355 356 355 355 356 356 356 356 357 356 356 357 358 359 359 358 358 359
363 369 368 365 372 376 370 363 356 349 350 353 351 352 353 352 353 353 353 354 353 352 353 353 353 353 352 353 353 352 353 353 353 353 353 353 353 353 355 354 354 355 355 355 355 354 355 355 355 355 356 355 356 356 357 358 358 359 359 359 358 358 358
361 364 364 363 369 374 370 367 363 354 352 355 354 354 354 353 354 354 351 352 352 351 352 352 351 353 353 352 352 352 352 352 352 352 352 351 351 350 351 353 352 353 353 354 355 354 354 354 355 355 355 356 356 356 358 359 359 359 359 359 359 359 359
362 363 364 363 369 375 370 365 363 356 354 357 358 356 355 354 357 358 356 355 355 352 352 351 350 352 353 352 352 351 352 352 351 351 350 350 350 348 348 349 350 350 351 352 354 354 353 353 354 354 355 357 358 357 357 358 358 359 359 360 359 359 359
360 361 362 362 365 370 371 366 361 354 354 358 358 356 354 354 357 359 358 358 359 358 358 355 354 354 353 352 353 352 351 352 351 351 350 350 351 348 347 348 348 349 351 351 351 351 351 351 352 352 353 355 357 358 357 356 356 357 358 359 360 359 358
357 357 358 358 357 358 361 362 358 354 355 356 354 354 355 355 356 357 356 357 358 359 360 356 354 357 357 353 354 354 352 351 351 350 351 352 352 349 348 348 348 349 352 352 351 349 349 350 349 350 350 351 353 355 356 356 355 354 355 356 356 356 356
354 354 355 356 354 351 353 354 351 351 354 354 352 353 354 355 356 356 356 357 356 358 360 357 354 358 360 357 356 357 355 353 352 352 353 355 355 354 354 353 352 352 352 353 353 351 349 349 349 350 350 350 351 352 353 353 353 352 351 351 351 351 353
351 351 352 354 353 352 352 351 348 349 351 352 352 354 354 354 354 355 356 356 356 357 358 357 355 358 361 360 358 359 360 358 357 356 356 357 357 357 358 360 361 360 356 354 354 354 351 350 350 351 351 350 349 348 348 348 350 350 350 350 349 350 352
351 352 352 352 352 351 350 349 348 349 351 353 354 355 355 355 354 355 355 354 354 355 355 356 356 357 359 359 358 359 360 360 360 359 359 358 356 356 357 359 360 360 360 358 357 356 355 353 352 352 352 352 350 348 347 346 348 349 349 349 349 350 351
351 351 349 350 351 349 349 348 347 349 351 352 354 354 354 355 357 357 356 354 354 355 355 356 356 355 354 355 357 359 360 360 361 361 360 360 358 357 357 358 354 354 359 361 358 357 357 356 355 355 355 354 352 350 349 349 348 349 349 349 349 350 351
348 347 346 346 346 346 345 345 345 347 348 349 351 351 350 351 354 357 356 354 353 354 353 353 352 352 351 351 355 359 359 358 359 359 359 359 358 357 357 357 354 354 358 360 358 358 358 358 357 358 357 356 354 352 350 350 349 350 350 350 350 350 351
344 344 344 343 343 343 343 343 343 344 345 346 347 348 348 349 350 352 351 349 348 349 349 349 350 351 352 351 352 355 355 356 355 355 355 355 355 356 356 356 355 356 357 357 356 357 358 357 357 358 357 357 356 354 352 350 350 350 351 351 351 351 351
342 343 343 342 342 343 341 341 341 340 341 341 341 342 344 344 345 346 345 345 346 346 346 346 347 349 351 350 350 351 352 351 351 351 352 353 354 356 356 355 354 354 354 355 355 355 355 356 356 355 355 355 354 353 352 351 350 349 350 351 351 352 352
342 341 341 341 341 340 339 339 338 337 338 337 337 338 340 341 342 342 341 341 342 341 341 343 345 346 348 347 348 349 349 348 348 348 348 349 350 352 352 351 351 352 353 353 353 353 352 352 352 351 352 351 350 351 349 348 348 348 348 350 350 351 351
341 341 341 340 340 339 338 337 336 335 335 335 335 336 336 338 339 337 336 337 337 337 338 339 341 343 344 345 346 347 347 346 346 346 346 346 346 346 346 345 345 348 350 349 349 349 348 347 347 347 347 347 347 347 346 345 345 344 344 346 346 347 348
337 339 340 339 337 337 336 335 334 333 333 334 334 334 334 334 334 333 333 333 334 334 335 336 337 338 339 341 343 344 344 344 343 344 344 344 344 344 344 342 342 343 345 345 346 347 346 345 344 344 343 343 342 341 339 339 338 336 335 338 339 341 345
332 333 334 333 332 332 332 332 332 332 332 333 332 331 331 331 330 330 331 332 332 332 334 335 336 335 335 336 337 338 339 340 340 341 341 341 342 343 343 343 343 344 345 346 345 345 343 342 341 339 337 335 333 332 330 331 331 330 330 332 334 336 339
330 329 329 329 329 329 330 331 332 332 332 333 332 331 331 329 328 328 328 329 329 330 331 332 332 332 331 332 333 334 334 334 335 338 338 337 338 339 340 341 342 343 344 344 343 343 341 340 338 336 335 333 331 328 327 328 329 329 328 329 330 331 333
329 327 326 327 328 329 329 330 331 331 330 329 329 330 331 332 331 330 328 328 327 327 328 328 328 328 329 329 329 329 329 328 327 330 334 335 336 336 337 338 338 338 339 340 341 341 340 339 338 338 337 337 334 328 327 330 332 331 331 331 331 331 330
328 326 325 326 328 328 328 328 330 330 330 329 329 330 331 330 329 330 331 330 327 326 327 326 327 328 330 330 328 327 327 327 325 323 324 326 329 330 329 330 333 335 336 337 337 338 336 335 337 339 339 339 336 330 329 332 333 333 333 333 332 331 329
326 323 323 325 328 328 327 326 327 328 329 329 328 329 329 326 324 326 329 328 327 327 327 325 324 327 328 329 330 330 331 333 331 327 322 324 327 329 328 329 332 334 334 333 332 333 333 331 332 335 338 339 338 333 332 333 333 332 332 333 332 331 329
325 323 325 327 328 328 327 327 327 327 326 326 325 325 325 324 323 325 327 326 327 329 329 325 323 326 327 326 327 330 330 332 334 332 330 330 332 333 333 334 333 332 333 331 329 330 331 330 330 332 334 337 337 335 333 332 330 328 328 329 328 328 327
327 328 329 328 328 328 328 329 329 327 327 326 325 325 325 326 326 326 326 325 326 327 327 326 324 325 326 325 326 328 328 328 330 331 330 330 332 332 332 332 331 330 330 329 328 329 329 329 329 330 331 332 332 330 328 325 323 322 321 320 320 320 320
331 332 330 328 328 329 329 329 328 327 327 326 326 326 327 328 328 327 326 327 326 325 325 326 326 325 326 326 325 325 327 327 327 329 329 329 329 329 327 327 327 327 327 325 325 326 326 327 327 328 329 329 327 325 323 322 320 319 317 317 316 316 316
331 331 330 329 328 328 327 327 327 327 327 327 327 326 327 328 328 328 328 327 326 325 325 327 328 327 327 326 325 326 328 328 328 328 328 327 327 326 325 323 323 324 324 323 322 322 322 323 324 324 325 326 325 323 322 320 319 318 317 317 317 317 316
331 330 330 329 328 328 327 327 327 327 327 327 327 327 327 328 329 328 328 328 326 325 327 328 328 328 328 327 327 328 329 328 329 329 327 326 326 326 325 324 324 323 323 322 322 321 320 319 319 320 322 323 323 322 321 320 319 318 318 318 318 317 317
331 330 330 329 328 327 327 326 327 327 327 327 327 327 328 329 329 329 329 329 328 327 328 328 327 327 328 327 327 328 328 327 328 329 328 327 327 326 325 324 324 323 322 322 322 322 320 318 316 316 317 318 319 318 318 318 318 317 317 317 317 317 317

ECMWFFLT1_925_thetae_132.txt.gz
Theta_e
352 352 352 350 348 348 348 347 348 348 350 353 353 354 355 356 357 357 357 357 358 358 357 358 358 357 356 355 354 353 354 354 353 354 353 352 352 353 354 354 353 355 355 355 356 356 357 356 355 355 355 354 356 356 354 354 354 354 355 354 352 353 353
355 351 352 351 350 350 348 347 348 347 349 353 354 354 356 355 356 356 356 357 358 358 357 357 358 357 356 356 355 354 354 354 353 354 354 353 353 354 354 354 353 354 355 355 355 355 357 357 355 356 356 355 356 357 355 355 355 354 355 355 353 354 354
359 354 352 352 351 351 349 348 348 347 350 353 353 355 356 355 356 356 356 357 357 358 357 357 357 356 355 356 355 354 355 355 354 354 354 353 354 354 354 355 354 355 355 355 354 355 356 356 355 356 357 355 355 357 356 355 356 356 355 355 354 355 355
359 355 352 352 352 350 348 348 348 347 350 352 353 355 355 355 355 355 355 356 357 357 357 357 357 355 355 357 356 356 356 356 355 355 354 354 355 355 356 356 355 356 356 355 354 355 355 355 356 356 357 356 354 356 357 357 356 356 355 356 355 355 354
356 356 353 351 351 350 348 348 348 347 349 352 354 355 355 356 356 354 355 355 355 356 355 355 356 356 356 357 358 358 358 357 357 356 356 357 356 356 357 355 354 355 356 356 356 356 356 357 357 357 357 356 354 355 357 358 357 354 354 356 357 356 355
355 358 353 349 349 349 348 348 348 347 348 351 354 355 356 356 356 355 355 355 355 355 355 355 356 357 357 357 358 360 359 358 358 357 357 358 357 356 356 354 353 354 355 356 358 357 357 358 358 357 357 357 356 356 357 358 357 354 354 356 358 358 357
355 358 353 348 349 348 347 347 347 347 348 350 353 355 356 356 356 356 356 355 355 355 356 356 356 357 357 356 357 360 360 358 357 358 358 358 357 356 356 356 355 355 356 357 358 357 357 357 357 357 358 358 358 358 358 359 358 356 356 356 356 357 357
357 361 354 347 347 347 346 346 346 347 348 350 353 355 356 356 356 356 357 357 356 356 356 356 356 357 357 356 357 359 360 358 356 357 358 358 358 357 357 356 356 357 357 357 357 356 356 356 358 358 358 358 358 358 359 359 358 358 358 357 357 357 356
361 364 359 351 347 346 346 346 346 347 348 349 353 355 355 356 357 357 357 358 357 357 357 356 356 357 357 358 358 359 359 358 358 358 358 358 358 358 357 356 356 357 357 356 356 356 355 356 357 357 357 358 358 358 359 359 359 358 358 358 358 358 357
362 364 362 359 354 348 345 346 345 346 349 350 352 354 355 356 357 357 358 358 358 358 358 357 357 357 357 357 359 360 358 358 359 359 359 359 358 357 356 355 356 357 356 356 356 356 355 356 356 356 357 358 358 357 357 358 359 358 358 358 358 358 358
362 364 361 362 363 354 346 345 347 346 348 350 351 353 354 356 358 357 357 359 358 358 359 358 358 358 357 356 357 359 359 358 359 359 359 359 357 356 355 354 355 356 356 356 356 356 356 356 355 355 356 358 357 357 357 357 358 357 357 357 357 358 359
358 361 361 365 367 361 351 346 346 347 348 349 351 353 353 355 357 357 358 358 358 358 358 359 358 358 358 357 357 358 358 357 357 357 358 358 357 356 355 354 354 354 355 355 355 356 356 356 356 356 356 356 357 357 356 357 357 356 356 357 357 358 358
354 357 362 365 366 365 360 351 346 347 349 348 350 352 352 354 356 356 357 358 358 358 358 359 359 358 358 358 357 356 356 357 356 355 356 356 356 356 355 354 354 354 355 355 354 355 355 355 356 356 356 356 356 356 356 356 356 356 356 357 357 358 358
356 360 362 364 365 365 364 357 350 348 348 349 349 351 352 353 355 355 356 357 358 358 358 358 359 357 357 357 356 355 355 356 356 355 355 355 354 355 355 354 354 355 355 355 355 354 354 355 355 356 355 355 356 356 355 356 356 356 356 357 358 358 358
359 360 361 363 364 363 363 362 355 348 348 349 349 350 352 353 354 355 355 356 356 357 358 358 358 357 356 356 356 355 354 355 355 354 355 355 353 354 355 354 354 355 355 355 355 355 355 354 354 355 355 355 355 356 356 356 356 357 357 358 358 358 358
360 360 360 361 363 363 363 362 355 349 351 352 350 352 353 353 354 354 354 355 355 356 357 356 356 355 354 355 354 353 353 353 353 353 354 354 353 353 353 353 354 354 355 355 354 355 355 354 354 355 355 355 355 356 356 356 357 358 359 358 358 359 359
358 358 356 354 356 358 359 358 354 350 352 351 350 353 355 354 355 354 354 355 354 354 355 355 355 354 353 354 353 353 353 353 352 352 352 352 352 352 351 351 350 352 354 354 354 355 355 354 354 353 353 354 354 356 356 357 357 357 358 358 359 359 359
353 352 352 352 352 352 353 356 354 351 352 350 350 352 354 355 356 354 354 355 354 353 354 353 353 353 353 353 352 352 353 352 352 352 352 352 352 351 351 350 349 349 351 352 353 354 354 354 353 353 353 353 354 355 357 357 357 357 356 357 356 357 358
349 349 351 351 351 351 351 352 351 350 351 352 351 351 352 354 353 351 350 352 353 354 354 353 354 355 355 354 354 354 353 352 352 351 351 352 352 352 352 352 351 349 349 352 352 354 354 353 353 352 353 353 352 353 355 356 357 357 355 355 354 353 355
349 350 349 349 351 351 349 348 348 349 351 352 352 351 351 352 352 350 348 348 350 352 353 352 351 355 358 357 356 357 356 355 354 353 353 353 353 354 353 354 354 351 351 352 353 353 352 352 351 351 351 351 349 349 352 353 354 354 354 354 353 351 351
348 348 348 348 349 348 346 346 347 348 349 349 350 350 349 349 350 350 349 349 350 351 353 353 352 354 358 357 358 358 358 357 356 353 351 351 354 356 356 355 356 354 353 354 354 353 352 351 351 350 349 349 349 349 350 350 350 349 349 350 349 350 349
346 345 345 345 345 345 344 344 344 345 347 348 348 348 347 347 349 351 351 350 350 351 354 355 353 353 355 357 358 357 357 357 356 353 352 352 353 355 355 356 357 356 356 357 356 355 354 353 353 352 350 349 349 348 348 347 347 346 347 347 348 349 349
343 343 343 343 342 343 342 342 342 343 345 346 347 348 348 347 348 351 352 352 351 352 353 352 352 353 353 354 354 353 354 355 354 351 351 352 353 354 354 354 356 356 356 357 358 357 356 356 356 355 354 351 350 350 349 348 348 348 348 349 349 349 350
342 342 343 342 342 341 340 341 343 343 344 345 344 346 347 347 348 348 348 349 349 349 350 350 351 351 351 352 351 351 352 353 352 349 348 349 351 352 352 354 354 355 355 356 357 357 356 356 356 356 355 354 351 351 350 349 349 349 348 349 349 350 351
342 342 341 340 340 339 338 339 341 342 342 342 340 341 343 345 347 346 344 344 346 346 347 347 348 348 349 350 350 350 351 351 350 348 346 346 347 348 350 353 353 353 354 354 355 355 354 354 355 354 353 352 351 350 349 349 348 348 349 350 350 350 351
340 340 340 339 337 337 336 336 337 337 337 337 338 339 341 343 344 342 340 342 343 343 344 344 345 346 347 347 348 348 348 348 348 347 346 346 346 347 349 351 349 349 350 352 352 353 353 352 352 351 349 348 347 346 346 346 347 346 347 348 349 350 351
337 336 336 336 335 334 334 333 334 334 334 335 337 339 341 342 341 338 338 339 340 339 340 341 342 344 344 345 345 345 345 345 345 345 345 345 345 346 346 346 345 344 346 348 348 349 349 348 348 347 345 342 341 338 336 337 339 340 341 343 345 348 349
331 331 332 333 332 333 333 333 333 332 332 332 334 335 337 337 336 335 335 336 336 336 338 339 340 340 339 340 342 343 343 344 343 344 344 344 344 344 344 344 343 343 345 346 346 346 345 344 343 341 337 334 334 333 331 332 333 334 336 337 340 343 345
328 328 330 331 331 332 332 331 331 331 331 331 330 331 333 333 332 332 333 333 333 333 335 337 337 336 336 337 338 339 340 341 342 343 343 344 344 344 344 344 344 344 345 345 344 343 342 339 336 333 330 330 331 331 329 329 330 331 332 333 335 338 340
327 328 329 330 331 331 332 331 331 331 332 331 329 329 330 330 330 330 330 330 330 330 331 331 330 329 330 331 334 336 337 338 339 340 340 341 342 342 341 341 342 343 345 344 342 341 339 334 331 330 330 331 331 330 329 330 330 330 330 330 331 333 334
326 327 329 329 330 330 330 329 329 330 331 332 330 329 328 328 327 327 328 328 328 329 331 330 328 327 327 327 328 329 331 333 333 334 335 336 336 337 337 337 338 339 341 342 340 339 339 336 334 333 332 331 330 330 330 330 330 330 330 329 329 330 330
325 327 328 328 329 329 328 328 329 330 331 331 329 328 329 329 328 328 328 328 327 328 330 330 329 329 330 330 329 329 328 325 323 324 328 330 330 330 330 333 336 336 336 336 335 334 336 337 337 336 334 331 330 330 331 331 330 329 329 328 328 328 327
323 326 328 328 327 326 326 328 329 329 329 328 326 326 326 327 328 326 327 328 326 325 326 327 328 328 329 329 330 331 331 328 324 324 328 332 333 331 329 331 333 332 332 332 331 331 333 335 338 338 335 331 329 329 329 330 330 328 326 326 325 324 324
322 324 327 327 326 324 324 325 326 326 326 325 324 324 324 325 326 326 326 328 327 324 322 323 325 326 327 328 327 328 331 332 330 330 331 333 334 332 330 330 330 329 328 329 330 330 331 333 337 338 335 331 329 327 324 324 323 322 321 320 319 318 318
326 326 327 328 327 326 325 325 325 326 326 325 325 325 325 325 326 325 325 326 326 325 324 325 325 324 325 327 327 327 329 331 331 331 332 332 331 330 328 327 327 326 326 326 326 327 329 331 335 336 334 331 329 326 322 320 319 319 318 318 317 317 317
329 328 328 328 328 327 327 327 326 326 326 326 326 327 327 327 326 326 326 325 324 325 326 327 326 325 325 326 327 327 329 329 329 330 330 330 330 328 325 323 322 323 323 322 321 322 324 327 329 331 331 330 327 324 322 321 320 318 318 318 317 317 317
329 328 328 328 327 327 326 327 327 327 326 326 327 329 328 328 327 327 327 326 325 325 327 327 326 326 327 328 328 327 328 328 328 328 328 327 327 326 324 322 321 321 321 320 319 318 320 321 323 324 325 325 324 322 321 319 318 317 316 317 316 316 317
329 328 327 327 327 326 326 326 326 327 326 326 327 328 328 328 328 328 328 328 326 326 328 328 327 327 328 328 328 328 328 327 327 327 327 326 326 325 324 323 321 320 319 319 318 317 317 317 318 318 318 318 319 318 317 316 316 316 316 316 316 316 317

ECMWFFLT1_925_thetae_135.txt.gz
Theta_e
347 347 348 347 347 349 349 349 350 350 351 352 351 352 353 354 355 354 354 354 354 354 353 353 354 354 355 355 354 353 352 351 350 350 351 351 351 351 351 351 352 353 353 353 354 355 355 356 356 355 355 354 353 353 355 354 354 354 354 354 353 352 352
351 347 347 348 348 349 350 348 350 350 351 352 352 353 354 354 355 355 355 355 354 354 354 354 355 355 355 355 354 354 353 354 353 352 352 352 352 351 351 351 352 353 353 353 353 354 355 355 356 356 355 354 353 353 355 355 354 354 353 354 354 353 352
357 351 347 348 348 349 349 348 349 350 351 352 352 353 354 354 355 355 355 355 355 355 355 355 356 356 355 356 355 354 354 355 354 354 353 352 353 352 351 351 352 353 353 353 354 354 354 354 355 356 355 354 354 354 356 355 354 354 354 354 354 354 354
357 354 349 348 348 348 348 348 349 349 351 352 352 353 353 354 355 355 355 355 355 355 355 356 356 357 356 356 356 354 354 354 354 354 353 353 353 352 352 352 353 353 353 353 353 354 354 354 355 356 355 355 355 355 356 356 355 355 355 355 355 354 355
354 356 353 350 349 348 347 347 348 348 350 352 352 353 353 354 355 355 355 355 355 355 355 356 356 357 357 357 356 355 354 354 353 354 354 353 353 353 352 353 353 354 353 353 353 354 354 354 355 355 355 355 355 355 355 356 356 356 356 356 355 354 354
352 356 355 350 349 348 347 347 347 348 349 351 352 353 353 354 354 355 355 355 355 355 355 356 356 357 357 357 356 355 355 354 353 354 354 354 353 353 353 353 353 354 353 354 354 355 354 354 354 355 355 355 356 355 355 354 355 356 356 356 354 354 355
350 356 355 350 348 348 347 347 346 347 349 351 352 353 353 354 354 355 355 355 355 355 355 356 356 357 357 357 355 354 354 354 353 355 355 355 354 354 354 354 354 355 355 354 355 355 355 355 355 355 356 356 356 356 355 354 354 355 357 356 354 354 355
350 354 354 348 348 348 347 347 346 347 349 350 352 353 353 354 354 354 355 355 355 355 355 356 356 356 356 355 355 354 354 355 355 356 357 356 356 355 356 356 355 355 354 353 354 355 356 356 356 356 357 357 356 356 356 356 355 356 357 356 355 355 355
352 355 355 350 346 346 346 347 347 346 348 350 351 353 353 354 354 354 354 354 354 354 354 355 354 354 355 354 354 354 355 356 357 357 357 358 357 357 357 356 355 355 355 353 354 355 356 357 357 357 357 357 357 356 357 357 357 357 358 357 356 357 357
357 358 361 358 352 347 345 347 347 346 347 350 351 353 353 354 354 354 354 354 354 354 354 354 354 354 353 353 353 354 355 357 358 358 358 358 357 357 357 357 356 356 356 355 355 356 356 357 356 356 356 356 357 357 357 358 357 358 358 358 357 357 357
359 361 365 366 363 355 347 346 346 345 347 349 351 353 353 354 354 354 354 354 354 354 353 353 354 354 353 353 353 354 355 355 357 359 358 357 357 357 357 357 357 357 356 355 356 356 356 356 356 355 355 356 357 357 357 357 358 357 358 358 357 357 356
359 364 367 369 371 363 352 348 347 345 346 348 351 353 353 354 355 354 355 355 354 355 354 354 353 353 354 354 355 355 354 355 357 359 358 357 356 357 357 357 357 357 356 355 356 356 355 355 355 355 355 356 356 356 357 357 357 356 356 357 357 357 357
358 364 367 368 369 365 357 355 350 345 346 348 350 353 353 353 354 355 355 355 355 355 355 355 354 354 354 354 355 355 355 355 356 358 358 357 357 357 357 357 357 356 355 354 355 355 355 355 356 355 355 355 355 355 356 356 356 356 356 356 356 356 356
356 361 364 366 368 364 359 360 356 347 345 348 349 351 353 353 354 355 355 356 356 356 356 356 355 355 354 354 355 355 355 355 356 357 357 357 357 358 358 358 357 356 355 354 354 355 355 355 355 356 355 355 355 355 355 356 356 356 356 356 356 356 356
356 357 358 358 361 361 358 359 357 348 346 348 349 350 352 353 355 355 355 356 356 356 357 356 356 356 355 355 355 355 354 354 355 356 356 357 356 356 357 357 357 356 355 354 353 354 354 354 355 355 355 355 355 355 355 355 355 356 356 355 355 355 356
355 356 355 354 355 357 356 356 353 347 347 348 349 349 350 352 354 355 355 356 356 357 357 357 357 357 356 356 355 355 354 354 354 355 355 357 356 355 355 355 355 355 354 354 354 354 354 355 355 354 354 354 355 355 355 355 355 356 355 355 355 356 356
354 355 357 357 355 356 357 355 351 347 349 350 349 350 350 350 352 352 354 355 356 356 357 356 357 357 356 357 356 356 356 355 355 355 354 355 356 354 354 354 354 354 354 354 353 354 355 355 355 355 354 354 354 355 355 355 355 355 356 355 356 356 357
353 353 355 355 354 354 355 356 352 348 348 349 349 350 350 350 351 351 352 354 355 356 356 355 356 356 356 356 356 356 356 356 356 354 354 355 355 354 354 354 354 353 353 353 353 354 354 354 355 355 355 355 354 354 355 355 355 355 356 356 356 356 358
353 351 350 351 352 353 354 353 350 348 348 348 348 349 349 350 351 351 351 352 353 354 355 355 355 355 355 355 356 356 356 355 355 354 353 353 354 354 353 353 353 353 352 352 352 352 353 354 355 355 354 354 354 354 354 354 355 355 355 356 356 356 357
350 350 349 349 350 351 350 349 349 349 348 348 349 349 349 350 351 351 351 351 351 352 354 354 355 354 352 351 352 353 354 354 354 353 353 353 352 353 353 352 352 352 351 351 350 349 350 352 353 354 354 354 353 353 354 354 354 355 355 356 356 356 357
349 348 348 348 348 348 347 347 349 349 348 349 349 348 349 350 351 351 351 350 349 348 348 350 351 352 351 349 349 350 351 352 353 352 352 352 353 353 353 353 353 352 351 351 350 349 349 349 351 352 353 353 353 353 353 353 354 354 354 354 356 356 356
346 346 346 347 346 346 345 346 347 348 347 348 349 349 349 350 350 349 349 349 348 348 348 347 349 352 352 351 350 351 351 352 352 352 352 352 353 353 353 354 354 353 352 352 351 351 351 351 351 352 352 353 353 352 352 353 352 352 352 352 354 354 354
344 343 343 343 342 343 342 343 345 346 347 347 348 349 349 349 348 348 348 348 347 348 349 347 347 349 351 351 351 352 353 353 353 352 352 351 351 352 354 355 355 355 354 354 353 353 354 353 352 351 351 351 351 351 350 350 350 350 350 350 351 351 350
342 341 340 340 340 340 339 340 341 343 345 346 346 348 348 348 348 347 347 347 346 346 347 347 346 348 350 350 350 352 353 353 352 351 350 350 351 352 352 353 354 355 355 355 355 355 355 354 351 350 350 349 348 348 347 347 347 348 348 348 348 348 348
340 340 339 338 338 337 337 338 339 340 343 344 344 345 346 346 347 346 346 346 346 346 347 347 347 347 348 348 349 351 352 352 351 347 346 349 350 350 349 350 351 353 354 354 354 355 354 353 351 350 349 347 346 346 346 346 346 347 347 347 348 348 348
337 337 336 335 335 335 335 336 336 337 338 339 340 342 343 343 344 344 343 344 345 345 345 345 345 346 347 348 349 349 351 351 350 347 347 348 347 346 347 349 350 351 352 352 352 352 350 349 348 348 349 350 350 349 348 347 347 347 348 348 349 349 349
334 334 333 333 333 333 333 333 334 334 334 335 338 339 341 342 341 340 340 341 341 340 341 342 344 345 345 347 348 348 349 349 348 347 348 347 346 346 349 349 349 349 349 349 349 347 345 345 346 347 348 348 348 348 346 345 346 347 347 347 347 348 349
331 332 332 332 332 331 331 331 332 333 333 335 337 338 340 341 339 337 338 337 337 338 340 341 343 344 345 345 345 345 346 346 345 346 346 346 345 346 347 347 346 346 345 345 344 344 343 342 342 342 340 339 339 339 338 338 339 339 340 341 342 344 345
330 330 331 331 331 330 331 331 331 331 331 333 335 336 338 338 336 335 334 334 334 337 340 340 341 342 343 343 342 343 344 344 344 343 343 344 344 344 344 344 344 343 342 342 343 342 341 338 337 336 335 333 332 332 332 332 332 333 334 334 336 337 340
329 330 330 330 330 330 331 331 331 330 329 331 332 333 334 335 332 332 332 331 331 333 336 338 339 340 340 339 339 341 341 342 343 343 343 342 342 342 343 343 344 343 343 343 342 338 335 333 332 333 332 330 328 329 329 329 329 330 330 329 328 328 328
329 329 330 329 330 331 331 331 330 330 329 329 330 329 330 330 329 329 330 330 329 330 331 332 334 335 335 336 337 337 337 336 337 337 337 338 338 339 340 342 343 343 342 341 338 333 331 331 332 332 331 329 329 329 327 325 325 328 329 327 326 325 321
328 328 328 329 329 329 330 330 330 329 329 329 329 328 328 328 328 328 328 328 330 330 329 329 329 330 331 332 332 330 328 329 330 330 331 332 333 336 338 339 341 342 340 339 336 332 330 331 332 331 329 329 329 328 326 325 326 327 327 325 325 324 319
327 327 328 328 327 326 327 328 328 327 326 327 328 328 327 327 328 327 326 326 327 328 329 329 329 330 330 330 329 325 322 325 329 330 330 330 330 332 334 336 338 338 337 337 336 334 332 332 331 331 330 329 328 327 327 327 325 323 322 322 322 320 317
325 327 327 327 326 324 324 325 325 325 325 324 325 326 325 325 326 327 326 325 324 324 325 326 327 328 329 329 330 329 328 327 328 327 328 329 330 330 332 333 333 333 332 333 334 335 336 335 332 330 330 329 328 327 326 325 322 320 318 318 319 318 317
323 326 326 325 324 324 324 325 325 324 325 324 324 325 325 324 325 325 326 325 325 324 325 325 325 326 327 327 328 331 332 331 330 329 329 330 331 330 329 330 330 330 330 330 330 333 336 337 334 331 330 330 329 327 324 321 319 318 318 317 318 318 318
323 326 327 325 324 325 325 326 325 325 325 326 326 326 326 325 325 326 325 325 325 326 326 325 325 325 326 325 326 329 331 331 330 330 330 330 328 327 325 325 325 326 326 327 329 330 333 336 337 335 331 330 329 326 322 319 318 318 318 318 317 318 317
326 327 327 326 326 326 326 326 326 326 327 327 328 327 327 327 327 326 325 324 325 326 327 326 326 326 326 326 327 328 329 329 329 329 329 328 326 325 323 321 321 321 322 323 324 326 328 332 334 334 332 330 329 325 321 318 318 317 317 317 316 316 316
327 327 327 327 326 326 326 326 326 327 327 328 328 328 327 327 328 327 325 324 325 327 327 327 326 327 328 327 327 327 328 329 329 328 327 325 324 323 323 322 320 319 319 319 319 321 323 325 327 327 326 325 324 321 318 317 317 316 316 316 315 315 315